<?xml version="1.0" encoding="UTF-8" standalone="no" ?>
<gpx xmlns="http://www.topografix.com/GPX/1/1" xmlns:xsi="http://www.w3.org/2001/XMLSchema-instance" xsi:schemaLocation="http://www.topografix.com/GPX/1/1 http://www.topografix.com/GPX/1/1/gpx.xsd" version="1.1" creator="VisuGPX - https://www.visugpx.com">
  <metadata>
    <name>Sal_Sou-Marcillac 36km  -1500</name>
    <desc><![CDATA[1 ere section du trail des ruthenes
]]></desc>
  </metadata>
  <trk>
    <name><![CDATA[2014-01-18T08:58:45Z]]></name>
    <trkseg>
      <trkpt lat="44.43694" lon="2.51652">
        <ele>460.1281738</ele>
        <time>2014-01-18T08:58:45Z</time>
      </trkpt>
      <trkpt lat="44.43694" lon="2.51651">
        <ele>460.1281738</ele>
        <time>2014-01-18T08:58:46Z</time>
      </trkpt>
      <trkpt lat="44.43695" lon="2.5165">
        <ele>460.1281738</ele>
        <time>2014-01-18T08:58:47Z</time>
      </trkpt>
      <trkpt lat="44.43703" lon="2.51632">
        <ele>461.0894775</ele>
        <time>2014-01-18T08:58:53Z</time>
      </trkpt>
      <trkpt lat="44.43704" lon="2.51614">
        <ele>456.7635498</ele>
        <time>2014-01-18T08:58:58Z</time>
      </trkpt>
      <trkpt lat="44.43693" lon="2.51592">
        <ele>458.6861572</ele>
        <time>2014-01-18T08:59:04Z</time>
      </trkpt>
      <trkpt lat="44.43683" lon="2.51574">
        <ele>459.1668701</ele>
        <time>2014-01-18T08:59:09Z</time>
      </trkpt>
      <trkpt lat="44.4368" lon="2.51563">
        <ele>458.6861572</ele>
        <time>2014-01-18T08:59:12Z</time>
      </trkpt>
      <trkpt lat="44.43684" lon="2.51547">
        <ele>461.0894775</ele>
        <time>2014-01-18T08:59:17Z</time>
      </trkpt>
      <trkpt lat="44.43686" lon="2.51544">
        <ele>461.5701904</ele>
        <time>2014-01-18T08:59:18Z</time>
      </trkpt>
      <trkpt lat="44.43696" lon="2.5154">
        <ele>464.4541016</ele>
        <time>2014-01-18T08:59:22Z</time>
      </trkpt>
      <trkpt lat="44.43711" lon="2.51527">
        <ele>462.0507813</ele>
        <time>2014-01-18T08:59:27Z</time>
      </trkpt>
      <trkpt lat="44.43724" lon="2.51516">
        <ele>464.9348145</ele>
        <time>2014-01-18T08:59:32Z</time>
      </trkpt>
      <trkpt lat="44.4374" lon="2.51508">
        <ele>463.9733887</ele>
        <time>2014-01-18T08:59:37Z</time>
      </trkpt>
      <trkpt lat="44.43753" lon="2.51505">
        <ele>462.5313721</ele>
        <time>2014-01-18T08:59:42Z</time>
      </trkpt>
      <trkpt lat="44.43763" lon="2.51499">
        <ele>457.7249756</ele>
        <time>2014-01-18T08:59:47Z</time>
      </trkpt>
      <trkpt lat="44.43774" lon="2.51488">
        <ele>455.3215332</ele>
        <time>2014-01-18T08:59:52Z</time>
      </trkpt>
      <trkpt lat="44.43778" lon="2.51484">
        <ele>453.8796387</ele>
        <time>2014-01-18T08:59:54Z</time>
      </trkpt>
      <trkpt lat="44.43787" lon="2.51471">
        <ele>457.7249756</ele>
        <time>2014-01-18T08:59:59Z</time>
      </trkpt>
      <trkpt lat="44.43796" lon="2.51463">
        <ele>456.7635498</ele>
        <time>2014-01-18T09:00:03Z</time>
      </trkpt>
      <trkpt lat="44.43809" lon="2.51452">
        <ele>455.8022461</ele>
        <time>2014-01-18T09:00:08Z</time>
      </trkpt>
      <trkpt lat="44.4382" lon="2.51437">
        <ele>454.3602295</ele>
        <time>2014-01-18T09:00:13Z</time>
      </trkpt>
      <trkpt lat="44.43829" lon="2.51421">
        <ele>452.4376221</ele>
        <time>2014-01-18T09:00:17Z</time>
      </trkpt>
      <trkpt lat="44.43836" lon="2.51407">
        <ele>450.0344238</ele>
        <time>2014-01-18T09:00:21Z</time>
      </trkpt>
      <trkpt lat="44.43842" lon="2.51391">
        <ele>446.6696777</ele>
        <time>2014-01-18T09:00:25Z</time>
      </trkpt>
      <trkpt lat="44.43845" lon="2.51376">
        <ele>445.2276611</ele>
        <time>2014-01-18T09:00:30Z</time>
      </trkpt>
      <trkpt lat="44.43849" lon="2.51359">
        <ele>446.6696777</ele>
        <time>2014-01-18T09:00:35Z</time>
      </trkpt>
      <trkpt lat="44.43855" lon="2.51335">
        <ele>445.708374</ele>
        <time>2014-01-18T09:00:42Z</time>
      </trkpt>
      <trkpt lat="44.4386" lon="2.51326">
        <ele>445.708374</ele>
        <time>2014-01-18T09:00:46Z</time>
      </trkpt>
      <trkpt lat="44.43864" lon="2.51318">
        <ele>446.1890869</ele>
        <time>2014-01-18T09:00:50Z</time>
      </trkpt>
      <trkpt lat="44.43869" lon="2.51308">
        <ele>446.6696777</ele>
        <time>2014-01-18T09:00:54Z</time>
      </trkpt>
      <trkpt lat="44.43873" lon="2.51293">
        <ele>450.0344238</ele>
        <time>2014-01-18T09:01:00Z</time>
      </trkpt>
      <trkpt lat="44.43873" lon="2.51287">
        <ele>451.9570313</ele>
        <time>2014-01-18T09:01:03Z</time>
      </trkpt>
      <trkpt lat="44.43875" lon="2.51274">
        <ele>460.6087646</ele>
        <time>2014-01-18T09:01:10Z</time>
      </trkpt>
      <trkpt lat="44.43876" lon="2.5128">
        <ele>468.2993164</ele>
        <time>2014-01-18T09:01:16Z</time>
      </trkpt>
      <trkpt lat="44.43875" lon="2.51282">
        <ele>469.2607422</ele>
        <time>2014-01-18T09:01:17Z</time>
      </trkpt>
      <trkpt lat="44.43874" lon="2.51292">
        <ele>473.1060791</ele>
        <time>2014-01-18T09:01:22Z</time>
      </trkpt>
      <trkpt lat="44.43878" lon="2.513">
        <ele>475.0286865</ele>
        <time>2014-01-18T09:01:27Z</time>
      </trkpt>
      <trkpt lat="44.43884" lon="2.51296">
        <ele>475.9898682</ele>
        <time>2014-01-18T09:01:31Z</time>
      </trkpt>
      <trkpt lat="44.43888" lon="2.51287">
        <ele>475.5092773</ele>
        <time>2014-01-18T09:01:36Z</time>
      </trkpt>
      <trkpt lat="44.4389" lon="2.51283">
        <ele>476.4705811</ele>
        <time>2014-01-18T09:01:38Z</time>
      </trkpt>
      <trkpt lat="44.43892" lon="2.51268">
        <ele>476.9512939</ele>
        <time>2014-01-18T09:01:43Z</time>
      </trkpt>
      <trkpt lat="44.43897" lon="2.51256">
        <ele>478.3931885</ele>
        <time>2014-01-18T09:01:48Z</time>
      </trkpt>
      <trkpt lat="44.43902" lon="2.51246">
        <ele>479.835083</ele>
        <time>2014-01-18T09:01:53Z</time>
      </trkpt>
      <trkpt lat="44.43907" lon="2.51253">
        <ele>482.7192383</ele>
        <time>2014-01-18T09:01:59Z</time>
      </trkpt>
      <trkpt lat="44.43906" lon="2.51266">
        <ele>483.6804199</ele>
        <time>2014-01-18T09:02:05Z</time>
      </trkpt>
      <trkpt lat="44.43905" lon="2.51277">
        <ele>486.0837402</ele>
        <time>2014-01-18T09:02:11Z</time>
      </trkpt>
      <trkpt lat="44.43905" lon="2.51292">
        <ele>487.5256348</ele>
        <time>2014-01-18T09:02:17Z</time>
      </trkpt>
      <trkpt lat="44.43904" lon="2.51307">
        <ele>491.3709717</ele>
        <time>2014-01-18T09:02:23Z</time>
      </trkpt>
      <trkpt lat="44.43907" lon="2.5132">
        <ele>496.6583252</ele>
        <time>2014-01-18T09:02:28Z</time>
      </trkpt>
      <trkpt lat="44.43915" lon="2.51318">
        <ele>497.138916</ele>
        <time>2014-01-18T09:02:34Z</time>
      </trkpt>
      <trkpt lat="44.43921" lon="2.51314">
        <ele>498.5809326</ele>
        <time>2014-01-18T09:02:39Z</time>
      </trkpt>
      <trkpt lat="44.43924" lon="2.51313">
        <ele>500.0229492</ele>
        <time>2014-01-18T09:02:41Z</time>
      </trkpt>
      <trkpt lat="44.43927" lon="2.51311">
        <ele>500.50354</ele>
        <time>2014-01-18T09:02:43Z</time>
      </trkpt>
      <trkpt lat="44.43931" lon="2.51318">
        <ele>500.9841309</ele>
        <time>2014-01-18T09:02:49Z</time>
      </trkpt>
      <trkpt lat="44.43929" lon="2.5133">
        <ele>502.9067383</ele>
        <time>2014-01-18T09:02:57Z</time>
      </trkpt>
      <trkpt lat="44.43925" lon="2.51338">
        <ele>504.348877</ele>
        <time>2014-01-18T09:03:02Z</time>
      </trkpt>
      <trkpt lat="44.43924" lon="2.51352">
        <ele>505.7908936</ele>
        <time>2014-01-18T09:03:09Z</time>
      </trkpt>
      <trkpt lat="44.4392" lon="2.51359">
        <ele>506.2714844</ele>
        <time>2014-01-18T09:03:13Z</time>
      </trkpt>
      <trkpt lat="44.43918" lon="2.51363">
        <ele>506.7520752</ele>
        <time>2014-01-18T09:03:15Z</time>
      </trkpt>
      <trkpt lat="44.43909" lon="2.51373">
        <ele>507.2327881</ele>
        <time>2014-01-18T09:03:23Z</time>
      </trkpt>
      <trkpt lat="44.439" lon="2.51377">
        <ele>510.1166992</ele>
        <time>2014-01-18T09:03:28Z</time>
      </trkpt>
      <trkpt lat="44.4389" lon="2.51385">
        <ele>511.5587158</ele>
        <time>2014-01-18T09:03:34Z</time>
      </trkpt>
      <trkpt lat="44.43887" lon="2.51388">
        <ele>512.0394287</ele>
        <time>2014-01-18T09:03:36Z</time>
      </trkpt>
      <trkpt lat="44.43879" lon="2.51401">
        <ele>511.5587158</ele>
        <time>2014-01-18T09:03:42Z</time>
      </trkpt>
      <trkpt lat="44.43876" lon="2.51416">
        <ele>515.4040527</ele>
        <time>2014-01-18T09:03:48Z</time>
      </trkpt>
      <trkpt lat="44.43877" lon="2.51437">
        <ele>518.7685547</ele>
        <time>2014-01-18T09:03:54Z</time>
      </trkpt>
      <trkpt lat="44.43878" lon="2.51457">
        <ele>520.2105713</ele>
        <time>2014-01-18T09:04:00Z</time>
      </trkpt>
      <trkpt lat="44.43881" lon="2.51482">
        <ele>521.6525879</ele>
        <time>2014-01-18T09:04:08Z</time>
      </trkpt>
      <trkpt lat="44.43881" lon="2.51487">
        <ele>521.6525879</ele>
        <time>2014-01-18T09:04:11Z</time>
      </trkpt>
      <trkpt lat="44.43881" lon="2.51489">
        <ele>521.6525879</ele>
        <time>2014-01-18T09:04:19Z</time>
      </trkpt>
      <trkpt lat="44.4388" lon="2.51489">
        <ele>522.6138916</ele>
        <time>2014-01-18T09:04:38Z</time>
      </trkpt>
      <trkpt lat="44.4388" lon="2.51492">
        <ele>522.6138916</ele>
        <time>2014-01-18T09:04:45Z</time>
      </trkpt>
      <trkpt lat="44.4388" lon="2.51494">
        <ele>522.6138916</ele>
        <time>2014-01-18T09:04:51Z</time>
      </trkpt>
      <trkpt lat="44.43881" lon="2.51505">
        <ele>522.1331787</ele>
        <time>2014-01-18T09:04:56Z</time>
      </trkpt>
      <trkpt lat="44.43883" lon="2.51519">
        <ele>523.0946045</ele>
        <time>2014-01-18T09:05:00Z</time>
      </trkpt>
      <trkpt lat="44.43886" lon="2.51545">
        <ele>525.4978027</ele>
        <time>2014-01-18T09:05:07Z</time>
      </trkpt>
      <trkpt lat="44.43889" lon="2.51564">
        <ele>525.9783936</ele>
        <time>2014-01-18T09:05:12Z</time>
      </trkpt>
      <trkpt lat="44.43891" lon="2.51582">
        <ele>526.9398193</ele>
        <time>2014-01-18T09:05:17Z</time>
      </trkpt>
      <trkpt lat="44.43898" lon="2.51602">
        <ele>526.4591064</ele>
        <time>2014-01-18T09:05:23Z</time>
      </trkpt>
      <trkpt lat="44.43906" lon="2.51619">
        <ele>526.4591064</ele>
        <time>2014-01-18T09:05:29Z</time>
      </trkpt>
      <trkpt lat="44.43915" lon="2.51635">
        <ele>525.9783936</ele>
        <time>2014-01-18T09:05:35Z</time>
      </trkpt>
      <trkpt lat="44.4392" lon="2.51649">
        <ele>525.9783936</ele>
        <time>2014-01-18T09:05:40Z</time>
      </trkpt>
      <trkpt lat="44.43922" lon="2.51668">
        <ele>527.4204102</ele>
        <time>2014-01-18T09:05:45Z</time>
      </trkpt>
      <trkpt lat="44.43922" lon="2.51686">
        <ele>528.8625488</ele>
        <time>2014-01-18T09:05:50Z</time>
      </trkpt>
      <trkpt lat="44.43919" lon="2.51708">
        <ele>531.2657471</ele>
        <time>2014-01-18T09:05:56Z</time>
      </trkpt>
      <trkpt lat="44.43919" lon="2.51726">
        <ele>531.7463379</ele>
        <time>2014-01-18T09:06:01Z</time>
      </trkpt>
      <trkpt lat="44.43923" lon="2.51748">
        <ele>530.7851563</ele>
        <time>2014-01-18T09:06:07Z</time>
      </trkpt>
      <trkpt lat="44.43926" lon="2.51767">
        <ele>530.7851563</ele>
        <time>2014-01-18T09:06:13Z</time>
      </trkpt>
      <trkpt lat="44.43927" lon="2.5179">
        <ele>529.8237305</ele>
        <time>2014-01-18T09:06:19Z</time>
      </trkpt>
      <trkpt lat="44.43925" lon="2.51807">
        <ele>529.3431396</ele>
        <time>2014-01-18T09:06:24Z</time>
      </trkpt>
      <trkpt lat="44.43916" lon="2.51824">
        <ele>529.8237305</ele>
        <time>2014-01-18T09:06:30Z</time>
      </trkpt>
      <trkpt lat="44.4391" lon="2.51836">
        <ele>529.8237305</ele>
        <time>2014-01-18T09:06:34Z</time>
      </trkpt>
      <trkpt lat="44.43901" lon="2.51851">
        <ele>530.7851563</ele>
        <time>2014-01-18T09:06:39Z</time>
      </trkpt>
      <trkpt lat="44.43892" lon="2.51865">
        <ele>531.7463379</ele>
        <time>2014-01-18T09:06:44Z</time>
      </trkpt>
      <trkpt lat="44.43881" lon="2.51878">
        <ele>531.2657471</ele>
        <time>2014-01-18T09:06:49Z</time>
      </trkpt>
      <trkpt lat="44.4387" lon="2.51887">
        <ele>530.7851563</ele>
        <time>2014-01-18T09:06:54Z</time>
      </trkpt>
      <trkpt lat="44.43858" lon="2.51891">
        <ele>530.3044434</ele>
        <time>2014-01-18T09:06:59Z</time>
      </trkpt>
      <trkpt lat="44.43846" lon="2.51895">
        <ele>529.3431396</ele>
        <time>2014-01-18T09:07:04Z</time>
      </trkpt>
      <trkpt lat="44.43835" lon="2.51902">
        <ele>528.3818359</ele>
        <time>2014-01-18T09:07:09Z</time>
      </trkpt>
      <trkpt lat="44.43825" lon="2.51911">
        <ele>528.8625488</ele>
        <time>2014-01-18T09:07:14Z</time>
      </trkpt>
      <trkpt lat="44.43814" lon="2.51929">
        <ele>530.7851563</ele>
        <time>2014-01-18T09:07:21Z</time>
      </trkpt>
      <trkpt lat="44.4381" lon="2.51934">
        <ele>530.7851563</ele>
        <time>2014-01-18T09:07:23Z</time>
      </trkpt>
      <trkpt lat="44.438" lon="2.5195">
        <ele>530.7851563</ele>
        <time>2014-01-18T09:07:29Z</time>
      </trkpt>
      <trkpt lat="44.43788" lon="2.5197">
        <ele>532.2270508</ele>
        <time>2014-01-18T09:07:36Z</time>
      </trkpt>
      <trkpt lat="44.4378" lon="2.51981">
        <ele>533.1883545</ele>
        <time>2014-01-18T09:07:41Z</time>
      </trkpt>
      <trkpt lat="44.43769" lon="2.51995">
        <ele>534.6303711</ele>
        <time>2014-01-18T09:07:47Z</time>
      </trkpt>
      <trkpt lat="44.43757" lon="2.52012">
        <ele>534.6303711</ele>
        <time>2014-01-18T09:07:54Z</time>
      </trkpt>
      <trkpt lat="44.43746" lon="2.52029">
        <ele>536.5531006</ele>
        <time>2014-01-18T09:08:00Z</time>
      </trkpt>
      <trkpt lat="44.43737" lon="2.52042">
        <ele>537.9949951</ele>
        <time>2014-01-18T09:08:05Z</time>
      </trkpt>
      <trkpt lat="44.43725" lon="2.52059">
        <ele>540.3983154</ele>
        <time>2014-01-18T09:08:12Z</time>
      </trkpt>
      <trkpt lat="44.43712" lon="2.5207">
        <ele>541.3594971</ele>
        <time>2014-01-18T09:08:18Z</time>
      </trkpt>
      <trkpt lat="44.437" lon="2.52081">
        <ele>542.3209229</ele>
        <time>2014-01-18T09:08:24Z</time>
      </trkpt>
      <trkpt lat="44.43692" lon="2.52088">
        <ele>543.2821045</ele>
        <time>2014-01-18T09:08:28Z</time>
      </trkpt>
      <trkpt lat="44.4368" lon="2.52099">
        <ele>544.7242432</ele>
        <time>2014-01-18T09:08:34Z</time>
      </trkpt>
      <trkpt lat="44.43667" lon="2.52111">
        <ele>545.6855469</ele>
        <time>2014-01-18T09:08:40Z</time>
      </trkpt>
      <trkpt lat="44.43655" lon="2.52122">
        <ele>545.6855469</ele>
        <time>2014-01-18T09:08:46Z</time>
      </trkpt>
      <trkpt lat="44.43645" lon="2.52131">
        <ele>545.6855469</ele>
        <time>2014-01-18T09:08:51Z</time>
      </trkpt>
      <trkpt lat="44.43632" lon="2.52145">
        <ele>545.204834</ele>
        <time>2014-01-18T09:08:57Z</time>
      </trkpt>
      <trkpt lat="44.43624" lon="2.5216">
        <ele>546.6468506</ele>
        <time>2014-01-18T09:09:02Z</time>
      </trkpt>
      <trkpt lat="44.43614" lon="2.52178">
        <ele>549.0500488</ele>
        <time>2014-01-18T09:09:08Z</time>
      </trkpt>
      <trkpt lat="44.43603" lon="2.52194">
        <ele>550.0114746</ele>
        <time>2014-01-18T09:09:14Z</time>
      </trkpt>
      <trkpt lat="44.43595" lon="2.52208">
        <ele>550.9726563</ele>
        <time>2014-01-18T09:09:19Z</time>
      </trkpt>
      <trkpt lat="44.43586" lon="2.52226">
        <ele>551.934082</ele>
        <time>2014-01-18T09:09:25Z</time>
      </trkpt>
      <trkpt lat="44.43578" lon="2.52245">
        <ele>552.8952637</ele>
        <time>2014-01-18T09:09:31Z</time>
      </trkpt>
      <trkpt lat="44.43567" lon="2.52264">
        <ele>553.8566895</ele>
        <time>2014-01-18T09:09:37Z</time>
      </trkpt>
      <trkpt lat="44.4356" lon="2.52282">
        <ele>553.8566895</ele>
        <time>2014-01-18T09:09:43Z</time>
      </trkpt>
      <trkpt lat="44.4355" lon="2.52298">
        <ele>554.3374023</ele>
        <time>2014-01-18T09:09:49Z</time>
      </trkpt>
      <trkpt lat="44.4354" lon="2.52316">
        <ele>555.7792969</ele>
        <time>2014-01-18T09:09:55Z</time>
      </trkpt>
      <trkpt lat="44.43534" lon="2.52335">
        <ele>557.2214355</ele>
        <time>2014-01-18T09:10:01Z</time>
      </trkpt>
      <trkpt lat="44.43528" lon="2.52354">
        <ele>558.6633301</ele>
        <time>2014-01-18T09:10:07Z</time>
      </trkpt>
      <trkpt lat="44.43521" lon="2.52374">
        <ele>560.1052246</ele>
        <time>2014-01-18T09:10:13Z</time>
      </trkpt>
      <trkpt lat="44.43517" lon="2.52394">
        <ele>562.0280762</ele>
        <time>2014-01-18T09:10:19Z</time>
      </trkpt>
      <trkpt lat="44.43511" lon="2.5241">
        <ele>563.4699707</ele>
        <time>2014-01-18T09:10:24Z</time>
      </trkpt>
      <trkpt lat="44.43502" lon="2.52433">
        <ele>563.9504395</ele>
        <time>2014-01-18T09:10:31Z</time>
      </trkpt>
      <trkpt lat="44.43499" lon="2.52445">
        <ele>564.4311523</ele>
        <time>2014-01-18T09:10:35Z</time>
      </trkpt>
      <trkpt lat="44.43497" lon="2.52463">
        <ele>564.9118652</ele>
        <time>2014-01-18T09:10:41Z</time>
      </trkpt>
      <trkpt lat="44.43497" lon="2.52481">
        <ele>565.873291</ele>
        <time>2014-01-18T09:10:46Z</time>
      </trkpt>
      <trkpt lat="44.43495" lon="2.52503">
        <ele>566.3537598</ele>
        <time>2014-01-18T09:10:52Z</time>
      </trkpt>
      <trkpt lat="44.43492" lon="2.52533">
        <ele>565.873291</ele>
        <time>2014-01-18T09:11:00Z</time>
      </trkpt>
      <trkpt lat="44.43488" lon="2.52554">
        <ele>565.3925781</ele>
        <time>2014-01-18T09:11:05Z</time>
      </trkpt>
      <trkpt lat="44.43484" lon="2.52569">
        <ele>564.9118652</ele>
        <time>2014-01-18T09:11:09Z</time>
      </trkpt>
      <trkpt lat="44.43475" lon="2.52572">
        <ele>563.4699707</ele>
        <time>2014-01-18T09:11:13Z</time>
      </trkpt>
      <trkpt lat="44.43471" lon="2.52569">
        <ele>562.9892578</ele>
        <time>2014-01-18T09:11:15Z</time>
      </trkpt>
      <trkpt lat="44.43454" lon="2.52565">
        <ele>562.5085449</ele>
        <time>2014-01-18T09:11:22Z</time>
      </trkpt>
      <trkpt lat="44.43441" lon="2.52567">
        <ele>562.0280762</ele>
        <time>2014-01-18T09:11:27Z</time>
      </trkpt>
      <trkpt lat="44.43439" lon="2.52568">
        <ele>561.5473633</ele>
        <time>2014-01-18T09:11:28Z</time>
      </trkpt>
      <trkpt lat="44.43437" lon="2.52577">
        <ele>561.5473633</ele>
        <time>2014-01-18T09:11:33Z</time>
      </trkpt>
      <trkpt lat="44.43435" lon="2.52594">
        <ele>561.0666504</ele>
        <time>2014-01-18T09:11:38Z</time>
      </trkpt>
      <trkpt lat="44.43432" lon="2.52617">
        <ele>559.6247559</ele>
        <time>2014-01-18T09:11:44Z</time>
      </trkpt>
      <trkpt lat="44.43424" lon="2.52628">
        <ele>557.7021484</ele>
        <time>2014-01-18T09:11:49Z</time>
      </trkpt>
      <trkpt lat="44.43415" lon="2.52633">
        <ele>555.7792969</ele>
        <time>2014-01-18T09:11:53Z</time>
      </trkpt>
      <trkpt lat="44.4341" lon="2.52634">
        <ele>554.8178711</ele>
        <time>2014-01-18T09:11:55Z</time>
      </trkpt>
      <trkpt lat="44.43402" lon="2.52642">
        <ele>552.8952637</ele>
        <time>2014-01-18T09:12:00Z</time>
      </trkpt>
      <trkpt lat="44.43398" lon="2.52641">
        <ele>552.4145508</ele>
        <time>2014-01-18T09:12:02Z</time>
      </trkpt>
      <trkpt lat="44.4339" lon="2.52632">
        <ele>551.4533691</ele>
        <time>2014-01-18T09:12:07Z</time>
      </trkpt>
      <trkpt lat="44.43381" lon="2.52624">
        <ele>551.934082</ele>
        <time>2014-01-18T09:12:11Z</time>
      </trkpt>
      <trkpt lat="44.43368" lon="2.5261">
        <ele>552.8952637</ele>
        <time>2014-01-18T09:12:18Z</time>
      </trkpt>
      <trkpt lat="44.43358" lon="2.526">
        <ele>554.3374023</ele>
        <time>2014-01-18T09:12:23Z</time>
      </trkpt>
      <trkpt lat="44.43346" lon="2.52588">
        <ele>555.7792969</ele>
        <time>2014-01-18T09:12:29Z</time>
      </trkpt>
      <trkpt lat="44.43336" lon="2.52578">
        <ele>557.7021484</ele>
        <time>2014-01-18T09:12:34Z</time>
      </trkpt>
      <trkpt lat="44.43327" lon="2.52567">
        <ele>558.6633301</ele>
        <time>2014-01-18T09:12:39Z</time>
      </trkpt>
      <trkpt lat="44.43314" lon="2.52557">
        <ele>558.6633301</ele>
        <time>2014-01-18T09:12:45Z</time>
      </trkpt>
      <trkpt lat="44.43301" lon="2.52544">
        <ele>558.1828613</ele>
        <time>2014-01-18T09:12:51Z</time>
      </trkpt>
      <trkpt lat="44.43289" lon="2.52535">
        <ele>558.1828613</ele>
        <time>2014-01-18T09:12:56Z</time>
      </trkpt>
      <trkpt lat="44.43273" lon="2.52528">
        <ele>558.6633301</ele>
        <time>2014-01-18T09:13:02Z</time>
      </trkpt>
      <trkpt lat="44.43259" lon="2.52522">
        <ele>557.7021484</ele>
        <time>2014-01-18T09:13:07Z</time>
      </trkpt>
      <trkpt lat="44.43246" lon="2.52515">
        <ele>557.2214355</ele>
        <time>2014-01-18T09:13:12Z</time>
      </trkpt>
      <trkpt lat="44.43231" lon="2.52505">
        <ele>556.2600098</ele>
        <time>2014-01-18T09:13:18Z</time>
      </trkpt>
      <trkpt lat="44.43219" lon="2.52491">
        <ele>555.7792969</ele>
        <time>2014-01-18T09:13:23Z</time>
      </trkpt>
      <trkpt lat="44.43206" lon="2.52476">
        <ele>556.7407227</ele>
        <time>2014-01-18T09:13:28Z</time>
      </trkpt>
      <trkpt lat="44.43193" lon="2.52461">
        <ele>556.2600098</ele>
        <time>2014-01-18T09:13:34Z</time>
      </trkpt>
      <trkpt lat="44.43181" lon="2.52444">
        <ele>555.7792969</ele>
        <time>2014-01-18T09:13:40Z</time>
      </trkpt>
      <trkpt lat="44.43171" lon="2.5243">
        <ele>555.298584</ele>
        <time>2014-01-18T09:13:45Z</time>
      </trkpt>
      <trkpt lat="44.43164" lon="2.52418">
        <ele>555.298584</ele>
        <time>2014-01-18T09:13:49Z</time>
      </trkpt>
      <trkpt lat="44.43152" lon="2.52398">
        <ele>557.2214355</ele>
        <time>2014-01-18T09:13:55Z</time>
      </trkpt>
      <trkpt lat="44.4314" lon="2.52378">
        <ele>557.2214355</ele>
        <time>2014-01-18T09:14:01Z</time>
      </trkpt>
      <trkpt lat="44.43131" lon="2.52363">
        <ele>557.2214355</ele>
        <time>2014-01-18T09:14:06Z</time>
      </trkpt>
      <trkpt lat="44.43123" lon="2.52351">
        <ele>556.7407227</ele>
        <time>2014-01-18T09:14:10Z</time>
      </trkpt>
      <trkpt lat="44.4311" lon="2.52328">
        <ele>555.7792969</ele>
        <time>2014-01-18T09:14:17Z</time>
      </trkpt>
      <trkpt lat="44.43102" lon="2.52312">
        <ele>553.8566895</ele>
        <time>2014-01-18T09:14:22Z</time>
      </trkpt>
      <trkpt lat="44.43096" lon="2.523">
        <ele>552.8952637</ele>
        <time>2014-01-18T09:14:27Z</time>
      </trkpt>
      <trkpt lat="44.43093" lon="2.52287">
        <ele>551.4533691</ele>
        <time>2014-01-18T09:14:32Z</time>
      </trkpt>
      <trkpt lat="44.43089" lon="2.52268">
        <ele>550.4921875</ele>
        <time>2014-01-18T09:14:38Z</time>
      </trkpt>
      <trkpt lat="44.43085" lon="2.52257">
        <ele>550.0114746</ele>
        <time>2014-01-18T09:14:42Z</time>
      </trkpt>
      <trkpt lat="44.4308" lon="2.52241">
        <ele>549.5307617</ele>
        <time>2014-01-18T09:14:47Z</time>
      </trkpt>
      <trkpt lat="44.43076" lon="2.52223">
        <ele>549.0500488</ele>
        <time>2014-01-18T09:14:52Z</time>
      </trkpt>
      <trkpt lat="44.43073" lon="2.52209">
        <ele>549.5307617</ele>
        <time>2014-01-18T09:14:56Z</time>
      </trkpt>
      <trkpt lat="44.43071" lon="2.52195">
        <ele>549.0500488</ele>
        <time>2014-01-18T09:15:01Z</time>
      </trkpt>
      <trkpt lat="44.43081" lon="2.52182">
        <ele>547.6081543</ele>
        <time>2014-01-18T09:15:07Z</time>
      </trkpt>
      <trkpt lat="44.43084" lon="2.52166">
        <ele>545.6855469</ele>
        <time>2014-01-18T09:15:12Z</time>
      </trkpt>
      <trkpt lat="44.43081" lon="2.52147">
        <ele>544.7242432</ele>
        <time>2014-01-18T09:15:17Z</time>
      </trkpt>
      <trkpt lat="44.4308" lon="2.52126">
        <ele>542.3209229</ele>
        <time>2014-01-18T09:15:22Z</time>
      </trkpt>
      <trkpt lat="44.43082" lon="2.52118">
        <ele>542.3209229</ele>
        <time>2014-01-18T09:15:24Z</time>
      </trkpt>
      <trkpt lat="44.43091" lon="2.521">
        <ele>541.3594971</ele>
        <time>2014-01-18T09:15:29Z</time>
      </trkpt>
      <trkpt lat="44.43095" lon="2.52079">
        <ele>537.9949951</ele>
        <time>2014-01-18T09:15:34Z</time>
      </trkpt>
      <trkpt lat="44.43098" lon="2.52064">
        <ele>535.5915527</ele>
        <time>2014-01-18T09:15:38Z</time>
      </trkpt>
      <trkpt lat="44.43098" lon="2.52044">
        <ele>532.7077637</ele>
        <time>2014-01-18T09:15:43Z</time>
      </trkpt>
      <trkpt lat="44.43099" lon="2.52028">
        <ele>531.7463379</ele>
        <time>2014-01-18T09:15:47Z</time>
      </trkpt>
      <trkpt lat="44.43095" lon="2.52014">
        <ele>531.2657471</ele>
        <time>2014-01-18T09:15:51Z</time>
      </trkpt>
      <trkpt lat="44.43088" lon="2.52003">
        <ele>530.7851563</ele>
        <time>2014-01-18T09:15:56Z</time>
      </trkpt>
      <trkpt lat="44.4309" lon="2.51995">
        <ele>531.2657471</ele>
        <time>2014-01-18T09:15:59Z</time>
      </trkpt>
      <trkpt lat="44.43099" lon="2.51991">
        <ele>533.1883545</ele>
        <time>2014-01-18T09:16:03Z</time>
      </trkpt>
      <trkpt lat="44.43101" lon="2.51988">
        <ele>533.6689453</ele>
        <time>2014-01-18T09:16:04Z</time>
      </trkpt>
      <trkpt lat="44.43107" lon="2.51969">
        <ele>534.6303711</ele>
        <time>2014-01-18T09:16:10Z</time>
      </trkpt>
      <trkpt lat="44.43101" lon="2.51953">
        <ele>538.475708</ele>
        <time>2014-01-18T09:16:14Z</time>
      </trkpt>
      <trkpt lat="44.43095" lon="2.51937">
        <ele>538.475708</ele>
        <time>2014-01-18T09:16:19Z</time>
      </trkpt>
      <trkpt lat="44.43096" lon="2.51934">
        <ele>538.475708</ele>
        <time>2014-01-18T09:16:20Z</time>
      </trkpt>
      <trkpt lat="44.43099" lon="2.51925">
        <ele>536.0723877</ele>
        <time>2014-01-18T09:16:26Z</time>
      </trkpt>
      <trkpt lat="44.43102" lon="2.51918">
        <ele>536.5531006</ele>
        <time>2014-01-18T09:16:33Z</time>
      </trkpt>
      <trkpt lat="44.43106" lon="2.51907">
        <ele>535.5915527</ele>
        <time>2014-01-18T09:16:38Z</time>
      </trkpt>
      <trkpt lat="44.43108" lon="2.51904">
        <ele>535.1109619</ele>
        <time>2014-01-18T09:16:39Z</time>
      </trkpt>
      <trkpt lat="44.43109" lon="2.51889">
        <ele>535.1109619</ele>
        <time>2014-01-18T09:16:43Z</time>
      </trkpt>
      <trkpt lat="44.43118" lon="2.51869">
        <ele>534.1496582</ele>
        <time>2014-01-18T09:16:49Z</time>
      </trkpt>
      <trkpt lat="44.43123" lon="2.51858">
        <ele>533.1883545</ele>
        <time>2014-01-18T09:16:53Z</time>
      </trkpt>
      <trkpt lat="44.43125" lon="2.51853">
        <ele>532.7077637</ele>
        <time>2014-01-18T09:16:55Z</time>
      </trkpt>
      <trkpt lat="44.43132" lon="2.51849">
        <ele>531.7463379</ele>
        <time>2014-01-18T09:16:59Z</time>
      </trkpt>
      <trkpt lat="44.43135" lon="2.51833">
        <ele>530.3044434</ele>
        <time>2014-01-18T09:17:04Z</time>
      </trkpt>
      <trkpt lat="44.43136" lon="2.51829">
        <ele>529.8237305</ele>
        <time>2014-01-18T09:17:05Z</time>
      </trkpt>
      <trkpt lat="44.43145" lon="2.51818">
        <ele>528.3818359</ele>
        <time>2014-01-18T09:17:09Z</time>
      </trkpt>
      <trkpt lat="44.43157" lon="2.51798">
        <ele>527.4204102</ele>
        <time>2014-01-18T09:17:16Z</time>
      </trkpt>
      <trkpt lat="44.43169" lon="2.51792">
        <ele>526.4591064</ele>
        <time>2014-01-18T09:17:21Z</time>
      </trkpt>
      <trkpt lat="44.43171" lon="2.51789">
        <ele>525.9783936</ele>
        <time>2014-01-18T09:17:22Z</time>
      </trkpt>
      <trkpt lat="44.43179" lon="2.51787">
        <ele>525.0172119</ele>
        <time>2014-01-18T09:17:26Z</time>
      </trkpt>
      <trkpt lat="44.43182" lon="2.5178">
        <ele>523.5751953</ele>
        <time>2014-01-18T09:17:29Z</time>
      </trkpt>
      <trkpt lat="44.43181" lon="2.51769">
        <ele>519.7298584</ele>
        <time>2014-01-18T09:17:33Z</time>
      </trkpt>
      <trkpt lat="44.43185" lon="2.51764">
        <ele>519.2492676</ele>
        <time>2014-01-18T09:17:35Z</time>
      </trkpt>
      <trkpt lat="44.43194" lon="2.51745">
        <ele>515.8846436</ele>
        <time>2014-01-18T09:17:41Z</time>
      </trkpt>
      <trkpt lat="44.43199" lon="2.51737">
        <ele>515.8846436</ele>
        <time>2014-01-18T09:17:45Z</time>
      </trkpt>
      <trkpt lat="44.43204" lon="2.51721">
        <ele>513.4814453</ele>
        <time>2014-01-18T09:17:50Z</time>
      </trkpt>
      <trkpt lat="44.43202" lon="2.51711">
        <ele>515.8846436</ele>
        <time>2014-01-18T09:17:54Z</time>
      </trkpt>
      <trkpt lat="44.43203" lon="2.5171">
        <ele>516.8459473</ele>
        <time>2014-01-18T09:17:55Z</time>
      </trkpt>
      <trkpt lat="44.4321" lon="2.51711">
        <ele>522.1331787</ele>
        <time>2014-01-18T09:18:00Z</time>
      </trkpt>
      <trkpt lat="44.43211" lon="2.5171">
        <ele>524.536499</ele>
        <time>2014-01-18T09:18:02Z</time>
      </trkpt>
      <trkpt lat="44.4322" lon="2.51704">
        <ele>528.3818359</ele>
        <time>2014-01-18T09:18:07Z</time>
      </trkpt>
      <trkpt lat="44.43225" lon="2.51701">
        <ele>529.8237305</ele>
        <time>2014-01-18T09:18:10Z</time>
      </trkpt>
      <trkpt lat="44.4324" lon="2.51689">
        <ele>530.3044434</ele>
        <time>2014-01-18T09:18:17Z</time>
      </trkpt>
      <trkpt lat="44.43254" lon="2.51688">
        <ele>531.2657471</ele>
        <time>2014-01-18T09:18:22Z</time>
      </trkpt>
      <trkpt lat="44.43266" lon="2.51683">
        <ele>530.7851563</ele>
        <time>2014-01-18T09:18:27Z</time>
      </trkpt>
      <trkpt lat="44.43282" lon="2.51674">
        <ele>530.3044434</ele>
        <time>2014-01-18T09:18:34Z</time>
      </trkpt>
      <trkpt lat="44.43287" lon="2.5167">
        <ele>529.8237305</ele>
        <time>2014-01-18T09:18:36Z</time>
      </trkpt>
      <trkpt lat="44.43296" lon="2.51674">
        <ele>529.8237305</ele>
        <time>2014-01-18T09:18:40Z</time>
      </trkpt>
      <trkpt lat="44.43301" lon="2.51676">
        <ele>529.8237305</ele>
        <time>2014-01-18T09:18:42Z</time>
      </trkpt>
      <trkpt lat="44.43314" lon="2.51672">
        <ele>530.7851563</ele>
        <time>2014-01-18T09:18:47Z</time>
      </trkpt>
      <trkpt lat="44.43324" lon="2.51665">
        <ele>531.7463379</ele>
        <time>2014-01-18T09:18:51Z</time>
      </trkpt>
      <trkpt lat="44.43337" lon="2.51654">
        <ele>531.2657471</ele>
        <time>2014-01-18T09:18:56Z</time>
      </trkpt>
      <trkpt lat="44.43353" lon="2.51647">
        <ele>531.7463379</ele>
        <time>2014-01-18T09:19:02Z</time>
      </trkpt>
      <trkpt lat="44.43364" lon="2.51641">
        <ele>532.2270508</ele>
        <time>2014-01-18T09:19:06Z</time>
      </trkpt>
      <trkpt lat="44.43376" lon="2.51639">
        <ele>534.1496582</ele>
        <time>2014-01-18T09:19:11Z</time>
      </trkpt>
      <trkpt lat="44.43386" lon="2.5164">
        <ele>535.5915527</ele>
        <time>2014-01-18T09:19:15Z</time>
      </trkpt>
      <trkpt lat="44.43399" lon="2.51644">
        <ele>536.5531006</ele>
        <time>2014-01-18T09:19:20Z</time>
      </trkpt>
      <trkpt lat="44.43406" lon="2.51652">
        <ele>537.5142822</ele>
        <time>2014-01-18T09:19:24Z</time>
      </trkpt>
      <trkpt lat="44.43407" lon="2.51653">
        <ele>538.475708</ele>
        <time>2014-01-18T09:19:25Z</time>
      </trkpt>
      <trkpt lat="44.43425" lon="2.51649">
        <ele>542.3209229</ele>
        <time>2014-01-18T09:19:33Z</time>
      </trkpt>
      <trkpt lat="44.43438" lon="2.51649">
        <ele>543.2821045</ele>
        <time>2014-01-18T09:19:38Z</time>
      </trkpt>
      <trkpt lat="44.4344" lon="2.5165">
        <ele>543.2821045</ele>
        <time>2014-01-18T09:19:39Z</time>
      </trkpt>
      <trkpt lat="44.43449" lon="2.51665">
        <ele>544.2436523</ele>
        <time>2014-01-18T09:19:45Z</time>
      </trkpt>
      <trkpt lat="44.43456" lon="2.51679">
        <ele>545.204834</ele>
        <time>2014-01-18T09:19:50Z</time>
      </trkpt>
      <trkpt lat="44.43464" lon="2.51699">
        <ele>546.1662598</ele>
        <time>2014-01-18T09:19:56Z</time>
      </trkpt>
      <trkpt lat="44.43469" lon="2.51714">
        <ele>546.6468506</ele>
        <time>2014-01-18T09:20:01Z</time>
      </trkpt>
      <trkpt lat="44.43474" lon="2.51731">
        <ele>546.6468506</ele>
        <time>2014-01-18T09:20:06Z</time>
      </trkpt>
      <trkpt lat="44.43483" lon="2.51744">
        <ele>546.1662598</ele>
        <time>2014-01-18T09:20:11Z</time>
      </trkpt>
      <trkpt lat="44.43493" lon="2.5176">
        <ele>546.1662598</ele>
        <time>2014-01-18T09:20:17Z</time>
      </trkpt>
      <trkpt lat="44.43495" lon="2.51777">
        <ele>547.1274414</ele>
        <time>2014-01-18T09:20:22Z</time>
      </trkpt>
      <trkpt lat="44.43496" lon="2.51799">
        <ele>548.0888672</ele>
        <time>2014-01-18T09:20:28Z</time>
      </trkpt>
      <trkpt lat="44.43493" lon="2.51817">
        <ele>548.5693359</ele>
        <time>2014-01-18T09:20:33Z</time>
      </trkpt>
      <trkpt lat="44.43495" lon="2.51835">
        <ele>548.5693359</ele>
        <time>2014-01-18T09:20:38Z</time>
      </trkpt>
      <trkpt lat="44.43502" lon="2.51844">
        <ele>547.6081543</ele>
        <time>2014-01-18T09:20:42Z</time>
      </trkpt>
      <trkpt lat="44.43516" lon="2.51848">
        <ele>546.6468506</ele>
        <time>2014-01-18T09:20:47Z</time>
      </trkpt>
      <trkpt lat="44.43537" lon="2.51851">
        <ele>546.6468506</ele>
        <time>2014-01-18T09:20:54Z</time>
      </trkpt>
      <trkpt lat="44.43551" lon="2.51852">
        <ele>545.6855469</ele>
        <time>2014-01-18T09:20:59Z</time>
      </trkpt>
      <trkpt lat="44.43567" lon="2.51858">
        <ele>545.204834</ele>
        <time>2014-01-18T09:21:04Z</time>
      </trkpt>
      <trkpt lat="44.43578" lon="2.5187">
        <ele>543.7628174</ele>
        <time>2014-01-18T09:21:09Z</time>
      </trkpt>
      <trkpt lat="44.43579" lon="2.5188">
        <ele>542.8015137</ele>
        <time>2014-01-18T09:21:13Z</time>
      </trkpt>
      <trkpt lat="44.43584" lon="2.51878">
        <ele>542.8015137</ele>
        <time>2014-01-18T09:21:17Z</time>
      </trkpt>
      <trkpt lat="44.43588" lon="2.51875">
        <ele>543.2821045</ele>
        <time>2014-01-18T09:21:21Z</time>
      </trkpt>
      <trkpt lat="44.43592" lon="2.51874">
        <ele>542.3209229</ele>
        <time>2014-01-18T09:21:28Z</time>
      </trkpt>
      <trkpt lat="44.43593" lon="2.51874">
        <ele>543.2821045</ele>
        <time>2014-01-18T09:21:35Z</time>
      </trkpt>
      <trkpt lat="44.43594" lon="2.51874">
        <ele>544.2436523</ele>
        <time>2014-01-18T09:21:42Z</time>
      </trkpt>
      <trkpt lat="44.43596" lon="2.51873">
        <ele>545.204834</ele>
        <time>2014-01-18T09:21:52Z</time>
      </trkpt>
      <trkpt lat="44.43597" lon="2.51872">
        <ele>545.6855469</ele>
        <time>2014-01-18T09:22:03Z</time>
      </trkpt>
      <trkpt lat="44.43595" lon="2.51873">
        <ele>546.1662598</ele>
        <time>2014-01-18T09:22:25Z</time>
      </trkpt>
      <trkpt lat="44.43595" lon="2.51874">
        <ele>544.2436523</ele>
        <time>2014-01-18T09:22:44Z</time>
      </trkpt>
      <trkpt lat="44.43594" lon="2.51873">
        <ele>545.204834</ele>
        <time>2014-01-18T09:22:48Z</time>
      </trkpt>
      <trkpt lat="44.43595" lon="2.51874">
        <ele>545.6855469</ele>
        <time>2014-01-18T09:22:52Z</time>
      </trkpt>
      <trkpt lat="44.43595" lon="2.51874">
        <ele>545.204834</ele>
        <time>2014-01-18T09:23:00Z</time>
      </trkpt>
      <trkpt lat="44.43596" lon="2.51873">
        <ele>545.204834</ele>
        <time>2014-01-18T09:23:15Z</time>
      </trkpt>
      <trkpt lat="44.43597" lon="2.51873">
        <ele>545.204834</ele>
        <time>2014-01-18T09:23:31Z</time>
      </trkpt>
      <trkpt lat="44.43596" lon="2.51873">
        <ele>545.6855469</ele>
        <time>2014-01-18T09:23:40Z</time>
      </trkpt>
      <trkpt lat="44.43599" lon="2.51871">
        <ele>545.204834</ele>
        <time>2014-01-18T09:23:43Z</time>
      </trkpt>
      <trkpt lat="44.43614" lon="2.51874">
        <ele>541.3594971</ele>
        <time>2014-01-18T09:23:50Z</time>
      </trkpt>
      <trkpt lat="44.43618" lon="2.51876">
        <ele>540.3983154</ele>
        <time>2014-01-18T09:23:52Z</time>
      </trkpt>
      <trkpt lat="44.43628" lon="2.51872">
        <ele>540.3983154</ele>
        <time>2014-01-18T09:23:56Z</time>
      </trkpt>
      <trkpt lat="44.43646" lon="2.51866">
        <ele>538.9562988</ele>
        <time>2014-01-18T09:24:02Z</time>
      </trkpt>
      <trkpt lat="44.43657" lon="2.51866">
        <ele>538.475708</ele>
        <time>2014-01-18T09:24:06Z</time>
      </trkpt>
      <trkpt lat="44.43665" lon="2.51864">
        <ele>537.0336914</ele>
        <time>2014-01-18T09:24:09Z</time>
      </trkpt>
      <trkpt lat="44.43677" lon="2.51863">
        <ele>535.5915527</ele>
        <time>2014-01-18T09:24:14Z</time>
      </trkpt>
      <trkpt lat="44.43692" lon="2.51858">
        <ele>535.5915527</ele>
        <time>2014-01-18T09:24:19Z</time>
      </trkpt>
      <trkpt lat="44.43706" lon="2.51861">
        <ele>533.1883545</ele>
        <time>2014-01-18T09:24:24Z</time>
      </trkpt>
      <trkpt lat="44.43715" lon="2.5186">
        <ele>533.1883545</ele>
        <time>2014-01-18T09:24:27Z</time>
      </trkpt>
      <trkpt lat="44.43728" lon="2.51851">
        <ele>533.6689453</ele>
        <time>2014-01-18T09:24:32Z</time>
      </trkpt>
      <trkpt lat="44.43735" lon="2.51848">
        <ele>534.1496582</ele>
        <time>2014-01-18T09:24:34Z</time>
      </trkpt>
      <trkpt lat="44.43744" lon="2.51848">
        <ele>533.6689453</ele>
        <time>2014-01-18T09:24:37Z</time>
      </trkpt>
      <trkpt lat="44.43761" lon="2.51843">
        <ele>533.6689453</ele>
        <time>2014-01-18T09:24:42Z</time>
      </trkpt>
      <trkpt lat="44.43764" lon="2.51843">
        <ele>534.1496582</ele>
        <time>2014-01-18T09:24:43Z</time>
      </trkpt>
      <trkpt lat="44.43778" lon="2.51852">
        <ele>533.6689453</ele>
        <time>2014-01-18T09:24:48Z</time>
      </trkpt>
      <trkpt lat="44.43786" lon="2.51861">
        <ele>532.2270508</ele>
        <time>2014-01-18T09:24:52Z</time>
      </trkpt>
      <trkpt lat="44.43797" lon="2.51872">
        <ele>530.3044434</ele>
        <time>2014-01-18T09:24:57Z</time>
      </trkpt>
      <trkpt lat="44.43801" lon="2.51875">
        <ele>529.8237305</ele>
        <time>2014-01-18T09:24:59Z</time>
      </trkpt>
      <trkpt lat="44.43813" lon="2.51886">
        <ele>527.4204102</ele>
        <time>2014-01-18T09:25:05Z</time>
      </trkpt>
      <trkpt lat="44.4382" lon="2.51885">
        <ele>527.4204102</ele>
        <time>2014-01-18T09:25:09Z</time>
      </trkpt>
      <trkpt lat="44.43825" lon="2.51881">
        <ele>523.0946045</ele>
        <time>2014-01-18T09:25:13Z</time>
      </trkpt>
      <trkpt lat="44.43832" lon="2.51878">
        <ele>518.7685547</ele>
        <time>2014-01-18T09:25:17Z</time>
      </trkpt>
      <trkpt lat="44.43837" lon="2.51876">
        <ele>515.8846436</ele>
        <time>2014-01-18T09:25:20Z</time>
      </trkpt>
      <trkpt lat="44.4384" lon="2.51873">
        <ele>513.4814453</ele>
        <time>2014-01-18T09:25:24Z</time>
      </trkpt>
      <trkpt lat="44.43837" lon="2.51871">
        <ele>512.0394287</ele>
        <time>2014-01-18T09:25:29Z</time>
      </trkpt>
      <trkpt lat="44.43834" lon="2.51868">
        <ele>509.1553955</ele>
        <time>2014-01-18T09:25:35Z</time>
      </trkpt>
      <trkpt lat="44.43829" lon="2.51861">
        <ele>509.1553955</ele>
        <time>2014-01-18T09:25:39Z</time>
      </trkpt>
      <trkpt lat="44.43826" lon="2.51857">
        <ele>508.6746826</ele>
        <time>2014-01-18T09:25:43Z</time>
      </trkpt>
      <trkpt lat="44.43827" lon="2.51856">
        <ele>508.1940918</ele>
        <time>2014-01-18T09:25:44Z</time>
      </trkpt>
      <trkpt lat="44.43832" lon="2.51855">
        <ele>508.1940918</ele>
        <time>2014-01-18T09:25:47Z</time>
      </trkpt>
      <trkpt lat="44.43839" lon="2.51855">
        <ele>507.2327881</ele>
        <time>2014-01-18T09:25:52Z</time>
      </trkpt>
      <trkpt lat="44.43846" lon="2.51851">
        <ele>503.8681641</ele>
        <time>2014-01-18T09:25:58Z</time>
      </trkpt>
      <trkpt lat="44.43847" lon="2.51849">
        <ele>501.4648438</ele>
        <time>2014-01-18T09:26:02Z</time>
      </trkpt>
      <trkpt lat="44.43841" lon="2.51848">
        <ele>498.1003418</ele>
        <time>2014-01-18T09:26:07Z</time>
      </trkpt>
      <trkpt lat="44.43846" lon="2.51838">
        <ele>495.2161865</ele>
        <time>2014-01-18T09:26:13Z</time>
      </trkpt>
      <trkpt lat="44.43856" lon="2.51825">
        <ele>501.9455566</ele>
        <time>2014-01-18T09:26:18Z</time>
      </trkpt>
      <trkpt lat="44.4386" lon="2.51819">
        <ele>496.6583252</ele>
        <time>2014-01-18T09:26:22Z</time>
      </trkpt>
      <trkpt lat="44.43861" lon="2.51803">
        <ele>491.3709717</ele>
        <time>2014-01-18T09:26:27Z</time>
      </trkpt>
      <trkpt lat="44.43863" lon="2.51801">
        <ele>489.9290771</ele>
        <time>2014-01-18T09:26:29Z</time>
      </trkpt>
      <trkpt lat="44.43864" lon="2.518">
        <ele>488.9677734</ele>
        <time>2014-01-18T09:26:36Z</time>
      </trkpt>
      <trkpt lat="44.43864" lon="2.518">
        <ele>488.4871826</ele>
        <time>2014-01-18T09:26:44Z</time>
      </trkpt>
      <trkpt lat="44.43864" lon="2.518">
        <ele>489.9290771</ele>
        <time>2014-01-18T09:26:57Z</time>
      </trkpt>
      <trkpt lat="44.43864" lon="2.51801">
        <ele>489.9290771</ele>
        <time>2014-01-18T09:27:04Z</time>
      </trkpt>
      <trkpt lat="44.43866" lon="2.51804">
        <ele>486.0837402</ele>
        <time>2014-01-18T09:27:08Z</time>
      </trkpt>
      <trkpt lat="44.43867" lon="2.51806">
        <ele>483.1998291</ele>
        <time>2014-01-18T09:27:16Z</time>
      </trkpt>
      <trkpt lat="44.43867" lon="2.51805">
        <ele>483.1998291</ele>
        <time>2014-01-18T09:27:21Z</time>
      </trkpt>
      <trkpt lat="44.43867" lon="2.51804">
        <ele>484.1611328</ele>
        <time>2014-01-18T09:27:26Z</time>
      </trkpt>
      <trkpt lat="44.43866" lon="2.51802">
        <ele>486.5644531</ele>
        <time>2014-01-18T09:27:35Z</time>
      </trkpt>
      <trkpt lat="44.43865" lon="2.51799">
        <ele>488.4871826</ele>
        <time>2014-01-18T09:27:49Z</time>
      </trkpt>
      <trkpt lat="44.43864" lon="2.518">
        <ele>489.4483643</ele>
        <time>2014-01-18T09:27:53Z</time>
      </trkpt>
      <trkpt lat="44.43864" lon="2.518">
        <ele>488.4871826</ele>
        <time>2014-01-18T09:27:59Z</time>
      </trkpt>
      <trkpt lat="44.43865" lon="2.51801">
        <ele>487.0450439</ele>
        <time>2014-01-18T09:28:05Z</time>
      </trkpt>
      <trkpt lat="44.43863" lon="2.51804">
        <ele>487.0450439</ele>
        <time>2014-01-18T09:28:10Z</time>
      </trkpt>
      <trkpt lat="44.43858" lon="2.51807">
        <ele>486.0837402</ele>
        <time>2014-01-18T09:28:15Z</time>
      </trkpt>
      <trkpt lat="44.43855" lon="2.51809">
        <ele>486.0837402</ele>
        <time>2014-01-18T09:28:18Z</time>
      </trkpt>
      <trkpt lat="44.43846" lon="2.51817">
        <ele>484.6418457</ele>
        <time>2014-01-18T09:28:24Z</time>
      </trkpt>
      <trkpt lat="44.43836" lon="2.51822">
        <ele>489.4483643</ele>
        <time>2014-01-18T09:28:27Z</time>
      </trkpt>
      <trkpt lat="44.43818" lon="2.51824">
        <ele>499.5422363</ele>
        <time>2014-01-18T09:28:32Z</time>
      </trkpt>
      <trkpt lat="44.4381" lon="2.51821">
        <ele>500.0229492</ele>
        <time>2014-01-18T09:28:36Z</time>
      </trkpt>
      <trkpt lat="44.43801" lon="2.51808">
        <ele>498.5809326</ele>
        <time>2014-01-18T09:28:40Z</time>
      </trkpt>
      <trkpt lat="44.43793" lon="2.51797">
        <ele>494.2550049</ele>
        <time>2014-01-18T09:28:44Z</time>
      </trkpt>
      <trkpt lat="44.43779" lon="2.51787">
        <ele>487.5256348</ele>
        <time>2014-01-18T09:28:49Z</time>
      </trkpt>
      <trkpt lat="44.43764" lon="2.51784">
        <ele>482.7192383</ele>
        <time>2014-01-18T09:28:54Z</time>
      </trkpt>
      <trkpt lat="44.43751" lon="2.5178">
        <ele>480.315918</ele>
        <time>2014-01-18T09:28:59Z</time>
      </trkpt>
      <trkpt lat="44.4374" lon="2.51776">
        <ele>477.4318848</ele>
        <time>2014-01-18T09:29:03Z</time>
      </trkpt>
      <trkpt lat="44.43728" lon="2.5176">
        <ele>474.0672607</ele>
        <time>2014-01-18T09:29:08Z</time>
      </trkpt>
      <trkpt lat="44.43725" lon="2.51743">
        <ele>470.7026367</ele>
        <time>2014-01-18T09:29:12Z</time>
      </trkpt>
      <trkpt lat="44.43721" lon="2.51722">
        <ele>467.8187256</ele>
        <time>2014-01-18T09:29:17Z</time>
      </trkpt>
      <trkpt lat="44.4372" lon="2.51706">
        <ele>465.8961182</ele>
        <time>2014-01-18T09:29:21Z</time>
      </trkpt>
      <trkpt lat="44.43717" lon="2.51686">
        <ele>464.9348145</ele>
        <time>2014-01-18T09:29:26Z</time>
      </trkpt>
      <trkpt lat="44.43716" lon="2.51666">
        <ele>463.4927979</ele>
        <time>2014-01-18T09:29:31Z</time>
      </trkpt>
      <trkpt lat="44.43715" lon="2.51647">
        <ele>463.4927979</ele>
        <time>2014-01-18T09:29:36Z</time>
      </trkpt>
      <trkpt lat="44.43709" lon="2.51624">
        <ele>463.4927979</ele>
        <time>2014-01-18T09:29:42Z</time>
      </trkpt>
      <trkpt lat="44.43702" lon="2.51608">
        <ele>461.5701904</ele>
        <time>2014-01-18T09:29:47Z</time>
      </trkpt>
      <trkpt lat="44.43695" lon="2.51593">
        <ele>461.0894775</ele>
        <time>2014-01-18T09:29:52Z</time>
      </trkpt>
      <trkpt lat="44.43688" lon="2.51578">
        <ele>459.1668701</ele>
        <time>2014-01-18T09:29:57Z</time>
      </trkpt>
      <trkpt lat="44.43685" lon="2.51561">
        <ele>459.1668701</ele>
        <time>2014-01-18T09:30:01Z</time>
      </trkpt>
      <trkpt lat="44.43686" lon="2.51557">
        <ele>459.1668701</ele>
        <time>2014-01-18T09:30:02Z</time>
      </trkpt>
      <trkpt lat="44.43694" lon="2.51544">
        <ele>459.1668701</ele>
        <time>2014-01-18T09:30:07Z</time>
      </trkpt>
      <trkpt lat="44.43705" lon="2.51532">
        <ele>461.0894775</ele>
        <time>2014-01-18T09:30:12Z</time>
      </trkpt>
      <trkpt lat="44.43716" lon="2.51524">
        <ele>461.5701904</ele>
        <time>2014-01-18T09:30:17Z</time>
      </trkpt>
      <trkpt lat="44.43729" lon="2.5151">
        <ele>462.5313721</ele>
        <time>2014-01-18T09:30:23Z</time>
      </trkpt>
      <trkpt lat="44.43738" lon="2.51502">
        <ele>462.5313721</ele>
        <time>2014-01-18T09:30:28Z</time>
      </trkpt>
      <trkpt lat="44.43737" lon="2.515">
        <ele>463.4927979</ele>
        <time>2014-01-18T09:30:33Z</time>
      </trkpt>
      <trkpt lat="44.43729" lon="2.51495">
        <ele>464.9348145</ele>
        <time>2014-01-18T09:30:39Z</time>
      </trkpt>
      <trkpt lat="44.4373" lon="2.51484">
        <ele>463.012085</ele>
        <time>2014-01-18T09:30:43Z</time>
      </trkpt>
      <trkpt lat="44.43732" lon="2.51483">
        <ele>462.0507813</ele>
        <time>2014-01-18T09:30:44Z</time>
      </trkpt>
      <trkpt lat="44.43726" lon="2.51479">
        <ele>461.0894775</ele>
        <time>2014-01-18T09:30:50Z</time>
      </trkpt>
      <trkpt lat="44.43727" lon="2.51472">
        <ele>458.6861572</ele>
        <time>2014-01-18T09:30:54Z</time>
      </trkpt>
      <trkpt lat="44.4373" lon="2.51472">
        <ele>457.2442627</ele>
        <time>2014-01-18T09:30:57Z</time>
      </trkpt>
      <trkpt lat="44.43735" lon="2.51469">
        <ele>453.8796387</ele>
        <time>2014-01-18T09:31:02Z</time>
      </trkpt>
      <trkpt lat="44.43736" lon="2.51468">
        <ele>453.3989258</ele>
        <time>2014-01-18T09:31:04Z</time>
      </trkpt>
      <trkpt lat="44.43738" lon="2.51461">
        <ele>449.5537109</ele>
        <time>2014-01-18T09:31:11Z</time>
      </trkpt>
      <trkpt lat="44.43741" lon="2.51452">
        <ele>448.5924072</ele>
        <time>2014-01-18T09:31:17Z</time>
      </trkpt>
      <trkpt lat="44.43742" lon="2.51442">
        <ele>444.2664795</ele>
        <time>2014-01-18T09:31:23Z</time>
      </trkpt>
      <trkpt lat="44.43741" lon="2.51437">
        <ele>440.4212646</ele>
        <time>2014-01-18T09:31:26Z</time>
      </trkpt>
      <trkpt lat="44.43738" lon="2.51437">
        <ele>437.0565186</ele>
        <time>2014-01-18T09:31:29Z</time>
      </trkpt>
      <trkpt lat="44.43732" lon="2.51437">
        <ele>431.769165</ele>
        <time>2014-01-18T09:31:34Z</time>
      </trkpt>
      <trkpt lat="44.43727" lon="2.51438">
        <ele>426.0013428</ele>
        <time>2014-01-18T09:31:38Z</time>
      </trkpt>
      <trkpt lat="44.43721" lon="2.51432">
        <ele>425.0401611</ele>
        <time>2014-01-18T09:31:42Z</time>
      </trkpt>
      <trkpt lat="44.43722" lon="2.5143">
        <ele>425.520752</ele>
        <time>2014-01-18T09:31:45Z</time>
      </trkpt>
      <trkpt lat="44.43721" lon="2.51429">
        <ele>426.9627686</ele>
        <time>2014-01-18T09:31:51Z</time>
      </trkpt>
      <trkpt lat="44.4372" lon="2.51428">
        <ele>427.9239502</ele>
        <time>2014-01-18T09:31:57Z</time>
      </trkpt>
      <trkpt lat="44.43722" lon="2.51423">
        <ele>429.3659668</ele>
        <time>2014-01-18T09:32:04Z</time>
      </trkpt>
      <trkpt lat="44.43728" lon="2.51415">
        <ele>429.3659668</ele>
        <time>2014-01-18T09:32:08Z</time>
      </trkpt>
      <trkpt lat="44.43736" lon="2.51402">
        <ele>430.3272705</ele>
        <time>2014-01-18T09:32:13Z</time>
      </trkpt>
      <trkpt lat="44.43745" lon="2.51394">
        <ele>429.3659668</ele>
        <time>2014-01-18T09:32:17Z</time>
      </trkpt>
      <trkpt lat="44.43757" lon="2.51381">
        <ele>427.4433594</ele>
        <time>2014-01-18T09:32:23Z</time>
      </trkpt>
      <trkpt lat="44.43768" lon="2.51364">
        <ele>426.9627686</ele>
        <time>2014-01-18T09:32:29Z</time>
      </trkpt>
      <trkpt lat="44.43777" lon="2.5135">
        <ele>427.4433594</ele>
        <time>2014-01-18T09:32:34Z</time>
      </trkpt>
      <trkpt lat="44.43789" lon="2.51345">
        <ele>426.4820557</ele>
        <time>2014-01-18T09:32:39Z</time>
      </trkpt>
      <trkpt lat="44.438" lon="2.5134">
        <ele>427.9239502</ele>
        <time>2014-01-18T09:32:43Z</time>
      </trkpt>
      <trkpt lat="44.4381" lon="2.51327">
        <ele>428.4046631</ele>
        <time>2014-01-18T09:32:48Z</time>
      </trkpt>
      <trkpt lat="44.43817" lon="2.51312">
        <ele>426.9627686</ele>
        <time>2014-01-18T09:32:53Z</time>
      </trkpt>
      <trkpt lat="44.43821" lon="2.51292">
        <ele>428.4046631</ele>
        <time>2014-01-18T09:32:59Z</time>
      </trkpt>
      <trkpt lat="44.43824" lon="2.5128">
        <ele>428.4046631</ele>
        <time>2014-01-18T09:33:03Z</time>
      </trkpt>
      <trkpt lat="44.43826" lon="2.51267">
        <ele>429.3659668</ele>
        <time>2014-01-18T09:33:07Z</time>
      </trkpt>
      <trkpt lat="44.43829" lon="2.51244">
        <ele>429.8465576</ele>
        <time>2014-01-18T09:33:14Z</time>
      </trkpt>
      <trkpt lat="44.43832" lon="2.51228">
        <ele>429.8465576</ele>
        <time>2014-01-18T09:33:19Z</time>
      </trkpt>
      <trkpt lat="44.43833" lon="2.51208">
        <ele>433.6918945</ele>
        <time>2014-01-18T09:33:25Z</time>
      </trkpt>
      <trkpt lat="44.43832" lon="2.51204">
        <ele>434.1726074</ele>
        <time>2014-01-18T09:33:26Z</time>
      </trkpt>
      <trkpt lat="44.4383" lon="2.51189">
        <ele>435.1339111</ele>
        <time>2014-01-18T09:33:30Z</time>
      </trkpt>
      <trkpt lat="44.43828" lon="2.51167">
        <ele>435.614502</ele>
        <time>2014-01-18T09:33:36Z</time>
      </trkpt>
      <trkpt lat="44.43831" lon="2.5115">
        <ele>436.0952148</ele>
        <time>2014-01-18T09:33:41Z</time>
      </trkpt>
      <trkpt lat="44.43834" lon="2.51136">
        <ele>436.0952148</ele>
        <time>2014-01-18T09:33:45Z</time>
      </trkpt>
      <trkpt lat="44.43839" lon="2.51115">
        <ele>436.5759277</ele>
        <time>2014-01-18T09:33:51Z</time>
      </trkpt>
      <trkpt lat="44.43842" lon="2.5111">
        <ele>437.5371094</ele>
        <time>2014-01-18T09:33:53Z</time>
      </trkpt>
      <trkpt lat="44.43852" lon="2.51087">
        <ele>441.3824463</ele>
        <time>2014-01-18T09:34:00Z</time>
      </trkpt>
      <trkpt lat="44.43849" lon="2.51075">
        <ele>440.4212646</ele>
        <time>2014-01-18T09:34:04Z</time>
      </trkpt>
      <trkpt lat="44.43843" lon="2.51059">
        <ele>441.3824463</ele>
        <time>2014-01-18T09:34:09Z</time>
      </trkpt>
      <trkpt lat="44.43841" lon="2.51044">
        <ele>441.8631592</ele>
        <time>2014-01-18T09:34:13Z</time>
      </trkpt>
      <trkpt lat="44.43848" lon="2.51035">
        <ele>442.3438721</ele>
        <time>2014-01-18T09:34:17Z</time>
      </trkpt>
      <trkpt lat="44.43858" lon="2.51027">
        <ele>445.2276611</ele>
        <time>2014-01-18T09:34:23Z</time>
      </trkpt>
      <trkpt lat="44.43861" lon="2.51019">
        <ele>447.6309814</ele>
        <time>2014-01-18T09:34:26Z</time>
      </trkpt>
      <trkpt lat="44.43867" lon="2.50999">
        <ele>453.8796387</ele>
        <time>2014-01-18T09:34:33Z</time>
      </trkpt>
      <trkpt lat="44.4386" lon="2.50985">
        <ele>454.8408203</ele>
        <time>2014-01-18T09:34:38Z</time>
      </trkpt>
      <trkpt lat="44.43857" lon="2.50962">
        <ele>453.8796387</ele>
        <time>2014-01-18T09:34:44Z</time>
      </trkpt>
      <trkpt lat="44.4386" lon="2.50949">
        <ele>451.9570313</ele>
        <time>2014-01-18T09:34:48Z</time>
      </trkpt>
      <trkpt lat="44.43867" lon="2.50922">
        <ele>450.0344238</ele>
        <time>2014-01-18T09:34:56Z</time>
      </trkpt>
      <trkpt lat="44.43874" lon="2.50904">
        <ele>448.5924072</ele>
        <time>2014-01-18T09:35:01Z</time>
      </trkpt>
      <trkpt lat="44.43879" lon="2.50886">
        <ele>447.6309814</ele>
        <time>2014-01-18T09:35:06Z</time>
      </trkpt>
      <trkpt lat="44.43885" lon="2.50874">
        <ele>447.1502686</ele>
        <time>2014-01-18T09:35:10Z</time>
      </trkpt>
      <trkpt lat="44.4389" lon="2.50863">
        <ele>446.6696777</ele>
        <time>2014-01-18T09:35:14Z</time>
      </trkpt>
      <trkpt lat="44.43891" lon="2.50853">
        <ele>445.2276611</ele>
        <time>2014-01-18T09:35:17Z</time>
      </trkpt>
      <trkpt lat="44.43892" lon="2.50846">
        <ele>445.2276611</ele>
        <time>2014-01-18T09:35:19Z</time>
      </trkpt>
      <trkpt lat="44.43903" lon="2.50837">
        <ele>445.708374</ele>
        <time>2014-01-18T09:35:24Z</time>
      </trkpt>
      <trkpt lat="44.43916" lon="2.50841">
        <ele>445.2276611</ele>
        <time>2014-01-18T09:35:30Z</time>
      </trkpt>
      <trkpt lat="44.43917" lon="2.50842">
        <ele>445.2276611</ele>
        <time>2014-01-18T09:35:31Z</time>
      </trkpt>
      <trkpt lat="44.43925" lon="2.50839">
        <ele>446.6696777</ele>
        <time>2014-01-18T09:35:36Z</time>
      </trkpt>
      <trkpt lat="44.43931" lon="2.50834">
        <ele>447.6309814</ele>
        <time>2014-01-18T09:35:40Z</time>
      </trkpt>
      <trkpt lat="44.4394" lon="2.50832">
        <ele>451.4763184</ele>
        <time>2014-01-18T09:35:47Z</time>
      </trkpt>
      <trkpt lat="44.43944" lon="2.5083">
        <ele>453.8796387</ele>
        <time>2014-01-18T09:35:51Z</time>
      </trkpt>
      <trkpt lat="44.43947" lon="2.50826">
        <ele>453.3989258</ele>
        <time>2014-01-18T09:35:54Z</time>
      </trkpt>
      <trkpt lat="44.43951" lon="2.50811">
        <ele>457.7249756</ele>
        <time>2014-01-18T09:36:03Z</time>
      </trkpt>
      <trkpt lat="44.43952" lon="2.50809">
        <ele>458.2055664</ele>
        <time>2014-01-18T09:36:05Z</time>
      </trkpt>
      <trkpt lat="44.43954" lon="2.50804">
        <ele>459.647583</ele>
        <time>2014-01-18T09:36:09Z</time>
      </trkpt>
      <trkpt lat="44.43956" lon="2.508">
        <ele>462.0507813</ele>
        <time>2014-01-18T09:36:14Z</time>
      </trkpt>
      <trkpt lat="44.43958" lon="2.50795">
        <ele>463.012085</ele>
        <time>2014-01-18T09:36:18Z</time>
      </trkpt>
      <trkpt lat="44.43959" lon="2.5079">
        <ele>466.376709</ele>
        <time>2014-01-18T09:36:23Z</time>
      </trkpt>
      <trkpt lat="44.43962" lon="2.50786">
        <ele>469.2607422</ele>
        <time>2014-01-18T09:36:27Z</time>
      </trkpt>
      <trkpt lat="44.43965" lon="2.5078">
        <ele>473.1060791</ele>
        <time>2014-01-18T09:36:33Z</time>
      </trkpt>
      <trkpt lat="44.43968" lon="2.50774">
        <ele>474.5479736</ele>
        <time>2014-01-18T09:36:39Z</time>
      </trkpt>
      <trkpt lat="44.43973" lon="2.5077">
        <ele>475.5092773</ele>
        <time>2014-01-18T09:36:44Z</time>
      </trkpt>
      <trkpt lat="44.43974" lon="2.50768">
        <ele>475.9898682</ele>
        <time>2014-01-18T09:36:46Z</time>
      </trkpt>
      <trkpt lat="44.43981" lon="2.50759">
        <ele>477.9124756</ele>
        <time>2014-01-18T09:36:54Z</time>
      </trkpt>
      <trkpt lat="44.43984" lon="2.50754">
        <ele>479.3544922</ele>
        <time>2014-01-18T09:36:59Z</time>
      </trkpt>
      <trkpt lat="44.43987" lon="2.5075">
        <ele>481.2772217</ele>
        <time>2014-01-18T09:37:04Z</time>
      </trkpt>
      <trkpt lat="44.43989" lon="2.50745">
        <ele>482.2385254</ele>
        <time>2014-01-18T09:37:08Z</time>
      </trkpt>
      <trkpt lat="44.43992" lon="2.50739">
        <ele>482.7192383</ele>
        <time>2014-01-18T09:37:13Z</time>
      </trkpt>
      <trkpt lat="44.43992" lon="2.50738">
        <ele>482.7192383</ele>
        <time>2014-01-18T09:37:14Z</time>
      </trkpt>
      <trkpt lat="44.43996" lon="2.50731">
        <ele>484.6418457</ele>
        <time>2014-01-18T09:37:21Z</time>
      </trkpt>
      <trkpt lat="44.43998" lon="2.50727">
        <ele>485.6030273</ele>
        <time>2014-01-18T09:37:25Z</time>
      </trkpt>
      <trkpt lat="44.44" lon="2.50718">
        <ele>486.5644531</ele>
        <time>2014-01-18T09:37:31Z</time>
      </trkpt>
      <trkpt lat="44.44003" lon="2.50714">
        <ele>487.5256348</ele>
        <time>2014-01-18T09:37:35Z</time>
      </trkpt>
      <trkpt lat="44.44003" lon="2.5071">
        <ele>488.0064697</ele>
        <time>2014-01-18T09:37:37Z</time>
      </trkpt>
      <trkpt lat="44.44011" lon="2.50695">
        <ele>488.0064697</ele>
        <time>2014-01-18T09:37:43Z</time>
      </trkpt>
      <trkpt lat="44.44014" lon="2.50683">
        <ele>488.0064697</ele>
        <time>2014-01-18T09:37:47Z</time>
      </trkpt>
      <trkpt lat="44.44015" lon="2.5068">
        <ele>488.4871826</ele>
        <time>2014-01-18T09:37:48Z</time>
      </trkpt>
      <trkpt lat="44.44018" lon="2.50669">
        <ele>488.0064697</ele>
        <time>2014-01-18T09:37:52Z</time>
      </trkpt>
      <trkpt lat="44.44024" lon="2.50661">
        <ele>487.5256348</ele>
        <time>2014-01-18T09:37:56Z</time>
      </trkpt>
      <trkpt lat="44.44027" lon="2.50652">
        <ele>487.0450439</ele>
        <time>2014-01-18T09:38:01Z</time>
      </trkpt>
      <trkpt lat="44.44027" lon="2.50647">
        <ele>487.0450439</ele>
        <time>2014-01-18T09:38:03Z</time>
      </trkpt>
      <trkpt lat="44.44034" lon="2.50634">
        <ele>486.0837402</ele>
        <time>2014-01-18T09:38:08Z</time>
      </trkpt>
      <trkpt lat="44.44043" lon="2.5062">
        <ele>485.6030273</ele>
        <time>2014-01-18T09:38:14Z</time>
      </trkpt>
      <trkpt lat="44.44049" lon="2.50608">
        <ele>486.5644531</ele>
        <time>2014-01-18T09:38:19Z</time>
      </trkpt>
      <trkpt lat="44.44052" lon="2.50602">
        <ele>486.0837402</ele>
        <time>2014-01-18T09:38:21Z</time>
      </trkpt>
      <trkpt lat="44.44058" lon="2.50595">
        <ele>486.5644531</ele>
        <time>2014-01-18T09:38:26Z</time>
      </trkpt>
      <trkpt lat="44.44061" lon="2.50591">
        <ele>486.5644531</ele>
        <time>2014-01-18T09:38:28Z</time>
      </trkpt>
      <trkpt lat="44.44065" lon="2.50587">
        <ele>486.5644531</ele>
        <time>2014-01-18T09:38:32Z</time>
      </trkpt>
      <trkpt lat="44.44073" lon="2.50578">
        <ele>487.0450439</ele>
        <time>2014-01-18T09:38:38Z</time>
      </trkpt>
      <trkpt lat="44.44073" lon="2.50576">
        <ele>487.5256348</ele>
        <time>2014-01-18T09:38:40Z</time>
      </trkpt>
      <trkpt lat="44.44072" lon="2.50573">
        <ele>492.3323975</ele>
        <time>2014-01-18T09:38:51Z</time>
      </trkpt>
      <trkpt lat="44.44071" lon="2.50571">
        <ele>495.6968994</ele>
        <time>2014-01-18T09:39:01Z</time>
      </trkpt>
      <trkpt lat="44.44071" lon="2.5057">
        <ele>496.6583252</ele>
        <time>2014-01-18T09:39:11Z</time>
      </trkpt>
      <trkpt lat="44.44073" lon="2.50568">
        <ele>495.6968994</ele>
        <time>2014-01-18T09:39:26Z</time>
      </trkpt>
      <trkpt lat="44.44074" lon="2.50568">
        <ele>495.6968994</ele>
        <time>2014-01-18T09:39:30Z</time>
      </trkpt>
      <trkpt lat="44.44081" lon="2.50576">
        <ele>495.2161865</ele>
        <time>2014-01-18T09:39:36Z</time>
      </trkpt>
      <trkpt lat="44.44089" lon="2.50589">
        <ele>494.2550049</ele>
        <time>2014-01-18T09:39:42Z</time>
      </trkpt>
      <trkpt lat="44.44093" lon="2.50603">
        <ele>491.3709717</ele>
        <time>2014-01-18T09:39:47Z</time>
      </trkpt>
      <trkpt lat="44.44102" lon="2.50628">
        <ele>488.9677734</ele>
        <time>2014-01-18T09:39:55Z</time>
      </trkpt>
      <trkpt lat="44.44107" lon="2.50639">
        <ele>488.9677734</ele>
        <time>2014-01-18T09:39:59Z</time>
      </trkpt>
      <trkpt lat="44.44115" lon="2.50649">
        <ele>490.40979</ele>
        <time>2014-01-18T09:40:03Z</time>
      </trkpt>
      <trkpt lat="44.44126" lon="2.50656">
        <ele>490.40979</ele>
        <time>2014-01-18T09:40:08Z</time>
      </trkpt>
      <trkpt lat="44.44139" lon="2.50655">
        <ele>490.8903809</ele>
        <time>2014-01-18T09:40:13Z</time>
      </trkpt>
      <trkpt lat="44.4415" lon="2.50655">
        <ele>490.8903809</ele>
        <time>2014-01-18T09:40:17Z</time>
      </trkpt>
      <trkpt lat="44.44162" lon="2.50659">
        <ele>491.3709717</ele>
        <time>2014-01-18T09:40:22Z</time>
      </trkpt>
      <trkpt lat="44.44172" lon="2.50664">
        <ele>491.8516846</ele>
        <time>2014-01-18T09:40:26Z</time>
      </trkpt>
      <trkpt lat="44.44181" lon="2.50671">
        <ele>492.3323975</ele>
        <time>2014-01-18T09:40:30Z</time>
      </trkpt>
      <trkpt lat="44.44191" lon="2.50678">
        <ele>490.8903809</ele>
        <time>2014-01-18T09:40:35Z</time>
      </trkpt>
      <trkpt lat="44.44203" lon="2.50689">
        <ele>488.9677734</ele>
        <time>2014-01-18T09:40:40Z</time>
      </trkpt>
      <trkpt lat="44.44214" lon="2.507">
        <ele>488.9677734</ele>
        <time>2014-01-18T09:40:45Z</time>
      </trkpt>
      <trkpt lat="44.44222" lon="2.50709">
        <ele>489.9290771</ele>
        <time>2014-01-18T09:40:49Z</time>
      </trkpt>
      <trkpt lat="44.44227" lon="2.50714">
        <ele>490.8903809</ele>
        <time>2014-01-18T09:40:52Z</time>
      </trkpt>
      <trkpt lat="44.44237" lon="2.50723">
        <ele>492.3323975</ele>
        <time>2014-01-18T09:40:57Z</time>
      </trkpt>
      <trkpt lat="44.44249" lon="2.50733">
        <ele>491.3709717</ele>
        <time>2014-01-18T09:41:02Z</time>
      </trkpt>
      <trkpt lat="44.44253" lon="2.5074">
        <ele>492.3323975</ele>
        <time>2014-01-18T09:41:07Z</time>
      </trkpt>
      <trkpt lat="44.44255" lon="2.50743">
        <ele>493.2935791</ele>
        <time>2014-01-18T09:41:09Z</time>
      </trkpt>
      <trkpt lat="44.44264" lon="2.50754">
        <ele>491.8516846</ele>
        <time>2014-01-18T09:41:14Z</time>
      </trkpt>
      <trkpt lat="44.44267" lon="2.50756">
        <ele>492.3323975</ele>
        <time>2014-01-18T09:41:15Z</time>
      </trkpt>
      <trkpt lat="44.4428" lon="2.50772">
        <ele>490.8903809</ele>
        <time>2014-01-18T09:41:22Z</time>
      </trkpt>
      <trkpt lat="44.44291" lon="2.50788">
        <ele>485.6030273</ele>
        <time>2014-01-18T09:41:28Z</time>
      </trkpt>
      <trkpt lat="44.44302" lon="2.50805">
        <ele>486.5644531</ele>
        <time>2014-01-18T09:41:35Z</time>
      </trkpt>
      <trkpt lat="44.4431" lon="2.50814">
        <ele>486.5644531</ele>
        <time>2014-01-18T09:41:39Z</time>
      </trkpt>
      <trkpt lat="44.44317" lon="2.50826">
        <ele>487.0450439</ele>
        <time>2014-01-18T09:41:43Z</time>
      </trkpt>
      <trkpt lat="44.44326" lon="2.50837">
        <ele>488.4871826</ele>
        <time>2014-01-18T09:41:48Z</time>
      </trkpt>
      <trkpt lat="44.44334" lon="2.50853">
        <ele>490.40979</ele>
        <time>2014-01-18T09:41:54Z</time>
      </trkpt>
      <trkpt lat="44.44342" lon="2.50859">
        <ele>491.3709717</ele>
        <time>2014-01-18T09:41:58Z</time>
      </trkpt>
      <trkpt lat="44.44351" lon="2.50873">
        <ele>492.8129883</ele>
        <time>2014-01-18T09:42:04Z</time>
      </trkpt>
      <trkpt lat="44.44356" lon="2.5088">
        <ele>495.2161865</ele>
        <time>2014-01-18T09:42:08Z</time>
      </trkpt>
      <trkpt lat="44.4436" lon="2.50884">
        <ele>496.6583252</ele>
        <time>2014-01-18T09:42:11Z</time>
      </trkpt>
      <trkpt lat="44.44364" lon="2.5089">
        <ele>500.0229492</ele>
        <time>2014-01-18T09:42:16Z</time>
      </trkpt>
      <trkpt lat="44.44369" lon="2.50896">
        <ele>502.9067383</ele>
        <time>2014-01-18T09:42:21Z</time>
      </trkpt>
      <trkpt lat="44.44377" lon="2.50909">
        <ele>505.7908936</ele>
        <time>2014-01-18T09:42:30Z</time>
      </trkpt>
      <trkpt lat="44.44382" lon="2.50919">
        <ele>507.713501</ele>
        <time>2014-01-18T09:42:37Z</time>
      </trkpt>
      <trkpt lat="44.44385" lon="2.50928">
        <ele>509.6361084</ele>
        <time>2014-01-18T09:42:43Z</time>
      </trkpt>
      <trkpt lat="44.44388" lon="2.50935">
        <ele>512.0394287</ele>
        <time>2014-01-18T09:42:47Z</time>
      </trkpt>
      <trkpt lat="44.44395" lon="2.50946">
        <ele>513.4814453</ele>
        <time>2014-01-18T09:42:55Z</time>
      </trkpt>
      <trkpt lat="44.44398" lon="2.5095">
        <ele>513.9620361</ele>
        <time>2014-01-18T09:42:57Z</time>
      </trkpt>
      <trkpt lat="44.44408" lon="2.50962">
        <ele>514.442627</ele>
        <time>2014-01-18T09:43:03Z</time>
      </trkpt>
      <trkpt lat="44.44415" lon="2.50972">
        <ele>515.8846436</ele>
        <time>2014-01-18T09:43:07Z</time>
      </trkpt>
      <trkpt lat="44.44424" lon="2.50981">
        <ele>517.807251</ele>
        <time>2014-01-18T09:43:11Z</time>
      </trkpt>
      <trkpt lat="44.44436" lon="2.50992">
        <ele>518.7685547</ele>
        <time>2014-01-18T09:43:16Z</time>
      </trkpt>
      <trkpt lat="44.44446" lon="2.50999">
        <ele>519.2492676</ele>
        <time>2014-01-18T09:43:20Z</time>
      </trkpt>
      <trkpt lat="44.44462" lon="2.51009">
        <ele>520.6912842</ele>
        <time>2014-01-18T09:43:26Z</time>
      </trkpt>
      <trkpt lat="44.44476" lon="2.51014">
        <ele>521.1719971</ele>
        <time>2014-01-18T09:43:31Z</time>
      </trkpt>
      <trkpt lat="44.4449" lon="2.51022">
        <ele>522.1331787</ele>
        <time>2014-01-18T09:43:36Z</time>
      </trkpt>
      <trkpt lat="44.44504" lon="2.51024">
        <ele>520.6912842</ele>
        <time>2014-01-18T09:43:41Z</time>
      </trkpt>
      <trkpt lat="44.44514" lon="2.51027">
        <ele>522.1331787</ele>
        <time>2014-01-18T09:43:45Z</time>
      </trkpt>
      <trkpt lat="44.44527" lon="2.51033">
        <ele>522.1331787</ele>
        <time>2014-01-18T09:43:50Z</time>
      </trkpt>
      <trkpt lat="44.44535" lon="2.51039">
        <ele>521.1719971</ele>
        <time>2014-01-18T09:43:54Z</time>
      </trkpt>
      <trkpt lat="44.44542" lon="2.51041">
        <ele>519.7298584</ele>
        <time>2014-01-18T09:43:57Z</time>
      </trkpt>
      <trkpt lat="44.44548" lon="2.51042">
        <ele>519.2492676</ele>
        <time>2014-01-18T09:43:59Z</time>
      </trkpt>
      <trkpt lat="44.44552" lon="2.51049">
        <ele>521.1719971</ele>
        <time>2014-01-18T09:44:04Z</time>
      </trkpt>
      <trkpt lat="44.44548" lon="2.51052">
        <ele>520.6912842</ele>
        <time>2014-01-18T09:44:08Z</time>
      </trkpt>
      <trkpt lat="44.44541" lon="2.51054">
        <ele>518.2878418</ele>
        <time>2014-01-18T09:44:12Z</time>
      </trkpt>
      <trkpt lat="44.44528" lon="2.51057">
        <ele>514.442627</ele>
        <time>2014-01-18T09:44:19Z</time>
      </trkpt>
      <trkpt lat="44.44518" lon="2.51058">
        <ele>514.442627</ele>
        <time>2014-01-18T09:44:24Z</time>
      </trkpt>
      <trkpt lat="44.44507" lon="2.51059">
        <ele>513.9620361</ele>
        <time>2014-01-18T09:44:30Z</time>
      </trkpt>
      <trkpt lat="44.44491" lon="2.51058">
        <ele>515.8846436</ele>
        <time>2014-01-18T09:44:37Z</time>
      </trkpt>
      <trkpt lat="44.44481" lon="2.51058">
        <ele>516.8459473</ele>
        <time>2014-01-18T09:44:43Z</time>
      </trkpt>
      <trkpt lat="44.44479" lon="2.51058">
        <ele>516.8459473</ele>
        <time>2014-01-18T09:44:44Z</time>
      </trkpt>
      <trkpt lat="44.44468" lon="2.51055">
        <ele>516.8459473</ele>
        <time>2014-01-18T09:44:51Z</time>
      </trkpt>
      <trkpt lat="44.44461" lon="2.51056">
        <ele>519.2492676</ele>
        <time>2014-01-18T09:44:57Z</time>
      </trkpt>
      <trkpt lat="44.44455" lon="2.51058">
        <ele>520.6912842</ele>
        <time>2014-01-18T09:45:01Z</time>
      </trkpt>
      <trkpt lat="44.44451" lon="2.51057">
        <ele>522.1331787</ele>
        <time>2014-01-18T09:45:04Z</time>
      </trkpt>
      <trkpt lat="44.4444" lon="2.51058">
        <ele>524.536499</ele>
        <time>2014-01-18T09:45:11Z</time>
      </trkpt>
      <trkpt lat="44.44428" lon="2.51055">
        <ele>532.2270508</ele>
        <time>2014-01-18T09:45:17Z</time>
      </trkpt>
      <trkpt lat="44.44419" lon="2.51053">
        <ele>535.5915527</ele>
        <time>2014-01-18T09:45:23Z</time>
      </trkpt>
      <trkpt lat="44.44412" lon="2.51052">
        <ele>539.9176025</ele>
        <time>2014-01-18T09:45:28Z</time>
      </trkpt>
      <trkpt lat="44.44404" lon="2.51049">
        <ele>541.3594971</ele>
        <time>2014-01-18T09:45:35Z</time>
      </trkpt>
      <trkpt lat="44.44394" lon="2.51046">
        <ele>542.3209229</ele>
        <time>2014-01-18T09:45:43Z</time>
      </trkpt>
      <trkpt lat="44.44393" lon="2.51046">
        <ele>542.8015137</ele>
        <time>2014-01-18T09:45:44Z</time>
      </trkpt>
      <trkpt lat="44.44389" lon="2.51053">
        <ele>546.1662598</ele>
        <time>2014-01-18T09:45:50Z</time>
      </trkpt>
      <trkpt lat="44.44391" lon="2.5106">
        <ele>547.1274414</ele>
        <time>2014-01-18T09:45:55Z</time>
      </trkpt>
      <trkpt lat="44.44393" lon="2.51063">
        <ele>547.1274414</ele>
        <time>2014-01-18T09:45:57Z</time>
      </trkpt>
      <trkpt lat="44.44398" lon="2.51076">
        <ele>547.6081543</ele>
        <time>2014-01-18T09:46:03Z</time>
      </trkpt>
      <trkpt lat="44.44402" lon="2.51085">
        <ele>547.1274414</ele>
        <time>2014-01-18T09:46:07Z</time>
      </trkpt>
      <trkpt lat="44.44408" lon="2.51093">
        <ele>548.0888672</ele>
        <time>2014-01-18T09:46:11Z</time>
      </trkpt>
      <trkpt lat="44.44412" lon="2.51104">
        <ele>548.0888672</ele>
        <time>2014-01-18T09:46:15Z</time>
      </trkpt>
      <trkpt lat="44.44414" lon="2.51117">
        <ele>549.5307617</ele>
        <time>2014-01-18T09:46:19Z</time>
      </trkpt>
      <trkpt lat="44.44415" lon="2.51135">
        <ele>551.4533691</ele>
        <time>2014-01-18T09:46:24Z</time>
      </trkpt>
      <trkpt lat="44.44413" lon="2.51146">
        <ele>553.3759766</ele>
        <time>2014-01-18T09:46:28Z</time>
      </trkpt>
      <trkpt lat="44.44411" lon="2.51156">
        <ele>555.298584</ele>
        <time>2014-01-18T09:46:34Z</time>
      </trkpt>
      <trkpt lat="44.44411" lon="2.51158">
        <ele>555.7792969</ele>
        <time>2014-01-18T09:46:42Z</time>
      </trkpt>
      <trkpt lat="44.44411" lon="2.51157">
        <ele>556.2600098</ele>
        <time>2014-01-18T09:47:01Z</time>
      </trkpt>
      <trkpt lat="44.44411" lon="2.51158">
        <ele>556.7407227</ele>
        <time>2014-01-18T09:47:11Z</time>
      </trkpt>
      <trkpt lat="44.44411" lon="2.51159">
        <ele>557.2214355</ele>
        <time>2014-01-18T09:47:20Z</time>
      </trkpt>
      <trkpt lat="44.44411" lon="2.51159">
        <ele>557.7021484</ele>
        <time>2014-01-18T09:47:27Z</time>
      </trkpt>
      <trkpt lat="44.4441" lon="2.5116">
        <ele>558.1828613</ele>
        <time>2014-01-18T09:47:33Z</time>
      </trkpt>
      <trkpt lat="44.4441" lon="2.5116">
        <ele>557.7021484</ele>
        <time>2014-01-18T09:47:39Z</time>
      </trkpt>
      <trkpt lat="44.44411" lon="2.5116">
        <ele>558.6633301</ele>
        <time>2014-01-18T09:48:04Z</time>
      </trkpt>
      <trkpt lat="44.44411" lon="2.5116">
        <ele>558.6633301</ele>
        <time>2014-01-18T09:48:12Z</time>
      </trkpt>
      <trkpt lat="44.44411" lon="2.51159">
        <ele>557.7021484</ele>
        <time>2014-01-18T09:48:36Z</time>
      </trkpt>
      <trkpt lat="44.44413" lon="2.51162">
        <ele>557.7021484</ele>
        <time>2014-01-18T09:48:43Z</time>
      </trkpt>
      <trkpt lat="44.44424" lon="2.5117">
        <ele>557.2214355</ele>
        <time>2014-01-18T09:48:48Z</time>
      </trkpt>
      <trkpt lat="44.44427" lon="2.51171">
        <ele>556.7407227</ele>
        <time>2014-01-18T09:48:49Z</time>
      </trkpt>
      <trkpt lat="44.44437" lon="2.51175">
        <ele>556.7407227</ele>
        <time>2014-01-18T09:48:54Z</time>
      </trkpt>
      <trkpt lat="44.44453" lon="2.51182">
        <ele>556.2600098</ele>
        <time>2014-01-18T09:49:01Z</time>
      </trkpt>
      <trkpt lat="44.44472" lon="2.51185">
        <ele>557.2214355</ele>
        <time>2014-01-18T09:49:08Z</time>
      </trkpt>
      <trkpt lat="44.44482" lon="2.51186">
        <ele>558.1828613</ele>
        <time>2014-01-18T09:49:12Z</time>
      </trkpt>
      <trkpt lat="44.44496" lon="2.51189">
        <ele>558.6633301</ele>
        <time>2014-01-18T09:49:17Z</time>
      </trkpt>
      <trkpt lat="44.44506" lon="2.51192">
        <ele>559.6247559</ele>
        <time>2014-01-18T09:49:21Z</time>
      </trkpt>
      <trkpt lat="44.4452" lon="2.51192">
        <ele>562.0280762</ele>
        <time>2014-01-18T09:49:26Z</time>
      </trkpt>
      <trkpt lat="44.44531" lon="2.51192">
        <ele>562.5085449</ele>
        <time>2014-01-18T09:49:30Z</time>
      </trkpt>
      <trkpt lat="44.44544" lon="2.5119">
        <ele>563.4699707</ele>
        <time>2014-01-18T09:49:35Z</time>
      </trkpt>
      <trkpt lat="44.44558" lon="2.51191">
        <ele>563.9504395</ele>
        <time>2014-01-18T09:49:40Z</time>
      </trkpt>
      <trkpt lat="44.44572" lon="2.51192">
        <ele>564.4311523</ele>
        <time>2014-01-18T09:49:45Z</time>
      </trkpt>
      <trkpt lat="44.4459" lon="2.51189">
        <ele>564.4311523</ele>
        <time>2014-01-18T09:49:52Z</time>
      </trkpt>
      <trkpt lat="44.44609" lon="2.51185">
        <ele>565.3925781</ele>
        <time>2014-01-18T09:49:59Z</time>
      </trkpt>
      <trkpt lat="44.44623" lon="2.51179">
        <ele>565.3925781</ele>
        <time>2014-01-18T09:50:04Z</time>
      </trkpt>
      <trkpt lat="44.44636" lon="2.51171">
        <ele>565.3925781</ele>
        <time>2014-01-18T09:50:09Z</time>
      </trkpt>
      <trkpt lat="44.44647" lon="2.51165">
        <ele>564.9118652</ele>
        <time>2014-01-18T09:50:13Z</time>
      </trkpt>
      <trkpt lat="44.4466" lon="2.51157">
        <ele>564.4311523</ele>
        <time>2014-01-18T09:50:18Z</time>
      </trkpt>
      <trkpt lat="44.4467" lon="2.51146">
        <ele>563.9504395</ele>
        <time>2014-01-18T09:50:23Z</time>
      </trkpt>
      <trkpt lat="44.44677" lon="2.51128">
        <ele>563.9504395</ele>
        <time>2014-01-18T09:50:28Z</time>
      </trkpt>
      <trkpt lat="44.44684" lon="2.51111">
        <ele>562.9892578</ele>
        <time>2014-01-18T09:50:33Z</time>
      </trkpt>
      <trkpt lat="44.44691" lon="2.51091">
        <ele>562.9892578</ele>
        <time>2014-01-18T09:50:38Z</time>
      </trkpt>
      <trkpt lat="44.44698" lon="2.51074">
        <ele>562.0280762</ele>
        <time>2014-01-18T09:50:43Z</time>
      </trkpt>
      <trkpt lat="44.44703" lon="2.51061">
        <ele>561.5473633</ele>
        <time>2014-01-18T09:50:47Z</time>
      </trkpt>
      <trkpt lat="44.44709" lon="2.51038">
        <ele>560.5859375</ele>
        <time>2014-01-18T09:50:53Z</time>
      </trkpt>
      <trkpt lat="44.44714" lon="2.51019">
        <ele>560.1052246</ele>
        <time>2014-01-18T09:50:58Z</time>
      </trkpt>
      <trkpt lat="44.44719" lon="2.51">
        <ele>559.144043</ele>
        <time>2014-01-18T09:51:03Z</time>
      </trkpt>
      <trkpt lat="44.44723" lon="2.50977">
        <ele>559.6247559</ele>
        <time>2014-01-18T09:51:09Z</time>
      </trkpt>
      <trkpt lat="44.44725" lon="2.50962">
        <ele>560.1052246</ele>
        <time>2014-01-18T09:51:13Z</time>
      </trkpt>
      <trkpt lat="44.44728" lon="2.50943">
        <ele>559.6247559</ele>
        <time>2014-01-18T09:51:18Z</time>
      </trkpt>
      <trkpt lat="44.44728" lon="2.50939">
        <ele>559.6247559</ele>
        <time>2014-01-18T09:51:19Z</time>
      </trkpt>
      <trkpt lat="44.4473" lon="2.50921">
        <ele>560.1052246</ele>
        <time>2014-01-18T09:51:24Z</time>
      </trkpt>
      <trkpt lat="44.4473" lon="2.50903">
        <ele>559.144043</ele>
        <time>2014-01-18T09:51:29Z</time>
      </trkpt>
      <trkpt lat="44.44731" lon="2.50882">
        <ele>559.6247559</ele>
        <time>2014-01-18T09:51:34Z</time>
      </trkpt>
      <trkpt lat="44.44731" lon="2.50862">
        <ele>559.144043</ele>
        <time>2014-01-18T09:51:39Z</time>
      </trkpt>
      <trkpt lat="44.4473" lon="2.5085">
        <ele>559.6247559</ele>
        <time>2014-01-18T09:51:43Z</time>
      </trkpt>
      <trkpt lat="44.44727" lon="2.50835">
        <ele>560.1052246</ele>
        <time>2014-01-18T09:51:48Z</time>
      </trkpt>
      <trkpt lat="44.44723" lon="2.50819">
        <ele>560.1052246</ele>
        <time>2014-01-18T09:51:52Z</time>
      </trkpt>
      <trkpt lat="44.44721" lon="2.50793">
        <ele>559.144043</ele>
        <time>2014-01-18T09:51:59Z</time>
      </trkpt>
      <trkpt lat="44.44718" lon="2.50769">
        <ele>558.6633301</ele>
        <time>2014-01-18T09:52:05Z</time>
      </trkpt>
      <trkpt lat="44.44715" lon="2.50743">
        <ele>557.2214355</ele>
        <time>2014-01-18T09:52:11Z</time>
      </trkpt>
      <trkpt lat="44.44715" lon="2.50723">
        <ele>556.7407227</ele>
        <time>2014-01-18T09:52:16Z</time>
      </trkpt>
      <trkpt lat="44.44713" lon="2.50704">
        <ele>556.2600098</ele>
        <time>2014-01-18T09:52:21Z</time>
      </trkpt>
      <trkpt lat="44.44712" lon="2.50701">
        <ele>556.2600098</ele>
        <time>2014-01-18T09:52:22Z</time>
      </trkpt>
      <trkpt lat="44.44708" lon="2.50686">
        <ele>556.2600098</ele>
        <time>2014-01-18T09:52:27Z</time>
      </trkpt>
      <trkpt lat="44.44704" lon="2.50669">
        <ele>555.298584</ele>
        <time>2014-01-18T09:52:32Z</time>
      </trkpt>
      <trkpt lat="44.44699" lon="2.50654">
        <ele>554.3374023</ele>
        <time>2014-01-18T09:52:37Z</time>
      </trkpt>
      <trkpt lat="44.44696" lon="2.5064">
        <ele>553.3759766</ele>
        <time>2014-01-18T09:52:41Z</time>
      </trkpt>
      <trkpt lat="44.44694" lon="2.50624">
        <ele>551.934082</ele>
        <time>2014-01-18T09:52:46Z</time>
      </trkpt>
      <trkpt lat="44.44692" lon="2.5061">
        <ele>550.0114746</ele>
        <time>2014-01-18T09:52:51Z</time>
      </trkpt>
      <trkpt lat="44.44687" lon="2.50595">
        <ele>549.0500488</ele>
        <time>2014-01-18T09:52:55Z</time>
      </trkpt>
      <trkpt lat="44.44679" lon="2.50577">
        <ele>548.5693359</ele>
        <time>2014-01-18T09:53:00Z</time>
      </trkpt>
      <trkpt lat="44.44672" lon="2.50563">
        <ele>547.1274414</ele>
        <time>2014-01-18T09:53:04Z</time>
      </trkpt>
      <trkpt lat="44.44663" lon="2.50543">
        <ele>544.7242432</ele>
        <time>2014-01-18T09:53:10Z</time>
      </trkpt>
      <trkpt lat="44.44656" lon="2.50528">
        <ele>542.8015137</ele>
        <time>2014-01-18T09:53:16Z</time>
      </trkpt>
      <trkpt lat="44.44649" lon="2.50513">
        <ele>542.3209229</ele>
        <time>2014-01-18T09:53:21Z</time>
      </trkpt>
      <trkpt lat="44.44645" lon="2.50499">
        <ele>541.3594971</ele>
        <time>2014-01-18T09:53:26Z</time>
      </trkpt>
      <trkpt lat="44.4464" lon="2.5049">
        <ele>539.9176025</ele>
        <time>2014-01-18T09:53:30Z</time>
      </trkpt>
      <trkpt lat="44.4463" lon="2.50483">
        <ele>538.9562988</ele>
        <time>2014-01-18T09:53:34Z</time>
      </trkpt>
      <trkpt lat="44.44623" lon="2.50474">
        <ele>537.5142822</ele>
        <time>2014-01-18T09:53:38Z</time>
      </trkpt>
      <trkpt lat="44.44615" lon="2.50461">
        <ele>536.5531006</ele>
        <time>2014-01-18T09:53:42Z</time>
      </trkpt>
      <trkpt lat="44.44608" lon="2.50442">
        <ele>535.5915527</ele>
        <time>2014-01-18T09:53:47Z</time>
      </trkpt>
      <trkpt lat="44.44598" lon="2.50426">
        <ele>535.1109619</ele>
        <time>2014-01-18T09:53:52Z</time>
      </trkpt>
      <trkpt lat="44.44594" lon="2.5042">
        <ele>535.5915527</ele>
        <time>2014-01-18T09:53:54Z</time>
      </trkpt>
      <trkpt lat="44.44591" lon="2.50404">
        <ele>535.1109619</ele>
        <time>2014-01-18T09:53:58Z</time>
      </trkpt>
      <trkpt lat="44.44589" lon="2.50398">
        <ele>534.6303711</ele>
        <time>2014-01-18T09:54:00Z</time>
      </trkpt>
      <trkpt lat="44.44583" lon="2.5039">
        <ele>533.6689453</ele>
        <time>2014-01-18T09:54:03Z</time>
      </trkpt>
      <trkpt lat="44.44577" lon="2.50379">
        <ele>533.1883545</ele>
        <time>2014-01-18T09:54:06Z</time>
      </trkpt>
      <trkpt lat="44.4457" lon="2.50354">
        <ele>533.6689453</ele>
        <time>2014-01-18T09:54:13Z</time>
      </trkpt>
      <trkpt lat="44.44567" lon="2.50343">
        <ele>534.1496582</ele>
        <time>2014-01-18T09:54:16Z</time>
      </trkpt>
      <trkpt lat="44.44563" lon="2.50323">
        <ele>534.1496582</ele>
        <time>2014-01-18T09:54:21Z</time>
      </trkpt>
      <trkpt lat="44.44555" lon="2.50306">
        <ele>532.2270508</ele>
        <time>2014-01-18T09:54:26Z</time>
      </trkpt>
      <trkpt lat="44.4455" lon="2.50298">
        <ele>531.2657471</ele>
        <time>2014-01-18T09:54:29Z</time>
      </trkpt>
      <trkpt lat="44.44547" lon="2.50277">
        <ele>527.4204102</ele>
        <time>2014-01-18T09:54:34Z</time>
      </trkpt>
      <trkpt lat="44.44549" lon="2.50251">
        <ele>523.0946045</ele>
        <time>2014-01-18T09:54:40Z</time>
      </trkpt>
      <trkpt lat="44.44548" lon="2.5024">
        <ele>520.2105713</ele>
        <time>2014-01-18T09:54:44Z</time>
      </trkpt>
      <trkpt lat="44.44553" lon="2.50226">
        <ele>516.3652344</ele>
        <time>2014-01-18T09:54:49Z</time>
      </trkpt>
      <trkpt lat="44.44551" lon="2.50216">
        <ele>513.4814453</ele>
        <time>2014-01-18T09:54:53Z</time>
      </trkpt>
      <trkpt lat="44.44551" lon="2.50205">
        <ele>510.59729</ele>
        <time>2014-01-18T09:54:57Z</time>
      </trkpt>
      <trkpt lat="44.44551" lon="2.50196">
        <ele>508.1940918</ele>
        <time>2014-01-18T09:55:00Z</time>
      </trkpt>
      <trkpt lat="44.44551" lon="2.50179">
        <ele>504.348877</ele>
        <time>2014-01-18T09:55:06Z</time>
      </trkpt>
      <trkpt lat="44.44551" lon="2.50177">
        <ele>503.3874512</ele>
        <time>2014-01-18T09:55:07Z</time>
      </trkpt>
      <trkpt lat="44.44552" lon="2.5016">
        <ele>499.5422363</ele>
        <time>2014-01-18T09:55:12Z</time>
      </trkpt>
      <trkpt lat="44.44555" lon="2.50152">
        <ele>497.6196289</ele>
        <time>2014-01-18T09:55:15Z</time>
      </trkpt>
      <trkpt lat="44.44555" lon="2.50148">
        <ele>496.6583252</ele>
        <time>2014-01-18T09:55:18Z</time>
      </trkpt>
      <trkpt lat="44.44559" lon="2.50133">
        <ele>491.3709717</ele>
        <time>2014-01-18T09:55:24Z</time>
      </trkpt>
      <trkpt lat="44.44563" lon="2.50124">
        <ele>488.9677734</ele>
        <time>2014-01-18T09:55:28Z</time>
      </trkpt>
      <trkpt lat="44.44574" lon="2.50111">
        <ele>484.6418457</ele>
        <time>2014-01-18T09:55:35Z</time>
      </trkpt>
      <trkpt lat="44.4458" lon="2.50104">
        <ele>482.7192383</ele>
        <time>2014-01-18T09:55:39Z</time>
      </trkpt>
      <trkpt lat="44.44583" lon="2.50099">
        <ele>480.315918</ele>
        <time>2014-01-18T09:55:42Z</time>
      </trkpt>
      <trkpt lat="44.44589" lon="2.50093">
        <ele>478.3931885</ele>
        <time>2014-01-18T09:55:46Z</time>
      </trkpt>
      <trkpt lat="44.44591" lon="2.5009">
        <ele>476.9512939</ele>
        <time>2014-01-18T09:55:48Z</time>
      </trkpt>
      <trkpt lat="44.44593" lon="2.50074">
        <ele>474.0672607</ele>
        <time>2014-01-18T09:55:54Z</time>
      </trkpt>
      <trkpt lat="44.44594" lon="2.50068">
        <ele>470.7026367</ele>
        <time>2014-01-18T09:55:57Z</time>
      </trkpt>
      <trkpt lat="44.44592" lon="2.5005">
        <ele>465.8961182</ele>
        <time>2014-01-18T09:56:04Z</time>
      </trkpt>
      <trkpt lat="44.44592" lon="2.50047">
        <ele>464.4541016</ele>
        <time>2014-01-18T09:56:05Z</time>
      </trkpt>
      <trkpt lat="44.44589" lon="2.50033">
        <ele>459.1668701</ele>
        <time>2014-01-18T09:56:11Z</time>
      </trkpt>
      <trkpt lat="44.44589" lon="2.5003">
        <ele>458.2055664</ele>
        <time>2014-01-18T09:56:12Z</time>
      </trkpt>
      <trkpt lat="44.4459" lon="2.50014">
        <ele>452.4376221</ele>
        <time>2014-01-18T09:56:18Z</time>
      </trkpt>
      <trkpt lat="44.44592" lon="2.50006">
        <ele>450.5150146</ele>
        <time>2014-01-18T09:56:21Z</time>
      </trkpt>
      <trkpt lat="44.44598" lon="2.49994">
        <ele>446.6696777</ele>
        <time>2014-01-18T09:56:27Z</time>
      </trkpt>
      <trkpt lat="44.44598" lon="2.49992">
        <ele>446.6696777</ele>
        <time>2014-01-18T09:56:28Z</time>
      </trkpt>
      <trkpt lat="44.44597" lon="2.49989">
        <ele>447.1502686</ele>
        <time>2014-01-18T09:56:32Z</time>
      </trkpt>
      <trkpt lat="44.44596" lon="2.49987">
        <ele>447.1502686</ele>
        <time>2014-01-18T09:56:39Z</time>
      </trkpt>
      <trkpt lat="44.44595" lon="2.49985">
        <ele>447.6309814</ele>
        <time>2014-01-18T09:56:45Z</time>
      </trkpt>
      <trkpt lat="44.44595" lon="2.49986">
        <ele>447.1502686</ele>
        <time>2014-01-18T09:56:50Z</time>
      </trkpt>
      <trkpt lat="44.44594" lon="2.49983">
        <ele>449.072998</ele>
        <time>2014-01-18T09:57:05Z</time>
      </trkpt>
      <trkpt lat="44.44594" lon="2.49982">
        <ele>450.5150146</ele>
        <time>2014-01-18T09:57:13Z</time>
      </trkpt>
      <trkpt lat="44.44591" lon="2.49979">
        <ele>450.9956055</ele>
        <time>2014-01-18T09:57:34Z</time>
      </trkpt>
      <trkpt lat="44.44591" lon="2.49978">
        <ele>454.8408203</ele>
        <time>2014-01-18T09:57:48Z</time>
      </trkpt>
      <trkpt lat="44.4459" lon="2.49978">
        <ele>456.282959</ele>
        <time>2014-01-18T09:58:03Z</time>
      </trkpt>
      <trkpt lat="44.44593" lon="2.49978">
        <ele>458.2055664</ele>
        <time>2014-01-18T09:58:19Z</time>
      </trkpt>
      <trkpt lat="44.44593" lon="2.49977">
        <ele>458.2055664</ele>
        <time>2014-01-18T09:58:31Z</time>
      </trkpt>
      <trkpt lat="44.44593" lon="2.49978">
        <ele>458.6861572</ele>
        <time>2014-01-18T09:58:43Z</time>
      </trkpt>
      <trkpt lat="44.44595" lon="2.4998">
        <ele>457.2442627</ele>
        <time>2014-01-18T09:58:47Z</time>
      </trkpt>
      <trkpt lat="44.44602" lon="2.49987">
        <ele>454.3602295</ele>
        <time>2014-01-18T09:58:52Z</time>
      </trkpt>
      <trkpt lat="44.44611" lon="2.49999">
        <ele>451.9570313</ele>
        <time>2014-01-18T09:58:57Z</time>
      </trkpt>
      <trkpt lat="44.44622" lon="2.50012">
        <ele>450.0344238</ele>
        <time>2014-01-18T09:59:02Z</time>
      </trkpt>
      <trkpt lat="44.44634" lon="2.50026">
        <ele>448.1118164</ele>
        <time>2014-01-18T09:59:07Z</time>
      </trkpt>
      <trkpt lat="44.44644" lon="2.50036">
        <ele>446.1890869</ele>
        <time>2014-01-18T09:59:11Z</time>
      </trkpt>
      <trkpt lat="44.44656" lon="2.50045">
        <ele>445.708374</ele>
        <time>2014-01-18T09:59:15Z</time>
      </trkpt>
      <trkpt lat="44.44668" lon="2.50053">
        <ele>444.7470703</ele>
        <time>2014-01-18T09:59:19Z</time>
      </trkpt>
      <trkpt lat="44.44681" lon="2.5006">
        <ele>443.7857666</ele>
        <time>2014-01-18T09:59:24Z</time>
      </trkpt>
      <trkpt lat="44.44697" lon="2.50065">
        <ele>444.2664795</ele>
        <time>2014-01-18T09:59:29Z</time>
      </trkpt>
      <trkpt lat="44.44709" lon="2.50068">
        <ele>446.1890869</ele>
        <time>2014-01-18T09:59:34Z</time>
      </trkpt>
      <trkpt lat="44.44725" lon="2.50077">
        <ele>446.1890869</ele>
        <time>2014-01-18T09:59:39Z</time>
      </trkpt>
      <trkpt lat="44.4474" lon="2.50088">
        <ele>445.2276611</ele>
        <time>2014-01-18T09:59:44Z</time>
      </trkpt>
      <trkpt lat="44.44755" lon="2.501">
        <ele>442.8244629</ele>
        <time>2014-01-18T09:59:49Z</time>
      </trkpt>
      <trkpt lat="44.44769" lon="2.50113">
        <ele>440.9018555</ele>
        <time>2014-01-18T09:59:54Z</time>
      </trkpt>
      <trkpt lat="44.4478" lon="2.50122">
        <ele>439.9404297</ele>
        <time>2014-01-18T09:59:58Z</time>
      </trkpt>
      <trkpt lat="44.44797" lon="2.50137">
        <ele>437.5371094</ele>
        <time>2014-01-18T10:00:04Z</time>
      </trkpt>
      <trkpt lat="44.4481" lon="2.50149">
        <ele>437.0565186</ele>
        <time>2014-01-18T10:00:09Z</time>
      </trkpt>
      <trkpt lat="44.44822" lon="2.50159">
        <ele>438.0178223</ele>
        <time>2014-01-18T10:00:14Z</time>
      </trkpt>
      <trkpt lat="44.44837" lon="2.5017">
        <ele>439.4597168</ele>
        <time>2014-01-18T10:00:20Z</time>
      </trkpt>
      <trkpt lat="44.44851" lon="2.50177">
        <ele>439.9404297</ele>
        <time>2014-01-18T10:00:25Z</time>
      </trkpt>
      <trkpt lat="44.44868" lon="2.5018">
        <ele>443.3050537</ele>
        <time>2014-01-18T10:00:31Z</time>
      </trkpt>
      <trkpt lat="44.44882" lon="2.50183">
        <ele>445.2276611</ele>
        <time>2014-01-18T10:00:36Z</time>
      </trkpt>
      <trkpt lat="44.44896" lon="2.50186">
        <ele>447.1502686</ele>
        <time>2014-01-18T10:00:41Z</time>
      </trkpt>
      <trkpt lat="44.4491" lon="2.50189">
        <ele>448.1118164</ele>
        <time>2014-01-18T10:00:46Z</time>
      </trkpt>
      <trkpt lat="44.44924" lon="2.50193">
        <ele>448.5924072</ele>
        <time>2014-01-18T10:00:51Z</time>
      </trkpt>
      <trkpt lat="44.44938" lon="2.50198">
        <ele>447.6309814</ele>
        <time>2014-01-18T10:00:56Z</time>
      </trkpt>
      <trkpt lat="44.44952" lon="2.50201">
        <ele>448.1118164</ele>
        <time>2014-01-18T10:01:01Z</time>
      </trkpt>
      <trkpt lat="44.44969" lon="2.502">
        <ele>448.1118164</ele>
        <time>2014-01-18T10:01:07Z</time>
      </trkpt>
      <trkpt lat="44.44979" lon="2.5019">
        <ele>448.5924072</ele>
        <time>2014-01-18T10:01:12Z</time>
      </trkpt>
      <trkpt lat="44.44988" lon="2.50169">
        <ele>448.5924072</ele>
        <time>2014-01-18T10:01:18Z</time>
      </trkpt>
      <trkpt lat="44.44992" lon="2.5015">
        <ele>448.5924072</ele>
        <time>2014-01-18T10:01:23Z</time>
      </trkpt>
      <trkpt lat="44.44996" lon="2.50128">
        <ele>449.072998</ele>
        <time>2014-01-18T10:01:29Z</time>
      </trkpt>
      <trkpt lat="44.45003" lon="2.50119">
        <ele>450.0344238</ele>
        <time>2014-01-18T10:01:34Z</time>
      </trkpt>
      <trkpt lat="44.45005" lon="2.50115">
        <ele>450.9956055</ele>
        <time>2014-01-18T10:01:37Z</time>
      </trkpt>
      <trkpt lat="44.45006" lon="2.50104">
        <ele>454.3602295</ele>
        <time>2014-01-18T10:01:42Z</time>
      </trkpt>
      <trkpt lat="44.45006" lon="2.50097">
        <ele>456.282959</ele>
        <time>2014-01-18T10:01:45Z</time>
      </trkpt>
      <trkpt lat="44.45012" lon="2.50089">
        <ele>458.2055664</ele>
        <time>2014-01-18T10:01:51Z</time>
      </trkpt>
      <trkpt lat="44.45018" lon="2.50087">
        <ele>460.6087646</ele>
        <time>2014-01-18T10:01:55Z</time>
      </trkpt>
      <trkpt lat="44.45022" lon="2.50078">
        <ele>462.5313721</ele>
        <time>2014-01-18T10:02:01Z</time>
      </trkpt>
      <trkpt lat="44.45024" lon="2.50072">
        <ele>463.9733887</ele>
        <time>2014-01-18T10:02:04Z</time>
      </trkpt>
      <trkpt lat="44.45027" lon="2.50061">
        <ele>464.4541016</ele>
        <time>2014-01-18T10:02:10Z</time>
      </trkpt>
      <trkpt lat="44.45028" lon="2.50048">
        <ele>467.8187256</ele>
        <time>2014-01-18T10:02:16Z</time>
      </trkpt>
      <trkpt lat="44.45029" lon="2.50047">
        <ele>467.8187256</ele>
        <time>2014-01-18T10:02:17Z</time>
      </trkpt>
      <trkpt lat="44.45032" lon="2.50047">
        <ele>468.7800293</ele>
        <time>2014-01-18T10:02:20Z</time>
      </trkpt>
      <trkpt lat="44.45034" lon="2.50047">
        <ele>469.741333</ele>
        <time>2014-01-18T10:02:22Z</time>
      </trkpt>
      <trkpt lat="44.45037" lon="2.50046">
        <ele>470.2219238</ele>
        <time>2014-01-18T10:02:25Z</time>
      </trkpt>
      <trkpt lat="44.45037" lon="2.50042">
        <ele>471.6639404</ele>
        <time>2014-01-18T10:02:28Z</time>
      </trkpt>
      <trkpt lat="44.4504" lon="2.50042">
        <ele>473.1060791</ele>
        <time>2014-01-18T10:02:33Z</time>
      </trkpt>
      <trkpt lat="44.45044" lon="2.50046">
        <ele>473.5866699</ele>
        <time>2014-01-18T10:02:38Z</time>
      </trkpt>
      <trkpt lat="44.45047" lon="2.50053">
        <ele>475.5092773</ele>
        <time>2014-01-18T10:02:44Z</time>
      </trkpt>
      <trkpt lat="44.45048" lon="2.50061">
        <ele>477.4318848</ele>
        <time>2014-01-18T10:02:49Z</time>
      </trkpt>
      <trkpt lat="44.45053" lon="2.50072">
        <ele>480.7966309</ele>
        <time>2014-01-18T10:02:56Z</time>
      </trkpt>
      <trkpt lat="44.45055" lon="2.50076">
        <ele>481.7578125</ele>
        <time>2014-01-18T10:03:00Z</time>
      </trkpt>
      <trkpt lat="44.45061" lon="2.50084">
        <ele>486.5644531</ele>
        <time>2014-01-18T10:03:05Z</time>
      </trkpt>
      <trkpt lat="44.45069" lon="2.5009">
        <ele>498.5809326</ele>
        <time>2014-01-18T10:03:21Z</time>
      </trkpt>
      <trkpt lat="44.45074" lon="2.50097">
        <ele>496.1777344</ele>
        <time>2014-01-18T10:03:27Z</time>
      </trkpt>
      <trkpt lat="44.45076" lon="2.50102">
        <ele>494.2550049</ele>
        <time>2014-01-18T10:03:30Z</time>
      </trkpt>
      <trkpt lat="44.4508" lon="2.50117">
        <ele>487.5256348</ele>
        <time>2014-01-18T10:03:36Z</time>
      </trkpt>
      <trkpt lat="44.4508" lon="2.50119">
        <ele>485.6030273</ele>
        <time>2014-01-18T10:03:37Z</time>
      </trkpt>
      <trkpt lat="44.45074" lon="2.50127">
        <ele>475.9898682</ele>
        <time>2014-01-18T10:03:42Z</time>
      </trkpt>
      <trkpt lat="44.45068" lon="2.50123">
        <ele>472.6253662</ele>
        <time>2014-01-18T10:03:46Z</time>
      </trkpt>
      <trkpt lat="44.45058" lon="2.50126">
        <ele>470.7026367</ele>
        <time>2014-01-18T10:03:50Z</time>
      </trkpt>
      <trkpt lat="44.45045" lon="2.50134">
        <ele>470.7026367</ele>
        <time>2014-01-18T10:03:55Z</time>
      </trkpt>
      <trkpt lat="44.45036" lon="2.50147">
        <ele>473.5866699</ele>
        <time>2014-01-18T10:03:59Z</time>
      </trkpt>
      <trkpt lat="44.45036" lon="2.50154">
        <ele>475.0286865</ele>
        <time>2014-01-18T10:04:02Z</time>
      </trkpt>
      <trkpt lat="44.45035" lon="2.50159">
        <ele>475.0286865</ele>
        <time>2014-01-18T10:04:06Z</time>
      </trkpt>
      <trkpt lat="44.45033" lon="2.50164">
        <ele>475.9898682</ele>
        <time>2014-01-18T10:04:12Z</time>
      </trkpt>
      <trkpt lat="44.4503" lon="2.50167">
        <ele>476.9512939</ele>
        <time>2014-01-18T10:04:17Z</time>
      </trkpt>
      <trkpt lat="44.45031" lon="2.50168">
        <ele>479.3544922</ele>
        <time>2014-01-18T10:04:25Z</time>
      </trkpt>
      <trkpt lat="44.45031" lon="2.50167">
        <ele>480.315918</ele>
        <time>2014-01-18T10:04:32Z</time>
      </trkpt>
      <trkpt lat="44.45029" lon="2.50162">
        <ele>482.7192383</ele>
        <time>2014-01-18T10:04:56Z</time>
      </trkpt>
      <trkpt lat="44.45031" lon="2.50159">
        <ele>482.2385254</ele>
        <time>2014-01-18T10:05:07Z</time>
      </trkpt>
      <trkpt lat="44.45033" lon="2.50157">
        <ele>481.2772217</ele>
        <time>2014-01-18T10:05:11Z</time>
      </trkpt>
      <trkpt lat="44.45033" lon="2.50152">
        <ele>480.7966309</ele>
        <time>2014-01-18T10:05:15Z</time>
      </trkpt>
      <trkpt lat="44.45034" lon="2.50149">
        <ele>480.7966309</ele>
        <time>2014-01-18T10:05:16Z</time>
      </trkpt>
      <trkpt lat="44.45042" lon="2.50134">
        <ele>479.3544922</ele>
        <time>2014-01-18T10:05:21Z</time>
      </trkpt>
      <trkpt lat="44.45052" lon="2.50131">
        <ele>478.3931885</ele>
        <time>2014-01-18T10:05:25Z</time>
      </trkpt>
      <trkpt lat="44.45063" lon="2.5013">
        <ele>478.3931885</ele>
        <time>2014-01-18T10:05:30Z</time>
      </trkpt>
      <trkpt lat="44.45065" lon="2.5013">
        <ele>477.9124756</ele>
        <time>2014-01-18T10:05:31Z</time>
      </trkpt>
      <trkpt lat="44.45072" lon="2.50137">
        <ele>477.4318848</ele>
        <time>2014-01-18T10:05:36Z</time>
      </trkpt>
      <trkpt lat="44.45073" lon="2.50136">
        <ele>477.4318848</ele>
        <time>2014-01-18T10:05:37Z</time>
      </trkpt>
      <trkpt lat="44.45077" lon="2.50131">
        <ele>477.9124756</ele>
        <time>2014-01-18T10:05:39Z</time>
      </trkpt>
      <trkpt lat="44.45076" lon="2.5012">
        <ele>479.3544922</ele>
        <time>2014-01-18T10:05:43Z</time>
      </trkpt>
      <trkpt lat="44.45072" lon="2.5011">
        <ele>480.7966309</ele>
        <time>2014-01-18T10:05:46Z</time>
      </trkpt>
      <trkpt lat="44.45063" lon="2.5009">
        <ele>485.6030273</ele>
        <time>2014-01-18T10:05:52Z</time>
      </trkpt>
      <trkpt lat="44.45064" lon="2.50087">
        <ele>487.5256348</ele>
        <time>2014-01-18T10:05:54Z</time>
      </trkpt>
      <trkpt lat="44.45068" lon="2.50085">
        <ele>488.4871826</ele>
        <time>2014-01-18T10:05:58Z</time>
      </trkpt>
      <trkpt lat="44.4507" lon="2.50083">
        <ele>491.8516846</ele>
        <time>2014-01-18T10:06:01Z</time>
      </trkpt>
      <trkpt lat="44.45076" lon="2.50081">
        <ele>495.6968994</ele>
        <time>2014-01-18T10:06:06Z</time>
      </trkpt>
      <trkpt lat="44.4508" lon="2.50079">
        <ele>498.1003418</ele>
        <time>2014-01-18T10:06:10Z</time>
      </trkpt>
      <trkpt lat="44.45083" lon="2.50077">
        <ele>498.1003418</ele>
        <time>2014-01-18T10:06:13Z</time>
      </trkpt>
      <trkpt lat="44.45082" lon="2.50071">
        <ele>497.138916</ele>
        <time>2014-01-18T10:06:18Z</time>
      </trkpt>
      <trkpt lat="44.4508" lon="2.50064">
        <ele>499.5422363</ele>
        <time>2014-01-18T10:06:23Z</time>
      </trkpt>
      <trkpt lat="44.4508" lon="2.50057">
        <ele>499.0615234</ele>
        <time>2014-01-18T10:06:28Z</time>
      </trkpt>
      <trkpt lat="44.45077" lon="2.50052">
        <ele>500.9841309</ele>
        <time>2014-01-18T10:06:32Z</time>
      </trkpt>
      <trkpt lat="44.45076" lon="2.50044">
        <ele>501.4648438</ele>
        <time>2014-01-18T10:06:37Z</time>
      </trkpt>
      <trkpt lat="44.45076" lon="2.50033">
        <ele>504.348877</ele>
        <time>2014-01-18T10:06:44Z</time>
      </trkpt>
      <trkpt lat="44.45074" lon="2.50022">
        <ele>506.7520752</ele>
        <time>2014-01-18T10:06:50Z</time>
      </trkpt>
      <trkpt lat="44.45073" lon="2.50011">
        <ele>507.713501</ele>
        <time>2014-01-18T10:06:57Z</time>
      </trkpt>
      <trkpt lat="44.45073" lon="2.5001">
        <ele>508.1940918</ele>
        <time>2014-01-18T10:06:58Z</time>
      </trkpt>
      <trkpt lat="44.45073" lon="2.5">
        <ele>508.1940918</ele>
        <time>2014-01-18T10:07:03Z</time>
      </trkpt>
      <trkpt lat="44.45075" lon="2.49986">
        <ele>509.1553955</ele>
        <time>2014-01-18T10:07:11Z</time>
      </trkpt>
      <trkpt lat="44.45078" lon="2.49977">
        <ele>510.59729</ele>
        <time>2014-01-18T10:07:17Z</time>
      </trkpt>
      <trkpt lat="44.45079" lon="2.49972">
        <ele>511.5587158</ele>
        <time>2014-01-18T10:07:21Z</time>
      </trkpt>
      <trkpt lat="44.45081" lon="2.49966">
        <ele>512.0394287</ele>
        <time>2014-01-18T10:07:26Z</time>
      </trkpt>
      <trkpt lat="44.45082" lon="2.4996">
        <ele>512.0394287</ele>
        <time>2014-01-18T10:07:30Z</time>
      </trkpt>
      <trkpt lat="44.45084" lon="2.49955">
        <ele>512.5200195</ele>
        <time>2014-01-18T10:07:34Z</time>
      </trkpt>
      <trkpt lat="44.45086" lon="2.4995">
        <ele>511.0780029</ele>
        <time>2014-01-18T10:07:39Z</time>
      </trkpt>
      <trkpt lat="44.45085" lon="2.49935">
        <ele>509.1553955</ele>
        <time>2014-01-18T10:07:44Z</time>
      </trkpt>
      <trkpt lat="44.45083" lon="2.49915">
        <ele>510.59729</ele>
        <time>2014-01-18T10:07:49Z</time>
      </trkpt>
      <trkpt lat="44.45079" lon="2.49901">
        <ele>511.0780029</ele>
        <time>2014-01-18T10:07:53Z</time>
      </trkpt>
      <trkpt lat="44.45079" lon="2.49886">
        <ele>511.5587158</ele>
        <time>2014-01-18T10:07:57Z</time>
      </trkpt>
      <trkpt lat="44.45079" lon="2.49871">
        <ele>511.0780029</ele>
        <time>2014-01-18T10:08:01Z</time>
      </trkpt>
      <trkpt lat="44.45083" lon="2.49849">
        <ele>511.0780029</ele>
        <time>2014-01-18T10:08:06Z</time>
      </trkpt>
      <trkpt lat="44.45085" lon="2.49827">
        <ele>512.0394287</ele>
        <time>2014-01-18T10:08:12Z</time>
      </trkpt>
      <trkpt lat="44.45092" lon="2.49817">
        <ele>514.442627</ele>
        <time>2014-01-18T10:08:17Z</time>
      </trkpt>
      <trkpt lat="44.45098" lon="2.49811">
        <ele>514.9233398</ele>
        <time>2014-01-18T10:08:20Z</time>
      </trkpt>
      <trkpt lat="44.45107" lon="2.49807">
        <ele>516.3652344</ele>
        <time>2014-01-18T10:08:25Z</time>
      </trkpt>
      <trkpt lat="44.4512" lon="2.49799">
        <ele>516.8459473</ele>
        <time>2014-01-18T10:08:31Z</time>
      </trkpt>
      <trkpt lat="44.45124" lon="2.49797">
        <ele>517.807251</ele>
        <time>2014-01-18T10:08:33Z</time>
      </trkpt>
      <trkpt lat="44.4513" lon="2.49798">
        <ele>518.2878418</ele>
        <time>2014-01-18T10:08:37Z</time>
      </trkpt>
      <trkpt lat="44.45132" lon="2.49799">
        <ele>518.2878418</ele>
        <time>2014-01-18T10:08:38Z</time>
      </trkpt>
      <trkpt lat="44.45137" lon="2.49804">
        <ele>519.7298584</ele>
        <time>2014-01-18T10:08:46Z</time>
      </trkpt>
      <trkpt lat="44.45138" lon="2.49805">
        <ele>520.2105713</ele>
        <time>2014-01-18T10:09:05Z</time>
      </trkpt>
      <trkpt lat="44.45139" lon="2.49805">
        <ele>520.2105713</ele>
        <time>2014-01-18T10:09:15Z</time>
      </trkpt>
      <trkpt lat="44.45138" lon="2.49806">
        <ele>520.2105713</ele>
        <time>2014-01-18T10:09:26Z</time>
      </trkpt>
      <trkpt lat="44.45138" lon="2.49805">
        <ele>520.6912842</ele>
        <time>2014-01-18T10:09:37Z</time>
      </trkpt>
      <trkpt lat="44.45139" lon="2.49804">
        <ele>521.6525879</ele>
        <time>2014-01-18T10:09:49Z</time>
      </trkpt>
      <trkpt lat="44.45141" lon="2.49805">
        <ele>521.6525879</ele>
        <time>2014-01-18T10:09:58Z</time>
      </trkpt>
      <trkpt lat="44.45145" lon="2.49808">
        <ele>521.6525879</ele>
        <time>2014-01-18T10:10:04Z</time>
      </trkpt>
      <trkpt lat="44.4515" lon="2.4981">
        <ele>520.6912842</ele>
        <time>2014-01-18T10:10:11Z</time>
      </trkpt>
      <trkpt lat="44.45152" lon="2.49814">
        <ele>520.6912842</ele>
        <time>2014-01-18T10:10:15Z</time>
      </trkpt>
      <trkpt lat="44.45153" lon="2.49817">
        <ele>520.6912842</ele>
        <time>2014-01-18T10:10:16Z</time>
      </trkpt>
      <trkpt lat="44.45158" lon="2.49833">
        <ele>519.7298584</ele>
        <time>2014-01-18T10:10:20Z</time>
      </trkpt>
      <trkpt lat="44.45153" lon="2.49859">
        <ele>519.2492676</ele>
        <time>2014-01-18T10:10:26Z</time>
      </trkpt>
      <trkpt lat="44.4515" lon="2.49875">
        <ele>518.7685547</ele>
        <time>2014-01-18T10:10:30Z</time>
      </trkpt>
      <trkpt lat="44.45148" lon="2.49886">
        <ele>518.2878418</ele>
        <time>2014-01-18T10:10:33Z</time>
      </trkpt>
      <trkpt lat="44.45147" lon="2.49896">
        <ele>518.2878418</ele>
        <time>2014-01-18T10:10:36Z</time>
      </trkpt>
      <trkpt lat="44.45147" lon="2.49908">
        <ele>520.2105713</ele>
        <time>2014-01-18T10:10:40Z</time>
      </trkpt>
      <trkpt lat="44.45147" lon="2.49918">
        <ele>521.6525879</ele>
        <time>2014-01-18T10:10:44Z</time>
      </trkpt>
      <trkpt lat="44.45147" lon="2.49923">
        <ele>523.0946045</ele>
        <time>2014-01-18T10:10:49Z</time>
      </trkpt>
      <trkpt lat="44.45146" lon="2.49935">
        <ele>523.0946045</ele>
        <time>2014-01-18T10:10:52Z</time>
      </trkpt>
      <trkpt lat="44.45145" lon="2.49951">
        <ele>524.0557861</ele>
        <time>2014-01-18T10:10:56Z</time>
      </trkpt>
      <trkpt lat="44.45146" lon="2.49966">
        <ele>525.4978027</ele>
        <time>2014-01-18T10:11:00Z</time>
      </trkpt>
      <trkpt lat="44.45146" lon="2.49985">
        <ele>526.9398193</ele>
        <time>2014-01-18T10:11:05Z</time>
      </trkpt>
      <trkpt lat="44.45145" lon="2.50005">
        <ele>527.4204102</ele>
        <time>2014-01-18T10:11:11Z</time>
      </trkpt>
      <trkpt lat="44.45145" lon="2.50011">
        <ele>527.901001</ele>
        <time>2014-01-18T10:11:13Z</time>
      </trkpt>
      <trkpt lat="44.45147" lon="2.50034">
        <ele>527.901001</ele>
        <time>2014-01-18T10:11:20Z</time>
      </trkpt>
      <trkpt lat="44.45146" lon="2.50042">
        <ele>527.901001</ele>
        <time>2014-01-18T10:11:23Z</time>
      </trkpt>
      <trkpt lat="44.45153" lon="2.50062">
        <ele>530.3044434</ele>
        <time>2014-01-18T10:11:30Z</time>
      </trkpt>
      <trkpt lat="44.45154" lon="2.50065">
        <ele>530.3044434</ele>
        <time>2014-01-18T10:11:31Z</time>
      </trkpt>
      <trkpt lat="44.45164" lon="2.50085">
        <ele>531.7463379</ele>
        <time>2014-01-18T10:11:38Z</time>
      </trkpt>
      <trkpt lat="44.45172" lon="2.50102">
        <ele>532.7077637</ele>
        <time>2014-01-18T10:11:44Z</time>
      </trkpt>
      <trkpt lat="44.45176" lon="2.50116">
        <ele>534.1496582</ele>
        <time>2014-01-18T10:11:49Z</time>
      </trkpt>
      <trkpt lat="44.45177" lon="2.50132">
        <ele>537.0336914</ele>
        <time>2014-01-18T10:11:55Z</time>
      </trkpt>
      <trkpt lat="44.45176" lon="2.50141">
        <ele>537.9949951</ele>
        <time>2014-01-18T10:11:58Z</time>
      </trkpt>
      <trkpt lat="44.45177" lon="2.50159">
        <ele>539.9176025</ele>
        <time>2014-01-18T10:12:04Z</time>
      </trkpt>
      <trkpt lat="44.45177" lon="2.50174">
        <ele>541.3594971</ele>
        <time>2014-01-18T10:12:09Z</time>
      </trkpt>
      <trkpt lat="44.45177" lon="2.50185">
        <ele>542.3209229</ele>
        <time>2014-01-18T10:12:13Z</time>
      </trkpt>
      <trkpt lat="44.45175" lon="2.50199">
        <ele>544.2436523</ele>
        <time>2014-01-18T10:12:18Z</time>
      </trkpt>
      <trkpt lat="44.45171" lon="2.50214">
        <ele>545.204834</ele>
        <time>2014-01-18T10:12:23Z</time>
      </trkpt>
      <trkpt lat="44.45167" lon="2.50229">
        <ele>545.204834</ele>
        <time>2014-01-18T10:12:29Z</time>
      </trkpt>
      <trkpt lat="44.45164" lon="2.50249">
        <ele>547.1274414</ele>
        <time>2014-01-18T10:12:36Z</time>
      </trkpt>
      <trkpt lat="44.45164" lon="2.50268">
        <ele>548.0888672</ele>
        <time>2014-01-18T10:12:42Z</time>
      </trkpt>
      <trkpt lat="44.45165" lon="2.50277">
        <ele>548.5693359</ele>
        <time>2014-01-18T10:12:45Z</time>
      </trkpt>
      <trkpt lat="44.45168" lon="2.50294">
        <ele>549.5307617</ele>
        <time>2014-01-18T10:12:51Z</time>
      </trkpt>
      <trkpt lat="44.4517" lon="2.50309">
        <ele>550.0114746</ele>
        <time>2014-01-18T10:12:56Z</time>
      </trkpt>
      <trkpt lat="44.45171" lon="2.50321">
        <ele>550.9726563</ele>
        <time>2014-01-18T10:13:00Z</time>
      </trkpt>
      <trkpt lat="44.45172" lon="2.5034">
        <ele>551.934082</ele>
        <time>2014-01-18T10:13:06Z</time>
      </trkpt>
      <trkpt lat="44.45173" lon="2.50355">
        <ele>552.8952637</ele>
        <time>2014-01-18T10:13:11Z</time>
      </trkpt>
      <trkpt lat="44.45173" lon="2.50361">
        <ele>553.3759766</ele>
        <time>2014-01-18T10:13:13Z</time>
      </trkpt>
      <trkpt lat="44.45174" lon="2.50373">
        <ele>554.8178711</ele>
        <time>2014-01-18T10:13:17Z</time>
      </trkpt>
      <trkpt lat="44.4517" lon="2.50387">
        <ele>555.298584</ele>
        <time>2014-01-18T10:13:21Z</time>
      </trkpt>
      <trkpt lat="44.45173" lon="2.5041">
        <ele>555.7792969</ele>
        <time>2014-01-18T10:13:28Z</time>
      </trkpt>
      <trkpt lat="44.45172" lon="2.50426">
        <ele>556.7407227</ele>
        <time>2014-01-18T10:13:33Z</time>
      </trkpt>
      <trkpt lat="44.45172" lon="2.50432">
        <ele>556.7407227</ele>
        <time>2014-01-18T10:13:35Z</time>
      </trkpt>
      <trkpt lat="44.45173" lon="2.50443">
        <ele>557.7021484</ele>
        <time>2014-01-18T10:13:39Z</time>
      </trkpt>
      <trkpt lat="44.45174" lon="2.50449">
        <ele>558.1828613</ele>
        <time>2014-01-18T10:13:41Z</time>
      </trkpt>
      <trkpt lat="44.45174" lon="2.50469">
        <ele>560.5859375</ele>
        <time>2014-01-18T10:13:47Z</time>
      </trkpt>
      <trkpt lat="44.45173" lon="2.50485">
        <ele>561.0666504</ele>
        <time>2014-01-18T10:13:52Z</time>
      </trkpt>
      <trkpt lat="44.45174" lon="2.50505">
        <ele>561.5473633</ele>
        <time>2014-01-18T10:13:58Z</time>
      </trkpt>
      <trkpt lat="44.45173" lon="2.50521">
        <ele>561.5473633</ele>
        <time>2014-01-18T10:14:03Z</time>
      </trkpt>
      <trkpt lat="44.45171" lon="2.50539">
        <ele>562.0280762</ele>
        <time>2014-01-18T10:14:08Z</time>
      </trkpt>
      <trkpt lat="44.4517" lon="2.50559">
        <ele>563.9504395</ele>
        <time>2014-01-18T10:14:14Z</time>
      </trkpt>
      <trkpt lat="44.45167" lon="2.50578">
        <ele>563.9504395</ele>
        <time>2014-01-18T10:14:20Z</time>
      </trkpt>
      <trkpt lat="44.45165" lon="2.50593">
        <ele>564.9118652</ele>
        <time>2014-01-18T10:14:25Z</time>
      </trkpt>
      <trkpt lat="44.45164" lon="2.50606">
        <ele>565.3925781</ele>
        <time>2014-01-18T10:14:29Z</time>
      </trkpt>
      <trkpt lat="44.45163" lon="2.50624">
        <ele>566.3537598</ele>
        <time>2014-01-18T10:14:34Z</time>
      </trkpt>
      <trkpt lat="44.45167" lon="2.50632">
        <ele>566.8344727</ele>
        <time>2014-01-18T10:14:37Z</time>
      </trkpt>
      <trkpt lat="44.45175" lon="2.50647">
        <ele>566.8344727</ele>
        <time>2014-01-18T10:14:42Z</time>
      </trkpt>
      <trkpt lat="44.45183" lon="2.50658">
        <ele>566.8344727</ele>
        <time>2014-01-18T10:14:46Z</time>
      </trkpt>
      <trkpt lat="44.45194" lon="2.50673">
        <ele>565.873291</ele>
        <time>2014-01-18T10:14:51Z</time>
      </trkpt>
      <trkpt lat="44.45205" lon="2.50689">
        <ele>565.3925781</ele>
        <time>2014-01-18T10:14:56Z</time>
      </trkpt>
      <trkpt lat="44.45214" lon="2.50704">
        <ele>564.4311523</ele>
        <time>2014-01-18T10:15:01Z</time>
      </trkpt>
      <trkpt lat="44.4522" lon="2.50718">
        <ele>562.9892578</ele>
        <time>2014-01-18T10:15:06Z</time>
      </trkpt>
      <trkpt lat="44.45221" lon="2.50721">
        <ele>562.0280762</ele>
        <time>2014-01-18T10:15:08Z</time>
      </trkpt>
      <trkpt lat="44.45221" lon="2.50724">
        <ele>561.0666504</ele>
        <time>2014-01-18T10:15:13Z</time>
      </trkpt>
      <trkpt lat="44.45221" lon="2.50723">
        <ele>561.0666504</ele>
        <time>2014-01-18T10:15:18Z</time>
      </trkpt>
      <trkpt lat="44.4522" lon="2.50724">
        <ele>561.5473633</ele>
        <time>2014-01-18T10:15:27Z</time>
      </trkpt>
      <trkpt lat="44.45219" lon="2.50723">
        <ele>561.5473633</ele>
        <time>2014-01-18T10:15:35Z</time>
      </trkpt>
      <trkpt lat="44.45219" lon="2.50722">
        <ele>561.5473633</ele>
        <time>2014-01-18T10:15:40Z</time>
      </trkpt>
      <trkpt lat="44.45219" lon="2.50722">
        <ele>562.0280762</ele>
        <time>2014-01-18T10:15:44Z</time>
      </trkpt>
      <trkpt lat="44.45219" lon="2.50722">
        <ele>562.0280762</ele>
        <time>2014-01-18T10:15:50Z</time>
      </trkpt>
      <trkpt lat="44.4522" lon="2.50722">
        <ele>561.0666504</ele>
        <time>2014-01-18T10:16:00Z</time>
      </trkpt>
      <trkpt lat="44.45221" lon="2.50723">
        <ele>561.5473633</ele>
        <time>2014-01-18T10:16:09Z</time>
      </trkpt>
      <trkpt lat="44.45221" lon="2.50722">
        <ele>562.0280762</ele>
        <time>2014-01-18T10:16:17Z</time>
      </trkpt>
      <trkpt lat="44.45222" lon="2.50725">
        <ele>562.0280762</ele>
        <time>2014-01-18T10:16:23Z</time>
      </trkpt>
      <trkpt lat="44.45234" lon="2.50728">
        <ele>562.0280762</ele>
        <time>2014-01-18T10:16:29Z</time>
      </trkpt>
      <trkpt lat="44.45251" lon="2.5073">
        <ele>560.1052246</ele>
        <time>2014-01-18T10:16:35Z</time>
      </trkpt>
      <trkpt lat="44.45271" lon="2.50731">
        <ele>557.7021484</ele>
        <time>2014-01-18T10:16:42Z</time>
      </trkpt>
      <trkpt lat="44.45291" lon="2.50733">
        <ele>553.8566895</ele>
        <time>2014-01-18T10:16:49Z</time>
      </trkpt>
      <trkpt lat="44.45302" lon="2.50734">
        <ele>552.4145508</ele>
        <time>2014-01-18T10:16:53Z</time>
      </trkpt>
      <trkpt lat="44.45316" lon="2.50736">
        <ele>551.934082</ele>
        <time>2014-01-18T10:16:58Z</time>
      </trkpt>
      <trkpt lat="44.4533" lon="2.50738">
        <ele>551.4533691</ele>
        <time>2014-01-18T10:17:03Z</time>
      </trkpt>
      <trkpt lat="44.45343" lon="2.50741">
        <ele>550.4921875</ele>
        <time>2014-01-18T10:17:08Z</time>
      </trkpt>
      <trkpt lat="44.45354" lon="2.50744">
        <ele>550.0114746</ele>
        <time>2014-01-18T10:17:12Z</time>
      </trkpt>
      <trkpt lat="44.45371" lon="2.50745">
        <ele>549.0500488</ele>
        <time>2014-01-18T10:17:18Z</time>
      </trkpt>
      <trkpt lat="44.45388" lon="2.50741">
        <ele>549.0500488</ele>
        <time>2014-01-18T10:17:24Z</time>
      </trkpt>
      <trkpt lat="44.45406" lon="2.50737">
        <ele>548.0888672</ele>
        <time>2014-01-18T10:17:30Z</time>
      </trkpt>
      <trkpt lat="44.4542" lon="2.50734">
        <ele>548.0888672</ele>
        <time>2014-01-18T10:17:35Z</time>
      </trkpt>
      <trkpt lat="44.45434" lon="2.50732">
        <ele>548.0888672</ele>
        <time>2014-01-18T10:17:40Z</time>
      </trkpt>
      <trkpt lat="44.45444" lon="2.50728">
        <ele>549.0500488</ele>
        <time>2014-01-18T10:17:44Z</time>
      </trkpt>
      <trkpt lat="44.4546" lon="2.5072">
        <ele>549.5307617</ele>
        <time>2014-01-18T10:17:50Z</time>
      </trkpt>
      <trkpt lat="44.45477" lon="2.50715">
        <ele>550.4921875</ele>
        <time>2014-01-18T10:17:56Z</time>
      </trkpt>
      <trkpt lat="44.45489" lon="2.5071">
        <ele>550.9726563</ele>
        <time>2014-01-18T10:18:01Z</time>
      </trkpt>
      <trkpt lat="44.45506" lon="2.50705">
        <ele>552.4145508</ele>
        <time>2014-01-18T10:18:08Z</time>
      </trkpt>
      <trkpt lat="44.45517" lon="2.50703">
        <ele>553.8566895</ele>
        <time>2014-01-18T10:18:13Z</time>
      </trkpt>
      <trkpt lat="44.45528" lon="2.50701">
        <ele>555.298584</ele>
        <time>2014-01-18T10:18:18Z</time>
      </trkpt>
      <trkpt lat="44.45543" lon="2.50698">
        <ele>555.7792969</ele>
        <time>2014-01-18T10:18:24Z</time>
      </trkpt>
      <trkpt lat="44.45555" lon="2.50694">
        <ele>556.2600098</ele>
        <time>2014-01-18T10:18:29Z</time>
      </trkpt>
      <trkpt lat="44.45569" lon="2.50688">
        <ele>556.7407227</ele>
        <time>2014-01-18T10:18:35Z</time>
      </trkpt>
      <trkpt lat="44.45576" lon="2.50686">
        <ele>557.7021484</ele>
        <time>2014-01-18T10:18:38Z</time>
      </trkpt>
      <trkpt lat="44.45583" lon="2.50696">
        <ele>558.6633301</ele>
        <time>2014-01-18T10:18:42Z</time>
      </trkpt>
      <trkpt lat="44.4559" lon="2.50717">
        <ele>559.144043</ele>
        <time>2014-01-18T10:18:48Z</time>
      </trkpt>
      <trkpt lat="44.45596" lon="2.50734">
        <ele>559.144043</ele>
        <time>2014-01-18T10:18:53Z</time>
      </trkpt>
      <trkpt lat="44.45601" lon="2.50752">
        <ele>559.144043</ele>
        <time>2014-01-18T10:18:58Z</time>
      </trkpt>
      <trkpt lat="44.45602" lon="2.50759">
        <ele>558.6633301</ele>
        <time>2014-01-18T10:19:00Z</time>
      </trkpt>
      <trkpt lat="44.45607" lon="2.50772">
        <ele>558.6633301</ele>
        <time>2014-01-18T10:19:04Z</time>
      </trkpt>
      <trkpt lat="44.45617" lon="2.50787">
        <ele>558.6633301</ele>
        <time>2014-01-18T10:19:09Z</time>
      </trkpt>
      <trkpt lat="44.45628" lon="2.50805">
        <ele>558.1828613</ele>
        <time>2014-01-18T10:19:15Z</time>
      </trkpt>
      <trkpt lat="44.45636" lon="2.50822">
        <ele>558.1828613</ele>
        <time>2014-01-18T10:19:20Z</time>
      </trkpt>
      <trkpt lat="44.45644" lon="2.50836">
        <ele>558.1828613</ele>
        <time>2014-01-18T10:19:24Z</time>
      </trkpt>
      <trkpt lat="44.45648" lon="2.5085">
        <ele>558.6633301</ele>
        <time>2014-01-18T10:19:28Z</time>
      </trkpt>
      <trkpt lat="44.45657" lon="2.50873">
        <ele>558.6633301</ele>
        <time>2014-01-18T10:19:35Z</time>
      </trkpt>
      <trkpt lat="44.45664" lon="2.50893">
        <ele>558.6633301</ele>
        <time>2014-01-18T10:19:41Z</time>
      </trkpt>
      <trkpt lat="44.45669" lon="2.50908">
        <ele>559.144043</ele>
        <time>2014-01-18T10:19:46Z</time>
      </trkpt>
      <trkpt lat="44.45673" lon="2.50925">
        <ele>561.0666504</ele>
        <time>2014-01-18T10:19:51Z</time>
      </trkpt>
      <trkpt lat="44.45678" lon="2.50938">
        <ele>562.0280762</ele>
        <time>2014-01-18T10:19:55Z</time>
      </trkpt>
      <trkpt lat="44.45683" lon="2.5095">
        <ele>562.5085449</ele>
        <time>2014-01-18T10:19:59Z</time>
      </trkpt>
      <trkpt lat="44.45689" lon="2.50963">
        <ele>563.4699707</ele>
        <time>2014-01-18T10:20:03Z</time>
      </trkpt>
      <trkpt lat="44.45697" lon="2.50979">
        <ele>563.4699707</ele>
        <time>2014-01-18T10:20:09Z</time>
      </trkpt>
      <trkpt lat="44.45705" lon="2.50993">
        <ele>564.4311523</ele>
        <time>2014-01-18T10:20:14Z</time>
      </trkpt>
      <trkpt lat="44.45713" lon="2.51006">
        <ele>564.4311523</ele>
        <time>2014-01-18T10:20:19Z</time>
      </trkpt>
      <trkpt lat="44.45722" lon="2.51023">
        <ele>565.3925781</ele>
        <time>2014-01-18T10:20:25Z</time>
      </trkpt>
      <trkpt lat="44.45728" lon="2.51037">
        <ele>566.8344727</ele>
        <time>2014-01-18T10:20:30Z</time>
      </trkpt>
      <trkpt lat="44.45733" lon="2.51048">
        <ele>567.3151855</ele>
        <time>2014-01-18T10:20:34Z</time>
      </trkpt>
      <trkpt lat="44.4574" lon="2.51065">
        <ele>567.7956543</ele>
        <time>2014-01-18T10:20:40Z</time>
      </trkpt>
      <trkpt lat="44.45747" lon="2.51083">
        <ele>568.7570801</ele>
        <time>2014-01-18T10:20:46Z</time>
      </trkpt>
      <trkpt lat="44.4575" lon="2.51088">
        <ele>569.237793</ele>
        <time>2014-01-18T10:20:48Z</time>
      </trkpt>
      <trkpt lat="44.45755" lon="2.51106">
        <ele>569.7185059</ele>
        <time>2014-01-18T10:20:54Z</time>
      </trkpt>
      <trkpt lat="44.45763" lon="2.51127">
        <ele>571.1604004</ele>
        <time>2014-01-18T10:21:01Z</time>
      </trkpt>
      <trkpt lat="44.45768" lon="2.51143">
        <ele>572.6025391</ele>
        <time>2014-01-18T10:21:06Z</time>
      </trkpt>
      <trkpt lat="44.45773" lon="2.51156">
        <ele>573.083252</ele>
        <time>2014-01-18T10:21:10Z</time>
      </trkpt>
      <trkpt lat="44.45785" lon="2.51179">
        <ele>575.4863281</ele>
        <time>2014-01-18T10:21:17Z</time>
      </trkpt>
      <trkpt lat="44.4579" lon="2.51193">
        <ele>576.4477539</ele>
        <time>2014-01-18T10:21:21Z</time>
      </trkpt>
      <trkpt lat="44.45795" lon="2.51207">
        <ele>575.967041</ele>
        <time>2014-01-18T10:21:25Z</time>
      </trkpt>
      <trkpt lat="44.45801" lon="2.51224">
        <ele>575.4863281</ele>
        <time>2014-01-18T10:21:30Z</time>
      </trkpt>
      <trkpt lat="44.45806" lon="2.51238">
        <ele>575.0058594</ele>
        <time>2014-01-18T10:21:34Z</time>
      </trkpt>
      <trkpt lat="44.4581" lon="2.51248">
        <ele>574.5251465</ele>
        <time>2014-01-18T10:21:37Z</time>
      </trkpt>
      <trkpt lat="44.45812" lon="2.51262">
        <ele>573.083252</ele>
        <time>2014-01-18T10:21:41Z</time>
      </trkpt>
      <trkpt lat="44.45816" lon="2.51287">
        <ele>572.6025391</ele>
        <time>2014-01-18T10:21:47Z</time>
      </trkpt>
      <trkpt lat="44.45816" lon="2.51295">
        <ele>573.5639648</ele>
        <time>2014-01-18T10:21:49Z</time>
      </trkpt>
      <trkpt lat="44.45821" lon="2.51326">
        <ele>574.0444336</ele>
        <time>2014-01-18T10:21:57Z</time>
      </trkpt>
      <trkpt lat="44.45822" lon="2.51345">
        <ele>573.5639648</ele>
        <time>2014-01-18T10:22:02Z</time>
      </trkpt>
      <trkpt lat="44.45824" lon="2.51363">
        <ele>572.6025391</ele>
        <time>2014-01-18T10:22:07Z</time>
      </trkpt>
      <trkpt lat="44.45826" lon="2.51378">
        <ele>570.1989746</ele>
        <time>2014-01-18T10:22:11Z</time>
      </trkpt>
      <trkpt lat="44.4583" lon="2.514">
        <ele>569.237793</ele>
        <time>2014-01-18T10:22:17Z</time>
      </trkpt>
      <trkpt lat="44.45831" lon="2.51404">
        <ele>569.237793</ele>
        <time>2014-01-18T10:22:18Z</time>
      </trkpt>
      <trkpt lat="44.45834" lon="2.51422">
        <ele>568.7570801</ele>
        <time>2014-01-18T10:22:23Z</time>
      </trkpt>
      <trkpt lat="44.45835" lon="2.51426">
        <ele>568.7570801</ele>
        <time>2014-01-18T10:22:24Z</time>
      </trkpt>
      <trkpt lat="44.4584" lon="2.51444">
        <ele>569.237793</ele>
        <time>2014-01-18T10:22:29Z</time>
      </trkpt>
      <trkpt lat="44.45847" lon="2.51459">
        <ele>569.7185059</ele>
        <time>2014-01-18T10:22:33Z</time>
      </trkpt>
      <trkpt lat="44.45852" lon="2.51474">
        <ele>568.2763672</ele>
        <time>2014-01-18T10:22:37Z</time>
      </trkpt>
      <trkpt lat="44.45854" lon="2.51478">
        <ele>568.2763672</ele>
        <time>2014-01-18T10:22:38Z</time>
      </trkpt>
      <trkpt lat="44.45859" lon="2.51499">
        <ele>567.3151855</ele>
        <time>2014-01-18T10:22:44Z</time>
      </trkpt>
      <trkpt lat="44.45864" lon="2.51516">
        <ele>565.3925781</ele>
        <time>2014-01-18T10:22:49Z</time>
      </trkpt>
      <trkpt lat="44.45873" lon="2.51536">
        <ele>564.9118652</ele>
        <time>2014-01-18T10:22:55Z</time>
      </trkpt>
      <trkpt lat="44.45884" lon="2.51556">
        <ele>565.3925781</ele>
        <time>2014-01-18T10:23:01Z</time>
      </trkpt>
      <trkpt lat="44.4589" lon="2.51566">
        <ele>565.3925781</ele>
        <time>2014-01-18T10:23:04Z</time>
      </trkpt>
      <trkpt lat="44.45901" lon="2.51585">
        <ele>564.4311523</ele>
        <time>2014-01-18T10:23:10Z</time>
      </trkpt>
      <trkpt lat="44.45913" lon="2.51602">
        <ele>562.9892578</ele>
        <time>2014-01-18T10:23:16Z</time>
      </trkpt>
      <trkpt lat="44.45926" lon="2.51617">
        <ele>561.5473633</ele>
        <time>2014-01-18T10:23:22Z</time>
      </trkpt>
      <trkpt lat="44.45935" lon="2.51627">
        <ele>560.5859375</ele>
        <time>2014-01-18T10:23:26Z</time>
      </trkpt>
      <trkpt lat="44.45945" lon="2.51639">
        <ele>560.1052246</ele>
        <time>2014-01-18T10:23:31Z</time>
      </trkpt>
      <trkpt lat="44.45957" lon="2.51654">
        <ele>560.1052246</ele>
        <time>2014-01-18T10:23:36Z</time>
      </trkpt>
      <trkpt lat="44.45966" lon="2.51665">
        <ele>559.6247559</ele>
        <time>2014-01-18T10:23:40Z</time>
      </trkpt>
      <trkpt lat="44.45972" lon="2.51677">
        <ele>559.6247559</ele>
        <time>2014-01-18T10:23:44Z</time>
      </trkpt>
      <trkpt lat="44.45979" lon="2.51686">
        <ele>559.6247559</ele>
        <time>2014-01-18T10:23:48Z</time>
      </trkpt>
      <trkpt lat="44.45988" lon="2.51703">
        <ele>560.1052246</ele>
        <time>2014-01-18T10:23:54Z</time>
      </trkpt>
      <trkpt lat="44.45995" lon="2.51714">
        <ele>560.1052246</ele>
        <time>2014-01-18T10:23:58Z</time>
      </trkpt>
      <trkpt lat="44.45998" lon="2.51719">
        <ele>560.1052246</ele>
        <time>2014-01-18T10:24:00Z</time>
      </trkpt>
      <trkpt lat="44.4601" lon="2.51733">
        <ele>561.0666504</ele>
        <time>2014-01-18T10:24:06Z</time>
      </trkpt>
      <trkpt lat="44.46012" lon="2.51735">
        <ele>561.5473633</ele>
        <time>2014-01-18T10:24:07Z</time>
      </trkpt>
      <trkpt lat="44.4602" lon="2.51751">
        <ele>562.9892578</ele>
        <time>2014-01-18T10:24:13Z</time>
      </trkpt>
      <trkpt lat="44.46028" lon="2.51761">
        <ele>563.9504395</ele>
        <time>2014-01-18T10:24:17Z</time>
      </trkpt>
      <trkpt lat="44.46037" lon="2.51771">
        <ele>564.4311523</ele>
        <time>2014-01-18T10:24:21Z</time>
      </trkpt>
      <trkpt lat="44.46051" lon="2.51789">
        <ele>564.9118652</ele>
        <time>2014-01-18T10:24:27Z</time>
      </trkpt>
      <trkpt lat="44.46059" lon="2.51803">
        <ele>564.9118652</ele>
        <time>2014-01-18T10:24:32Z</time>
      </trkpt>
      <trkpt lat="44.46067" lon="2.51819">
        <ele>564.9118652</ele>
        <time>2014-01-18T10:24:37Z</time>
      </trkpt>
      <trkpt lat="44.46075" lon="2.51835">
        <ele>564.9118652</ele>
        <time>2014-01-18T10:24:42Z</time>
      </trkpt>
      <trkpt lat="44.46084" lon="2.51853">
        <ele>563.9504395</ele>
        <time>2014-01-18T10:24:48Z</time>
      </trkpt>
      <trkpt lat="44.46094" lon="2.51868">
        <ele>562.0280762</ele>
        <time>2014-01-18T10:24:53Z</time>
      </trkpt>
      <trkpt lat="44.46106" lon="2.51878">
        <ele>560.5859375</ele>
        <time>2014-01-18T10:24:58Z</time>
      </trkpt>
      <trkpt lat="44.46119" lon="2.51888">
        <ele>559.6247559</ele>
        <time>2014-01-18T10:25:03Z</time>
      </trkpt>
      <trkpt lat="44.46133" lon="2.51902">
        <ele>558.6633301</ele>
        <time>2014-01-18T10:25:08Z</time>
      </trkpt>
      <trkpt lat="44.46148" lon="2.51912">
        <ele>556.2600098</ele>
        <time>2014-01-18T10:25:14Z</time>
      </trkpt>
      <trkpt lat="44.46161" lon="2.51915">
        <ele>555.298584</ele>
        <time>2014-01-18T10:25:19Z</time>
      </trkpt>
      <trkpt lat="44.46177" lon="2.5192">
        <ele>554.3374023</ele>
        <time>2014-01-18T10:25:25Z</time>
      </trkpt>
      <trkpt lat="44.46194" lon="2.51926">
        <ele>551.934082</ele>
        <time>2014-01-18T10:25:31Z</time>
      </trkpt>
      <trkpt lat="44.46208" lon="2.5193">
        <ele>550.4921875</ele>
        <time>2014-01-18T10:25:36Z</time>
      </trkpt>
      <trkpt lat="44.4622" lon="2.51929">
        <ele>549.5307617</ele>
        <time>2014-01-18T10:25:40Z</time>
      </trkpt>
      <trkpt lat="44.46232" lon="2.51934">
        <ele>550.4921875</ele>
        <time>2014-01-18T10:25:45Z</time>
      </trkpt>
      <trkpt lat="44.46251" lon="2.51939">
        <ele>550.9726563</ele>
        <time>2014-01-18T10:25:52Z</time>
      </trkpt>
      <trkpt lat="44.46267" lon="2.51944">
        <ele>550.4921875</ele>
        <time>2014-01-18T10:25:58Z</time>
      </trkpt>
      <trkpt lat="44.46279" lon="2.51948">
        <ele>552.4145508</ele>
        <time>2014-01-18T10:26:03Z</time>
      </trkpt>
      <trkpt lat="44.46294" lon="2.51952">
        <ele>554.3374023</ele>
        <time>2014-01-18T10:26:09Z</time>
      </trkpt>
      <trkpt lat="44.46314" lon="2.51959">
        <ele>553.8566895</ele>
        <time>2014-01-18T10:26:16Z</time>
      </trkpt>
      <trkpt lat="44.46328" lon="2.51961">
        <ele>553.3759766</ele>
        <time>2014-01-18T10:26:21Z</time>
      </trkpt>
      <trkpt lat="44.46344" lon="2.51956">
        <ele>552.8952637</ele>
        <time>2014-01-18T10:26:27Z</time>
      </trkpt>
      <trkpt lat="44.46356" lon="2.51946">
        <ele>552.4145508</ele>
        <time>2014-01-18T10:26:32Z</time>
      </trkpt>
      <trkpt lat="44.46364" lon="2.51937">
        <ele>551.934082</ele>
        <time>2014-01-18T10:26:36Z</time>
      </trkpt>
      <trkpt lat="44.46373" lon="2.51923">
        <ele>550.9726563</ele>
        <time>2014-01-18T10:26:41Z</time>
      </trkpt>
      <trkpt lat="44.46385" lon="2.51911">
        <ele>551.4533691</ele>
        <time>2014-01-18T10:26:46Z</time>
      </trkpt>
      <trkpt lat="44.46395" lon="2.51898">
        <ele>551.934082</ele>
        <time>2014-01-18T10:26:51Z</time>
      </trkpt>
      <trkpt lat="44.46404" lon="2.5188">
        <ele>552.4145508</ele>
        <time>2014-01-18T10:26:56Z</time>
      </trkpt>
      <trkpt lat="44.46412" lon="2.51864">
        <ele>551.934082</ele>
        <time>2014-01-18T10:27:01Z</time>
      </trkpt>
      <trkpt lat="44.46423" lon="2.51847">
        <ele>551.934082</ele>
        <time>2014-01-18T10:27:07Z</time>
      </trkpt>
      <trkpt lat="44.46431" lon="2.51837">
        <ele>552.8952637</ele>
        <time>2014-01-18T10:27:11Z</time>
      </trkpt>
      <trkpt lat="44.4644" lon="2.51821">
        <ele>553.8566895</ele>
        <time>2014-01-18T10:27:16Z</time>
      </trkpt>
      <trkpt lat="44.46445" lon="2.51807">
        <ele>553.3759766</ele>
        <time>2014-01-18T10:27:20Z</time>
      </trkpt>
      <trkpt lat="44.46456" lon="2.51793">
        <ele>551.934082</ele>
        <time>2014-01-18T10:27:25Z</time>
      </trkpt>
      <trkpt lat="44.46466" lon="2.5178">
        <ele>550.0114746</ele>
        <time>2014-01-18T10:27:30Z</time>
      </trkpt>
      <trkpt lat="44.46479" lon="2.51773">
        <ele>548.0888672</ele>
        <time>2014-01-18T10:27:35Z</time>
      </trkpt>
      <trkpt lat="44.46494" lon="2.51768">
        <ele>548.0888672</ele>
        <time>2014-01-18T10:27:40Z</time>
      </trkpt>
      <trkpt lat="44.46507" lon="2.51758">
        <ele>546.6468506</ele>
        <time>2014-01-18T10:27:45Z</time>
      </trkpt>
      <trkpt lat="44.46508" lon="2.51756">
        <ele>546.1662598</ele>
        <time>2014-01-18T10:27:46Z</time>
      </trkpt>
      <trkpt lat="44.46512" lon="2.51737">
        <ele>544.2436523</ele>
        <time>2014-01-18T10:27:51Z</time>
      </trkpt>
      <trkpt lat="44.46518" lon="2.51711">
        <ele>543.2821045</ele>
        <time>2014-01-18T10:27:57Z</time>
      </trkpt>
      <trkpt lat="44.46528" lon="2.51704">
        <ele>540.8789063</ele>
        <time>2014-01-18T10:28:01Z</time>
      </trkpt>
      <trkpt lat="44.46535" lon="2.51703">
        <ele>539.9176025</ele>
        <time>2014-01-18T10:28:04Z</time>
      </trkpt>
      <trkpt lat="44.46548" lon="2.51703">
        <ele>538.475708</ele>
        <time>2014-01-18T10:28:09Z</time>
      </trkpt>
      <trkpt lat="44.46551" lon="2.51703">
        <ele>538.475708</ele>
        <time>2014-01-18T10:28:10Z</time>
      </trkpt>
      <trkpt lat="44.46573" lon="2.517">
        <ele>538.9562988</ele>
        <time>2014-01-18T10:28:17Z</time>
      </trkpt>
      <trkpt lat="44.46591" lon="2.51697">
        <ele>539.4368896</ele>
        <time>2014-01-18T10:28:23Z</time>
      </trkpt>
      <trkpt lat="44.4661" lon="2.51693">
        <ele>537.9949951</ele>
        <time>2014-01-18T10:28:29Z</time>
      </trkpt>
      <trkpt lat="44.46621" lon="2.51691">
        <ele>537.5142822</ele>
        <time>2014-01-18T10:28:33Z</time>
      </trkpt>
      <trkpt lat="44.46634" lon="2.51686">
        <ele>536.0723877</ele>
        <time>2014-01-18T10:28:38Z</time>
      </trkpt>
      <trkpt lat="44.46648" lon="2.5168">
        <ele>536.0723877</ele>
        <time>2014-01-18T10:28:43Z</time>
      </trkpt>
      <trkpt lat="44.4666" lon="2.51673">
        <ele>536.0723877</ele>
        <time>2014-01-18T10:28:48Z</time>
      </trkpt>
      <trkpt lat="44.46672" lon="2.5166">
        <ele>534.1496582</ele>
        <time>2014-01-18T10:28:53Z</time>
      </trkpt>
      <trkpt lat="44.46677" lon="2.51647">
        <ele>533.1883545</ele>
        <time>2014-01-18T10:28:57Z</time>
      </trkpt>
      <trkpt lat="44.46683" lon="2.51636">
        <ele>532.7077637</ele>
        <time>2014-01-18T10:29:01Z</time>
      </trkpt>
      <trkpt lat="44.46694" lon="2.51625">
        <ele>532.7077637</ele>
        <time>2014-01-18T10:29:06Z</time>
      </trkpt>
      <trkpt lat="44.467" lon="2.51621">
        <ele>532.7077637</ele>
        <time>2014-01-18T10:29:09Z</time>
      </trkpt>
      <trkpt lat="44.46707" lon="2.51618">
        <ele>532.2270508</ele>
        <time>2014-01-18T10:29:13Z</time>
      </trkpt>
      <trkpt lat="44.46714" lon="2.51609">
        <ele>537.0336914</ele>
        <time>2014-01-18T10:29:21Z</time>
      </trkpt>
      <trkpt lat="44.46716" lon="2.51608">
        <ele>537.5142822</ele>
        <time>2014-01-18T10:29:22Z</time>
      </trkpt>
      <trkpt lat="44.4672" lon="2.51605">
        <ele>538.475708</ele>
        <time>2014-01-18T10:29:25Z</time>
      </trkpt>
      <trkpt lat="44.46722" lon="2.51604">
        <ele>538.9562988</ele>
        <time>2014-01-18T10:29:27Z</time>
      </trkpt>
      <trkpt lat="44.46725" lon="2.51599">
        <ele>539.4368896</ele>
        <time>2014-01-18T10:29:31Z</time>
      </trkpt>
      <trkpt lat="44.4673" lon="2.51592">
        <ele>537.5142822</ele>
        <time>2014-01-18T10:29:37Z</time>
      </trkpt>
      <trkpt lat="44.46736" lon="2.5159">
        <ele>537.0336914</ele>
        <time>2014-01-18T10:29:41Z</time>
      </trkpt>
      <trkpt lat="44.46739" lon="2.51587">
        <ele>537.0336914</ele>
        <time>2014-01-18T10:29:44Z</time>
      </trkpt>
      <trkpt lat="44.46744" lon="2.51584">
        <ele>537.5142822</ele>
        <time>2014-01-18T10:29:48Z</time>
      </trkpt>
      <trkpt lat="44.46747" lon="2.51584">
        <ele>537.9949951</ele>
        <time>2014-01-18T10:29:50Z</time>
      </trkpt>
      <trkpt lat="44.46754" lon="2.51583">
        <ele>537.9949951</ele>
        <time>2014-01-18T10:29:55Z</time>
      </trkpt>
      <trkpt lat="44.46761" lon="2.51582">
        <ele>537.9949951</ele>
        <time>2014-01-18T10:29:59Z</time>
      </trkpt>
      <trkpt lat="44.46771" lon="2.5158">
        <ele>537.5142822</ele>
        <time>2014-01-18T10:30:06Z</time>
      </trkpt>
      <trkpt lat="44.46775" lon="2.51578">
        <ele>537.5142822</ele>
        <time>2014-01-18T10:30:09Z</time>
      </trkpt>
      <trkpt lat="44.4678" lon="2.51577">
        <ele>537.0336914</ele>
        <time>2014-01-18T10:30:13Z</time>
      </trkpt>
      <trkpt lat="44.46785" lon="2.51575">
        <ele>536.5531006</ele>
        <time>2014-01-18T10:30:17Z</time>
      </trkpt>
      <trkpt lat="44.46788" lon="2.51575">
        <ele>537.0336914</ele>
        <time>2014-01-18T10:30:20Z</time>
      </trkpt>
      <trkpt lat="44.46794" lon="2.51578">
        <ele>536.5531006</ele>
        <time>2014-01-18T10:30:24Z</time>
      </trkpt>
      <trkpt lat="44.46805" lon="2.51575">
        <ele>537.9949951</ele>
        <time>2014-01-18T10:30:32Z</time>
      </trkpt>
      <trkpt lat="44.46812" lon="2.5157">
        <ele>538.475708</ele>
        <time>2014-01-18T10:30:37Z</time>
      </trkpt>
      <trkpt lat="44.46818" lon="2.51567">
        <ele>538.9562988</ele>
        <time>2014-01-18T10:30:41Z</time>
      </trkpt>
      <trkpt lat="44.46823" lon="2.51564">
        <ele>538.9562988</ele>
        <time>2014-01-18T10:30:45Z</time>
      </trkpt>
      <trkpt lat="44.46832" lon="2.51558">
        <ele>538.475708</ele>
        <time>2014-01-18T10:30:53Z</time>
      </trkpt>
      <trkpt lat="44.46836" lon="2.51555">
        <ele>538.475708</ele>
        <time>2014-01-18T10:30:57Z</time>
      </trkpt>
      <trkpt lat="44.46844" lon="2.5155">
        <ele>538.475708</ele>
        <time>2014-01-18T10:31:03Z</time>
      </trkpt>
      <trkpt lat="44.46853" lon="2.51546">
        <ele>540.3983154</ele>
        <time>2014-01-18T10:31:10Z</time>
      </trkpt>
      <trkpt lat="44.46864" lon="2.5154">
        <ele>542.3209229</ele>
        <time>2014-01-18T10:31:18Z</time>
      </trkpt>
      <trkpt lat="44.46871" lon="2.51536">
        <ele>544.2436523</ele>
        <time>2014-01-18T10:31:24Z</time>
      </trkpt>
      <trkpt lat="44.46879" lon="2.51531">
        <ele>545.6855469</ele>
        <time>2014-01-18T10:31:30Z</time>
      </trkpt>
      <trkpt lat="44.46887" lon="2.51526">
        <ele>545.6855469</ele>
        <time>2014-01-18T10:31:36Z</time>
      </trkpt>
      <trkpt lat="44.46895" lon="2.51521">
        <ele>546.1662598</ele>
        <time>2014-01-18T10:31:42Z</time>
      </trkpt>
      <trkpt lat="44.46897" lon="2.5152">
        <ele>546.1662598</ele>
        <time>2014-01-18T10:31:43Z</time>
      </trkpt>
      <trkpt lat="44.46905" lon="2.51516">
        <ele>547.6081543</ele>
        <time>2014-01-18T10:31:49Z</time>
      </trkpt>
      <trkpt lat="44.46913" lon="2.5151">
        <ele>548.0888672</ele>
        <time>2014-01-18T10:31:55Z</time>
      </trkpt>
      <trkpt lat="44.46924" lon="2.51503">
        <ele>549.0500488</ele>
        <time>2014-01-18T10:32:03Z</time>
      </trkpt>
      <trkpt lat="44.46934" lon="2.51497">
        <ele>549.0500488</ele>
        <time>2014-01-18T10:32:10Z</time>
      </trkpt>
      <trkpt lat="44.46937" lon="2.51494">
        <ele>548.5693359</ele>
        <time>2014-01-18T10:32:13Z</time>
      </trkpt>
      <trkpt lat="44.46943" lon="2.51487">
        <ele>548.0888672</ele>
        <time>2014-01-18T10:32:19Z</time>
      </trkpt>
      <trkpt lat="44.46952" lon="2.51475">
        <ele>548.5693359</ele>
        <time>2014-01-18T10:32:28Z</time>
      </trkpt>
      <trkpt lat="44.46953" lon="2.51473">
        <ele>548.5693359</ele>
        <time>2014-01-18T10:32:29Z</time>
      </trkpt>
      <trkpt lat="44.4696" lon="2.51462">
        <ele>547.6081543</ele>
        <time>2014-01-18T10:32:37Z</time>
      </trkpt>
      <trkpt lat="44.46966" lon="2.51455">
        <ele>547.1274414</ele>
        <time>2014-01-18T10:32:43Z</time>
      </trkpt>
      <trkpt lat="44.46974" lon="2.51449">
        <ele>547.6081543</ele>
        <time>2014-01-18T10:32:49Z</time>
      </trkpt>
      <trkpt lat="44.46982" lon="2.51441">
        <ele>546.6468506</ele>
        <time>2014-01-18T10:32:56Z</time>
      </trkpt>
      <trkpt lat="44.46986" lon="2.51438">
        <ele>546.6468506</ele>
        <time>2014-01-18T10:33:00Z</time>
      </trkpt>
      <trkpt lat="44.4699" lon="2.51435">
        <ele>546.1662598</ele>
        <time>2014-01-18T10:33:03Z</time>
      </trkpt>
      <trkpt lat="44.46995" lon="2.51432">
        <ele>545.6855469</ele>
        <time>2014-01-18T10:33:07Z</time>
      </trkpt>
      <trkpt lat="44.47003" lon="2.51424">
        <ele>546.1662598</ele>
        <time>2014-01-18T10:33:14Z</time>
      </trkpt>
      <trkpt lat="44.47009" lon="2.51418">
        <ele>546.1662598</ele>
        <time>2014-01-18T10:33:19Z</time>
      </trkpt>
      <trkpt lat="44.47017" lon="2.51411">
        <ele>545.6855469</ele>
        <time>2014-01-18T10:33:25Z</time>
      </trkpt>
      <trkpt lat="44.47024" lon="2.51407">
        <ele>545.204834</ele>
        <time>2014-01-18T10:33:30Z</time>
      </trkpt>
      <trkpt lat="44.4703" lon="2.51401">
        <ele>544.7242432</ele>
        <time>2014-01-18T10:33:35Z</time>
      </trkpt>
      <trkpt lat="44.47033" lon="2.51399">
        <ele>545.6855469</ele>
        <time>2014-01-18T10:33:38Z</time>
      </trkpt>
      <trkpt lat="44.47039" lon="2.51397">
        <ele>545.6855469</ele>
        <time>2014-01-18T10:33:42Z</time>
      </trkpt>
      <trkpt lat="44.47048" lon="2.51394">
        <ele>546.6468506</ele>
        <time>2014-01-18T10:33:48Z</time>
      </trkpt>
      <trkpt lat="44.47058" lon="2.5139">
        <ele>547.6081543</ele>
        <time>2014-01-18T10:33:55Z</time>
      </trkpt>
      <trkpt lat="44.47064" lon="2.51386">
        <ele>547.1274414</ele>
        <time>2014-01-18T10:34:00Z</time>
      </trkpt>
      <trkpt lat="44.47074" lon="2.51379">
        <ele>547.1274414</ele>
        <time>2014-01-18T10:34:07Z</time>
      </trkpt>
      <trkpt lat="44.4708" lon="2.51374">
        <ele>547.6081543</ele>
        <time>2014-01-18T10:34:12Z</time>
      </trkpt>
      <trkpt lat="44.47087" lon="2.51364">
        <ele>547.1274414</ele>
        <time>2014-01-18T10:34:19Z</time>
      </trkpt>
      <trkpt lat="44.47094" lon="2.51356">
        <ele>546.6468506</ele>
        <time>2014-01-18T10:34:25Z</time>
      </trkpt>
      <trkpt lat="44.47106" lon="2.51343">
        <ele>545.204834</ele>
        <time>2014-01-18T10:34:32Z</time>
      </trkpt>
      <trkpt lat="44.4712" lon="2.51329">
        <ele>543.7628174</ele>
        <time>2014-01-18T10:34:38Z</time>
      </trkpt>
      <trkpt lat="44.47134" lon="2.51317">
        <ele>543.2821045</ele>
        <time>2014-01-18T10:34:44Z</time>
      </trkpt>
      <trkpt lat="44.47148" lon="2.51308">
        <ele>541.3594971</ele>
        <time>2014-01-18T10:34:49Z</time>
      </trkpt>
      <trkpt lat="44.47163" lon="2.51294">
        <ele>541.3594971</ele>
        <time>2014-01-18T10:34:55Z</time>
      </trkpt>
      <trkpt lat="44.47178" lon="2.5128">
        <ele>541.3594971</ele>
        <time>2014-01-18T10:35:01Z</time>
      </trkpt>
      <trkpt lat="44.47194" lon="2.51267">
        <ele>541.3594971</ele>
        <time>2014-01-18T10:35:07Z</time>
      </trkpt>
      <trkpt lat="44.47209" lon="2.5126">
        <ele>540.8789063</ele>
        <time>2014-01-18T10:35:12Z</time>
      </trkpt>
      <trkpt lat="44.47224" lon="2.51258">
        <ele>540.8789063</ele>
        <time>2014-01-18T10:35:17Z</time>
      </trkpt>
      <trkpt lat="44.47242" lon="2.51258">
        <ele>540.3983154</ele>
        <time>2014-01-18T10:35:23Z</time>
      </trkpt>
      <trkpt lat="44.47259" lon="2.51254">
        <ele>540.3983154</ele>
        <time>2014-01-18T10:35:29Z</time>
      </trkpt>
      <trkpt lat="44.47277" lon="2.51249">
        <ele>540.8789063</ele>
        <time>2014-01-18T10:35:35Z</time>
      </trkpt>
      <trkpt lat="44.47291" lon="2.51244">
        <ele>541.3594971</ele>
        <time>2014-01-18T10:35:40Z</time>
      </trkpt>
      <trkpt lat="44.47306" lon="2.51233">
        <ele>541.3594971</ele>
        <time>2014-01-18T10:35:46Z</time>
      </trkpt>
      <trkpt lat="44.47321" lon="2.51226">
        <ele>540.3983154</ele>
        <time>2014-01-18T10:35:51Z</time>
      </trkpt>
      <trkpt lat="44.47333" lon="2.51221">
        <ele>539.4368896</ele>
        <time>2014-01-18T10:35:55Z</time>
      </trkpt>
      <trkpt lat="44.47347" lon="2.51214">
        <ele>538.9562988</ele>
        <time>2014-01-18T10:36:00Z</time>
      </trkpt>
      <trkpt lat="44.47362" lon="2.51207">
        <ele>537.5142822</ele>
        <time>2014-01-18T10:36:05Z</time>
      </trkpt>
      <trkpt lat="44.47379" lon="2.51199">
        <ele>535.5915527</ele>
        <time>2014-01-18T10:36:11Z</time>
      </trkpt>
      <trkpt lat="44.47391" lon="2.51193">
        <ele>534.6303711</ele>
        <time>2014-01-18T10:36:15Z</time>
      </trkpt>
      <trkpt lat="44.47406" lon="2.51184">
        <ele>533.1883545</ele>
        <time>2014-01-18T10:36:20Z</time>
      </trkpt>
      <trkpt lat="44.47418" lon="2.51172">
        <ele>531.7463379</ele>
        <time>2014-01-18T10:36:25Z</time>
      </trkpt>
      <trkpt lat="44.4743" lon="2.51161">
        <ele>530.7851563</ele>
        <time>2014-01-18T10:36:30Z</time>
      </trkpt>
      <trkpt lat="44.47444" lon="2.51154">
        <ele>531.7463379</ele>
        <time>2014-01-18T10:36:35Z</time>
      </trkpt>
      <trkpt lat="44.4746" lon="2.51147">
        <ele>534.1496582</ele>
        <time>2014-01-18T10:36:41Z</time>
      </trkpt>
      <trkpt lat="44.47478" lon="2.5114">
        <ele>534.1496582</ele>
        <time>2014-01-18T10:36:47Z</time>
      </trkpt>
      <trkpt lat="44.47491" lon="2.51135">
        <ele>534.1496582</ele>
        <time>2014-01-18T10:36:52Z</time>
      </trkpt>
      <trkpt lat="44.47505" lon="2.51128">
        <ele>535.1109619</ele>
        <time>2014-01-18T10:36:57Z</time>
      </trkpt>
      <trkpt lat="44.47518" lon="2.5112">
        <ele>534.1496582</ele>
        <time>2014-01-18T10:37:02Z</time>
      </trkpt>
      <trkpt lat="44.47529" lon="2.51114">
        <ele>533.1883545</ele>
        <time>2014-01-18T10:37:06Z</time>
      </trkpt>
      <trkpt lat="44.4754" lon="2.51109">
        <ele>531.7463379</ele>
        <time>2014-01-18T10:37:10Z</time>
      </trkpt>
      <trkpt lat="44.47555" lon="2.51102">
        <ele>531.2657471</ele>
        <time>2014-01-18T10:37:15Z</time>
      </trkpt>
      <trkpt lat="44.47568" lon="2.51096">
        <ele>530.3044434</ele>
        <time>2014-01-18T10:37:20Z</time>
      </trkpt>
      <trkpt lat="44.47578" lon="2.51088">
        <ele>529.3431396</ele>
        <time>2014-01-18T10:37:24Z</time>
      </trkpt>
      <trkpt lat="44.47591" lon="2.51078">
        <ele>527.901001</ele>
        <time>2014-01-18T10:37:29Z</time>
      </trkpt>
      <trkpt lat="44.47604" lon="2.51067">
        <ele>525.9783936</ele>
        <time>2014-01-18T10:37:34Z</time>
      </trkpt>
      <trkpt lat="44.47618" lon="2.51055">
        <ele>525.0172119</ele>
        <time>2014-01-18T10:37:39Z</time>
      </trkpt>
      <trkpt lat="44.47633" lon="2.5104">
        <ele>522.6138916</ele>
        <time>2014-01-18T10:37:45Z</time>
      </trkpt>
      <trkpt lat="44.47649" lon="2.5103">
        <ele>521.1719971</ele>
        <time>2014-01-18T10:37:51Z</time>
      </trkpt>
      <trkpt lat="44.47664" lon="2.51021">
        <ele>520.6912842</ele>
        <time>2014-01-18T10:37:56Z</time>
      </trkpt>
      <trkpt lat="44.47675" lon="2.51007">
        <ele>519.7298584</ele>
        <time>2014-01-18T10:38:01Z</time>
      </trkpt>
      <trkpt lat="44.47684" lon="2.50989">
        <ele>518.2878418</ele>
        <time>2014-01-18T10:38:06Z</time>
      </trkpt>
      <trkpt lat="44.47697" lon="2.50964">
        <ele>516.3652344</ele>
        <time>2014-01-18T10:38:13Z</time>
      </trkpt>
      <trkpt lat="44.47708" lon="2.50952">
        <ele>514.442627</ele>
        <time>2014-01-18T10:38:18Z</time>
      </trkpt>
      <trkpt lat="44.47724" lon="2.50939">
        <ele>513.0007324</ele>
        <time>2014-01-18T10:38:24Z</time>
      </trkpt>
      <trkpt lat="44.47736" lon="2.50925">
        <ele>510.59729</ele>
        <time>2014-01-18T10:38:29Z</time>
      </trkpt>
      <trkpt lat="44.47748" lon="2.5091">
        <ele>509.6361084</ele>
        <time>2014-01-18T10:38:34Z</time>
      </trkpt>
      <trkpt lat="44.47762" lon="2.50901">
        <ele>508.1940918</ele>
        <time>2014-01-18T10:38:39Z</time>
      </trkpt>
      <trkpt lat="44.4778" lon="2.50893">
        <ele>507.713501</ele>
        <time>2014-01-18T10:38:45Z</time>
      </trkpt>
      <trkpt lat="44.47791" lon="2.50881">
        <ele>507.713501</ele>
        <time>2014-01-18T10:38:50Z</time>
      </trkpt>
      <trkpt lat="44.47796" lon="2.50853">
        <ele>507.2327881</ele>
        <time>2014-01-18T10:38:57Z</time>
      </trkpt>
      <trkpt lat="44.47794" lon="2.50831">
        <ele>506.7520752</ele>
        <time>2014-01-18T10:39:02Z</time>
      </trkpt>
      <trkpt lat="44.47792" lon="2.50805">
        <ele>507.713501</ele>
        <time>2014-01-18T10:39:08Z</time>
      </trkpt>
      <trkpt lat="44.47792" lon="2.50784">
        <ele>506.2714844</ele>
        <time>2014-01-18T10:39:13Z</time>
      </trkpt>
      <trkpt lat="44.47792" lon="2.50764">
        <ele>505.7908936</ele>
        <time>2014-01-18T10:39:18Z</time>
      </trkpt>
      <trkpt lat="44.47792" lon="2.50756">
        <ele>504.8294678</ele>
        <time>2014-01-18T10:39:22Z</time>
      </trkpt>
      <trkpt lat="44.47793" lon="2.50755">
        <ele>502.9067383</ele>
        <time>2014-01-18T10:39:28Z</time>
      </trkpt>
      <trkpt lat="44.47792" lon="2.50755">
        <ele>503.8681641</ele>
        <time>2014-01-18T10:39:35Z</time>
      </trkpt>
      <trkpt lat="44.47792" lon="2.50755">
        <ele>502.9067383</ele>
        <time>2014-01-18T10:39:46Z</time>
      </trkpt>
      <trkpt lat="44.47792" lon="2.50756">
        <ele>501.4648438</ele>
        <time>2014-01-18T10:40:01Z</time>
      </trkpt>
      <trkpt lat="44.47793" lon="2.50756">
        <ele>503.3874512</ele>
        <time>2014-01-18T10:40:14Z</time>
      </trkpt>
      <trkpt lat="44.47792" lon="2.50757">
        <ele>508.6746826</ele>
        <time>2014-01-18T10:40:28Z</time>
      </trkpt>
      <trkpt lat="44.4779" lon="2.50757">
        <ele>509.1553955</ele>
        <time>2014-01-18T10:40:42Z</time>
      </trkpt>
      <trkpt lat="44.47446" lon="2.49887">
        <ele>362.0737305</ele>
        <time>2014-01-18T10:51:04Z</time>
      </trkpt>
      <trkpt lat="44.47448" lon="2.49883">
        <ele>361.1124268</ele>
        <time>2014-01-18T10:51:05Z</time>
      </trkpt>
      <trkpt lat="44.47454" lon="2.49868">
        <ele>357.7478027</ele>
        <time>2014-01-18T10:51:08Z</time>
      </trkpt>
      <trkpt lat="44.47463" lon="2.49848">
        <ele>354.3831787</ele>
        <time>2014-01-18T10:51:13Z</time>
      </trkpt>
      <trkpt lat="44.47471" lon="2.49829">
        <ele>353.421875</ele>
        <time>2014-01-18T10:51:18Z</time>
      </trkpt>
      <trkpt lat="44.47474" lon="2.49811">
        <ele>352.4605713</ele>
        <time>2014-01-18T10:51:22Z</time>
      </trkpt>
      <trkpt lat="44.47476" lon="2.4979">
        <ele>351.4991455</ele>
        <time>2014-01-18T10:51:26Z</time>
      </trkpt>
      <trkpt lat="44.47481" lon="2.49766">
        <ele>349.0958252</ele>
        <time>2014-01-18T10:51:31Z</time>
      </trkpt>
      <trkpt lat="44.47487" lon="2.49745">
        <ele>351.9798584</ele>
        <time>2014-01-18T10:51:36Z</time>
      </trkpt>
      <trkpt lat="44.47498" lon="2.49727">
        <ele>350.5378418</ele>
        <time>2014-01-18T10:51:41Z</time>
      </trkpt>
      <trkpt lat="44.47501" lon="2.49724">
        <ele>349.0958252</ele>
        <time>2014-01-18T10:51:42Z</time>
      </trkpt>
      <trkpt lat="44.47515" lon="2.49696">
        <ele>345.7313232</ele>
        <time>2014-01-18T10:51:49Z</time>
      </trkpt>
      <trkpt lat="44.47522" lon="2.49678">
        <ele>344.2894287</ele>
        <time>2014-01-18T10:51:53Z</time>
      </trkpt>
      <trkpt lat="44.47531" lon="2.49653">
        <ele>342.3666992</ele>
        <time>2014-01-18T10:51:59Z</time>
      </trkpt>
      <trkpt lat="44.47536" lon="2.49635">
        <ele>339.9633789</ele>
        <time>2014-01-18T10:52:03Z</time>
      </trkpt>
      <trkpt lat="44.47544" lon="2.49608">
        <ele>338.5214844</ele>
        <time>2014-01-18T10:52:09Z</time>
      </trkpt>
      <trkpt lat="44.47553" lon="2.49583">
        <ele>335.6373291</ele>
        <time>2014-01-18T10:52:15Z</time>
      </trkpt>
      <trkpt lat="44.47558" lon="2.49567">
        <ele>335.1567383</ele>
        <time>2014-01-18T10:52:19Z</time>
      </trkpt>
      <trkpt lat="44.47557" lon="2.49546">
        <ele>336.1181641</ele>
        <time>2014-01-18T10:52:23Z</time>
      </trkpt>
      <trkpt lat="44.47558" lon="2.49519">
        <ele>336.1181641</ele>
        <time>2014-01-18T10:52:28Z</time>
      </trkpt>
      <trkpt lat="44.47561" lon="2.495">
        <ele>335.6373291</ele>
        <time>2014-01-18T10:52:32Z</time>
      </trkpt>
      <trkpt lat="44.47563" lon="2.49481">
        <ele>334.1954346</ele>
        <time>2014-01-18T10:52:36Z</time>
      </trkpt>
      <trkpt lat="44.47566" lon="2.49461">
        <ele>333.2341309</ele>
        <time>2014-01-18T10:52:40Z</time>
      </trkpt>
      <trkpt lat="44.47571" lon="2.49439">
        <ele>329.8695068</ele>
        <time>2014-01-18T10:52:45Z</time>
      </trkpt>
      <trkpt lat="44.47574" lon="2.49416">
        <ele>330.3502197</ele>
        <time>2014-01-18T10:52:50Z</time>
      </trkpt>
      <trkpt lat="44.47573" lon="2.49395">
        <ele>331.7921143</ele>
        <time>2014-01-18T10:52:54Z</time>
      </trkpt>
      <trkpt lat="44.47576" lon="2.49369">
        <ele>336.1181641</ele>
        <time>2014-01-18T10:52:59Z</time>
      </trkpt>
      <trkpt lat="44.47579" lon="2.49346">
        <ele>338.0407715</ele>
        <time>2014-01-18T10:53:04Z</time>
      </trkpt>
      <trkpt lat="44.47585" lon="2.49315">
        <ele>339.0020752</ele>
        <time>2014-01-18T10:53:11Z</time>
      </trkpt>
      <trkpt lat="44.47589" lon="2.49293">
        <ele>336.1181641</ele>
        <time>2014-01-18T10:53:16Z</time>
      </trkpt>
      <trkpt lat="44.47591" lon="2.49277">
        <ele>332.2728271</ele>
        <time>2014-01-18T10:53:20Z</time>
      </trkpt>
      <trkpt lat="44.47597" lon="2.49248">
        <ele>327.4661865</ele>
        <time>2014-01-18T10:53:27Z</time>
      </trkpt>
      <trkpt lat="44.47602" lon="2.49234">
        <ele>325.5435791</ele>
        <time>2014-01-18T10:53:31Z</time>
      </trkpt>
      <trkpt lat="44.47608" lon="2.49213">
        <ele>322.659668</ele>
        <time>2014-01-18T10:53:36Z</time>
      </trkpt>
      <trkpt lat="44.47617" lon="2.49193">
        <ele>321.6983643</ele>
        <time>2014-01-18T10:53:41Z</time>
      </trkpt>
      <trkpt lat="44.47622" lon="2.49184">
        <ele>321.6983643</ele>
        <time>2014-01-18T10:53:44Z</time>
      </trkpt>
      <trkpt lat="44.47622" lon="2.49181">
        <ele>322.659668</ele>
        <time>2014-01-18T10:53:50Z</time>
      </trkpt>
      <trkpt lat="44.47622" lon="2.49181">
        <ele>323.1403809</ele>
        <time>2014-01-18T10:53:54Z</time>
      </trkpt>
      <trkpt lat="44.47623" lon="2.49178">
        <ele>324.1015625</ele>
        <time>2014-01-18T10:54:12Z</time>
      </trkpt>
      <trkpt lat="44.47625" lon="2.49178">
        <ele>325.0629883</ele>
        <time>2014-01-18T10:54:22Z</time>
      </trkpt>
      <trkpt lat="44.47628" lon="2.49178">
        <ele>323.1403809</ele>
        <time>2014-01-18T10:54:45Z</time>
      </trkpt>
      <trkpt lat="44.47627" lon="2.49179">
        <ele>320.2563477</ele>
        <time>2014-01-18T10:54:53Z</time>
      </trkpt>
      <trkpt lat="44.47627" lon="2.49179">
        <ele>321.2177734</ele>
        <time>2014-01-18T10:54:57Z</time>
      </trkpt>
      <trkpt lat="44.47626" lon="2.4918">
        <ele>323.6209717</ele>
        <time>2014-01-18T10:55:07Z</time>
      </trkpt>
      <trkpt lat="44.47628" lon="2.49178">
        <ele>323.6209717</ele>
        <time>2014-01-18T10:55:26Z</time>
      </trkpt>
      <trkpt lat="44.47629" lon="2.4918">
        <ele>324.1015625</ele>
        <time>2014-01-18T10:55:30Z</time>
      </trkpt>
      <trkpt lat="44.47628" lon="2.49185">
        <ele>324.1015625</ele>
        <time>2014-01-18T10:55:34Z</time>
      </trkpt>
      <trkpt lat="44.47627" lon="2.49188">
        <ele>323.6209717</ele>
        <time>2014-01-18T10:55:39Z</time>
      </trkpt>
      <trkpt lat="44.47627" lon="2.49191">
        <ele>324.1015625</ele>
        <time>2014-01-18T10:55:46Z</time>
      </trkpt>
      <trkpt lat="44.47627" lon="2.49193">
        <ele>323.1403809</ele>
        <time>2014-01-18T10:55:49Z</time>
      </trkpt>
      <trkpt lat="44.47629" lon="2.49191">
        <ele>325.5435791</ele>
        <time>2014-01-18T10:56:12Z</time>
      </trkpt>
      <trkpt lat="44.47629" lon="2.49191">
        <ele>325.5435791</ele>
        <time>2014-01-18T10:56:29Z</time>
      </trkpt>
      <trkpt lat="44.47628" lon="2.4919">
        <ele>324.5822754</ele>
        <time>2014-01-18T10:56:39Z</time>
      </trkpt>
      <trkpt lat="44.47629" lon="2.4919">
        <ele>323.6209717</ele>
        <time>2014-01-18T10:57:02Z</time>
      </trkpt>
      <trkpt lat="44.47629" lon="2.49193">
        <ele>325.0629883</ele>
        <time>2014-01-18T10:57:14Z</time>
      </trkpt>
      <trkpt lat="44.4763" lon="2.49193">
        <ele>326.5048828</ele>
        <time>2014-01-18T10:57:19Z</time>
      </trkpt>
      <trkpt lat="44.4763" lon="2.49195">
        <ele>327.4661865</ele>
        <time>2014-01-18T10:57:25Z</time>
      </trkpt>
      <trkpt lat="44.4763" lon="2.49196">
        <ele>328.4276123</ele>
        <time>2014-01-18T10:57:32Z</time>
      </trkpt>
      <trkpt lat="44.47632" lon="2.49198">
        <ele>329.8695068</ele>
        <time>2014-01-18T10:57:40Z</time>
      </trkpt>
      <trkpt lat="44.47634" lon="2.49199">
        <ele>329.8695068</ele>
        <time>2014-01-18T10:57:44Z</time>
      </trkpt>
      <trkpt lat="44.47637" lon="2.49205">
        <ele>331.7921143</ele>
        <time>2014-01-18T10:57:49Z</time>
      </trkpt>
      <trkpt lat="44.47638" lon="2.49209">
        <ele>334.1954346</ele>
        <time>2014-01-18T10:57:55Z</time>
      </trkpt>
      <trkpt lat="44.4764" lon="2.49207">
        <ele>335.1567383</ele>
        <time>2014-01-18T10:57:59Z</time>
      </trkpt>
      <trkpt lat="44.47641" lon="2.49203">
        <ele>336.1181641</ele>
        <time>2014-01-18T10:58:05Z</time>
      </trkpt>
      <trkpt lat="44.47645" lon="2.49199">
        <ele>338.0407715</ele>
        <time>2014-01-18T10:58:11Z</time>
      </trkpt>
      <trkpt lat="44.4765" lon="2.49194">
        <ele>336.598877</ele>
        <time>2014-01-18T10:58:17Z</time>
      </trkpt>
      <trkpt lat="44.47652" lon="2.49191">
        <ele>336.598877</ele>
        <time>2014-01-18T10:58:19Z</time>
      </trkpt>
      <trkpt lat="44.4766" lon="2.49182">
        <ele>338.5214844</ele>
        <time>2014-01-18T10:58:27Z</time>
      </trkpt>
      <trkpt lat="44.47661" lon="2.49181">
        <ele>339.9633789</ele>
        <time>2014-01-18T10:58:29Z</time>
      </trkpt>
      <trkpt lat="44.47663" lon="2.49181">
        <ele>340.9246826</ele>
        <time>2014-01-18T10:58:31Z</time>
      </trkpt>
      <trkpt lat="44.47667" lon="2.49173">
        <ele>344.2894287</ele>
        <time>2014-01-18T10:58:38Z</time>
      </trkpt>
      <trkpt lat="44.47671" lon="2.4917">
        <ele>344.2894287</ele>
        <time>2014-01-18T10:58:42Z</time>
      </trkpt>
      <trkpt lat="44.47673" lon="2.49168">
        <ele>344.7700195</ele>
        <time>2014-01-18T10:58:48Z</time>
      </trkpt>
      <trkpt lat="44.47677" lon="2.49164">
        <ele>345.2506104</ele>
        <time>2014-01-18T10:58:53Z</time>
      </trkpt>
      <trkpt lat="44.47681" lon="2.49159">
        <ele>346.2120361</ele>
        <time>2014-01-18T10:58:59Z</time>
      </trkpt>
      <trkpt lat="44.47682" lon="2.49158">
        <ele>346.692627</ele>
        <time>2014-01-18T10:59:00Z</time>
      </trkpt>
      <trkpt lat="44.47688" lon="2.49156">
        <ele>347.6539307</ele>
        <time>2014-01-18T10:59:04Z</time>
      </trkpt>
      <trkpt lat="44.47695" lon="2.49163">
        <ele>349.0958252</ele>
        <time>2014-01-18T10:59:10Z</time>
      </trkpt>
      <trkpt lat="44.47698" lon="2.49169">
        <ele>351.0184326</ele>
        <time>2014-01-18T10:59:14Z</time>
      </trkpt>
      <trkpt lat="44.47702" lon="2.49174">
        <ele>352.4605713</ele>
        <time>2014-01-18T10:59:17Z</time>
      </trkpt>
      <trkpt lat="44.47709" lon="2.49182">
        <ele>353.9025879</ele>
        <time>2014-01-18T10:59:23Z</time>
      </trkpt>
      <trkpt lat="44.47714" lon="2.49189">
        <ele>355.8251953</ele>
        <time>2014-01-18T10:59:31Z</time>
      </trkpt>
      <trkpt lat="44.47719" lon="2.49195">
        <ele>355.8251953</ele>
        <time>2014-01-18T10:59:37Z</time>
      </trkpt>
      <trkpt lat="44.47723" lon="2.49203">
        <ele>357.2670898</ele>
        <time>2014-01-18T10:59:45Z</time>
      </trkpt>
      <trkpt lat="44.47724" lon="2.49208">
        <ele>358.2283936</ele>
        <time>2014-01-18T10:59:51Z</time>
      </trkpt>
      <trkpt lat="44.47728" lon="2.49216">
        <ele>357.7478027</ele>
        <time>2014-01-18T10:59:58Z</time>
      </trkpt>
      <trkpt lat="44.47728" lon="2.49224">
        <ele>358.7089844</ele>
        <time>2014-01-18T11:00:04Z</time>
      </trkpt>
      <trkpt lat="44.4773" lon="2.49231">
        <ele>359.1896973</ele>
        <time>2014-01-18T11:00:10Z</time>
      </trkpt>
      <trkpt lat="44.47726" lon="2.49237">
        <ele>361.1124268</ele>
        <time>2014-01-18T11:00:16Z</time>
      </trkpt>
      <trkpt lat="44.47721" lon="2.49238">
        <ele>363.0350342</ele>
        <time>2014-01-18T11:00:22Z</time>
      </trkpt>
      <trkpt lat="44.47716" lon="2.4924">
        <ele>363.5157471</ele>
        <time>2014-01-18T11:00:28Z</time>
      </trkpt>
      <trkpt lat="44.47712" lon="2.49245">
        <ele>364.4769287</ele>
        <time>2014-01-18T11:00:34Z</time>
      </trkpt>
      <trkpt lat="44.47711" lon="2.49251">
        <ele>365.9189453</ele>
        <time>2014-01-18T11:00:39Z</time>
      </trkpt>
      <trkpt lat="44.47709" lon="2.49257">
        <ele>367.3609619</ele>
        <time>2014-01-18T11:00:44Z</time>
      </trkpt>
      <trkpt lat="44.47707" lon="2.49261">
        <ele>368.3222656</ele>
        <time>2014-01-18T11:00:47Z</time>
      </trkpt>
      <trkpt lat="44.47705" lon="2.49269">
        <ele>372.1674805</ele>
        <time>2014-01-18T11:00:53Z</time>
      </trkpt>
      <trkpt lat="44.47702" lon="2.49278">
        <ele>373.6094971</ele>
        <time>2014-01-18T11:00:58Z</time>
      </trkpt>
      <trkpt lat="44.47698" lon="2.49286">
        <ele>375.5321045</ele>
        <time>2014-01-18T11:01:03Z</time>
      </trkpt>
      <trkpt lat="44.47697" lon="2.49288">
        <ele>375.5321045</ele>
        <time>2014-01-18T11:01:04Z</time>
      </trkpt>
      <trkpt lat="44.47697" lon="2.49291">
        <ele>376.4935303</ele>
        <time>2014-01-18T11:01:06Z</time>
      </trkpt>
      <trkpt lat="44.47695" lon="2.49301">
        <ele>377.454834</ele>
        <time>2014-01-18T11:01:13Z</time>
      </trkpt>
      <trkpt lat="44.47696" lon="2.49304">
        <ele>376.9742432</ele>
        <time>2014-01-18T11:01:15Z</time>
      </trkpt>
      <trkpt lat="44.47695" lon="2.49313">
        <ele>377.9354248</ele>
        <time>2014-01-18T11:01:22Z</time>
      </trkpt>
      <trkpt lat="44.47695" lon="2.49321">
        <ele>377.9354248</ele>
        <time>2014-01-18T11:01:28Z</time>
      </trkpt>
      <trkpt lat="44.47696" lon="2.49328">
        <ele>377.454834</ele>
        <time>2014-01-18T11:01:34Z</time>
      </trkpt>
      <trkpt lat="44.47696" lon="2.49333">
        <ele>378.8968506</ele>
        <time>2014-01-18T11:01:38Z</time>
      </trkpt>
      <trkpt lat="44.47696" lon="2.49337">
        <ele>379.8580322</ele>
        <time>2014-01-18T11:01:40Z</time>
      </trkpt>
      <trkpt lat="44.47697" lon="2.49345">
        <ele>381.7806396</ele>
        <time>2014-01-18T11:01:45Z</time>
      </trkpt>
      <trkpt lat="44.47697" lon="2.49355">
        <ele>384.6647949</ele>
        <time>2014-01-18T11:01:52Z</time>
      </trkpt>
      <trkpt lat="44.47697" lon="2.49365">
        <ele>387.0679932</ele>
        <time>2014-01-18T11:01:59Z</time>
      </trkpt>
      <trkpt lat="44.47698" lon="2.49374">
        <ele>389.4711914</ele>
        <time>2014-01-18T11:02:06Z</time>
      </trkpt>
      <trkpt lat="44.47698" lon="2.49382">
        <ele>389.9519043</ele>
        <time>2014-01-18T11:02:12Z</time>
      </trkpt>
      <trkpt lat="44.47698" lon="2.4939">
        <ele>392.3553467</ele>
        <time>2014-01-18T11:02:18Z</time>
      </trkpt>
      <trkpt lat="44.47698" lon="2.49392">
        <ele>392.3553467</ele>
        <time>2014-01-18T11:02:19Z</time>
      </trkpt>
      <trkpt lat="44.47696" lon="2.49404">
        <ele>395.2391357</ele>
        <time>2014-01-18T11:02:27Z</time>
      </trkpt>
      <trkpt lat="44.47696" lon="2.49408">
        <ele>395.7198486</ele>
        <time>2014-01-18T11:02:30Z</time>
      </trkpt>
      <trkpt lat="44.47694" lon="2.49419">
        <ele>396.2005615</ele>
        <time>2014-01-18T11:02:37Z</time>
      </trkpt>
      <trkpt lat="44.47693" lon="2.49429">
        <ele>396.6811523</ele>
        <time>2014-01-18T11:02:43Z</time>
      </trkpt>
      <trkpt lat="44.47692" lon="2.49435">
        <ele>397.6424561</ele>
        <time>2014-01-18T11:02:47Z</time>
      </trkpt>
      <trkpt lat="44.47691" lon="2.49449">
        <ele>399.0843506</ele>
        <time>2014-01-18T11:02:57Z</time>
      </trkpt>
      <trkpt lat="44.47689" lon="2.49457">
        <ele>401.0070801</ele>
        <time>2014-01-18T11:03:03Z</time>
      </trkpt>
      <trkpt lat="44.4769" lon="2.49466">
        <ele>402.9296875</ele>
        <time>2014-01-18T11:03:09Z</time>
      </trkpt>
      <trkpt lat="44.47689" lon="2.49474">
        <ele>403.8911133</ele>
        <time>2014-01-18T11:03:14Z</time>
      </trkpt>
      <trkpt lat="44.47688" lon="2.49483">
        <ele>406.7749023</ele>
        <time>2014-01-18T11:03:20Z</time>
      </trkpt>
      <trkpt lat="44.47688" lon="2.4949">
        <ele>407.2556152</ele>
        <time>2014-01-18T11:03:26Z</time>
      </trkpt>
      <trkpt lat="44.47688" lon="2.49494">
        <ele>408.217041</ele>
        <time>2014-01-18T11:03:30Z</time>
      </trkpt>
      <trkpt lat="44.47687" lon="2.49502">
        <ele>408.6976318</ele>
        <time>2014-01-18T11:03:36Z</time>
      </trkpt>
      <trkpt lat="44.47687" lon="2.4951">
        <ele>409.6590576</ele>
        <time>2014-01-18T11:03:41Z</time>
      </trkpt>
      <trkpt lat="44.47687" lon="2.4952">
        <ele>410.6202393</ele>
        <time>2014-01-18T11:03:48Z</time>
      </trkpt>
      <trkpt lat="44.47688" lon="2.49521">
        <ele>410.6202393</ele>
        <time>2014-01-18T11:03:49Z</time>
      </trkpt>
      <trkpt lat="44.47685" lon="2.49531">
        <ele>411.581665</ele>
        <time>2014-01-18T11:03:55Z</time>
      </trkpt>
      <trkpt lat="44.47685" lon="2.49532">
        <ele>411.581665</ele>
        <time>2014-01-18T11:03:56Z</time>
      </trkpt>
      <trkpt lat="44.47684" lon="2.49539">
        <ele>412.0622559</ele>
        <time>2014-01-18T11:04:00Z</time>
      </trkpt>
      <trkpt lat="44.47686" lon="2.49549">
        <ele>412.0622559</ele>
        <time>2014-01-18T11:04:06Z</time>
      </trkpt>
      <trkpt lat="44.47686" lon="2.49559">
        <ele>412.5428467</ele>
        <time>2014-01-18T11:04:11Z</time>
      </trkpt>
      <trkpt lat="44.47679" lon="2.49579">
        <ele>413.9848633</ele>
        <time>2014-01-18T11:04:17Z</time>
      </trkpt>
      <trkpt lat="44.47675" lon="2.49597">
        <ele>413.9848633</ele>
        <time>2014-01-18T11:04:22Z</time>
      </trkpt>
      <trkpt lat="44.47672" lon="2.49616">
        <ele>413.0235596</ele>
        <time>2014-01-18T11:04:27Z</time>
      </trkpt>
      <trkpt lat="44.47667" lon="2.49635">
        <ele>411.581665</ele>
        <time>2014-01-18T11:04:33Z</time>
      </trkpt>
      <trkpt lat="44.47665" lon="2.49647">
        <ele>413.0235596</ele>
        <time>2014-01-18T11:04:37Z</time>
      </trkpt>
      <trkpt lat="44.47665" lon="2.4965">
        <ele>412.5428467</ele>
        <time>2014-01-18T11:04:38Z</time>
      </trkpt>
      <trkpt lat="44.4766" lon="2.49668">
        <ele>413.5042725</ele>
        <time>2014-01-18T11:04:44Z</time>
      </trkpt>
      <trkpt lat="44.47659" lon="2.49671">
        <ele>413.0235596</ele>
        <time>2014-01-18T11:04:45Z</time>
      </trkpt>
      <trkpt lat="44.47658" lon="2.49678">
        <ele>413.5042725</ele>
        <time>2014-01-18T11:04:47Z</time>
      </trkpt>
      <trkpt lat="44.47658" lon="2.49687">
        <ele>413.0235596</ele>
        <time>2014-01-18T11:04:50Z</time>
      </trkpt>
      <trkpt lat="44.47659" lon="2.49705">
        <ele>411.581665</ele>
        <time>2014-01-18T11:04:56Z</time>
      </trkpt>
      <trkpt lat="44.47656" lon="2.49724">
        <ele>410.6202393</ele>
        <time>2014-01-18T11:05:02Z</time>
      </trkpt>
      <trkpt lat="44.47654" lon="2.49739">
        <ele>412.5428467</ele>
        <time>2014-01-18T11:05:07Z</time>
      </trkpt>
      <trkpt lat="44.47651" lon="2.49756">
        <ele>413.0235596</ele>
        <time>2014-01-18T11:05:12Z</time>
      </trkpt>
      <trkpt lat="44.47649" lon="2.49769">
        <ele>413.9848633</ele>
        <time>2014-01-18T11:05:17Z</time>
      </trkpt>
      <trkpt lat="44.47649" lon="2.49773">
        <ele>415.4268799</ele>
        <time>2014-01-18T11:05:19Z</time>
      </trkpt>
      <trkpt lat="44.4765" lon="2.49779">
        <ele>416.8688965</ele>
        <time>2014-01-18T11:05:24Z</time>
      </trkpt>
      <trkpt lat="44.4765" lon="2.49792">
        <ele>420.7141113</ele>
        <time>2014-01-18T11:05:31Z</time>
      </trkpt>
      <trkpt lat="44.4765" lon="2.49804">
        <ele>423.1174316</ele>
        <time>2014-01-18T11:05:38Z</time>
      </trkpt>
      <trkpt lat="44.4765" lon="2.49806">
        <ele>423.5980225</ele>
        <time>2014-01-18T11:05:39Z</time>
      </trkpt>
      <trkpt lat="44.4765" lon="2.49815">
        <ele>424.0787354</ele>
        <time>2014-01-18T11:05:44Z</time>
      </trkpt>
      <trkpt lat="44.4765" lon="2.49829">
        <ele>425.520752</ele>
        <time>2014-01-18T11:05:52Z</time>
      </trkpt>
      <trkpt lat="44.47649" lon="2.4984">
        <ele>426.0013428</ele>
        <time>2014-01-18T11:05:58Z</time>
      </trkpt>
      <trkpt lat="44.47649" lon="2.49845">
        <ele>426.9627686</ele>
        <time>2014-01-18T11:06:01Z</time>
      </trkpt>
      <trkpt lat="44.47646" lon="2.49858">
        <ele>430.8079834</ele>
        <time>2014-01-18T11:06:10Z</time>
      </trkpt>
      <trkpt lat="44.47645" lon="2.49865">
        <ele>430.3272705</ele>
        <time>2014-01-18T11:06:13Z</time>
      </trkpt>
      <trkpt lat="44.47639" lon="2.49879">
        <ele>434.1726074</ele>
        <time>2014-01-18T11:06:19Z</time>
      </trkpt>
      <trkpt lat="44.47638" lon="2.49881">
        <ele>434.6533203</ele>
        <time>2014-01-18T11:06:20Z</time>
      </trkpt>
      <trkpt lat="44.47629" lon="2.49894">
        <ele>437.0565186</ele>
        <time>2014-01-18T11:06:25Z</time>
      </trkpt>
      <trkpt lat="44.47623" lon="2.49908">
        <ele>438.979126</ele>
        <time>2014-01-18T11:06:31Z</time>
      </trkpt>
      <trkpt lat="44.47621" lon="2.49921">
        <ele>440.4212646</ele>
        <time>2014-01-18T11:06:37Z</time>
      </trkpt>
      <trkpt lat="44.4762" lon="2.49937">
        <ele>441.8631592</ele>
        <time>2014-01-18T11:06:45Z</time>
      </trkpt>
      <trkpt lat="44.47621" lon="2.49942">
        <ele>442.8244629</ele>
        <time>2014-01-18T11:06:48Z</time>
      </trkpt>
      <trkpt lat="44.4762" lon="2.49952">
        <ele>445.2276611</ele>
        <time>2014-01-18T11:06:54Z</time>
      </trkpt>
      <trkpt lat="44.47621" lon="2.49958">
        <ele>445.2276611</ele>
        <time>2014-01-18T11:07:01Z</time>
      </trkpt>
      <trkpt lat="44.47621" lon="2.49965">
        <ele>444.2664795</ele>
        <time>2014-01-18T11:07:07Z</time>
      </trkpt>
      <trkpt lat="44.47621" lon="2.4997">
        <ele>443.7857666</ele>
        <time>2014-01-18T11:07:12Z</time>
      </trkpt>
      <trkpt lat="44.4762" lon="2.49983">
        <ele>444.2664795</ele>
        <time>2014-01-18T11:07:17Z</time>
      </trkpt>
      <trkpt lat="44.4762" lon="2.49996">
        <ele>444.7470703</ele>
        <time>2014-01-18T11:07:21Z</time>
      </trkpt>
      <trkpt lat="44.47622" lon="2.5001">
        <ele>444.7470703</ele>
        <time>2014-01-18T11:07:25Z</time>
      </trkpt>
      <trkpt lat="44.47623" lon="2.50017">
        <ele>445.2276611</ele>
        <time>2014-01-18T11:07:29Z</time>
      </trkpt>
      <trkpt lat="44.47625" lon="2.50019">
        <ele>445.708374</ele>
        <time>2014-01-18T11:07:34Z</time>
      </trkpt>
      <trkpt lat="44.47626" lon="2.50021">
        <ele>447.1502686</ele>
        <time>2014-01-18T11:07:39Z</time>
      </trkpt>
      <trkpt lat="44.47635" lon="2.5003">
        <ele>448.1118164</ele>
        <time>2014-01-18T11:07:45Z</time>
      </trkpt>
      <trkpt lat="44.47637" lon="2.50031">
        <ele>448.5924072</ele>
        <time>2014-01-18T11:07:47Z</time>
      </trkpt>
      <trkpt lat="44.4764" lon="2.50035">
        <ele>450.5150146</ele>
        <time>2014-01-18T11:07:50Z</time>
      </trkpt>
      <trkpt lat="44.47644" lon="2.50039">
        <ele>451.9570313</ele>
        <time>2014-01-18T11:07:54Z</time>
      </trkpt>
      <trkpt lat="44.47647" lon="2.50039">
        <ele>453.3989258</ele>
        <time>2014-01-18T11:08:02Z</time>
      </trkpt>
      <trkpt lat="44.47648" lon="2.50039">
        <ele>453.3989258</ele>
        <time>2014-01-18T11:08:11Z</time>
      </trkpt>
      <trkpt lat="44.47648" lon="2.50039">
        <ele>452.4376221</ele>
        <time>2014-01-18T11:08:21Z</time>
      </trkpt>
      <trkpt lat="44.47648" lon="2.50039">
        <ele>453.3989258</ele>
        <time>2014-01-18T11:08:46Z</time>
      </trkpt>
      <trkpt lat="44.47649" lon="2.5004">
        <ele>455.3215332</ele>
        <time>2014-01-18T11:08:57Z</time>
      </trkpt>
      <trkpt lat="44.4765" lon="2.50039">
        <ele>456.282959</ele>
        <time>2014-01-18T11:09:26Z</time>
      </trkpt>
      <trkpt lat="44.47649" lon="2.50039">
        <ele>454.3602295</ele>
        <time>2014-01-18T11:09:44Z</time>
      </trkpt>
      <trkpt lat="44.47652" lon="2.50043">
        <ele>453.8796387</ele>
        <time>2014-01-18T11:09:59Z</time>
      </trkpt>
      <trkpt lat="44.47658" lon="2.50055">
        <ele>452.9182129</ele>
        <time>2014-01-18T11:10:03Z</time>
      </trkpt>
      <trkpt lat="44.47665" lon="2.50063">
        <ele>451.9570313</ele>
        <time>2014-01-18T11:10:07Z</time>
      </trkpt>
      <trkpt lat="44.47675" lon="2.50076">
        <ele>448.5924072</ele>
        <time>2014-01-18T11:10:12Z</time>
      </trkpt>
      <trkpt lat="44.4768" lon="2.50081">
        <ele>447.1502686</ele>
        <time>2014-01-18T11:10:14Z</time>
      </trkpt>
      <trkpt lat="44.4769" lon="2.50095">
        <ele>446.1890869</ele>
        <time>2014-01-18T11:10:19Z</time>
      </trkpt>
      <trkpt lat="44.47696" lon="2.50108">
        <ele>444.2664795</ele>
        <time>2014-01-18T11:10:23Z</time>
      </trkpt>
      <trkpt lat="44.477" lon="2.50124">
        <ele>445.708374</ele>
        <time>2014-01-18T11:10:27Z</time>
      </trkpt>
      <trkpt lat="44.47704" lon="2.50141">
        <ele>447.1502686</ele>
        <time>2014-01-18T11:10:32Z</time>
      </trkpt>
      <trkpt lat="44.47708" lon="2.50157">
        <ele>450.5150146</ele>
        <time>2014-01-18T11:10:37Z</time>
      </trkpt>
      <trkpt lat="44.47713" lon="2.50174">
        <ele>452.4376221</ele>
        <time>2014-01-18T11:10:42Z</time>
      </trkpt>
      <trkpt lat="44.47716" lon="2.50191">
        <ele>455.8022461</ele>
        <time>2014-01-18T11:10:47Z</time>
      </trkpt>
      <trkpt lat="44.47718" lon="2.50201">
        <ele>457.2442627</ele>
        <time>2014-01-18T11:10:51Z</time>
      </trkpt>
      <trkpt lat="44.4772" lon="2.50219">
        <ele>459.1668701</ele>
        <time>2014-01-18T11:10:58Z</time>
      </trkpt>
      <trkpt lat="44.47727" lon="2.50233">
        <ele>459.647583</ele>
        <time>2014-01-18T11:11:03Z</time>
      </trkpt>
      <trkpt lat="44.47733" lon="2.50251">
        <ele>459.647583</ele>
        <time>2014-01-18T11:11:09Z</time>
      </trkpt>
      <trkpt lat="44.47741" lon="2.50267">
        <ele>460.6087646</ele>
        <time>2014-01-18T11:11:15Z</time>
      </trkpt>
      <trkpt lat="44.47749" lon="2.50283">
        <ele>461.0894775</ele>
        <time>2014-01-18T11:11:20Z</time>
      </trkpt>
      <trkpt lat="44.47757" lon="2.50301">
        <ele>461.0894775</ele>
        <time>2014-01-18T11:11:26Z</time>
      </trkpt>
      <trkpt lat="44.47764" lon="2.50316">
        <ele>460.6087646</ele>
        <time>2014-01-18T11:11:31Z</time>
      </trkpt>
      <trkpt lat="44.47772" lon="2.5033">
        <ele>461.5701904</ele>
        <time>2014-01-18T11:11:36Z</time>
      </trkpt>
      <trkpt lat="44.47781" lon="2.50343">
        <ele>463.012085</ele>
        <time>2014-01-18T11:11:41Z</time>
      </trkpt>
      <trkpt lat="44.47788" lon="2.50362">
        <ele>462.0507813</ele>
        <time>2014-01-18T11:11:46Z</time>
      </trkpt>
      <trkpt lat="44.47794" lon="2.50375">
        <ele>462.5313721</ele>
        <time>2014-01-18T11:11:50Z</time>
      </trkpt>
      <trkpt lat="44.478" lon="2.50389">
        <ele>462.0507813</ele>
        <time>2014-01-18T11:11:54Z</time>
      </trkpt>
      <trkpt lat="44.47804" lon="2.50402">
        <ele>461.0894775</ele>
        <time>2014-01-18T11:11:58Z</time>
      </trkpt>
      <trkpt lat="44.47809" lon="2.50417">
        <ele>460.1281738</ele>
        <time>2014-01-18T11:12:02Z</time>
      </trkpt>
      <trkpt lat="44.47813" lon="2.50434">
        <ele>460.1281738</ele>
        <time>2014-01-18T11:12:07Z</time>
      </trkpt>
      <trkpt lat="44.47817" lon="2.5045">
        <ele>461.5701904</ele>
        <time>2014-01-18T11:12:12Z</time>
      </trkpt>
      <trkpt lat="44.4782" lon="2.50466">
        <ele>464.4541016</ele>
        <time>2014-01-18T11:12:17Z</time>
      </trkpt>
      <trkpt lat="44.47822" lon="2.50479">
        <ele>465.4155273</ele>
        <time>2014-01-18T11:12:22Z</time>
      </trkpt>
      <trkpt lat="44.47824" lon="2.50494">
        <ele>468.2993164</ele>
        <time>2014-01-18T11:12:27Z</time>
      </trkpt>
      <trkpt lat="44.47825" lon="2.505">
        <ele>469.2607422</ele>
        <time>2014-01-18T11:12:29Z</time>
      </trkpt>
      <trkpt lat="44.47828" lon="2.50515">
        <ele>471.1833496</ele>
        <time>2014-01-18T11:12:34Z</time>
      </trkpt>
      <trkpt lat="44.47834" lon="2.50513">
        <ele>471.6639404</ele>
        <time>2014-01-18T11:12:37Z</time>
      </trkpt>
      <trkpt lat="44.4785" lon="2.50499">
        <ele>472.6253662</ele>
        <time>2014-01-18T11:12:44Z</time>
      </trkpt>
      <trkpt lat="44.47858" lon="2.50482">
        <ele>472.1446533</ele>
        <time>2014-01-18T11:12:49Z</time>
      </trkpt>
      <trkpt lat="44.47867" lon="2.50471">
        <ele>471.1833496</ele>
        <time>2014-01-18T11:12:53Z</time>
      </trkpt>
      <trkpt lat="44.47881" lon="2.50456">
        <ele>468.7800293</ele>
        <time>2014-01-18T11:12:59Z</time>
      </trkpt>
      <trkpt lat="44.4789" lon="2.50451">
        <ele>469.2607422</ele>
        <time>2014-01-18T11:13:03Z</time>
      </trkpt>
      <trkpt lat="44.47904" lon="2.50444">
        <ele>469.2607422</ele>
        <time>2014-01-18T11:13:08Z</time>
      </trkpt>
      <trkpt lat="44.47919" lon="2.50437">
        <ele>466.376709</ele>
        <time>2014-01-18T11:13:13Z</time>
      </trkpt>
      <trkpt lat="44.47933" lon="2.50433">
        <ele>464.9348145</ele>
        <time>2014-01-18T11:13:18Z</time>
      </trkpt>
      <trkpt lat="44.47936" lon="2.50432">
        <ele>464.9348145</ele>
        <time>2014-01-18T11:13:19Z</time>
      </trkpt>
      <trkpt lat="44.47945" lon="2.50437">
        <ele>464.9348145</ele>
        <time>2014-01-18T11:13:24Z</time>
      </trkpt>
      <trkpt lat="44.47951" lon="2.50438">
        <ele>463.4927979</ele>
        <time>2014-01-18T11:13:27Z</time>
      </trkpt>
      <trkpt lat="44.47965" lon="2.50443">
        <ele>461.0894775</ele>
        <time>2014-01-18T11:13:33Z</time>
      </trkpt>
      <trkpt lat="44.47979" lon="2.50447">
        <ele>461.5701904</ele>
        <time>2014-01-18T11:13:38Z</time>
      </trkpt>
      <trkpt lat="44.47993" lon="2.5045">
        <ele>464.4541016</ele>
        <time>2014-01-18T11:13:43Z</time>
      </trkpt>
      <trkpt lat="44.48004" lon="2.50451">
        <ele>467.8187256</ele>
        <time>2014-01-18T11:13:46Z</time>
      </trkpt>
      <trkpt lat="44.48016" lon="2.50454">
        <ele>468.2993164</ele>
        <time>2014-01-18T11:13:51Z</time>
      </trkpt>
      <trkpt lat="44.48027" lon="2.50455">
        <ele>470.2219238</ele>
        <time>2014-01-18T11:13:54Z</time>
      </trkpt>
      <trkpt lat="44.48046" lon="2.50455">
        <ele>470.7026367</ele>
        <time>2014-01-18T11:14:00Z</time>
      </trkpt>
      <trkpt lat="44.4806" lon="2.50453">
        <ele>471.1833496</ele>
        <time>2014-01-18T11:14:05Z</time>
      </trkpt>
      <trkpt lat="44.48071" lon="2.50453">
        <ele>470.7026367</ele>
        <time>2014-01-18T11:14:09Z</time>
      </trkpt>
      <trkpt lat="44.48082" lon="2.50453">
        <ele>472.6253662</ele>
        <time>2014-01-18T11:14:14Z</time>
      </trkpt>
      <trkpt lat="44.48091" lon="2.50447">
        <ele>475.0286865</ele>
        <time>2014-01-18T11:14:20Z</time>
      </trkpt>
      <trkpt lat="44.48099" lon="2.50435">
        <ele>471.6639404</ele>
        <time>2014-01-18T11:14:24Z</time>
      </trkpt>
      <trkpt lat="44.48111" lon="2.50422">
        <ele>466.8574219</ele>
        <time>2014-01-18T11:14:29Z</time>
      </trkpt>
      <trkpt lat="44.48122" lon="2.50413">
        <ele>463.4927979</ele>
        <time>2014-01-18T11:14:34Z</time>
      </trkpt>
      <trkpt lat="44.48131" lon="2.50406">
        <ele>459.1668701</ele>
        <time>2014-01-18T11:14:38Z</time>
      </trkpt>
      <trkpt lat="44.48139" lon="2.504">
        <ele>454.8408203</ele>
        <time>2014-01-18T11:14:42Z</time>
      </trkpt>
      <trkpt lat="44.48146" lon="2.50395">
        <ele>452.4376221</ele>
        <time>2014-01-18T11:14:46Z</time>
      </trkpt>
      <trkpt lat="44.48144" lon="2.50388">
        <ele>451.4763184</ele>
        <time>2014-01-18T11:14:49Z</time>
      </trkpt>
      <trkpt lat="44.48143" lon="2.50377">
        <ele>446.1890869</ele>
        <time>2014-01-18T11:14:54Z</time>
      </trkpt>
      <trkpt lat="44.48148" lon="2.5037">
        <ele>445.708374</ele>
        <time>2014-01-18T11:14:57Z</time>
      </trkpt>
      <trkpt lat="44.48159" lon="2.50354">
        <ele>444.2664795</ele>
        <time>2014-01-18T11:15:03Z</time>
      </trkpt>
      <trkpt lat="44.48165" lon="2.50342">
        <ele>440.9018555</ele>
        <time>2014-01-18T11:15:07Z</time>
      </trkpt>
      <trkpt lat="44.48174" lon="2.50318">
        <ele>438.979126</ele>
        <time>2014-01-18T11:15:13Z</time>
      </trkpt>
      <trkpt lat="44.48181" lon="2.50295">
        <ele>434.6533203</ele>
        <time>2014-01-18T11:15:18Z</time>
      </trkpt>
      <trkpt lat="44.48185" lon="2.50277">
        <ele>431.2885742</ele>
        <time>2014-01-18T11:15:22Z</time>
      </trkpt>
      <trkpt lat="44.4819" lon="2.50256">
        <ele>428.4046631</ele>
        <time>2014-01-18T11:15:27Z</time>
      </trkpt>
      <trkpt lat="44.48197" lon="2.50235">
        <ele>424.5594482</ele>
        <time>2014-01-18T11:15:32Z</time>
      </trkpt>
      <trkpt lat="44.48198" lon="2.50222">
        <ele>423.1174316</ele>
        <time>2014-01-18T11:15:35Z</time>
      </trkpt>
      <trkpt lat="44.48206" lon="2.50225">
        <ele>419.7528076</ele>
        <time>2014-01-18T11:15:39Z</time>
      </trkpt>
      <trkpt lat="44.48212" lon="2.50232">
        <ele>417.8302002</ele>
        <time>2014-01-18T11:15:43Z</time>
      </trkpt>
      <trkpt lat="44.48214" lon="2.50234">
        <ele>415.9074707</ele>
        <time>2014-01-18T11:15:47Z</time>
      </trkpt>
      <trkpt lat="44.48218" lon="2.50244">
        <ele>411.581665</ele>
        <time>2014-01-18T11:15:51Z</time>
      </trkpt>
      <trkpt lat="44.48226" lon="2.50256">
        <ele>407.2556152</ele>
        <time>2014-01-18T11:15:56Z</time>
      </trkpt>
      <trkpt lat="44.48227" lon="2.50259">
        <ele>406.2943115</ele>
        <time>2014-01-18T11:15:57Z</time>
      </trkpt>
      <trkpt lat="44.48232" lon="2.50271">
        <ele>406.7749023</ele>
        <time>2014-01-18T11:16:02Z</time>
      </trkpt>
      <trkpt lat="44.48239" lon="2.50272">
        <ele>407.2556152</ele>
        <time>2014-01-18T11:16:06Z</time>
      </trkpt>
      <trkpt lat="44.48248" lon="2.50268">
        <ele>407.2556152</ele>
        <time>2014-01-18T11:16:10Z</time>
      </trkpt>
      <trkpt lat="44.48256" lon="2.50269">
        <ele>406.2943115</ele>
        <time>2014-01-18T11:16:14Z</time>
      </trkpt>
      <trkpt lat="44.48266" lon="2.50278">
        <ele>404.3717041</ele>
        <time>2014-01-18T11:16:19Z</time>
      </trkpt>
      <trkpt lat="44.48285" lon="2.50289">
        <ele>406.7749023</ele>
        <time>2014-01-18T11:16:24Z</time>
      </trkpt>
      <trkpt lat="44.48302" lon="2.50301">
        <ele>406.7749023</ele>
        <time>2014-01-18T11:16:29Z</time>
      </trkpt>
      <trkpt lat="44.48315" lon="2.50314">
        <ele>400.0458984</ele>
        <time>2014-01-18T11:16:34Z</time>
      </trkpt>
      <trkpt lat="44.48325" lon="2.50326">
        <ele>395.2391357</ele>
        <time>2014-01-18T11:16:38Z</time>
      </trkpt>
      <trkpt lat="44.48334" lon="2.50337">
        <ele>390.913208</ele>
        <time>2014-01-18T11:16:42Z</time>
      </trkpt>
      <trkpt lat="44.48346" lon="2.50351">
        <ele>388.0292969</ele>
        <time>2014-01-18T11:16:47Z</time>
      </trkpt>
      <trkpt lat="44.48357" lon="2.50363">
        <ele>387.0679932</ele>
        <time>2014-01-18T11:16:51Z</time>
      </trkpt>
      <trkpt lat="44.48369" lon="2.50375">
        <ele>385.6259766</ele>
        <time>2014-01-18T11:16:55Z</time>
      </trkpt>
      <trkpt lat="44.48372" lon="2.50377">
        <ele>385.1453857</ele>
        <time>2014-01-18T11:16:56Z</time>
      </trkpt>
      <trkpt lat="44.48383" lon="2.50387">
        <ele>380.819458</ele>
        <time>2014-01-18T11:17:01Z</time>
      </trkpt>
      <trkpt lat="44.48391" lon="2.50394">
        <ele>378.8968506</ele>
        <time>2014-01-18T11:17:05Z</time>
      </trkpt>
      <trkpt lat="44.48398" lon="2.50399">
        <ele>378.4161377</ele>
        <time>2014-01-18T11:17:08Z</time>
      </trkpt>
      <trkpt lat="44.48408" lon="2.50412">
        <ele>373.1289063</ele>
        <time>2014-01-18T11:17:13Z</time>
      </trkpt>
      <trkpt lat="44.48418" lon="2.50425">
        <ele>370.244873</ele>
        <time>2014-01-18T11:17:18Z</time>
      </trkpt>
      <trkpt lat="44.48421" lon="2.5043">
        <ele>370.7255859</ele>
        <time>2014-01-18T11:17:20Z</time>
      </trkpt>
      <trkpt lat="44.48434" lon="2.50441">
        <ele>368.8029785</ele>
        <time>2014-01-18T11:17:25Z</time>
      </trkpt>
      <trkpt lat="44.48443" lon="2.50448">
        <ele>366.3995361</ele>
        <time>2014-01-18T11:17:29Z</time>
      </trkpt>
      <trkpt lat="44.48446" lon="2.50452">
        <ele>365.9189453</ele>
        <time>2014-01-18T11:17:31Z</time>
      </trkpt>
      <trkpt lat="44.48447" lon="2.50445">
        <ele>362.0737305</ele>
        <time>2014-01-18T11:17:36Z</time>
      </trkpt>
      <trkpt lat="44.48443" lon="2.50422">
        <ele>359.1896973</ele>
        <time>2014-01-18T11:17:42Z</time>
      </trkpt>
      <trkpt lat="44.48441" lon="2.50406">
        <ele>357.7478027</ele>
        <time>2014-01-18T11:17:46Z</time>
      </trkpt>
      <trkpt lat="44.48436" lon="2.50385">
        <ele>355.8251953</ele>
        <time>2014-01-18T11:17:51Z</time>
      </trkpt>
      <trkpt lat="44.48432" lon="2.50363">
        <ele>351.9798584</ele>
        <time>2014-01-18T11:17:56Z</time>
      </trkpt>
      <trkpt lat="44.4843" lon="2.50342">
        <ele>349.0958252</ele>
        <time>2014-01-18T11:18:01Z</time>
      </trkpt>
      <trkpt lat="44.48429" lon="2.50326">
        <ele>345.2506104</ele>
        <time>2014-01-18T11:18:06Z</time>
      </trkpt>
      <trkpt lat="44.48429" lon="2.50318">
        <ele>342.3666992</ele>
        <time>2014-01-18T11:18:09Z</time>
      </trkpt>
      <trkpt lat="44.48439" lon="2.5031">
        <ele>339.9633789</ele>
        <time>2014-01-18T11:18:13Z</time>
      </trkpt>
      <trkpt lat="44.48448" lon="2.50307">
        <ele>339.482666</ele>
        <time>2014-01-18T11:18:17Z</time>
      </trkpt>
      <trkpt lat="44.4845" lon="2.50305">
        <ele>339.482666</ele>
        <time>2014-01-18T11:18:20Z</time>
      </trkpt>
      <trkpt lat="44.48452" lon="2.50305">
        <ele>339.9633789</ele>
        <time>2014-01-18T11:18:24Z</time>
      </trkpt>
      <trkpt lat="44.48454" lon="2.50301">
        <ele>341.4052734</ele>
        <time>2014-01-18T11:18:34Z</time>
      </trkpt>
      <trkpt lat="44.48454" lon="2.50298">
        <ele>339.482666</ele>
        <time>2014-01-18T11:18:42Z</time>
      </trkpt>
      <trkpt lat="44.48456" lon="2.50297">
        <ele>343.8085938</ele>
        <time>2014-01-18T11:18:58Z</time>
      </trkpt>
      <trkpt lat="44.48458" lon="2.50299">
        <ele>341.8859863</ele>
        <time>2014-01-18T11:19:09Z</time>
      </trkpt>
      <trkpt lat="44.48457" lon="2.503">
        <ele>340.9246826</ele>
        <time>2014-01-18T11:19:41Z</time>
      </trkpt>
      <trkpt lat="44.48457" lon="2.50299">
        <ele>341.4052734</ele>
        <time>2014-01-18T11:19:51Z</time>
      </trkpt>
      <trkpt lat="44.48454" lon="2.50296">
        <ele>339.9633789</ele>
        <time>2014-01-18T11:20:09Z</time>
      </trkpt>
      <trkpt lat="44.48454" lon="2.50295">
        <ele>342.3666992</ele>
        <time>2014-01-18T11:20:24Z</time>
      </trkpt>
      <trkpt lat="44.48455" lon="2.50294">
        <ele>348.1346436</ele>
        <time>2014-01-18T11:20:44Z</time>
      </trkpt>
      <trkpt lat="44.48456" lon="2.50293">
        <ele>344.2894287</ele>
        <time>2014-01-18T11:20:50Z</time>
      </trkpt>
      <trkpt lat="44.48451" lon="2.50301">
        <ele>345.7313232</ele>
        <time>2014-01-18T11:21:09Z</time>
      </trkpt>
      <trkpt lat="44.48455" lon="2.50295">
        <ele>339.0020752</ele>
        <time>2014-01-18T11:21:53Z</time>
      </trkpt>
      <trkpt lat="44.48455" lon="2.50299">
        <ele>339.482666</ele>
        <time>2014-01-18T11:22:16Z</time>
      </trkpt>
      <trkpt lat="44.48455" lon="2.50299">
        <ele>341.4052734</ele>
        <time>2014-01-18T11:22:29Z</time>
      </trkpt>
      <trkpt lat="44.48455" lon="2.50299">
        <ele>341.8859863</ele>
        <time>2014-01-18T11:22:39Z</time>
      </trkpt>
      <trkpt lat="44.48455" lon="2.50299">
        <ele>341.4052734</ele>
        <time>2014-01-18T11:22:49Z</time>
      </trkpt>
      <trkpt lat="44.48454" lon="2.50298">
        <ele>340.4440918</ele>
        <time>2014-01-18T11:23:06Z</time>
      </trkpt>
      <trkpt lat="44.48455" lon="2.50299">
        <ele>342.3666992</ele>
        <time>2014-01-18T11:23:30Z</time>
      </trkpt>
      <trkpt lat="44.48456" lon="2.50297">
        <ele>347.6539307</ele>
        <time>2014-01-18T11:23:51Z</time>
      </trkpt>
      <trkpt lat="44.48462" lon="2.50294">
        <ele>346.692627</ele>
        <time>2014-01-18T11:23:58Z</time>
      </trkpt>
      <trkpt lat="44.48465" lon="2.5029">
        <ele>345.7313232</ele>
        <time>2014-01-18T11:24:01Z</time>
      </trkpt>
      <trkpt lat="44.48476" lon="2.50282">
        <ele>343.3278809</ele>
        <time>2014-01-18T11:24:06Z</time>
      </trkpt>
      <trkpt lat="44.48485" lon="2.50278">
        <ele>342.84729</ele>
        <time>2014-01-18T11:24:10Z</time>
      </trkpt>
      <trkpt lat="44.48493" lon="2.50274">
        <ele>342.3666992</ele>
        <time>2014-01-18T11:24:13Z</time>
      </trkpt>
      <trkpt lat="44.48504" lon="2.50268">
        <ele>343.3278809</ele>
        <time>2014-01-18T11:24:18Z</time>
      </trkpt>
      <trkpt lat="44.48506" lon="2.50267">
        <ele>343.3278809</ele>
        <time>2014-01-18T11:24:19Z</time>
      </trkpt>
      <trkpt lat="44.48521" lon="2.50257">
        <ele>343.3278809</ele>
        <time>2014-01-18T11:24:26Z</time>
      </trkpt>
      <trkpt lat="44.4853" lon="2.50246">
        <ele>342.84729</ele>
        <time>2014-01-18T11:24:31Z</time>
      </trkpt>
      <trkpt lat="44.48538" lon="2.5023">
        <ele>344.7700195</ele>
        <time>2014-01-18T11:24:36Z</time>
      </trkpt>
      <trkpt lat="44.48548" lon="2.50217">
        <ele>348.1346436</ele>
        <time>2014-01-18T11:24:41Z</time>
      </trkpt>
      <trkpt lat="44.48559" lon="2.5021">
        <ele>349.5765381</ele>
        <time>2014-01-18T11:24:46Z</time>
      </trkpt>
      <trkpt lat="44.48569" lon="2.50204">
        <ele>351.9798584</ele>
        <time>2014-01-18T11:24:51Z</time>
      </trkpt>
      <trkpt lat="44.4858" lon="2.50197">
        <ele>353.9025879</ele>
        <time>2014-01-18T11:24:56Z</time>
      </trkpt>
      <trkpt lat="44.48593" lon="2.50187">
        <ele>354.8637695</ele>
        <time>2014-01-18T11:25:02Z</time>
      </trkpt>
      <trkpt lat="44.48604" lon="2.50178">
        <ele>355.8251953</ele>
        <time>2014-01-18T11:25:07Z</time>
      </trkpt>
      <trkpt lat="44.48618" lon="2.50168">
        <ele>356.3057861</ele>
        <time>2014-01-18T11:25:13Z</time>
      </trkpt>
      <trkpt lat="44.4863" lon="2.50157">
        <ele>357.7478027</ele>
        <time>2014-01-18T11:25:19Z</time>
      </trkpt>
      <trkpt lat="44.4864" lon="2.50147">
        <ele>358.2283936</ele>
        <time>2014-01-18T11:25:24Z</time>
      </trkpt>
      <trkpt lat="44.48651" lon="2.5014">
        <ele>358.2283936</ele>
        <time>2014-01-18T11:25:29Z</time>
      </trkpt>
      <trkpt lat="44.48658" lon="2.50132">
        <ele>359.1896973</ele>
        <time>2014-01-18T11:25:34Z</time>
      </trkpt>
      <trkpt lat="44.48667" lon="2.50124">
        <ele>360.151123</ele>
        <time>2014-01-18T11:25:39Z</time>
      </trkpt>
      <trkpt lat="44.48678" lon="2.5012">
        <ele>363.5157471</ele>
        <time>2014-01-18T11:25:44Z</time>
      </trkpt>
      <trkpt lat="44.4869" lon="2.50122">
        <ele>364.9576416</ele>
        <time>2014-01-18T11:25:49Z</time>
      </trkpt>
      <trkpt lat="44.48701" lon="2.50121">
        <ele>365.9189453</ele>
        <time>2014-01-18T11:25:54Z</time>
      </trkpt>
      <trkpt lat="44.4871" lon="2.50117">
        <ele>365.4383545</ele>
        <time>2014-01-18T11:25:59Z</time>
      </trkpt>
      <trkpt lat="44.48716" lon="2.50113">
        <ele>366.3995361</ele>
        <time>2014-01-18T11:26:04Z</time>
      </trkpt>
      <trkpt lat="44.4872" lon="2.5011">
        <ele>366.880249</ele>
        <time>2014-01-18T11:26:08Z</time>
      </trkpt>
      <trkpt lat="44.48726" lon="2.50106">
        <ele>368.8029785</ele>
        <time>2014-01-18T11:26:13Z</time>
      </trkpt>
      <trkpt lat="44.4873" lon="2.50101">
        <ele>370.7255859</ele>
        <time>2014-01-18T11:26:17Z</time>
      </trkpt>
      <trkpt lat="44.4874" lon="2.50089">
        <ele>371.6868896</ele>
        <time>2014-01-18T11:26:27Z</time>
      </trkpt>
      <trkpt lat="44.48749" lon="2.50077">
        <ele>373.6094971</ele>
        <time>2014-01-18T11:26:35Z</time>
      </trkpt>
      <trkpt lat="44.48756" lon="2.50071">
        <ele>375.5321045</ele>
        <time>2014-01-18T11:26:41Z</time>
      </trkpt>
      <trkpt lat="44.48763" lon="2.50064">
        <ele>376.4935303</ele>
        <time>2014-01-18T11:26:47Z</time>
      </trkpt>
      <trkpt lat="44.48771" lon="2.50055">
        <ele>378.4161377</ele>
        <time>2014-01-18T11:26:55Z</time>
      </trkpt>
      <trkpt lat="44.4878" lon="2.50049">
        <ele>379.3774414</ele>
        <time>2014-01-18T11:27:02Z</time>
      </trkpt>
      <trkpt lat="44.48787" lon="2.50047">
        <ele>380.3387451</ele>
        <time>2014-01-18T11:27:09Z</time>
      </trkpt>
      <trkpt lat="44.48796" lon="2.50045">
        <ele>382.7420654</ele>
        <time>2014-01-18T11:27:16Z</time>
      </trkpt>
      <trkpt lat="44.48804" lon="2.50041">
        <ele>385.1453857</ele>
        <time>2014-01-18T11:27:23Z</time>
      </trkpt>
      <trkpt lat="44.48813" lon="2.50035">
        <ele>386.1066895</ele>
        <time>2014-01-18T11:27:31Z</time>
      </trkpt>
      <trkpt lat="44.48813" lon="2.50034">
        <ele>386.1066895</ele>
        <time>2014-01-18T11:27:32Z</time>
      </trkpt>
      <trkpt lat="44.4882" lon="2.5003">
        <ele>386.1066895</ele>
        <time>2014-01-18T11:27:39Z</time>
      </trkpt>
      <trkpt lat="44.48827" lon="2.50024">
        <ele>387.0679932</ele>
        <time>2014-01-18T11:27:45Z</time>
      </trkpt>
      <trkpt lat="44.48833" lon="2.50021">
        <ele>386.5874023</ele>
        <time>2014-01-18T11:27:50Z</time>
      </trkpt>
      <trkpt lat="44.48838" lon="2.50018">
        <ele>387.0679932</ele>
        <time>2014-01-18T11:27:54Z</time>
      </trkpt>
      <trkpt lat="44.48843" lon="2.50018">
        <ele>389.9519043</ele>
        <time>2014-01-18T11:27:59Z</time>
      </trkpt>
      <trkpt lat="44.48849" lon="2.50016">
        <ele>391.3937988</ele>
        <time>2014-01-18T11:28:05Z</time>
      </trkpt>
      <trkpt lat="44.48857" lon="2.50012">
        <ele>393.7972412</ele>
        <time>2014-01-18T11:28:12Z</time>
      </trkpt>
      <trkpt lat="44.48861" lon="2.50009">
        <ele>394.7585449</ele>
        <time>2014-01-18T11:28:16Z</time>
      </trkpt>
      <trkpt lat="44.48865" lon="2.50006">
        <ele>395.2391357</ele>
        <time>2014-01-18T11:28:20Z</time>
      </trkpt>
      <trkpt lat="44.48874" lon="2.50001">
        <ele>400.0458984</ele>
        <time>2014-01-18T11:28:28Z</time>
      </trkpt>
      <trkpt lat="44.48881" lon="2.49998">
        <ele>400.5264893</ele>
        <time>2014-01-18T11:28:34Z</time>
      </trkpt>
      <trkpt lat="44.48883" lon="2.49997">
        <ele>402.9296875</ele>
        <time>2014-01-18T11:28:36Z</time>
      </trkpt>
      <trkpt lat="44.48889" lon="2.4999">
        <ele>406.7749023</ele>
        <time>2014-01-18T11:28:43Z</time>
      </trkpt>
      <trkpt lat="44.48895" lon="2.49989">
        <ele>407.7363281</ele>
        <time>2014-01-18T11:28:49Z</time>
      </trkpt>
      <trkpt lat="44.48902" lon="2.49989">
        <ele>409.1783447</ele>
        <time>2014-01-18T11:28:55Z</time>
      </trkpt>
      <trkpt lat="44.48907" lon="2.49988">
        <ele>409.1783447</ele>
        <time>2014-01-18T11:29:01Z</time>
      </trkpt>
      <trkpt lat="44.48915" lon="2.49986">
        <ele>413.5042725</ele>
        <time>2014-01-18T11:29:09Z</time>
      </trkpt>
      <trkpt lat="44.48918" lon="2.49985">
        <ele>413.0235596</ele>
        <time>2014-01-18T11:29:12Z</time>
      </trkpt>
      <trkpt lat="44.48923" lon="2.49983">
        <ele>414.4654541</ele>
        <time>2014-01-18T11:29:16Z</time>
      </trkpt>
      <trkpt lat="44.48928" lon="2.49982">
        <ele>415.4268799</ele>
        <time>2014-01-18T11:29:21Z</time>
      </trkpt>
      <trkpt lat="44.48936" lon="2.4998">
        <ele>420.7141113</ele>
        <time>2014-01-18T11:29:29Z</time>
      </trkpt>
      <trkpt lat="44.48937" lon="2.4998">
        <ele>421.1948242</ele>
        <time>2014-01-18T11:29:30Z</time>
      </trkpt>
      <trkpt lat="44.48944" lon="2.49977">
        <ele>421.1948242</ele>
        <time>2014-01-18T11:29:37Z</time>
      </trkpt>
      <trkpt lat="44.48954" lon="2.49975">
        <ele>420.7141113</ele>
        <time>2014-01-18T11:29:46Z</time>
      </trkpt>
      <trkpt lat="44.48961" lon="2.49973">
        <ele>421.675415</ele>
        <time>2014-01-18T11:29:53Z</time>
      </trkpt>
      <trkpt lat="44.48965" lon="2.49974">
        <ele>421.1948242</ele>
        <time>2014-01-18T11:29:56Z</time>
      </trkpt>
      <trkpt lat="44.4897" lon="2.49975">
        <ele>423.5980225</ele>
        <time>2014-01-18T11:30:00Z</time>
      </trkpt>
      <trkpt lat="44.48978" lon="2.49976">
        <ele>426.0013428</ele>
        <time>2014-01-18T11:30:06Z</time>
      </trkpt>
      <trkpt lat="44.48989" lon="2.49979">
        <ele>426.4820557</ele>
        <time>2014-01-18T11:30:14Z</time>
      </trkpt>
      <trkpt lat="44.48996" lon="2.49981">
        <ele>426.9627686</ele>
        <time>2014-01-18T11:30:19Z</time>
      </trkpt>
      <trkpt lat="44.49004" lon="2.49981">
        <ele>428.4046631</ele>
        <time>2014-01-18T11:30:25Z</time>
      </trkpt>
      <trkpt lat="44.49012" lon="2.49983">
        <ele>428.885376</ele>
        <time>2014-01-18T11:30:31Z</time>
      </trkpt>
      <trkpt lat="44.49018" lon="2.49982">
        <ele>430.8079834</ele>
        <time>2014-01-18T11:30:35Z</time>
      </trkpt>
      <trkpt lat="44.49028" lon="2.49981">
        <ele>431.769165</ele>
        <time>2014-01-18T11:30:42Z</time>
      </trkpt>
      <trkpt lat="44.49035" lon="2.49983">
        <ele>430.3272705</ele>
        <time>2014-01-18T11:30:48Z</time>
      </trkpt>
      <trkpt lat="44.49036" lon="2.49984">
        <ele>430.8079834</ele>
        <time>2014-01-18T11:30:49Z</time>
      </trkpt>
      <trkpt lat="44.49041" lon="2.49985">
        <ele>430.8079834</ele>
        <time>2014-01-18T11:30:55Z</time>
      </trkpt>
      <trkpt lat="44.49048" lon="2.49984">
        <ele>427.4433594</ele>
        <time>2014-01-18T11:31:02Z</time>
      </trkpt>
      <trkpt lat="44.49053" lon="2.49984">
        <ele>431.2885742</ele>
        <time>2014-01-18T11:31:08Z</time>
      </trkpt>
      <trkpt lat="44.4906" lon="2.49982">
        <ele>437.5371094</ele>
        <time>2014-01-18T11:31:15Z</time>
      </trkpt>
      <trkpt lat="44.49064" lon="2.49982">
        <ele>439.4597168</ele>
        <time>2014-01-18T11:31:18Z</time>
      </trkpt>
      <trkpt lat="44.4907" lon="2.49982">
        <ele>443.7857666</ele>
        <time>2014-01-18T11:31:24Z</time>
      </trkpt>
      <trkpt lat="44.49071" lon="2.49982">
        <ele>444.7470703</ele>
        <time>2014-01-18T11:31:25Z</time>
      </trkpt>
      <trkpt lat="44.49079" lon="2.4998">
        <ele>447.6309814</ele>
        <time>2014-01-18T11:31:32Z</time>
      </trkpt>
      <trkpt lat="44.49082" lon="2.4998">
        <ele>449.072998</ele>
        <time>2014-01-18T11:31:35Z</time>
      </trkpt>
      <trkpt lat="44.49089" lon="2.4998">
        <ele>447.6309814</ele>
        <time>2014-01-18T11:31:41Z</time>
      </trkpt>
      <trkpt lat="44.49091" lon="2.4998">
        <ele>448.1118164</ele>
        <time>2014-01-18T11:31:43Z</time>
      </trkpt>
      <trkpt lat="44.49098" lon="2.49979">
        <ele>448.1118164</ele>
        <time>2014-01-18T11:31:51Z</time>
      </trkpt>
      <trkpt lat="44.49106" lon="2.49978">
        <ele>450.9956055</ele>
        <time>2014-01-18T11:31:58Z</time>
      </trkpt>
      <trkpt lat="44.49111" lon="2.49978">
        <ele>453.3989258</ele>
        <time>2014-01-18T11:32:04Z</time>
      </trkpt>
      <trkpt lat="44.49115" lon="2.49977">
        <ele>455.8022461</ele>
        <time>2014-01-18T11:32:08Z</time>
      </trkpt>
      <trkpt lat="44.49122" lon="2.49979">
        <ele>459.647583</ele>
        <time>2014-01-18T11:32:15Z</time>
      </trkpt>
      <trkpt lat="44.49123" lon="2.49979">
        <ele>460.6087646</ele>
        <time>2014-01-18T11:32:16Z</time>
      </trkpt>
      <trkpt lat="44.49128" lon="2.49979">
        <ele>464.4541016</ele>
        <time>2014-01-18T11:32:22Z</time>
      </trkpt>
      <trkpt lat="44.49136" lon="2.49978">
        <ele>463.9733887</ele>
        <time>2014-01-18T11:32:29Z</time>
      </trkpt>
      <trkpt lat="44.49142" lon="2.49978">
        <ele>463.9733887</ele>
        <time>2014-01-18T11:32:34Z</time>
      </trkpt>
      <trkpt lat="44.49151" lon="2.49977">
        <ele>464.9348145</ele>
        <time>2014-01-18T11:32:43Z</time>
      </trkpt>
      <trkpt lat="44.49157" lon="2.49977">
        <ele>464.9348145</ele>
        <time>2014-01-18T11:32:49Z</time>
      </trkpt>
      <trkpt lat="44.49164" lon="2.49977">
        <ele>464.9348145</ele>
        <time>2014-01-18T11:32:56Z</time>
      </trkpt>
      <trkpt lat="44.49171" lon="2.49976">
        <ele>468.2993164</ele>
        <time>2014-01-18T11:33:02Z</time>
      </trkpt>
      <trkpt lat="44.4918" lon="2.49976">
        <ele>471.6639404</ele>
        <time>2014-01-18T11:33:10Z</time>
      </trkpt>
      <trkpt lat="44.49189" lon="2.49976">
        <ele>473.5866699</ele>
        <time>2014-01-18T11:33:18Z</time>
      </trkpt>
      <trkpt lat="44.49196" lon="2.49978">
        <ele>475.9898682</ele>
        <time>2014-01-18T11:33:25Z</time>
      </trkpt>
      <trkpt lat="44.49203" lon="2.49978">
        <ele>476.4705811</ele>
        <time>2014-01-18T11:33:31Z</time>
      </trkpt>
      <trkpt lat="44.49213" lon="2.49979">
        <ele>477.9124756</ele>
        <time>2014-01-18T11:33:38Z</time>
      </trkpt>
      <trkpt lat="44.4922" lon="2.4998">
        <ele>477.9124756</ele>
        <time>2014-01-18T11:33:44Z</time>
      </trkpt>
      <trkpt lat="44.49222" lon="2.4998">
        <ele>477.4318848</ele>
        <time>2014-01-18T11:33:45Z</time>
      </trkpt>
      <trkpt lat="44.49229" lon="2.4998">
        <ele>477.9124756</ele>
        <time>2014-01-18T11:33:51Z</time>
      </trkpt>
      <trkpt lat="44.49237" lon="2.4998">
        <ele>479.835083</ele>
        <time>2014-01-18T11:33:58Z</time>
      </trkpt>
      <trkpt lat="44.49242" lon="2.4998">
        <ele>480.315918</ele>
        <time>2014-01-18T11:34:02Z</time>
      </trkpt>
      <trkpt lat="44.49253" lon="2.49981">
        <ele>484.6418457</ele>
        <time>2014-01-18T11:34:11Z</time>
      </trkpt>
      <trkpt lat="44.49255" lon="2.49981">
        <ele>485.1224365</ele>
        <time>2014-01-18T11:34:13Z</time>
      </trkpt>
      <trkpt lat="44.49263" lon="2.49983">
        <ele>487.0450439</ele>
        <time>2014-01-18T11:34:20Z</time>
      </trkpt>
      <trkpt lat="44.49268" lon="2.49986">
        <ele>488.4871826</ele>
        <time>2014-01-18T11:34:26Z</time>
      </trkpt>
      <trkpt lat="44.49274" lon="2.49989">
        <ele>490.8903809</ele>
        <time>2014-01-18T11:34:33Z</time>
      </trkpt>
      <trkpt lat="44.49283" lon="2.49989">
        <ele>491.3709717</ele>
        <time>2014-01-18T11:34:40Z</time>
      </trkpt>
      <trkpt lat="44.49287" lon="2.49988">
        <ele>490.40979</ele>
        <time>2014-01-18T11:34:44Z</time>
      </trkpt>
      <trkpt lat="44.4929" lon="2.49989">
        <ele>492.3323975</ele>
        <time>2014-01-18T11:34:47Z</time>
      </trkpt>
      <trkpt lat="44.49299" lon="2.49988">
        <ele>492.3323975</ele>
        <time>2014-01-18T11:34:56Z</time>
      </trkpt>
      <trkpt lat="44.49305" lon="2.49988">
        <ele>493.774292</ele>
        <time>2014-01-18T11:35:01Z</time>
      </trkpt>
      <trkpt lat="44.49311" lon="2.49988">
        <ele>495.2161865</ele>
        <time>2014-01-18T11:35:06Z</time>
      </trkpt>
      <trkpt lat="44.49313" lon="2.49987">
        <ele>495.2161865</ele>
        <time>2014-01-18T11:35:07Z</time>
      </trkpt>
      <trkpt lat="44.4932" lon="2.49984">
        <ele>498.1003418</ele>
        <time>2014-01-18T11:35:13Z</time>
      </trkpt>
      <trkpt lat="44.49327" lon="2.4998">
        <ele>501.4648438</ele>
        <time>2014-01-18T11:35:21Z</time>
      </trkpt>
      <trkpt lat="44.49331" lon="2.49977">
        <ele>504.348877</ele>
        <time>2014-01-18T11:35:24Z</time>
      </trkpt>
      <trkpt lat="44.49337" lon="2.49973">
        <ele>505.7908936</ele>
        <time>2014-01-18T11:35:30Z</time>
      </trkpt>
      <trkpt lat="44.4934" lon="2.4997">
        <ele>506.2714844</ele>
        <time>2014-01-18T11:35:34Z</time>
      </trkpt>
      <trkpt lat="44.49347" lon="2.49963">
        <ele>506.7520752</ele>
        <time>2014-01-18T11:35:41Z</time>
      </trkpt>
      <trkpt lat="44.49351" lon="2.49961">
        <ele>508.1940918</ele>
        <time>2014-01-18T11:35:45Z</time>
      </trkpt>
      <trkpt lat="44.4936" lon="2.49956">
        <ele>509.1553955</ele>
        <time>2014-01-18T11:35:53Z</time>
      </trkpt>
      <trkpt lat="44.49369" lon="2.49955">
        <ele>510.59729</ele>
        <time>2014-01-18T11:36:01Z</time>
      </trkpt>
      <trkpt lat="44.49378" lon="2.49953">
        <ele>512.5200195</ele>
        <time>2014-01-18T11:36:08Z</time>
      </trkpt>
      <trkpt lat="44.49385" lon="2.49953">
        <ele>514.9233398</ele>
        <time>2014-01-18T11:36:13Z</time>
      </trkpt>
      <trkpt lat="44.49393" lon="2.49953">
        <ele>513.4814453</ele>
        <time>2014-01-18T11:36:21Z</time>
      </trkpt>
      <trkpt lat="44.49396" lon="2.49953">
        <ele>512.5200195</ele>
        <time>2014-01-18T11:36:28Z</time>
      </trkpt>
      <trkpt lat="44.49398" lon="2.49952">
        <ele>511.5587158</ele>
        <time>2014-01-18T11:36:41Z</time>
      </trkpt>
      <trkpt lat="44.49398" lon="2.49952">
        <ele>512.0394287</ele>
        <time>2014-01-18T11:36:48Z</time>
      </trkpt>
      <trkpt lat="44.49397" lon="2.49953">
        <ele>513.4814453</ele>
        <time>2014-01-18T11:36:55Z</time>
      </trkpt>
      <trkpt lat="44.49398" lon="2.49953">
        <ele>513.0007324</ele>
        <time>2014-01-18T11:37:04Z</time>
      </trkpt>
      <trkpt lat="44.49399" lon="2.49953">
        <ele>513.0007324</ele>
        <time>2014-01-18T11:37:10Z</time>
      </trkpt>
      <trkpt lat="44.49399" lon="2.49953">
        <ele>512.5200195</ele>
        <time>2014-01-18T11:37:19Z</time>
      </trkpt>
      <trkpt lat="44.49399" lon="2.49953">
        <ele>511.0780029</ele>
        <time>2014-01-18T11:37:28Z</time>
      </trkpt>
      <trkpt lat="44.49399" lon="2.49953">
        <ele>510.59729</ele>
        <time>2014-01-18T11:37:34Z</time>
      </trkpt>
      <trkpt lat="44.49399" lon="2.49951">
        <ele>508.6746826</ele>
        <time>2014-01-18T11:37:47Z</time>
      </trkpt>
      <trkpt lat="44.49399" lon="2.49951">
        <ele>508.1940918</ele>
        <time>2014-01-18T11:37:54Z</time>
      </trkpt>
      <trkpt lat="44.49398" lon="2.49951">
        <ele>506.7520752</ele>
        <time>2014-01-18T11:38:09Z</time>
      </trkpt>
      <trkpt lat="44.49398" lon="2.49952">
        <ele>507.2327881</ele>
        <time>2014-01-18T11:38:19Z</time>
      </trkpt>
      <trkpt lat="44.49398" lon="2.49952">
        <ele>507.2327881</ele>
        <time>2014-01-18T11:38:29Z</time>
      </trkpt>
      <trkpt lat="44.49398" lon="2.49953">
        <ele>507.2327881</ele>
        <time>2014-01-18T11:38:38Z</time>
      </trkpt>
      <trkpt lat="44.49398" lon="2.49952">
        <ele>507.713501</ele>
        <time>2014-01-18T11:38:47Z</time>
      </trkpt>
      <trkpt lat="44.49396" lon="2.49952">
        <ele>508.1940918</ele>
        <time>2014-01-18T11:39:13Z</time>
      </trkpt>
      <trkpt lat="44.49398" lon="2.4995">
        <ele>508.1940918</ele>
        <time>2014-01-18T11:39:19Z</time>
      </trkpt>
      <trkpt lat="44.49398" lon="2.49951">
        <ele>509.1553955</ele>
        <time>2014-01-18T11:39:26Z</time>
      </trkpt>
      <trkpt lat="44.49399" lon="2.49951">
        <ele>510.1166992</ele>
        <time>2014-01-18T11:39:32Z</time>
      </trkpt>
      <trkpt lat="44.49399" lon="2.49951">
        <ele>510.59729</ele>
        <time>2014-01-18T11:39:36Z</time>
      </trkpt>
      <trkpt lat="44.494" lon="2.4995">
        <ele>511.5587158</ele>
        <time>2014-01-18T11:39:43Z</time>
      </trkpt>
      <trkpt lat="44.494" lon="2.49951">
        <ele>513.0007324</ele>
        <time>2014-01-18T11:39:53Z</time>
      </trkpt>
      <trkpt lat="44.494" lon="2.49951">
        <ele>513.0007324</ele>
        <time>2014-01-18T11:39:59Z</time>
      </trkpt>
      <trkpt lat="44.49399" lon="2.49951">
        <ele>510.59729</ele>
        <time>2014-01-18T11:40:13Z</time>
      </trkpt>
      <trkpt lat="44.49399" lon="2.49951">
        <ele>507.713501</ele>
        <time>2014-01-18T11:40:30Z</time>
      </trkpt>
      <trkpt lat="44.49399" lon="2.49953">
        <ele>510.59729</ele>
        <time>2014-01-18T11:40:37Z</time>
      </trkpt>
      <trkpt lat="44.49399" lon="2.49952">
        <ele>509.6361084</ele>
        <time>2014-01-18T11:40:44Z</time>
      </trkpt>
      <trkpt lat="44.49398" lon="2.49951">
        <ele>506.7520752</ele>
        <time>2014-01-18T11:40:54Z</time>
      </trkpt>
      <trkpt lat="44.49398" lon="2.4995">
        <ele>502.9067383</ele>
        <time>2014-01-18T11:41:02Z</time>
      </trkpt>
      <trkpt lat="44.49399" lon="2.49951">
        <ele>504.348877</ele>
        <time>2014-01-18T11:41:22Z</time>
      </trkpt>
      <trkpt lat="44.49399" lon="2.49953">
        <ele>507.2327881</ele>
        <time>2014-01-18T11:41:34Z</time>
      </trkpt>
      <trkpt lat="44.49399" lon="2.49953">
        <ele>508.1940918</ele>
        <time>2014-01-18T11:41:42Z</time>
      </trkpt>
      <trkpt lat="44.49398" lon="2.49952">
        <ele>508.1940918</ele>
        <time>2014-01-18T11:41:49Z</time>
      </trkpt>
      <trkpt lat="44.494" lon="2.49953">
        <ele>511.5587158</ele>
        <time>2014-01-18T11:42:04Z</time>
      </trkpt>
      <trkpt lat="44.49401" lon="2.49951">
        <ele>511.0780029</ele>
        <time>2014-01-18T11:42:10Z</time>
      </trkpt>
      <trkpt lat="44.49401" lon="2.49949">
        <ele>508.6746826</ele>
        <time>2014-01-18T11:42:27Z</time>
      </trkpt>
      <trkpt lat="44.49398" lon="2.49952">
        <ele>507.713501</ele>
        <time>2014-01-18T11:42:39Z</time>
      </trkpt>
      <trkpt lat="44.49398" lon="2.49952">
        <ele>508.1940918</ele>
        <time>2014-01-18T11:42:48Z</time>
      </trkpt>
      <trkpt lat="44.49397" lon="2.49952">
        <ele>505.7908936</ele>
        <time>2014-01-18T11:42:57Z</time>
      </trkpt>
      <trkpt lat="44.49398" lon="2.49952">
        <ele>509.6361084</ele>
        <time>2014-01-18T11:43:14Z</time>
      </trkpt>
      <trkpt lat="44.49398" lon="2.49948">
        <ele>494.7355957</ele>
        <time>2014-01-18T11:43:39Z</time>
      </trkpt>
      <trkpt lat="44.49398" lon="2.49949">
        <ele>496.1777344</ele>
        <time>2014-01-18T11:43:47Z</time>
      </trkpt>
      <trkpt lat="44.49399" lon="2.4995">
        <ele>501.9455566</ele>
        <time>2014-01-18T11:43:54Z</time>
      </trkpt>
      <trkpt lat="44.49399" lon="2.49951">
        <ele>507.2327881</ele>
        <time>2014-01-18T11:44:04Z</time>
      </trkpt>
      <trkpt lat="44.49398" lon="2.4995">
        <ele>504.348877</ele>
        <time>2014-01-18T11:44:20Z</time>
      </trkpt>
      <trkpt lat="44.49398" lon="2.4995">
        <ele>502.4261475</ele>
        <time>2014-01-18T11:44:30Z</time>
      </trkpt>
      <trkpt lat="44.49398" lon="2.49951">
        <ele>504.8294678</ele>
        <time>2014-01-18T11:44:35Z</time>
      </trkpt>
      <trkpt lat="44.494" lon="2.49951">
        <ele>507.2327881</ele>
        <time>2014-01-18T11:44:41Z</time>
      </trkpt>
      <trkpt lat="44.494" lon="2.49951">
        <ele>508.1940918</ele>
        <time>2014-01-18T11:44:50Z</time>
      </trkpt>
      <trkpt lat="44.49399" lon="2.49952">
        <ele>508.1940918</ele>
        <time>2014-01-18T11:45:06Z</time>
      </trkpt>
      <trkpt lat="44.494" lon="2.49952">
        <ele>508.1940918</ele>
        <time>2014-01-18T11:45:13Z</time>
      </trkpt>
      <trkpt lat="44.494" lon="2.49952">
        <ele>509.1553955</ele>
        <time>2014-01-18T11:45:21Z</time>
      </trkpt>
      <trkpt lat="44.494" lon="2.49952">
        <ele>510.59729</ele>
        <time>2014-01-18T11:45:31Z</time>
      </trkpt>
      <trkpt lat="44.49399" lon="2.49948">
        <ele>511.5587158</ele>
        <time>2014-01-18T11:45:36Z</time>
      </trkpt>
      <trkpt lat="44.49393" lon="2.49945">
        <ele>513.4814453</ele>
        <time>2014-01-18T11:45:42Z</time>
      </trkpt>
      <trkpt lat="44.4939" lon="2.49944">
        <ele>513.9620361</ele>
        <time>2014-01-18T11:45:46Z</time>
      </trkpt>
      <trkpt lat="44.49385" lon="2.49942">
        <ele>514.9233398</ele>
        <time>2014-01-18T11:45:51Z</time>
      </trkpt>
      <trkpt lat="44.49378" lon="2.49939">
        <ele>515.4040527</ele>
        <time>2014-01-18T11:45:58Z</time>
      </trkpt>
      <trkpt lat="44.49371" lon="2.49934">
        <ele>514.9233398</ele>
        <time>2014-01-18T11:46:06Z</time>
      </trkpt>
      <trkpt lat="44.49365" lon="2.49929">
        <ele>516.3652344</ele>
        <time>2014-01-18T11:46:13Z</time>
      </trkpt>
      <trkpt lat="44.49359" lon="2.49922">
        <ele>518.7685547</ele>
        <time>2014-01-18T11:46:21Z</time>
      </trkpt>
      <trkpt lat="44.4936" lon="2.49917">
        <ele>520.2105713</ele>
        <time>2014-01-18T11:46:26Z</time>
      </trkpt>
      <trkpt lat="44.49364" lon="2.49916">
        <ele>521.6525879</ele>
        <time>2014-01-18T11:46:32Z</time>
      </trkpt>
      <trkpt lat="44.49366" lon="2.49913">
        <ele>521.6525879</ele>
        <time>2014-01-18T11:46:37Z</time>
      </trkpt>
      <trkpt lat="44.49367" lon="2.49906">
        <ele>521.6525879</ele>
        <time>2014-01-18T11:46:44Z</time>
      </trkpt>
      <trkpt lat="44.49369" lon="2.49901">
        <ele>523.5751953</ele>
        <time>2014-01-18T11:46:49Z</time>
      </trkpt>
      <trkpt lat="44.4937" lon="2.49893">
        <ele>525.9783936</ele>
        <time>2014-01-18T11:46:55Z</time>
      </trkpt>
      <trkpt lat="44.49371" lon="2.49888">
        <ele>525.9783936</ele>
        <time>2014-01-18T11:46:58Z</time>
      </trkpt>
      <trkpt lat="44.49375" lon="2.49876">
        <ele>525.9783936</ele>
        <time>2014-01-18T11:47:06Z</time>
      </trkpt>
      <trkpt lat="44.49375" lon="2.4987">
        <ele>525.9783936</ele>
        <time>2014-01-18T11:47:09Z</time>
      </trkpt>
      <trkpt lat="44.49378" lon="2.49858">
        <ele>525.4978027</ele>
        <time>2014-01-18T11:47:15Z</time>
      </trkpt>
      <trkpt lat="44.49384" lon="2.49841">
        <ele>524.536499</ele>
        <time>2014-01-18T11:47:21Z</time>
      </trkpt>
      <trkpt lat="44.49389" lon="2.49824">
        <ele>525.9783936</ele>
        <time>2014-01-18T11:47:27Z</time>
      </trkpt>
      <trkpt lat="44.49396" lon="2.49812">
        <ele>526.4591064</ele>
        <time>2014-01-18T11:47:32Z</time>
      </trkpt>
      <trkpt lat="44.49403" lon="2.49798">
        <ele>529.3431396</ele>
        <time>2014-01-18T11:47:37Z</time>
      </trkpt>
      <trkpt lat="44.49405" lon="2.4979">
        <ele>531.2657471</ele>
        <time>2014-01-18T11:47:40Z</time>
      </trkpt>
      <trkpt lat="44.49412" lon="2.49782">
        <ele>533.1883545</ele>
        <time>2014-01-18T11:47:44Z</time>
      </trkpt>
      <trkpt lat="44.49426" lon="2.49783">
        <ele>537.9949951</ele>
        <time>2014-01-18T11:47:50Z</time>
      </trkpt>
      <trkpt lat="44.49435" lon="2.49786">
        <ele>539.4368896</ele>
        <time>2014-01-18T11:47:54Z</time>
      </trkpt>
      <trkpt lat="44.49452" lon="2.4979">
        <ele>540.8789063</ele>
        <time>2014-01-18T11:48:00Z</time>
      </trkpt>
      <trkpt lat="44.49465" lon="2.49788">
        <ele>543.2821045</ele>
        <time>2014-01-18T11:48:05Z</time>
      </trkpt>
      <trkpt lat="44.49482" lon="2.4978">
        <ele>543.7628174</ele>
        <time>2014-01-18T11:48:12Z</time>
      </trkpt>
      <trkpt lat="44.49498" lon="2.49774">
        <ele>544.7242432</ele>
        <time>2014-01-18T11:48:18Z</time>
      </trkpt>
      <trkpt lat="44.49514" lon="2.4977">
        <ele>546.1662598</ele>
        <time>2014-01-18T11:48:24Z</time>
      </trkpt>
      <trkpt lat="44.49528" lon="2.49766">
        <ele>546.6468506</ele>
        <time>2014-01-18T11:48:29Z</time>
      </trkpt>
      <trkpt lat="44.49542" lon="2.49764">
        <ele>547.6081543</ele>
        <time>2014-01-18T11:48:34Z</time>
      </trkpt>
      <trkpt lat="44.49555" lon="2.49761">
        <ele>548.0888672</ele>
        <time>2014-01-18T11:48:39Z</time>
      </trkpt>
      <trkpt lat="44.49571" lon="2.49759">
        <ele>548.0888672</ele>
        <time>2014-01-18T11:48:45Z</time>
      </trkpt>
      <trkpt lat="44.49584" lon="2.49756">
        <ele>549.0500488</ele>
        <time>2014-01-18T11:48:50Z</time>
      </trkpt>
      <trkpt lat="44.49597" lon="2.49753">
        <ele>550.0114746</ele>
        <time>2014-01-18T11:48:55Z</time>
      </trkpt>
      <trkpt lat="44.49607" lon="2.4975">
        <ele>550.0114746</ele>
        <time>2014-01-18T11:48:59Z</time>
      </trkpt>
      <trkpt lat="44.49611" lon="2.49748">
        <ele>550.0114746</ele>
        <time>2014-01-18T11:49:01Z</time>
      </trkpt>
      <trkpt lat="44.49615" lon="2.49733">
        <ele>552.4145508</ele>
        <time>2014-01-18T11:49:08Z</time>
      </trkpt>
      <trkpt lat="44.49617" lon="2.49723">
        <ele>554.3374023</ele>
        <time>2014-01-18T11:49:14Z</time>
      </trkpt>
      <trkpt lat="44.49619" lon="2.49713">
        <ele>553.8566895</ele>
        <time>2014-01-18T11:49:22Z</time>
      </trkpt>
      <trkpt lat="44.49619" lon="2.49712">
        <ele>552.8952637</ele>
        <time>2014-01-18T11:49:23Z</time>
      </trkpt>
      <trkpt lat="44.49617" lon="2.49691">
        <ele>551.4533691</ele>
        <time>2014-01-18T11:49:29Z</time>
      </trkpt>
      <trkpt lat="44.49618" lon="2.49676">
        <ele>549.0500488</ele>
        <time>2014-01-18T11:49:34Z</time>
      </trkpt>
      <trkpt lat="44.49618" lon="2.49668">
        <ele>546.1662598</ele>
        <time>2014-01-18T11:49:38Z</time>
      </trkpt>
      <trkpt lat="44.49616" lon="2.49658">
        <ele>543.2821045</ele>
        <time>2014-01-18T11:49:43Z</time>
      </trkpt>
      <trkpt lat="44.49614" lon="2.4965">
        <ele>541.3594971</ele>
        <time>2014-01-18T11:49:46Z</time>
      </trkpt>
      <trkpt lat="44.4962" lon="2.49645">
        <ele>540.3983154</ele>
        <time>2014-01-18T11:49:49Z</time>
      </trkpt>
      <trkpt lat="44.49629" lon="2.4964">
        <ele>539.4368896</ele>
        <time>2014-01-18T11:49:54Z</time>
      </trkpt>
      <trkpt lat="44.49635" lon="2.49636">
        <ele>539.9176025</ele>
        <time>2014-01-18T11:49:57Z</time>
      </trkpt>
      <trkpt lat="44.49649" lon="2.49626">
        <ele>539.9176025</ele>
        <time>2014-01-18T11:50:03Z</time>
      </trkpt>
      <trkpt lat="44.49662" lon="2.49618">
        <ele>540.3983154</ele>
        <time>2014-01-18T11:50:08Z</time>
      </trkpt>
      <trkpt lat="44.49674" lon="2.49609">
        <ele>538.9562988</ele>
        <time>2014-01-18T11:50:13Z</time>
      </trkpt>
      <trkpt lat="44.49685" lon="2.49602">
        <ele>538.475708</ele>
        <time>2014-01-18T11:50:17Z</time>
      </trkpt>
      <trkpt lat="44.49699" lon="2.49593">
        <ele>539.4368896</ele>
        <time>2014-01-18T11:50:22Z</time>
      </trkpt>
      <trkpt lat="44.49711" lon="2.4959">
        <ele>540.3983154</ele>
        <time>2014-01-18T11:50:26Z</time>
      </trkpt>
      <trkpt lat="44.49722" lon="2.49584">
        <ele>538.475708</ele>
        <time>2014-01-18T11:50:30Z</time>
      </trkpt>
      <trkpt lat="44.4974" lon="2.49577">
        <ele>536.5531006</ele>
        <time>2014-01-18T11:50:36Z</time>
      </trkpt>
      <trkpt lat="44.49752" lon="2.49571">
        <ele>535.5915527</ele>
        <time>2014-01-18T11:50:40Z</time>
      </trkpt>
      <trkpt lat="44.49763" lon="2.49564">
        <ele>528.3818359</ele>
        <time>2014-01-18T11:50:44Z</time>
      </trkpt>
      <trkpt lat="44.49776" lon="2.49557">
        <ele>525.4978027</ele>
        <time>2014-01-18T11:50:49Z</time>
      </trkpt>
      <trkpt lat="44.49785" lon="2.49549">
        <ele>523.5751953</ele>
        <time>2014-01-18T11:50:53Z</time>
      </trkpt>
      <trkpt lat="44.49791" lon="2.49543">
        <ele>521.1719971</ele>
        <time>2014-01-18T11:50:55Z</time>
      </trkpt>
      <trkpt lat="44.49798" lon="2.49538">
        <ele>517.3266602</ele>
        <time>2014-01-18T11:50:59Z</time>
      </trkpt>
      <trkpt lat="44.49801" lon="2.49537">
        <ele>515.4040527</ele>
        <time>2014-01-18T11:51:05Z</time>
      </trkpt>
      <trkpt lat="44.498" lon="2.49535">
        <ele>513.0007324</ele>
        <time>2014-01-18T11:51:15Z</time>
      </trkpt>
      <trkpt lat="44.49799" lon="2.49535">
        <ele>513.0007324</ele>
        <time>2014-01-18T11:51:21Z</time>
      </trkpt>
      <trkpt lat="44.498" lon="2.49533">
        <ele>512.5200195</ele>
        <time>2014-01-18T11:51:27Z</time>
      </trkpt>
      <trkpt lat="44.49803" lon="2.49528">
        <ele>518.7685547</ele>
        <time>2014-01-18T11:51:43Z</time>
      </trkpt>
      <trkpt lat="44.49809" lon="2.49527">
        <ele>512.5200195</ele>
        <time>2014-01-18T11:51:54Z</time>
      </trkpt>
      <trkpt lat="44.49824" lon="2.49519">
        <ele>509.1553955</ele>
        <time>2014-01-18T11:51:59Z</time>
      </trkpt>
      <trkpt lat="44.49844" lon="2.49508">
        <ele>508.6746826</ele>
        <time>2014-01-18T11:52:05Z</time>
      </trkpt>
      <trkpt lat="44.49857" lon="2.49506">
        <ele>505.7908936</ele>
        <time>2014-01-18T11:52:09Z</time>
      </trkpt>
      <trkpt lat="44.49872" lon="2.49501">
        <ele>502.9067383</ele>
        <time>2014-01-18T11:52:14Z</time>
      </trkpt>
      <trkpt lat="44.49891" lon="2.49492">
        <ele>500.50354</ele>
        <time>2014-01-18T11:52:20Z</time>
      </trkpt>
      <trkpt lat="44.49906" lon="2.49484">
        <ele>498.1003418</ele>
        <time>2014-01-18T11:52:25Z</time>
      </trkpt>
      <trkpt lat="44.49915" lon="2.49466">
        <ele>497.138916</ele>
        <time>2014-01-18T11:52:30Z</time>
      </trkpt>
      <trkpt lat="44.49917" lon="2.49445">
        <ele>496.1777344</ele>
        <time>2014-01-18T11:52:35Z</time>
      </trkpt>
      <trkpt lat="44.49913" lon="2.49434">
        <ele>494.7355957</ele>
        <time>2014-01-18T11:52:38Z</time>
      </trkpt>
      <trkpt lat="44.4991" lon="2.49413">
        <ele>491.8516846</ele>
        <time>2014-01-18T11:52:43Z</time>
      </trkpt>
      <trkpt lat="44.49903" lon="2.49393">
        <ele>490.40979</ele>
        <time>2014-01-18T11:52:48Z</time>
      </trkpt>
      <trkpt lat="44.49901" lon="2.4939">
        <ele>489.4483643</ele>
        <time>2014-01-18T11:52:49Z</time>
      </trkpt>
      <trkpt lat="44.49896" lon="2.49369">
        <ele>487.5256348</ele>
        <time>2014-01-18T11:52:54Z</time>
      </trkpt>
      <trkpt lat="44.49892" lon="2.49341">
        <ele>485.6030273</ele>
        <time>2014-01-18T11:53:00Z</time>
      </trkpt>
      <trkpt lat="44.49888" lon="2.49323">
        <ele>484.6418457</ele>
        <time>2014-01-18T11:53:04Z</time>
      </trkpt>
      <trkpt lat="44.49881" lon="2.49302">
        <ele>484.1611328</ele>
        <time>2014-01-18T11:53:09Z</time>
      </trkpt>
      <trkpt lat="44.49879" lon="2.49298">
        <ele>484.1611328</ele>
        <time>2014-01-18T11:53:10Z</time>
      </trkpt>
      <trkpt lat="44.49863" lon="2.49292">
        <ele>483.6804199</ele>
        <time>2014-01-18T11:53:15Z</time>
      </trkpt>
      <trkpt lat="44.49852" lon="2.49291">
        <ele>483.6804199</ele>
        <time>2014-01-18T11:53:19Z</time>
      </trkpt>
      <trkpt lat="44.49839" lon="2.49289">
        <ele>484.6418457</ele>
        <time>2014-01-18T11:53:24Z</time>
      </trkpt>
      <trkpt lat="44.49823" lon="2.49285">
        <ele>486.5644531</ele>
        <time>2014-01-18T11:53:29Z</time>
      </trkpt>
      <trkpt lat="44.49809" lon="2.4928">
        <ele>487.0450439</ele>
        <time>2014-01-18T11:53:34Z</time>
      </trkpt>
      <trkpt lat="44.49806" lon="2.49278">
        <ele>487.0450439</ele>
        <time>2014-01-18T11:53:35Z</time>
      </trkpt>
      <trkpt lat="44.49795" lon="2.49273">
        <ele>488.0064697</ele>
        <time>2014-01-18T11:53:40Z</time>
      </trkpt>
      <trkpt lat="44.49783" lon="2.49259">
        <ele>489.9290771</ele>
        <time>2014-01-18T11:53:46Z</time>
      </trkpt>
      <trkpt lat="44.49773" lon="2.49246">
        <ele>490.8903809</ele>
        <time>2014-01-18T11:53:51Z</time>
      </trkpt>
      <trkpt lat="44.49764" lon="2.49233">
        <ele>492.3323975</ele>
        <time>2014-01-18T11:53:56Z</time>
      </trkpt>
      <trkpt lat="44.49759" lon="2.49217">
        <ele>492.8129883</ele>
        <time>2014-01-18T11:54:01Z</time>
      </trkpt>
      <trkpt lat="44.49757" lon="2.49206">
        <ele>492.8129883</ele>
        <time>2014-01-18T11:54:05Z</time>
      </trkpt>
      <trkpt lat="44.49757" lon="2.49201">
        <ele>492.3323975</ele>
        <time>2014-01-18T11:54:07Z</time>
      </trkpt>
      <trkpt lat="44.4976" lon="2.49189">
        <ele>491.8516846</ele>
        <time>2014-01-18T11:54:11Z</time>
      </trkpt>
      <trkpt lat="44.49767" lon="2.49165">
        <ele>493.2935791</ele>
        <time>2014-01-18T11:54:18Z</time>
      </trkpt>
      <trkpt lat="44.49772" lon="2.49141">
        <ele>495.2161865</ele>
        <time>2014-01-18T11:54:25Z</time>
      </trkpt>
      <trkpt lat="44.49775" lon="2.49121">
        <ele>495.6968994</ele>
        <time>2014-01-18T11:54:31Z</time>
      </trkpt>
      <trkpt lat="44.49776" lon="2.49103">
        <ele>496.6583252</ele>
        <time>2014-01-18T11:54:36Z</time>
      </trkpt>
      <trkpt lat="44.49775" lon="2.49088">
        <ele>497.138916</ele>
        <time>2014-01-18T11:54:40Z</time>
      </trkpt>
      <trkpt lat="44.49773" lon="2.49068">
        <ele>497.6196289</ele>
        <time>2014-01-18T11:54:45Z</time>
      </trkpt>
      <trkpt lat="44.49771" lon="2.49055">
        <ele>498.1003418</ele>
        <time>2014-01-18T11:54:48Z</time>
      </trkpt>
      <trkpt lat="44.49771" lon="2.49043">
        <ele>498.5809326</ele>
        <time>2014-01-18T11:54:51Z</time>
      </trkpt>
      <trkpt lat="44.49783" lon="2.49036">
        <ele>499.5422363</ele>
        <time>2014-01-18T11:54:56Z</time>
      </trkpt>
      <trkpt lat="44.49797" lon="2.49032">
        <ele>499.0615234</ele>
        <time>2014-01-18T11:55:02Z</time>
      </trkpt>
      <trkpt lat="44.49809" lon="2.49029">
        <ele>497.138916</ele>
        <time>2014-01-18T11:55:07Z</time>
      </trkpt>
      <trkpt lat="44.49824" lon="2.49016">
        <ele>497.138916</ele>
        <time>2014-01-18T11:55:13Z</time>
      </trkpt>
      <trkpt lat="44.49836" lon="2.49005">
        <ele>495.6968994</ele>
        <time>2014-01-18T11:55:18Z</time>
      </trkpt>
      <trkpt lat="44.49848" lon="2.48991">
        <ele>495.6968994</ele>
        <time>2014-01-18T11:55:23Z</time>
      </trkpt>
      <trkpt lat="44.49857" lon="2.48978">
        <ele>496.1777344</ele>
        <time>2014-01-18T11:55:27Z</time>
      </trkpt>
      <trkpt lat="44.49862" lon="2.48974">
        <ele>496.6583252</ele>
        <time>2014-01-18T11:55:29Z</time>
      </trkpt>
      <trkpt lat="44.4987" lon="2.48962">
        <ele>497.6196289</ele>
        <time>2014-01-18T11:55:33Z</time>
      </trkpt>
      <trkpt lat="44.49875" lon="2.48943">
        <ele>496.1777344</ele>
        <time>2014-01-18T11:55:38Z</time>
      </trkpt>
      <trkpt lat="44.49872" lon="2.48923">
        <ele>496.1777344</ele>
        <time>2014-01-18T11:55:43Z</time>
      </trkpt>
      <trkpt lat="44.49866" lon="2.48902">
        <ele>494.7355957</ele>
        <time>2014-01-18T11:55:48Z</time>
      </trkpt>
      <trkpt lat="44.49865" lon="2.48898">
        <ele>494.2550049</ele>
        <time>2014-01-18T11:55:49Z</time>
      </trkpt>
      <trkpt lat="44.49853" lon="2.48879">
        <ele>490.40979</ele>
        <time>2014-01-18T11:55:55Z</time>
      </trkpt>
      <trkpt lat="44.49836" lon="2.48869">
        <ele>488.9677734</ele>
        <time>2014-01-18T11:56:00Z</time>
      </trkpt>
      <trkpt lat="44.49822" lon="2.48857">
        <ele>487.5256348</ele>
        <time>2014-01-18T11:56:05Z</time>
      </trkpt>
      <trkpt lat="44.49814" lon="2.48842">
        <ele>487.0450439</ele>
        <time>2014-01-18T11:56:09Z</time>
      </trkpt>
      <trkpt lat="44.49805" lon="2.48829">
        <ele>486.0837402</ele>
        <time>2014-01-18T11:56:13Z</time>
      </trkpt>
      <trkpt lat="44.49793" lon="2.48813">
        <ele>485.6030273</ele>
        <time>2014-01-18T11:56:18Z</time>
      </trkpt>
      <trkpt lat="44.49786" lon="2.48802">
        <ele>485.6030273</ele>
        <time>2014-01-18T11:56:22Z</time>
      </trkpt>
      <trkpt lat="44.49787" lon="2.48781">
        <ele>485.6030273</ele>
        <time>2014-01-18T11:56:27Z</time>
      </trkpt>
      <trkpt lat="44.49789" lon="2.48779">
        <ele>485.6030273</ele>
        <time>2014-01-18T11:56:28Z</time>
      </trkpt>
      <trkpt lat="44.49798" lon="2.48765">
        <ele>484.1611328</ele>
        <time>2014-01-18T11:56:33Z</time>
      </trkpt>
      <trkpt lat="44.49806" lon="2.48753">
        <ele>482.7192383</ele>
        <time>2014-01-18T11:56:37Z</time>
      </trkpt>
      <trkpt lat="44.49809" lon="2.48739">
        <ele>481.2772217</ele>
        <time>2014-01-18T11:56:41Z</time>
      </trkpt>
      <trkpt lat="44.49808" lon="2.48719">
        <ele>478.8739014</ele>
        <time>2014-01-18T11:56:46Z</time>
      </trkpt>
      <trkpt lat="44.49804" lon="2.48703">
        <ele>479.3544922</ele>
        <time>2014-01-18T11:56:50Z</time>
      </trkpt>
      <trkpt lat="44.49801" lon="2.48686">
        <ele>479.3544922</ele>
        <time>2014-01-18T11:56:54Z</time>
      </trkpt>
      <trkpt lat="44.49791" lon="2.48663">
        <ele>479.3544922</ele>
        <time>2014-01-18T11:57:00Z</time>
      </trkpt>
      <trkpt lat="44.49781" lon="2.48643">
        <ele>480.7966309</ele>
        <time>2014-01-18T11:57:06Z</time>
      </trkpt>
      <trkpt lat="44.49777" lon="2.48632">
        <ele>480.7966309</ele>
        <time>2014-01-18T11:57:09Z</time>
      </trkpt>
      <trkpt lat="44.49773" lon="2.48615">
        <ele>480.7966309</ele>
        <time>2014-01-18T11:57:13Z</time>
      </trkpt>
      <trkpt lat="44.49772" lon="2.48606">
        <ele>480.7966309</ele>
        <time>2014-01-18T11:57:15Z</time>
      </trkpt>
      <trkpt lat="44.49773" lon="2.48582">
        <ele>480.7966309</ele>
        <time>2014-01-18T11:57:21Z</time>
      </trkpt>
      <trkpt lat="44.49776" lon="2.48563">
        <ele>480.315918</ele>
        <time>2014-01-18T11:57:26Z</time>
      </trkpt>
      <trkpt lat="44.49782" lon="2.48546">
        <ele>481.7578125</ele>
        <time>2014-01-18T11:57:31Z</time>
      </trkpt>
      <trkpt lat="44.49789" lon="2.48527">
        <ele>484.1611328</ele>
        <time>2014-01-18T11:57:36Z</time>
      </trkpt>
      <trkpt lat="44.49793" lon="2.48514">
        <ele>485.1224365</ele>
        <time>2014-01-18T11:57:40Z</time>
      </trkpt>
      <trkpt lat="44.49793" lon="2.48505">
        <ele>485.6030273</ele>
        <time>2014-01-18T11:57:43Z</time>
      </trkpt>
      <trkpt lat="44.49781" lon="2.48495">
        <ele>486.0837402</ele>
        <time>2014-01-18T11:57:48Z</time>
      </trkpt>
      <trkpt lat="44.49766" lon="2.48482">
        <ele>486.0837402</ele>
        <time>2014-01-18T11:57:54Z</time>
      </trkpt>
      <trkpt lat="44.49752" lon="2.48476">
        <ele>486.5644531</ele>
        <time>2014-01-18T11:57:59Z</time>
      </trkpt>
      <trkpt lat="44.49736" lon="2.48472">
        <ele>484.6418457</ele>
        <time>2014-01-18T11:58:04Z</time>
      </trkpt>
      <trkpt lat="44.49717" lon="2.4847">
        <ele>482.2385254</ele>
        <time>2014-01-18T11:58:10Z</time>
      </trkpt>
      <trkpt lat="44.49704" lon="2.48471">
        <ele>481.7578125</ele>
        <time>2014-01-18T11:58:14Z</time>
      </trkpt>
      <trkpt lat="44.49691" lon="2.48475">
        <ele>480.7966309</ele>
        <time>2014-01-18T11:58:18Z</time>
      </trkpt>
      <trkpt lat="44.49676" lon="2.48479">
        <ele>480.7966309</ele>
        <time>2014-01-18T11:58:23Z</time>
      </trkpt>
      <trkpt lat="44.49667" lon="2.48482">
        <ele>480.7966309</ele>
        <time>2014-01-18T11:58:26Z</time>
      </trkpt>
      <trkpt lat="44.49653" lon="2.48485">
        <ele>479.835083</ele>
        <time>2014-01-18T11:58:31Z</time>
      </trkpt>
      <trkpt lat="44.49642" lon="2.48488">
        <ele>479.835083</ele>
        <time>2014-01-18T11:58:35Z</time>
      </trkpt>
      <trkpt lat="44.49627" lon="2.48494">
        <ele>481.2772217</ele>
        <time>2014-01-18T11:58:40Z</time>
      </trkpt>
      <trkpt lat="44.49613" lon="2.48501">
        <ele>481.7578125</ele>
        <time>2014-01-18T11:58:45Z</time>
      </trkpt>
      <trkpt lat="44.49601" lon="2.48511">
        <ele>480.7966309</ele>
        <time>2014-01-18T11:58:50Z</time>
      </trkpt>
      <trkpt lat="44.49586" lon="2.48524">
        <ele>479.3544922</ele>
        <time>2014-01-18T11:58:56Z</time>
      </trkpt>
      <trkpt lat="44.49575" lon="2.48538">
        <ele>478.3931885</ele>
        <time>2014-01-18T11:59:01Z</time>
      </trkpt>
      <trkpt lat="44.49562" lon="2.48552">
        <ele>476.9512939</ele>
        <time>2014-01-18T11:59:06Z</time>
      </trkpt>
      <trkpt lat="44.49548" lon="2.48564">
        <ele>475.9898682</ele>
        <time>2014-01-18T11:59:11Z</time>
      </trkpt>
      <trkpt lat="44.49536" lon="2.48569">
        <ele>475.9898682</ele>
        <time>2014-01-18T11:59:15Z</time>
      </trkpt>
      <trkpt lat="44.49531" lon="2.48573">
        <ele>475.9898682</ele>
        <time>2014-01-18T11:59:17Z</time>
      </trkpt>
      <trkpt lat="44.49517" lon="2.48581">
        <ele>476.9512939</ele>
        <time>2014-01-18T11:59:22Z</time>
      </trkpt>
      <trkpt lat="44.49505" lon="2.48591">
        <ele>477.9124756</ele>
        <time>2014-01-18T11:59:27Z</time>
      </trkpt>
      <trkpt lat="44.4949" lon="2.48604">
        <ele>478.3931885</ele>
        <time>2014-01-18T11:59:33Z</time>
      </trkpt>
      <trkpt lat="44.49477" lon="2.48623">
        <ele>477.4318848</ele>
        <time>2014-01-18T11:59:40Z</time>
      </trkpt>
      <trkpt lat="44.49468" lon="2.48631">
        <ele>477.4318848</ele>
        <time>2014-01-18T11:59:44Z</time>
      </trkpt>
      <trkpt lat="44.49462" lon="2.48636">
        <ele>476.9512939</ele>
        <time>2014-01-18T11:59:49Z</time>
      </trkpt>
      <trkpt lat="44.49461" lon="2.48638">
        <ele>477.4318848</ele>
        <time>2014-01-18T11:59:57Z</time>
      </trkpt>
      <trkpt lat="44.49461" lon="2.48639">
        <ele>477.4318848</ele>
        <time>2014-01-18T12:00:04Z</time>
      </trkpt>
      <trkpt lat="44.49461" lon="2.48639">
        <ele>476.9512939</ele>
        <time>2014-01-18T12:00:10Z</time>
      </trkpt>
      <trkpt lat="44.49461" lon="2.48639">
        <ele>476.9512939</ele>
        <time>2014-01-18T12:00:16Z</time>
      </trkpt>
      <trkpt lat="44.49462" lon="2.4864">
        <ele>478.8739014</ele>
        <time>2014-01-18T12:00:26Z</time>
      </trkpt>
      <trkpt lat="44.49461" lon="2.48642">
        <ele>479.835083</ele>
        <time>2014-01-18T12:00:39Z</time>
      </trkpt>
      <trkpt lat="44.49462" lon="2.48642">
        <ele>479.3544922</ele>
        <time>2014-01-18T12:01:00Z</time>
      </trkpt>
      <trkpt lat="44.49462" lon="2.48642">
        <ele>478.3931885</ele>
        <time>2014-01-18T12:01:13Z</time>
      </trkpt>
      <trkpt lat="44.49463" lon="2.48643">
        <ele>477.4318848</ele>
        <time>2014-01-18T12:01:33Z</time>
      </trkpt>
      <trkpt lat="44.4946" lon="2.48645">
        <ele>475.0286865</ele>
        <time>2014-01-18T12:01:47Z</time>
      </trkpt>
      <trkpt lat="44.49459" lon="2.48647">
        <ele>474.5479736</ele>
        <time>2014-01-18T12:01:48Z</time>
      </trkpt>
      <trkpt lat="44.49453" lon="2.48651">
        <ele>474.0672607</ele>
        <time>2014-01-18T12:01:53Z</time>
      </trkpt>
      <trkpt lat="44.49436" lon="2.48657">
        <ele>472.6253662</ele>
        <time>2014-01-18T12:01:59Z</time>
      </trkpt>
      <trkpt lat="44.49427" lon="2.4865">
        <ele>472.1446533</ele>
        <time>2014-01-18T12:02:03Z</time>
      </trkpt>
      <trkpt lat="44.49408" lon="2.48643">
        <ele>471.1833496</ele>
        <time>2014-01-18T12:02:09Z</time>
      </trkpt>
      <trkpt lat="44.49391" lon="2.48638">
        <ele>470.2219238</ele>
        <time>2014-01-18T12:02:14Z</time>
      </trkpt>
      <trkpt lat="44.49374" lon="2.48634">
        <ele>469.741333</ele>
        <time>2014-01-18T12:02:19Z</time>
      </trkpt>
      <trkpt lat="44.49361" lon="2.48639">
        <ele>468.2993164</ele>
        <time>2014-01-18T12:02:23Z</time>
      </trkpt>
      <trkpt lat="44.49349" lon="2.48651">
        <ele>466.8574219</ele>
        <time>2014-01-18T12:02:28Z</time>
      </trkpt>
      <trkpt lat="44.49335" lon="2.48666">
        <ele>466.376709</ele>
        <time>2014-01-18T12:02:33Z</time>
      </trkpt>
      <trkpt lat="44.49324" lon="2.48676">
        <ele>466.8574219</ele>
        <time>2014-01-18T12:02:37Z</time>
      </trkpt>
      <trkpt lat="44.49313" lon="2.48686">
        <ele>465.8961182</ele>
        <time>2014-01-18T12:02:41Z</time>
      </trkpt>
      <trkpt lat="44.49304" lon="2.48692">
        <ele>464.9348145</ele>
        <time>2014-01-18T12:02:44Z</time>
      </trkpt>
      <trkpt lat="44.49288" lon="2.48705">
        <ele>462.0507813</ele>
        <time>2014-01-18T12:02:50Z</time>
      </trkpt>
      <trkpt lat="44.49278" lon="2.48709">
        <ele>461.0894775</ele>
        <time>2014-01-18T12:02:53Z</time>
      </trkpt>
      <trkpt lat="44.49267" lon="2.48713">
        <ele>459.647583</ele>
        <time>2014-01-18T12:02:57Z</time>
      </trkpt>
      <trkpt lat="44.49253" lon="2.48724">
        <ele>458.2055664</ele>
        <time>2014-01-18T12:03:02Z</time>
      </trkpt>
      <trkpt lat="44.49243" lon="2.48733">
        <ele>455.8022461</ele>
        <time>2014-01-18T12:03:06Z</time>
      </trkpt>
      <trkpt lat="44.49232" lon="2.48741">
        <ele>452.9182129</ele>
        <time>2014-01-18T12:03:10Z</time>
      </trkpt>
      <trkpt lat="44.4923" lon="2.48742">
        <ele>452.4376221</ele>
        <time>2014-01-18T12:03:11Z</time>
      </trkpt>
      <trkpt lat="44.49215" lon="2.48744">
        <ele>449.072998</ele>
        <time>2014-01-18T12:03:16Z</time>
      </trkpt>
      <trkpt lat="44.49205" lon="2.48748">
        <ele>447.6309814</ele>
        <time>2014-01-18T12:03:19Z</time>
      </trkpt>
      <trkpt lat="44.49193" lon="2.48749">
        <ele>445.708374</ele>
        <time>2014-01-18T12:03:24Z</time>
      </trkpt>
      <trkpt lat="44.49189" lon="2.48755">
        <ele>445.2276611</ele>
        <time>2014-01-18T12:03:28Z</time>
      </trkpt>
      <trkpt lat="44.49189" lon="2.48757">
        <ele>444.7470703</ele>
        <time>2014-01-18T12:03:29Z</time>
      </trkpt>
      <trkpt lat="44.49196" lon="2.48763">
        <ele>443.3050537</ele>
        <time>2014-01-18T12:03:34Z</time>
      </trkpt>
      <trkpt lat="44.49194" lon="2.48771">
        <ele>440.9018555</ele>
        <time>2014-01-18T12:03:38Z</time>
      </trkpt>
      <trkpt lat="44.49196" lon="2.48775">
        <ele>438.4985352</ele>
        <time>2014-01-18T12:03:41Z</time>
      </trkpt>
      <trkpt lat="44.492" lon="2.4878">
        <ele>436.0952148</ele>
        <time>2014-01-18T12:03:44Z</time>
      </trkpt>
      <trkpt lat="44.49206" lon="2.48787">
        <ele>432.7307129</ele>
        <time>2014-01-18T12:03:48Z</time>
      </trkpt>
      <trkpt lat="44.49207" lon="2.4879">
        <ele>430.8079834</ele>
        <time>2014-01-18T12:03:50Z</time>
      </trkpt>
      <trkpt lat="44.49208" lon="2.48793">
        <ele>429.8465576</ele>
        <time>2014-01-18T12:03:52Z</time>
      </trkpt>
      <trkpt lat="44.49212" lon="2.48797">
        <ele>428.4046631</ele>
        <time>2014-01-18T12:03:55Z</time>
      </trkpt>
      <trkpt lat="44.49218" lon="2.48797">
        <ele>428.885376</ele>
        <time>2014-01-18T12:03:59Z</time>
      </trkpt>
      <trkpt lat="44.49229" lon="2.48793">
        <ele>431.769165</ele>
        <time>2014-01-18T12:04:05Z</time>
      </trkpt>
      <trkpt lat="44.49239" lon="2.48795">
        <ele>432.7307129</ele>
        <time>2014-01-18T12:04:10Z</time>
      </trkpt>
      <trkpt lat="44.49243" lon="2.48795">
        <ele>432.7307129</ele>
        <time>2014-01-18T12:04:12Z</time>
      </trkpt>
      <trkpt lat="44.49247" lon="2.48796">
        <ele>432.7307129</ele>
        <time>2014-01-18T12:04:14Z</time>
      </trkpt>
      <trkpt lat="44.49247" lon="2.48805">
        <ele>430.8079834</ele>
        <time>2014-01-18T12:04:19Z</time>
      </trkpt>
      <trkpt lat="44.49248" lon="2.48818">
        <ele>426.4820557</ele>
        <time>2014-01-18T12:04:24Z</time>
      </trkpt>
      <trkpt lat="44.49249" lon="2.4883">
        <ele>422.6367188</ele>
        <time>2014-01-18T12:04:28Z</time>
      </trkpt>
      <trkpt lat="44.49251" lon="2.48843">
        <ele>417.8302002</ele>
        <time>2014-01-18T12:04:32Z</time>
      </trkpt>
      <trkpt lat="44.49253" lon="2.48855">
        <ele>413.5042725</ele>
        <time>2014-01-18T12:04:36Z</time>
      </trkpt>
      <trkpt lat="44.49252" lon="2.48867">
        <ele>409.1783447</ele>
        <time>2014-01-18T12:04:40Z</time>
      </trkpt>
      <trkpt lat="44.49253" lon="2.48872">
        <ele>406.2943115</ele>
        <time>2014-01-18T12:04:43Z</time>
      </trkpt>
      <trkpt lat="44.49251" lon="2.48883">
        <ele>403.8911133</ele>
        <time>2014-01-18T12:04:47Z</time>
      </trkpt>
      <trkpt lat="44.4925" lon="2.48893">
        <ele>400.0458984</ele>
        <time>2014-01-18T12:04:51Z</time>
      </trkpt>
      <trkpt lat="44.4925" lon="2.48905">
        <ele>396.2005615</ele>
        <time>2014-01-18T12:04:56Z</time>
      </trkpt>
      <trkpt lat="44.49254" lon="2.48909">
        <ele>393.7972412</ele>
        <time>2014-01-18T12:04:59Z</time>
      </trkpt>
      <trkpt lat="44.49258" lon="2.48917">
        <ele>390.4326172</ele>
        <time>2014-01-18T12:05:03Z</time>
      </trkpt>
      <trkpt lat="44.49258" lon="2.4892">
        <ele>389.9519043</ele>
        <time>2014-01-18T12:05:04Z</time>
      </trkpt>
      <trkpt lat="44.49267" lon="2.48926">
        <ele>386.5874023</ele>
        <time>2014-01-18T12:05:09Z</time>
      </trkpt>
      <trkpt lat="44.49272" lon="2.48928">
        <ele>385.6259766</ele>
        <time>2014-01-18T12:05:11Z</time>
      </trkpt>
      <trkpt lat="44.4927" lon="2.48942">
        <ele>381.7806396</ele>
        <time>2014-01-18T12:05:16Z</time>
      </trkpt>
      <trkpt lat="44.49273" lon="2.48956">
        <ele>378.8968506</ele>
        <time>2014-01-18T12:05:22Z</time>
      </trkpt>
      <trkpt lat="44.4928" lon="2.48966">
        <ele>375.5321045</ele>
        <time>2014-01-18T12:05:27Z</time>
      </trkpt>
      <trkpt lat="44.4928" lon="2.48968">
        <ele>375.5321045</ele>
        <time>2014-01-18T12:05:28Z</time>
      </trkpt>
      <trkpt lat="44.49284" lon="2.48969">
        <ele>375.0515137</ele>
        <time>2014-01-18T12:05:36Z</time>
      </trkpt>
      <trkpt lat="44.49287" lon="2.4897">
        <ele>376.0128174</ele>
        <time>2014-01-18T12:05:42Z</time>
      </trkpt>
      <trkpt lat="44.49289" lon="2.48972">
        <ele>374.0900879</ele>
        <time>2014-01-18T12:05:51Z</time>
      </trkpt>
      <trkpt lat="44.4929" lon="2.48972">
        <ele>372.6481934</ele>
        <time>2014-01-18T12:06:13Z</time>
      </trkpt>
      <trkpt lat="44.49286" lon="2.48971">
        <ele>374.5708008</ele>
        <time>2014-01-18T12:06:18Z</time>
      </trkpt>
      <trkpt lat="44.49285" lon="2.48974">
        <ele>386.5874023</ele>
        <time>2014-01-18T12:06:29Z</time>
      </trkpt>
      <trkpt lat="44.49286" lon="2.48971">
        <ele>388.0292969</ele>
        <time>2014-01-18T12:06:38Z</time>
      </trkpt>
      <trkpt lat="44.49284" lon="2.48972">
        <ele>386.1066895</ele>
        <time>2014-01-18T12:06:46Z</time>
      </trkpt>
      <trkpt lat="44.4928" lon="2.48973">
        <ele>383.2226563</ele>
        <time>2014-01-18T12:06:56Z</time>
      </trkpt>
      <trkpt lat="44.49276" lon="2.48974">
        <ele>383.7032471</ele>
        <time>2014-01-18T12:06:59Z</time>
      </trkpt>
      <trkpt lat="44.49266" lon="2.48976">
        <ele>382.2613525</ele>
        <time>2014-01-18T12:07:05Z</time>
      </trkpt>
      <trkpt lat="44.49255" lon="2.48981">
        <ele>381.7806396</ele>
        <time>2014-01-18T12:07:09Z</time>
      </trkpt>
      <trkpt lat="44.4923" lon="2.48984">
        <ele>381.3000488</ele>
        <time>2014-01-18T12:07:17Z</time>
      </trkpt>
      <trkpt lat="44.49217" lon="2.48984">
        <ele>379.3774414</ele>
        <time>2014-01-18T12:07:21Z</time>
      </trkpt>
      <trkpt lat="44.49206" lon="2.48983">
        <ele>378.4161377</ele>
        <time>2014-01-18T12:07:25Z</time>
      </trkpt>
      <trkpt lat="44.49188" lon="2.48986">
        <ele>376.4935303</ele>
        <time>2014-01-18T12:07:31Z</time>
      </trkpt>
      <trkpt lat="44.49178" lon="2.48988">
        <ele>373.6094971</ele>
        <time>2014-01-18T12:07:35Z</time>
      </trkpt>
      <trkpt lat="44.49166" lon="2.48991">
        <ele>375.0515137</ele>
        <time>2014-01-18T12:07:39Z</time>
      </trkpt>
      <trkpt lat="44.49148" lon="2.48997">
        <ele>376.4935303</ele>
        <time>2014-01-18T12:07:44Z</time>
      </trkpt>
      <trkpt lat="44.49134" lon="2.49001">
        <ele>374.5708008</ele>
        <time>2014-01-18T12:07:48Z</time>
      </trkpt>
      <trkpt lat="44.4912" lon="2.49005">
        <ele>375.0515137</ele>
        <time>2014-01-18T12:07:52Z</time>
      </trkpt>
      <trkpt lat="44.49105" lon="2.49008">
        <ele>373.6094971</ele>
        <time>2014-01-18T12:07:56Z</time>
      </trkpt>
      <trkpt lat="44.49088" lon="2.4901">
        <ele>372.6481934</ele>
        <time>2014-01-18T12:08:01Z</time>
      </trkpt>
      <trkpt lat="44.4907" lon="2.49014">
        <ele>369.2836914</ele>
        <time>2014-01-18T12:08:06Z</time>
      </trkpt>
      <trkpt lat="44.49053" lon="2.49016">
        <ele>366.3995361</ele>
        <time>2014-01-18T12:08:11Z</time>
      </trkpt>
      <trkpt lat="44.49039" lon="2.49016">
        <ele>366.3995361</ele>
        <time>2014-01-18T12:08:15Z</time>
      </trkpt>
      <trkpt lat="44.49024" lon="2.4902">
        <ele>364.9576416</ele>
        <time>2014-01-18T12:08:20Z</time>
      </trkpt>
      <trkpt lat="44.4901" lon="2.49021">
        <ele>364.4769287</ele>
        <time>2014-01-18T12:08:24Z</time>
      </trkpt>
      <trkpt lat="44.49002" lon="2.49019">
        <ele>363.0350342</ele>
        <time>2014-01-18T12:08:27Z</time>
      </trkpt>
      <trkpt lat="44.48988" lon="2.49018">
        <ele>361.5931396</ele>
        <time>2014-01-18T12:08:31Z</time>
      </trkpt>
      <trkpt lat="44.48975" lon="2.49014">
        <ele>361.5931396</ele>
        <time>2014-01-18T12:08:35Z</time>
      </trkpt>
      <trkpt lat="44.48966" lon="2.49012">
        <ele>360.151123</ele>
        <time>2014-01-18T12:08:38Z</time>
      </trkpt>
      <trkpt lat="44.48947" lon="2.49008">
        <ele>358.2283936</ele>
        <time>2014-01-18T12:08:43Z</time>
      </trkpt>
      <trkpt lat="44.48935" lon="2.49005">
        <ele>356.786377</ele>
        <time>2014-01-18T12:08:47Z</time>
      </trkpt>
      <trkpt lat="44.48922" lon="2.49003">
        <ele>356.3057861</ele>
        <time>2014-01-18T12:08:51Z</time>
      </trkpt>
      <trkpt lat="44.48912" lon="2.48999">
        <ele>356.3057861</ele>
        <time>2014-01-18T12:08:54Z</time>
      </trkpt>
      <trkpt lat="44.48898" lon="2.48993">
        <ele>358.2283936</ele>
        <time>2014-01-18T12:08:59Z</time>
      </trkpt>
      <trkpt lat="44.48884" lon="2.48992">
        <ele>359.6704102</ele>
        <time>2014-01-18T12:09:03Z</time>
      </trkpt>
      <trkpt lat="44.48869" lon="2.48991">
        <ele>359.6704102</ele>
        <time>2014-01-18T12:09:07Z</time>
      </trkpt>
      <trkpt lat="44.48857" lon="2.48989">
        <ele>363.0350342</ele>
        <time>2014-01-18T12:09:11Z</time>
      </trkpt>
      <trkpt lat="44.48854" lon="2.48989">
        <ele>363.5157471</ele>
        <time>2014-01-18T12:09:12Z</time>
      </trkpt>
      <trkpt lat="44.48833" lon="2.48989">
        <ele>363.9963379</ele>
        <time>2014-01-18T12:09:18Z</time>
      </trkpt>
      <trkpt lat="44.48817" lon="2.4899">
        <ele>363.9963379</ele>
        <time>2014-01-18T12:09:23Z</time>
      </trkpt>
      <trkpt lat="44.48796" lon="2.48989">
        <ele>363.0350342</ele>
        <time>2014-01-18T12:09:30Z</time>
      </trkpt>
      <trkpt lat="44.48784" lon="2.48989">
        <ele>361.1124268</ele>
        <time>2014-01-18T12:09:34Z</time>
      </trkpt>
      <trkpt lat="44.48767" lon="2.4899">
        <ele>363.5157471</ele>
        <time>2014-01-18T12:09:39Z</time>
      </trkpt>
      <trkpt lat="44.48747" lon="2.48993">
        <ele>362.0737305</ele>
        <time>2014-01-18T12:09:45Z</time>
      </trkpt>
      <trkpt lat="44.48735" lon="2.48993">
        <ele>360.151123</ele>
        <time>2014-01-18T12:09:49Z</time>
      </trkpt>
      <trkpt lat="44.48721" lon="2.48992">
        <ele>359.6704102</ele>
        <time>2014-01-18T12:09:53Z</time>
      </trkpt>
      <trkpt lat="44.48712" lon="2.48991">
        <ele>358.7089844</ele>
        <time>2014-01-18T12:09:56Z</time>
      </trkpt>
      <trkpt lat="44.48707" lon="2.48991">
        <ele>358.2283936</ele>
        <time>2014-01-18T12:09:58Z</time>
      </trkpt>
      <trkpt lat="44.48698" lon="2.48984">
        <ele>354.3831787</ele>
        <time>2014-01-18T12:10:02Z</time>
      </trkpt>
      <trkpt lat="44.48678" lon="2.48968">
        <ele>351.4991455</ele>
        <time>2014-01-18T12:10:09Z</time>
      </trkpt>
      <trkpt lat="44.48665" lon="2.48956">
        <ele>349.5765381</ele>
        <time>2014-01-18T12:10:14Z</time>
      </trkpt>
      <trkpt lat="44.48656" lon="2.48944">
        <ele>349.0958252</ele>
        <time>2014-01-18T12:10:18Z</time>
      </trkpt>
      <trkpt lat="44.48645" lon="2.48934">
        <ele>348.6152344</ele>
        <time>2014-01-18T12:10:22Z</time>
      </trkpt>
      <trkpt lat="44.48638" lon="2.48928">
        <ele>347.1732178</ele>
        <time>2014-01-18T12:10:25Z</time>
      </trkpt>
      <trkpt lat="44.48629" lon="2.48916">
        <ele>347.1732178</ele>
        <time>2014-01-18T12:10:29Z</time>
      </trkpt>
      <trkpt lat="44.48615" lon="2.48901">
        <ele>346.2120361</ele>
        <time>2014-01-18T12:10:34Z</time>
      </trkpt>
      <trkpt lat="44.48598" lon="2.48886">
        <ele>346.692627</ele>
        <time>2014-01-18T12:10:40Z</time>
      </trkpt>
      <trkpt lat="44.48584" lon="2.48873">
        <ele>348.6152344</ele>
        <time>2014-01-18T12:10:45Z</time>
      </trkpt>
      <trkpt lat="44.48573" lon="2.48862">
        <ele>348.1346436</ele>
        <time>2014-01-18T12:10:49Z</time>
      </trkpt>
      <trkpt lat="44.48564" lon="2.48855">
        <ele>348.1346436</ele>
        <time>2014-01-18T12:10:52Z</time>
      </trkpt>
      <trkpt lat="44.48549" lon="2.48841">
        <ele>346.692627</ele>
        <time>2014-01-18T12:10:58Z</time>
      </trkpt>
      <trkpt lat="44.48537" lon="2.48828">
        <ele>346.692627</ele>
        <time>2014-01-18T12:11:03Z</time>
      </trkpt>
      <trkpt lat="44.48527" lon="2.48811">
        <ele>346.692627</ele>
        <time>2014-01-18T12:11:08Z</time>
      </trkpt>
      <trkpt lat="44.48522" lon="2.48796">
        <ele>345.7313232</ele>
        <time>2014-01-18T12:11:13Z</time>
      </trkpt>
      <trkpt lat="44.48517" lon="2.48783">
        <ele>344.2894287</ele>
        <time>2014-01-18T12:11:17Z</time>
      </trkpt>
      <trkpt lat="44.48509" lon="2.48773">
        <ele>342.84729</ele>
        <time>2014-01-18T12:11:21Z</time>
      </trkpt>
      <trkpt lat="44.48509" lon="2.48756">
        <ele>342.3666992</ele>
        <time>2014-01-18T12:11:26Z</time>
      </trkpt>
      <trkpt lat="44.48512" lon="2.48748">
        <ele>340.9246826</ele>
        <time>2014-01-18T12:11:29Z</time>
      </trkpt>
      <trkpt lat="44.4852" lon="2.48736">
        <ele>340.9246826</ele>
        <time>2014-01-18T12:11:34Z</time>
      </trkpt>
      <trkpt lat="44.48523" lon="2.48731">
        <ele>340.9246826</ele>
        <time>2014-01-18T12:11:36Z</time>
      </trkpt>
      <trkpt lat="44.48524" lon="2.48721">
        <ele>339.9633789</ele>
        <time>2014-01-18T12:11:40Z</time>
      </trkpt>
      <trkpt lat="44.48527" lon="2.48713">
        <ele>340.4440918</ele>
        <time>2014-01-18T12:11:46Z</time>
      </trkpt>
      <trkpt lat="44.4853" lon="2.48701">
        <ele>343.8085938</ele>
        <time>2014-01-18T12:11:53Z</time>
      </trkpt>
      <trkpt lat="44.48533" lon="2.48694">
        <ele>347.1732178</ele>
        <time>2014-01-18T12:11:58Z</time>
      </trkpt>
      <trkpt lat="44.48537" lon="2.48682">
        <ele>351.4991455</ele>
        <time>2014-01-18T12:12:05Z</time>
      </trkpt>
      <trkpt lat="44.4854" lon="2.48675">
        <ele>351.9798584</ele>
        <time>2014-01-18T12:12:10Z</time>
      </trkpt>
      <trkpt lat="44.48544" lon="2.48667">
        <ele>353.9025879</ele>
        <time>2014-01-18T12:12:16Z</time>
      </trkpt>
      <trkpt lat="44.48547" lon="2.48662">
        <ele>355.3444824</ele>
        <time>2014-01-18T12:12:20Z</time>
      </trkpt>
      <trkpt lat="44.48553" lon="2.48652">
        <ele>356.786377</ele>
        <time>2014-01-18T12:12:29Z</time>
      </trkpt>
      <trkpt lat="44.48558" lon="2.48644">
        <ele>357.7478027</ele>
        <time>2014-01-18T12:12:36Z</time>
      </trkpt>
      <trkpt lat="44.48562" lon="2.48639">
        <ele>357.7478027</ele>
        <time>2014-01-18T12:12:42Z</time>
      </trkpt>
      <trkpt lat="44.48566" lon="2.4863">
        <ele>359.6704102</ele>
        <time>2014-01-18T12:12:49Z</time>
      </trkpt>
      <trkpt lat="44.48568" lon="2.48628">
        <ele>360.6317139</ele>
        <time>2014-01-18T12:12:51Z</time>
      </trkpt>
      <trkpt lat="44.4857" lon="2.48624">
        <ele>361.5931396</ele>
        <time>2014-01-18T12:12:55Z</time>
      </trkpt>
      <trkpt lat="44.48574" lon="2.48617">
        <ele>363.0350342</ele>
        <time>2014-01-18T12:13:01Z</time>
      </trkpt>
      <trkpt lat="44.48578" lon="2.48611">
        <ele>363.5157471</ele>
        <time>2014-01-18T12:13:08Z</time>
      </trkpt>
      <trkpt lat="44.48583" lon="2.48602">
        <ele>363.5157471</ele>
        <time>2014-01-18T12:13:16Z</time>
      </trkpt>
      <trkpt lat="44.48586" lon="2.48597">
        <ele>364.4769287</ele>
        <time>2014-01-18T12:13:22Z</time>
      </trkpt>
      <trkpt lat="44.48591" lon="2.4859">
        <ele>366.880249</ele>
        <time>2014-01-18T12:13:29Z</time>
      </trkpt>
      <trkpt lat="44.48593" lon="2.48585">
        <ele>368.3222656</ele>
        <time>2014-01-18T12:13:33Z</time>
      </trkpt>
      <trkpt lat="44.48598" lon="2.48574">
        <ele>370.244873</ele>
        <time>2014-01-18T12:13:42Z</time>
      </trkpt>
      <trkpt lat="44.48599" lon="2.48566">
        <ele>370.7255859</ele>
        <time>2014-01-18T12:13:49Z</time>
      </trkpt>
      <trkpt lat="44.48595" lon="2.48557">
        <ele>372.1674805</ele>
        <time>2014-01-18T12:13:56Z</time>
      </trkpt>
      <trkpt lat="44.48588" lon="2.48549">
        <ele>376.0128174</ele>
        <time>2014-01-18T12:14:04Z</time>
      </trkpt>
      <trkpt lat="44.48586" lon="2.48548">
        <ele>376.4935303</ele>
        <time>2014-01-18T12:14:06Z</time>
      </trkpt>
      <trkpt lat="44.48578" lon="2.48547">
        <ele>378.8968506</ele>
        <time>2014-01-18T12:14:14Z</time>
      </trkpt>
      <trkpt lat="44.48573" lon="2.48547">
        <ele>380.3387451</ele>
        <time>2014-01-18T12:14:18Z</time>
      </trkpt>
      <trkpt lat="44.48565" lon="2.4855">
        <ele>381.7806396</ele>
        <time>2014-01-18T12:14:27Z</time>
      </trkpt>
      <trkpt lat="44.48558" lon="2.48551">
        <ele>382.7420654</ele>
        <time>2014-01-18T12:14:33Z</time>
      </trkpt>
      <trkpt lat="44.48551" lon="2.48554">
        <ele>384.6647949</ele>
        <time>2014-01-18T12:14:39Z</time>
      </trkpt>
      <trkpt lat="44.48543" lon="2.48556">
        <ele>386.1066895</ele>
        <time>2014-01-18T12:14:47Z</time>
      </trkpt>
      <trkpt lat="44.48539" lon="2.48554">
        <ele>386.5874023</ele>
        <time>2014-01-18T12:14:52Z</time>
      </trkpt>
      <trkpt lat="44.48543" lon="2.48547">
        <ele>386.5874023</ele>
        <time>2014-01-18T12:14:58Z</time>
      </trkpt>
      <trkpt lat="44.48547" lon="2.48541">
        <ele>386.5874023</ele>
        <time>2014-01-18T12:15:05Z</time>
      </trkpt>
      <trkpt lat="44.48551" lon="2.48535">
        <ele>388.9906006</ele>
        <time>2014-01-18T12:15:11Z</time>
      </trkpt>
      <trkpt lat="44.48553" lon="2.48529">
        <ele>389.9519043</ele>
        <time>2014-01-18T12:15:16Z</time>
      </trkpt>
      <trkpt lat="44.48554" lon="2.48528">
        <ele>389.9519043</ele>
        <time>2014-01-18T12:15:17Z</time>
      </trkpt>
      <trkpt lat="44.48557" lon="2.4852">
        <ele>391.3937988</ele>
        <time>2014-01-18T12:15:24Z</time>
      </trkpt>
      <trkpt lat="44.4856" lon="2.48515">
        <ele>391.8745117</ele>
        <time>2014-01-18T12:15:29Z</time>
      </trkpt>
      <trkpt lat="44.48563" lon="2.48509">
        <ele>391.8745117</ele>
        <time>2014-01-18T12:15:35Z</time>
      </trkpt>
      <trkpt lat="44.48566" lon="2.48503">
        <ele>391.3937988</ele>
        <time>2014-01-18T12:15:41Z</time>
      </trkpt>
      <trkpt lat="44.4857" lon="2.48497">
        <ele>395.2391357</ele>
        <time>2014-01-18T12:15:47Z</time>
      </trkpt>
      <trkpt lat="44.48572" lon="2.48491">
        <ele>396.6811523</ele>
        <time>2014-01-18T12:15:53Z</time>
      </trkpt>
      <trkpt lat="44.48575" lon="2.48484">
        <ele>399.0843506</ele>
        <time>2014-01-18T12:15:59Z</time>
      </trkpt>
      <trkpt lat="44.48577" lon="2.48477">
        <ele>401.487793</ele>
        <time>2014-01-18T12:16:05Z</time>
      </trkpt>
      <trkpt lat="44.48579" lon="2.48471">
        <ele>402.9296875</ele>
        <time>2014-01-18T12:16:10Z</time>
      </trkpt>
      <trkpt lat="44.48581" lon="2.48465">
        <ele>404.3717041</ele>
        <time>2014-01-18T12:16:16Z</time>
      </trkpt>
      <trkpt lat="44.48583" lon="2.48459">
        <ele>405.3330078</ele>
        <time>2014-01-18T12:16:22Z</time>
      </trkpt>
      <trkpt lat="44.48585" lon="2.48451">
        <ele>407.2556152</ele>
        <time>2014-01-18T12:16:27Z</time>
      </trkpt>
      <trkpt lat="44.48586" lon="2.48444">
        <ele>408.6976318</ele>
        <time>2014-01-18T12:16:33Z</time>
      </trkpt>
      <trkpt lat="44.48588" lon="2.48437">
        <ele>409.1783447</ele>
        <time>2014-01-18T12:16:39Z</time>
      </trkpt>
      <trkpt lat="44.4859" lon="2.4843">
        <ele>409.6590576</ele>
        <time>2014-01-18T12:16:44Z</time>
      </trkpt>
      <trkpt lat="44.48593" lon="2.48426">
        <ele>409.1783447</ele>
        <time>2014-01-18T12:16:49Z</time>
      </trkpt>
      <trkpt lat="44.48595" lon="2.4842">
        <ele>410.1396484</ele>
        <time>2014-01-18T12:16:54Z</time>
      </trkpt>
      <trkpt lat="44.48598" lon="2.48413">
        <ele>410.1396484</ele>
        <time>2014-01-18T12:16:59Z</time>
      </trkpt>
      <trkpt lat="44.48603" lon="2.48404">
        <ele>411.581665</ele>
        <time>2014-01-18T12:17:07Z</time>
      </trkpt>
      <trkpt lat="44.48608" lon="2.48399">
        <ele>413.0235596</ele>
        <time>2014-01-18T12:17:14Z</time>
      </trkpt>
      <trkpt lat="44.48612" lon="2.48392">
        <ele>413.5042725</ele>
        <time>2014-01-18T12:17:21Z</time>
      </trkpt>
      <trkpt lat="44.48617" lon="2.48386">
        <ele>415.9074707</ele>
        <time>2014-01-18T12:17:28Z</time>
      </trkpt>
      <trkpt lat="44.4862" lon="2.48383">
        <ele>416.8688965</ele>
        <time>2014-01-18T12:17:32Z</time>
      </trkpt>
      <trkpt lat="44.48623" lon="2.48377">
        <ele>419.2722168</ele>
        <time>2014-01-18T12:17:38Z</time>
      </trkpt>
      <trkpt lat="44.48623" lon="2.48371">
        <ele>421.1948242</ele>
        <time>2014-01-18T12:17:43Z</time>
      </trkpt>
      <trkpt lat="44.48622" lon="2.4837">
        <ele>421.675415</ele>
        <time>2014-01-18T12:17:44Z</time>
      </trkpt>
      <trkpt lat="44.48616" lon="2.48365">
        <ele>423.5980225</ele>
        <time>2014-01-18T12:17:51Z</time>
      </trkpt>
      <trkpt lat="44.48615" lon="2.48364">
        <ele>423.5980225</ele>
        <time>2014-01-18T12:17:52Z</time>
      </trkpt>
      <trkpt lat="44.48607" lon="2.48366">
        <ele>425.520752</ele>
        <time>2014-01-18T12:18:00Z</time>
      </trkpt>
      <trkpt lat="44.48603" lon="2.48367">
        <ele>427.4433594</ele>
        <time>2014-01-18T12:18:03Z</time>
      </trkpt>
      <trkpt lat="44.48597" lon="2.4837">
        <ele>429.3659668</ele>
        <time>2014-01-18T12:18:09Z</time>
      </trkpt>
      <trkpt lat="44.48591" lon="2.48373">
        <ele>430.8079834</ele>
        <time>2014-01-18T12:18:15Z</time>
      </trkpt>
      <trkpt lat="44.48588" lon="2.48375">
        <ele>431.2885742</ele>
        <time>2014-01-18T12:18:18Z</time>
      </trkpt>
      <trkpt lat="44.48582" lon="2.48379">
        <ele>432.25</ele>
        <time>2014-01-18T12:18:24Z</time>
      </trkpt>
      <trkpt lat="44.48579" lon="2.48381">
        <ele>432.7307129</ele>
        <time>2014-01-18T12:18:26Z</time>
      </trkpt>
      <trkpt lat="44.48571" lon="2.48388">
        <ele>432.7307129</ele>
        <time>2014-01-18T12:18:34Z</time>
      </trkpt>
      <trkpt lat="44.48566" lon="2.48392">
        <ele>433.6918945</ele>
        <time>2014-01-18T12:18:40Z</time>
      </trkpt>
      <trkpt lat="44.48562" lon="2.48395">
        <ele>434.6533203</ele>
        <time>2014-01-18T12:18:44Z</time>
      </trkpt>
      <trkpt lat="44.48552" lon="2.48402">
        <ele>435.614502</ele>
        <time>2014-01-18T12:18:54Z</time>
      </trkpt>
      <trkpt lat="44.48546" lon="2.48407">
        <ele>437.0565186</ele>
        <time>2014-01-18T12:19:00Z</time>
      </trkpt>
      <trkpt lat="44.48539" lon="2.48413">
        <ele>438.4985352</ele>
        <time>2014-01-18T12:19:07Z</time>
      </trkpt>
      <trkpt lat="44.48532" lon="2.4842">
        <ele>440.4212646</ele>
        <time>2014-01-18T12:19:15Z</time>
      </trkpt>
      <trkpt lat="44.48526" lon="2.48424">
        <ele>441.8631592</ele>
        <time>2014-01-18T12:19:22Z</time>
      </trkpt>
      <trkpt lat="44.48523" lon="2.48421">
        <ele>442.8244629</ele>
        <time>2014-01-18T12:19:27Z</time>
      </trkpt>
      <trkpt lat="44.48525" lon="2.48414">
        <ele>443.7857666</ele>
        <time>2014-01-18T12:19:32Z</time>
      </trkpt>
      <trkpt lat="44.48528" lon="2.48408">
        <ele>444.7470703</ele>
        <time>2014-01-18T12:19:39Z</time>
      </trkpt>
      <trkpt lat="44.48532" lon="2.48399">
        <ele>446.6696777</ele>
        <time>2014-01-18T12:19:46Z</time>
      </trkpt>
      <trkpt lat="44.48535" lon="2.48393">
        <ele>447.6309814</ele>
        <time>2014-01-18T12:19:52Z</time>
      </trkpt>
      <trkpt lat="44.48538" lon="2.48384">
        <ele>449.5537109</ele>
        <time>2014-01-18T12:19:59Z</time>
      </trkpt>
      <trkpt lat="44.48541" lon="2.48375">
        <ele>451.4763184</ele>
        <time>2014-01-18T12:20:05Z</time>
      </trkpt>
      <trkpt lat="44.48544" lon="2.48367">
        <ele>452.4376221</ele>
        <time>2014-01-18T12:20:11Z</time>
      </trkpt>
      <trkpt lat="44.48549" lon="2.48356">
        <ele>451.9570313</ele>
        <time>2014-01-18T12:20:19Z</time>
      </trkpt>
      <trkpt lat="44.48554" lon="2.48347">
        <ele>453.8796387</ele>
        <time>2014-01-18T12:20:26Z</time>
      </trkpt>
      <trkpt lat="44.48559" lon="2.48337">
        <ele>456.282959</ele>
        <time>2014-01-18T12:20:34Z</time>
      </trkpt>
      <trkpt lat="44.48564" lon="2.48328">
        <ele>458.2055664</ele>
        <time>2014-01-18T12:20:41Z</time>
      </trkpt>
      <trkpt lat="44.48566" lon="2.48324">
        <ele>458.2055664</ele>
        <time>2014-01-18T12:20:45Z</time>
      </trkpt>
      <trkpt lat="44.4857" lon="2.48316">
        <ele>459.647583</ele>
        <time>2014-01-18T12:20:52Z</time>
      </trkpt>
      <trkpt lat="44.48572" lon="2.48306">
        <ele>460.1281738</ele>
        <time>2014-01-18T12:20:59Z</time>
      </trkpt>
      <trkpt lat="44.48575" lon="2.48298">
        <ele>462.0507813</ele>
        <time>2014-01-18T12:21:06Z</time>
      </trkpt>
      <trkpt lat="44.48579" lon="2.4829">
        <ele>463.012085</ele>
        <time>2014-01-18T12:21:12Z</time>
      </trkpt>
      <trkpt lat="44.48584" lon="2.48282">
        <ele>463.9733887</ele>
        <time>2014-01-18T12:21:20Z</time>
      </trkpt>
      <trkpt lat="44.4859" lon="2.48276">
        <ele>463.9733887</ele>
        <time>2014-01-18T12:21:28Z</time>
      </trkpt>
      <trkpt lat="44.48594" lon="2.4827">
        <ele>463.9733887</ele>
        <time>2014-01-18T12:21:33Z</time>
      </trkpt>
      <trkpt lat="44.48599" lon="2.48266">
        <ele>464.9348145</ele>
        <time>2014-01-18T12:21:38Z</time>
      </trkpt>
      <trkpt lat="44.48606" lon="2.48261">
        <ele>467.3381348</ele>
        <time>2014-01-18T12:21:45Z</time>
      </trkpt>
      <trkpt lat="44.48611" lon="2.48254">
        <ele>468.2993164</ele>
        <time>2014-01-18T12:21:51Z</time>
      </trkpt>
      <trkpt lat="44.48617" lon="2.48252">
        <ele>470.7026367</ele>
        <time>2014-01-18T12:21:56Z</time>
      </trkpt>
      <trkpt lat="44.48626" lon="2.48247">
        <ele>474.5479736</ele>
        <time>2014-01-18T12:22:04Z</time>
      </trkpt>
      <trkpt lat="44.48632" lon="2.4824">
        <ele>474.0672607</ele>
        <time>2014-01-18T12:22:11Z</time>
      </trkpt>
      <trkpt lat="44.48639" lon="2.48235">
        <ele>475.0286865</ele>
        <time>2014-01-18T12:22:17Z</time>
      </trkpt>
      <trkpt lat="44.48643" lon="2.48231">
        <ele>475.9898682</ele>
        <time>2014-01-18T12:22:22Z</time>
      </trkpt>
      <trkpt lat="44.48647" lon="2.48227">
        <ele>476.9512939</ele>
        <time>2014-01-18T12:22:28Z</time>
      </trkpt>
      <trkpt lat="44.48653" lon="2.48225">
        <ele>477.9124756</ele>
        <time>2014-01-18T12:22:34Z</time>
      </trkpt>
      <trkpt lat="44.48656" lon="2.48225">
        <ele>478.8739014</ele>
        <time>2014-01-18T12:22:37Z</time>
      </trkpt>
      <trkpt lat="44.48661" lon="2.48225">
        <ele>480.315918</ele>
        <time>2014-01-18T12:22:42Z</time>
      </trkpt>
      <trkpt lat="44.48671" lon="2.48227">
        <ele>482.2385254</ele>
        <time>2014-01-18T12:22:49Z</time>
      </trkpt>
      <trkpt lat="44.48676" lon="2.4823">
        <ele>483.1998291</ele>
        <time>2014-01-18T12:22:54Z</time>
      </trkpt>
      <trkpt lat="44.48684" lon="2.48233">
        <ele>484.6418457</ele>
        <time>2014-01-18T12:23:01Z</time>
      </trkpt>
      <trkpt lat="44.48692" lon="2.48235">
        <ele>486.5644531</ele>
        <time>2014-01-18T12:23:06Z</time>
      </trkpt>
      <trkpt lat="44.48701" lon="2.4824">
        <ele>487.0450439</ele>
        <time>2014-01-18T12:23:13Z</time>
      </trkpt>
      <trkpt lat="44.4871" lon="2.48247">
        <ele>488.0064697</ele>
        <time>2014-01-18T12:23:17Z</time>
      </trkpt>
      <trkpt lat="44.4872" lon="2.48258">
        <ele>488.9677734</ele>
        <time>2014-01-18T12:23:22Z</time>
      </trkpt>
      <trkpt lat="44.48729" lon="2.48266">
        <ele>489.9290771</ele>
        <time>2014-01-18T12:23:27Z</time>
      </trkpt>
      <trkpt lat="44.48739" lon="2.48268">
        <ele>491.3709717</ele>
        <time>2014-01-18T12:23:31Z</time>
      </trkpt>
      <trkpt lat="44.48749" lon="2.48259">
        <ele>492.8129883</ele>
        <time>2014-01-18T12:23:36Z</time>
      </trkpt>
      <trkpt lat="44.4875" lon="2.48257">
        <ele>492.8129883</ele>
        <time>2014-01-18T12:23:37Z</time>
      </trkpt>
      <trkpt lat="44.48758" lon="2.48248">
        <ele>493.2935791</ele>
        <time>2014-01-18T12:23:42Z</time>
      </trkpt>
      <trkpt lat="44.48766" lon="2.48239">
        <ele>494.2550049</ele>
        <time>2014-01-18T12:23:47Z</time>
      </trkpt>
      <trkpt lat="44.48773" lon="2.48232">
        <ele>495.6968994</ele>
        <time>2014-01-18T12:23:51Z</time>
      </trkpt>
      <trkpt lat="44.48783" lon="2.4822">
        <ele>497.138916</ele>
        <time>2014-01-18T12:23:57Z</time>
      </trkpt>
      <trkpt lat="44.48788" lon="2.48215">
        <ele>497.6196289</ele>
        <time>2014-01-18T12:24:00Z</time>
      </trkpt>
      <trkpt lat="44.48795" lon="2.48214">
        <ele>498.5809326</ele>
        <time>2014-01-18T12:24:03Z</time>
      </trkpt>
      <trkpt lat="44.48805" lon="2.48224">
        <ele>497.6196289</ele>
        <time>2014-01-18T12:24:08Z</time>
      </trkpt>
      <trkpt lat="44.48815" lon="2.48239">
        <ele>497.138916</ele>
        <time>2014-01-18T12:24:14Z</time>
      </trkpt>
      <trkpt lat="44.48823" lon="2.4825">
        <ele>499.0615234</ele>
        <time>2014-01-18T12:24:19Z</time>
      </trkpt>
      <trkpt lat="44.48834" lon="2.48261">
        <ele>500.0229492</ele>
        <time>2014-01-18T12:24:24Z</time>
      </trkpt>
      <trkpt lat="44.48842" lon="2.48268">
        <ele>500.0229492</ele>
        <time>2014-01-18T12:24:28Z</time>
      </trkpt>
      <trkpt lat="44.48851" lon="2.48276">
        <ele>501.4648438</ele>
        <time>2014-01-18T12:24:34Z</time>
      </trkpt>
      <trkpt lat="44.48853" lon="2.48279">
        <ele>500.9841309</ele>
        <time>2014-01-18T12:24:37Z</time>
      </trkpt>
      <trkpt lat="44.48856" lon="2.48283">
        <ele>500.50354</ele>
        <time>2014-01-18T12:24:45Z</time>
      </trkpt>
      <trkpt lat="44.48857" lon="2.48284">
        <ele>500.9841309</ele>
        <time>2014-01-18T12:24:57Z</time>
      </trkpt>
      <trkpt lat="44.48858" lon="2.48283">
        <ele>500.50354</ele>
        <time>2014-01-18T12:25:02Z</time>
      </trkpt>
      <trkpt lat="44.48858" lon="2.48285">
        <ele>500.0229492</ele>
        <time>2014-01-18T12:25:06Z</time>
      </trkpt>
      <trkpt lat="44.48858" lon="2.48286">
        <ele>500.0229492</ele>
        <time>2014-01-18T12:25:14Z</time>
      </trkpt>
      <trkpt lat="44.48859" lon="2.48285">
        <ele>499.0615234</ele>
        <time>2014-01-18T12:25:30Z</time>
      </trkpt>
      <trkpt lat="44.48859" lon="2.48286">
        <ele>497.6196289</ele>
        <time>2014-01-18T12:25:39Z</time>
      </trkpt>
      <trkpt lat="44.48859" lon="2.48286">
        <ele>497.6196289</ele>
        <time>2014-01-18T12:25:46Z</time>
      </trkpt>
      <trkpt lat="44.4886" lon="2.48286">
        <ele>497.6196289</ele>
        <time>2014-01-18T12:25:51Z</time>
      </trkpt>
      <trkpt lat="44.4886" lon="2.48286">
        <ele>498.1003418</ele>
        <time>2014-01-18T12:25:59Z</time>
      </trkpt>
      <trkpt lat="44.48861" lon="2.48287">
        <ele>498.5809326</ele>
        <time>2014-01-18T12:26:09Z</time>
      </trkpt>
      <trkpt lat="44.48861" lon="2.48287">
        <ele>499.5422363</ele>
        <time>2014-01-18T12:26:18Z</time>
      </trkpt>
      <trkpt lat="44.48861" lon="2.48287">
        <ele>500.0229492</ele>
        <time>2014-01-18T12:26:27Z</time>
      </trkpt>
      <trkpt lat="44.48861" lon="2.48287">
        <ele>500.9841309</ele>
        <time>2014-01-18T12:26:37Z</time>
      </trkpt>
      <trkpt lat="44.48862" lon="2.48288">
        <ele>501.4648438</ele>
        <time>2014-01-18T12:26:47Z</time>
      </trkpt>
      <trkpt lat="44.48864" lon="2.48289">
        <ele>500.9841309</ele>
        <time>2014-01-18T12:26:54Z</time>
      </trkpt>
      <trkpt lat="44.48862" lon="2.48289">
        <ele>500.50354</ele>
        <time>2014-01-18T12:27:01Z</time>
      </trkpt>
      <trkpt lat="44.48863" lon="2.48289">
        <ele>500.50354</ele>
        <time>2014-01-18T12:27:05Z</time>
      </trkpt>
      <trkpt lat="44.48863" lon="2.4829">
        <ele>501.9455566</ele>
        <time>2014-01-18T12:27:19Z</time>
      </trkpt>
      <trkpt lat="44.48863" lon="2.48289">
        <ele>501.9455566</ele>
        <time>2014-01-18T12:27:25Z</time>
      </trkpt>
      <trkpt lat="44.48864" lon="2.48289">
        <ele>502.4261475</ele>
        <time>2014-01-18T12:27:32Z</time>
      </trkpt>
      <trkpt lat="44.48868" lon="2.48288">
        <ele>502.4261475</ele>
        <time>2014-01-18T12:27:39Z</time>
      </trkpt>
      <trkpt lat="44.48869" lon="2.48287">
        <ele>501.9455566</ele>
        <time>2014-01-18T12:27:40Z</time>
      </trkpt>
      <trkpt lat="44.48869" lon="2.48276">
        <ele>500.0229492</ele>
        <time>2014-01-18T12:27:44Z</time>
      </trkpt>
      <trkpt lat="44.4886" lon="2.48254">
        <ele>498.5809326</ele>
        <time>2014-01-18T12:27:50Z</time>
      </trkpt>
      <trkpt lat="44.48852" lon="2.48236">
        <ele>496.1777344</ele>
        <time>2014-01-18T12:27:55Z</time>
      </trkpt>
      <trkpt lat="44.48844" lon="2.48216">
        <ele>496.1777344</ele>
        <time>2014-01-18T12:28:01Z</time>
      </trkpt>
      <trkpt lat="44.48836" lon="2.48197">
        <ele>494.7355957</ele>
        <time>2014-01-18T12:28:06Z</time>
      </trkpt>
      <trkpt lat="44.48831" lon="2.48184">
        <ele>495.2161865</ele>
        <time>2014-01-18T12:28:10Z</time>
      </trkpt>
      <trkpt lat="44.48824" lon="2.48166">
        <ele>494.2550049</ele>
        <time>2014-01-18T12:28:15Z</time>
      </trkpt>
      <trkpt lat="44.48819" lon="2.48149">
        <ele>492.8129883</ele>
        <time>2014-01-18T12:28:19Z</time>
      </trkpt>
      <trkpt lat="44.48813" lon="2.48134">
        <ele>490.40979</ele>
        <time>2014-01-18T12:28:24Z</time>
      </trkpt>
      <trkpt lat="44.48808" lon="2.4812">
        <ele>488.9677734</ele>
        <time>2014-01-18T12:28:28Z</time>
      </trkpt>
      <trkpt lat="44.48805" lon="2.48115">
        <ele>488.0064697</ele>
        <time>2014-01-18T12:28:30Z</time>
      </trkpt>
      <trkpt lat="44.48797" lon="2.48093">
        <ele>483.6804199</ele>
        <time>2014-01-18T12:28:36Z</time>
      </trkpt>
      <trkpt lat="44.48791" lon="2.4808">
        <ele>480.7966309</ele>
        <time>2014-01-18T12:28:40Z</time>
      </trkpt>
      <trkpt lat="44.48785" lon="2.48066">
        <ele>477.9124756</ele>
        <time>2014-01-18T12:28:44Z</time>
      </trkpt>
      <trkpt lat="44.4878" lon="2.48052">
        <ele>475.9898682</ele>
        <time>2014-01-18T12:28:48Z</time>
      </trkpt>
      <trkpt lat="44.48784" lon="2.48047">
        <ele>474.0672607</ele>
        <time>2014-01-18T12:28:51Z</time>
      </trkpt>
      <trkpt lat="44.48791" lon="2.48055">
        <ele>473.5866699</ele>
        <time>2014-01-18T12:28:54Z</time>
      </trkpt>
      <trkpt lat="44.48803" lon="2.48072">
        <ele>473.5866699</ele>
        <time>2014-01-18T12:28:59Z</time>
      </trkpt>
      <trkpt lat="44.48812" lon="2.48085">
        <ele>473.1060791</ele>
        <time>2014-01-18T12:29:03Z</time>
      </trkpt>
      <trkpt lat="44.48823" lon="2.48102">
        <ele>472.6253662</ele>
        <time>2014-01-18T12:29:08Z</time>
      </trkpt>
      <trkpt lat="44.48828" lon="2.48109">
        <ele>472.6253662</ele>
        <time>2014-01-18T12:29:10Z</time>
      </trkpt>
      <trkpt lat="44.48836" lon="2.48123">
        <ele>472.6253662</ele>
        <time>2014-01-18T12:29:14Z</time>
      </trkpt>
      <trkpt lat="44.48845" lon="2.48138">
        <ele>472.1446533</ele>
        <time>2014-01-18T12:29:18Z</time>
      </trkpt>
      <trkpt lat="44.48855" lon="2.48152">
        <ele>472.1446533</ele>
        <time>2014-01-18T12:29:22Z</time>
      </trkpt>
      <trkpt lat="44.48869" lon="2.48178">
        <ele>469.2607422</ele>
        <time>2014-01-18T12:29:29Z</time>
      </trkpt>
      <trkpt lat="44.48882" lon="2.48193">
        <ele>467.8187256</ele>
        <time>2014-01-18T12:29:34Z</time>
      </trkpt>
      <trkpt lat="44.48893" lon="2.48204">
        <ele>467.3381348</ele>
        <time>2014-01-18T12:29:38Z</time>
      </trkpt>
      <trkpt lat="44.48906" lon="2.48213">
        <ele>467.3381348</ele>
        <time>2014-01-18T12:29:42Z</time>
      </trkpt>
      <trkpt lat="44.48929" lon="2.48221">
        <ele>465.8961182</ele>
        <time>2014-01-18T12:29:49Z</time>
      </trkpt>
      <trkpt lat="44.48944" lon="2.48222">
        <ele>464.9348145</ele>
        <time>2014-01-18T12:29:53Z</time>
      </trkpt>
      <trkpt lat="44.48962" lon="2.4822">
        <ele>463.012085</ele>
        <time>2014-01-18T12:29:58Z</time>
      </trkpt>
      <trkpt lat="44.48979" lon="2.48215">
        <ele>462.5313721</ele>
        <time>2014-01-18T12:30:03Z</time>
      </trkpt>
      <trkpt lat="44.48996" lon="2.48209">
        <ele>462.0507813</ele>
        <time>2014-01-18T12:30:08Z</time>
      </trkpt>
      <trkpt lat="44.49" lon="2.48208">
        <ele>462.0507813</ele>
        <time>2014-01-18T12:30:09Z</time>
      </trkpt>
      <trkpt lat="44.49016" lon="2.48201">
        <ele>462.0507813</ele>
        <time>2014-01-18T12:30:14Z</time>
      </trkpt>
      <trkpt lat="44.49034" lon="2.48193">
        <ele>461.0894775</ele>
        <time>2014-01-18T12:30:20Z</time>
      </trkpt>
      <trkpt lat="44.4905" lon="2.48185">
        <ele>460.1281738</ele>
        <time>2014-01-18T12:30:25Z</time>
      </trkpt>
      <trkpt lat="44.49065" lon="2.48179">
        <ele>458.2055664</ele>
        <time>2014-01-18T12:30:30Z</time>
      </trkpt>
      <trkpt lat="44.49079" lon="2.48171">
        <ele>455.8022461</ele>
        <time>2014-01-18T12:30:35Z</time>
      </trkpt>
      <trkpt lat="44.49091" lon="2.48162">
        <ele>455.3215332</ele>
        <time>2014-01-18T12:30:39Z</time>
      </trkpt>
      <trkpt lat="44.49104" lon="2.48148">
        <ele>455.3215332</ele>
        <time>2014-01-18T12:30:44Z</time>
      </trkpt>
      <trkpt lat="44.49118" lon="2.48129">
        <ele>455.8022461</ele>
        <time>2014-01-18T12:30:50Z</time>
      </trkpt>
      <trkpt lat="44.49131" lon="2.48112">
        <ele>457.7249756</ele>
        <time>2014-01-18T12:30:56Z</time>
      </trkpt>
      <trkpt lat="44.4914" lon="2.48101">
        <ele>459.1668701</ele>
        <time>2014-01-18T12:31:00Z</time>
      </trkpt>
      <trkpt lat="44.49146" lon="2.48094">
        <ele>460.1281738</ele>
        <time>2014-01-18T12:31:03Z</time>
      </trkpt>
      <trkpt lat="44.49152" lon="2.4808">
        <ele>458.6861572</ele>
        <time>2014-01-18T12:31:08Z</time>
      </trkpt>
      <trkpt lat="44.49162" lon="2.48074">
        <ele>456.282959</ele>
        <time>2014-01-18T12:31:12Z</time>
      </trkpt>
      <trkpt lat="44.49175" lon="2.48067">
        <ele>453.3989258</ele>
        <time>2014-01-18T12:31:17Z</time>
      </trkpt>
      <trkpt lat="44.49178" lon="2.48068">
        <ele>452.4376221</ele>
        <time>2014-01-18T12:31:18Z</time>
      </trkpt>
      <trkpt lat="44.49191" lon="2.48074">
        <ele>449.5537109</ele>
        <time>2014-01-18T12:31:23Z</time>
      </trkpt>
      <trkpt lat="44.49192" lon="2.48067">
        <ele>447.1502686</ele>
        <time>2014-01-18T12:31:27Z</time>
      </trkpt>
      <trkpt lat="44.49191" lon="2.48065">
        <ele>447.1502686</ele>
        <time>2014-01-18T12:31:28Z</time>
      </trkpt>
      <trkpt lat="44.49183" lon="2.48058">
        <ele>445.2276611</ele>
        <time>2014-01-18T12:31:35Z</time>
      </trkpt>
      <trkpt lat="44.49177" lon="2.48053">
        <ele>443.3050537</ele>
        <time>2014-01-18T12:31:39Z</time>
      </trkpt>
      <trkpt lat="44.49171" lon="2.4805">
        <ele>443.3050537</ele>
        <time>2014-01-18T12:31:45Z</time>
      </trkpt>
      <trkpt lat="44.49166" lon="2.48046">
        <ele>443.3050537</ele>
        <time>2014-01-18T12:31:50Z</time>
      </trkpt>
      <trkpt lat="44.49163" lon="2.48043">
        <ele>443.3050537</ele>
        <time>2014-01-18T12:31:53Z</time>
      </trkpt>
      <trkpt lat="44.49163" lon="2.48038">
        <ele>442.8244629</ele>
        <time>2014-01-18T12:31:56Z</time>
      </trkpt>
      <trkpt lat="44.49169" lon="2.48036">
        <ele>442.8244629</ele>
        <time>2014-01-18T12:32:01Z</time>
      </trkpt>
      <trkpt lat="44.49174" lon="2.48038">
        <ele>443.3050537</ele>
        <time>2014-01-18T12:32:07Z</time>
      </trkpt>
      <trkpt lat="44.49178" lon="2.48039">
        <ele>443.7857666</ele>
        <time>2014-01-18T12:32:11Z</time>
      </trkpt>
      <trkpt lat="44.49179" lon="2.48041">
        <ele>443.7857666</ele>
        <time>2014-01-18T12:32:12Z</time>
      </trkpt>
      <trkpt lat="44.49185" lon="2.48044">
        <ele>444.7470703</ele>
        <time>2014-01-18T12:32:18Z</time>
      </trkpt>
      <trkpt lat="44.49188" lon="2.48046">
        <ele>443.7857666</ele>
        <time>2014-01-18T12:32:21Z</time>
      </trkpt>
      <trkpt lat="44.49193" lon="2.48049">
        <ele>442.8244629</ele>
        <time>2014-01-18T12:32:25Z</time>
      </trkpt>
      <trkpt lat="44.49202" lon="2.48053">
        <ele>442.3438721</ele>
        <time>2014-01-18T12:32:32Z</time>
      </trkpt>
      <trkpt lat="44.49209" lon="2.48054">
        <ele>441.8631592</ele>
        <time>2014-01-18T12:32:38Z</time>
      </trkpt>
      <trkpt lat="44.49213" lon="2.48052">
        <ele>442.3438721</ele>
        <time>2014-01-18T12:32:42Z</time>
      </trkpt>
      <trkpt lat="44.49218" lon="2.48051">
        <ele>442.3438721</ele>
        <time>2014-01-18T12:32:46Z</time>
      </trkpt>
      <trkpt lat="44.49223" lon="2.48051">
        <ele>441.3824463</ele>
        <time>2014-01-18T12:32:50Z</time>
      </trkpt>
      <trkpt lat="44.49224" lon="2.4805">
        <ele>441.3824463</ele>
        <time>2014-01-18T12:32:51Z</time>
      </trkpt>
      <trkpt lat="44.49227" lon="2.4805">
        <ele>441.3824463</ele>
        <time>2014-01-18T12:32:53Z</time>
      </trkpt>
      <trkpt lat="44.49234" lon="2.48048">
        <ele>441.8631592</ele>
        <time>2014-01-18T12:32:58Z</time>
      </trkpt>
      <trkpt lat="44.49235" lon="2.48048">
        <ele>441.3824463</ele>
        <time>2014-01-18T12:32:59Z</time>
      </trkpt>
      <trkpt lat="44.49246" lon="2.48047">
        <ele>437.5371094</ele>
        <time>2014-01-18T12:33:06Z</time>
      </trkpt>
      <trkpt lat="44.49249" lon="2.48046">
        <ele>436.5759277</ele>
        <time>2014-01-18T12:33:07Z</time>
      </trkpt>
      <trkpt lat="44.49263" lon="2.48037">
        <ele>432.7307129</ele>
        <time>2014-01-18T12:33:12Z</time>
      </trkpt>
      <trkpt lat="44.49276" lon="2.48025">
        <ele>430.8079834</ele>
        <time>2014-01-18T12:33:17Z</time>
      </trkpt>
      <trkpt lat="44.49288" lon="2.48012">
        <ele>429.8465576</ele>
        <time>2014-01-18T12:33:22Z</time>
      </trkpt>
      <trkpt lat="44.49299" lon="2.47998">
        <ele>428.4046631</ele>
        <time>2014-01-18T12:33:27Z</time>
      </trkpt>
      <trkpt lat="44.49306" lon="2.47985">
        <ele>427.9239502</ele>
        <time>2014-01-18T12:33:31Z</time>
      </trkpt>
      <trkpt lat="44.49316" lon="2.47967">
        <ele>426.0013428</ele>
        <time>2014-01-18T12:33:36Z</time>
      </trkpt>
      <trkpt lat="44.49322" lon="2.47954">
        <ele>424.0787354</ele>
        <time>2014-01-18T12:33:40Z</time>
      </trkpt>
      <trkpt lat="44.4933" lon="2.47929">
        <ele>423.5980225</ele>
        <time>2014-01-18T12:33:46Z</time>
      </trkpt>
      <trkpt lat="44.49332" lon="2.47927">
        <ele>423.1174316</ele>
        <time>2014-01-18T12:33:47Z</time>
      </trkpt>
      <trkpt lat="44.49347" lon="2.47934">
        <ele>421.1948242</ele>
        <time>2014-01-18T12:33:52Z</time>
      </trkpt>
      <trkpt lat="44.49356" lon="2.47964">
        <ele>419.7528076</ele>
        <time>2014-01-18T12:33:59Z</time>
      </trkpt>
      <trkpt lat="44.49362" lon="2.47978">
        <ele>417.8302002</ele>
        <time>2014-01-18T12:34:03Z</time>
      </trkpt>
      <trkpt lat="44.49372" lon="2.47985">
        <ele>416.3881836</ele>
        <time>2014-01-18T12:34:07Z</time>
      </trkpt>
      <trkpt lat="44.4938" lon="2.47988">
        <ele>414.946167</ele>
        <time>2014-01-18T12:34:10Z</time>
      </trkpt>
      <trkpt lat="44.494" lon="2.47989">
        <ele>413.0235596</ele>
        <time>2014-01-18T12:34:17Z</time>
      </trkpt>
      <trkpt lat="44.49412" lon="2.47988">
        <ele>412.0622559</ele>
        <time>2014-01-18T12:34:21Z</time>
      </trkpt>
      <trkpt lat="44.49416" lon="2.47987">
        <ele>412.0622559</ele>
        <time>2014-01-18T12:34:22Z</time>
      </trkpt>
      <trkpt lat="44.49434" lon="2.47975">
        <ele>413.9848633</ele>
        <time>2014-01-18T12:34:29Z</time>
      </trkpt>
      <trkpt lat="44.49444" lon="2.47969">
        <ele>414.946167</ele>
        <time>2014-01-18T12:34:33Z</time>
      </trkpt>
      <trkpt lat="44.49458" lon="2.47958">
        <ele>413.9848633</ele>
        <time>2014-01-18T12:34:38Z</time>
      </trkpt>
      <trkpt lat="44.49462" lon="2.47953">
        <ele>413.0235596</ele>
        <time>2014-01-18T12:34:40Z</time>
      </trkpt>
      <trkpt lat="44.4947" lon="2.47929">
        <ele>409.6590576</ele>
        <time>2014-01-18T12:34:46Z</time>
      </trkpt>
      <trkpt lat="44.4947" lon="2.47909">
        <ele>406.7749023</ele>
        <time>2014-01-18T12:34:51Z</time>
      </trkpt>
      <trkpt lat="44.49469" lon="2.47905">
        <ele>406.2943115</ele>
        <time>2014-01-18T12:34:52Z</time>
      </trkpt>
      <trkpt lat="44.49476" lon="2.47885">
        <ele>403.4104004</ele>
        <time>2014-01-18T12:34:57Z</time>
      </trkpt>
      <trkpt lat="44.49487" lon="2.47877">
        <ele>401.487793</ele>
        <time>2014-01-18T12:35:01Z</time>
      </trkpt>
      <trkpt lat="44.49503" lon="2.4788">
        <ele>400.0458984</ele>
        <time>2014-01-18T12:35:06Z</time>
      </trkpt>
      <trkpt lat="44.49516" lon="2.47885">
        <ele>398.1231689</ele>
        <time>2014-01-18T12:35:10Z</time>
      </trkpt>
      <trkpt lat="44.49528" lon="2.47886">
        <ele>397.1617432</ele>
        <time>2014-01-18T12:35:14Z</time>
      </trkpt>
      <trkpt lat="44.49541" lon="2.47881">
        <ele>398.6037598</ele>
        <time>2014-01-18T12:35:19Z</time>
      </trkpt>
      <trkpt lat="44.49553" lon="2.47873">
        <ele>399.5650635</ele>
        <time>2014-01-18T12:35:23Z</time>
      </trkpt>
      <trkpt lat="44.49566" lon="2.4787">
        <ele>398.6037598</ele>
        <time>2014-01-18T12:35:27Z</time>
      </trkpt>
      <trkpt lat="44.49582" lon="2.47868">
        <ele>397.6424561</ele>
        <time>2014-01-18T12:35:32Z</time>
      </trkpt>
      <trkpt lat="44.49592" lon="2.47872">
        <ele>398.6037598</ele>
        <time>2014-01-18T12:35:35Z</time>
      </trkpt>
      <trkpt lat="44.49602" lon="2.4787">
        <ele>399.5650635</ele>
        <time>2014-01-18T12:35:38Z</time>
      </trkpt>
      <trkpt lat="44.49614" lon="2.47852">
        <ele>399.5650635</ele>
        <time>2014-01-18T12:35:43Z</time>
      </trkpt>
      <trkpt lat="44.49617" lon="2.47849">
        <ele>399.5650635</ele>
        <time>2014-01-18T12:35:44Z</time>
      </trkpt>
      <trkpt lat="44.49636" lon="2.47842">
        <ele>400.0458984</ele>
        <time>2014-01-18T12:35:50Z</time>
      </trkpt>
      <trkpt lat="44.49649" lon="2.47837">
        <ele>401.487793</ele>
        <time>2014-01-18T12:35:54Z</time>
      </trkpt>
      <trkpt lat="44.49669" lon="2.47833">
        <ele>399.5650635</ele>
        <time>2014-01-18T12:36:00Z</time>
      </trkpt>
      <trkpt lat="44.49677" lon="2.47825">
        <ele>397.1617432</ele>
        <time>2014-01-18T12:36:03Z</time>
      </trkpt>
      <trkpt lat="44.49673" lon="2.4781">
        <ele>394.7585449</ele>
        <time>2014-01-18T12:36:08Z</time>
      </trkpt>
      <trkpt lat="44.49666" lon="2.47806">
        <ele>394.2779541</ele>
        <time>2014-01-18T12:36:11Z</time>
      </trkpt>
      <trkpt lat="44.49651" lon="2.47802">
        <ele>395.2391357</ele>
        <time>2014-01-18T12:36:16Z</time>
      </trkpt>
      <trkpt lat="44.49638" lon="2.478">
        <ele>398.6037598</ele>
        <time>2014-01-18T12:36:20Z</time>
      </trkpt>
      <trkpt lat="44.49621" lon="2.47795">
        <ele>401.9685059</ele>
        <time>2014-01-18T12:36:25Z</time>
      </trkpt>
      <trkpt lat="44.49608" lon="2.47791">
        <ele>401.0070801</ele>
        <time>2014-01-18T12:36:30Z</time>
      </trkpt>
      <trkpt lat="44.49594" lon="2.47788">
        <ele>397.6424561</ele>
        <time>2014-01-18T12:36:35Z</time>
      </trkpt>
      <trkpt lat="44.49581" lon="2.47787">
        <ele>396.2005615</ele>
        <time>2014-01-18T12:36:39Z</time>
      </trkpt>
      <trkpt lat="44.49567" lon="2.47784">
        <ele>393.7972412</ele>
        <time>2014-01-18T12:36:44Z</time>
      </trkpt>
      <trkpt lat="44.4955" lon="2.47779">
        <ele>392.3553467</ele>
        <time>2014-01-18T12:36:49Z</time>
      </trkpt>
      <trkpt lat="44.49539" lon="2.47771">
        <ele>387.0679932</ele>
        <time>2014-01-18T12:36:53Z</time>
      </trkpt>
      <trkpt lat="44.49527" lon="2.47755">
        <ele>383.7032471</ele>
        <time>2014-01-18T12:36:58Z</time>
      </trkpt>
      <trkpt lat="44.49518" lon="2.47737">
        <ele>381.7806396</ele>
        <time>2014-01-18T12:37:03Z</time>
      </trkpt>
      <trkpt lat="44.49508" lon="2.47732">
        <ele>382.7420654</ele>
        <time>2014-01-18T12:37:07Z</time>
      </trkpt>
      <trkpt lat="44.49497" lon="2.47727">
        <ele>383.2226563</ele>
        <time>2014-01-18T12:37:12Z</time>
      </trkpt>
      <trkpt lat="44.49488" lon="2.47715">
        <ele>382.7420654</ele>
        <time>2014-01-18T12:37:17Z</time>
      </trkpt>
      <trkpt lat="44.49478" lon="2.47704">
        <ele>384.184082</ele>
        <time>2014-01-18T12:37:22Z</time>
      </trkpt>
      <trkpt lat="44.49469" lon="2.47691">
        <ele>386.1066895</ele>
        <time>2014-01-18T12:37:27Z</time>
      </trkpt>
      <trkpt lat="44.49459" lon="2.47682">
        <ele>388.5100098</ele>
        <time>2014-01-18T12:37:32Z</time>
      </trkpt>
      <trkpt lat="44.49444" lon="2.47678">
        <ele>390.4326172</ele>
        <time>2014-01-18T12:37:37Z</time>
      </trkpt>
      <trkpt lat="44.49429" lon="2.47667">
        <ele>389.4711914</ele>
        <time>2014-01-18T12:37:43Z</time>
      </trkpt>
      <trkpt lat="44.49419" lon="2.47662">
        <ele>391.8745117</ele>
        <time>2014-01-18T12:37:47Z</time>
      </trkpt>
      <trkpt lat="44.49403" lon="2.47661">
        <ele>394.2779541</ele>
        <time>2014-01-18T12:37:52Z</time>
      </trkpt>
      <trkpt lat="44.49393" lon="2.47657">
        <ele>394.2779541</ele>
        <time>2014-01-18T12:37:56Z</time>
      </trkpt>
      <trkpt lat="44.49385" lon="2.47653">
        <ele>393.3165283</ele>
        <time>2014-01-18T12:37:59Z</time>
      </trkpt>
      <trkpt lat="44.49373" lon="2.4764">
        <ele>392.8359375</ele>
        <time>2014-01-18T12:38:05Z</time>
      </trkpt>
      <trkpt lat="44.49366" lon="2.47622">
        <ele>392.8359375</ele>
        <time>2014-01-18T12:38:10Z</time>
      </trkpt>
      <trkpt lat="44.49363" lon="2.47602">
        <ele>391.8745117</ele>
        <time>2014-01-18T12:38:15Z</time>
      </trkpt>
      <trkpt lat="44.49362" lon="2.47586">
        <ele>391.8745117</ele>
        <time>2014-01-18T12:38:19Z</time>
      </trkpt>
      <trkpt lat="44.49362" lon="2.47567">
        <ele>391.8745117</ele>
        <time>2014-01-18T12:38:24Z</time>
      </trkpt>
      <trkpt lat="44.49365" lon="2.47544">
        <ele>391.8745117</ele>
        <time>2014-01-18T12:38:30Z</time>
      </trkpt>
      <trkpt lat="44.49366" lon="2.47537">
        <ele>391.8745117</ele>
        <time>2014-01-18T12:38:32Z</time>
      </trkpt>
      <trkpt lat="44.49372" lon="2.47509">
        <ele>392.3553467</ele>
        <time>2014-01-18T12:38:40Z</time>
      </trkpt>
      <trkpt lat="44.49379" lon="2.47483">
        <ele>393.7972412</ele>
        <time>2014-01-18T12:38:47Z</time>
      </trkpt>
      <trkpt lat="44.49385" lon="2.47465">
        <ele>394.2779541</ele>
        <time>2014-01-18T12:38:52Z</time>
      </trkpt>
      <trkpt lat="44.49393" lon="2.47449">
        <ele>395.2391357</ele>
        <time>2014-01-18T12:38:57Z</time>
      </trkpt>
      <trkpt lat="44.494" lon="2.47434">
        <ele>395.2391357</ele>
        <time>2014-01-18T12:39:02Z</time>
      </trkpt>
      <trkpt lat="44.49407" lon="2.47418">
        <ele>396.6811523</ele>
        <time>2014-01-18T12:39:07Z</time>
      </trkpt>
      <trkpt lat="44.4941" lon="2.47412">
        <ele>396.6811523</ele>
        <time>2014-01-18T12:39:09Z</time>
      </trkpt>
      <trkpt lat="44.49417" lon="2.47397">
        <ele>397.1617432</ele>
        <time>2014-01-18T12:39:14Z</time>
      </trkpt>
      <trkpt lat="44.49419" lon="2.47394">
        <ele>397.1617432</ele>
        <time>2014-01-18T12:39:15Z</time>
      </trkpt>
      <trkpt lat="44.49431" lon="2.4738">
        <ele>397.6424561</ele>
        <time>2014-01-18T12:39:21Z</time>
      </trkpt>
      <trkpt lat="44.49432" lon="2.47364">
        <ele>397.1617432</ele>
        <time>2014-01-18T12:39:26Z</time>
      </trkpt>
      <trkpt lat="44.49429" lon="2.47354">
        <ele>396.6811523</ele>
        <time>2014-01-18T12:39:29Z</time>
      </trkpt>
      <trkpt lat="44.49421" lon="2.47352">
        <ele>394.7585449</ele>
        <time>2014-01-18T12:39:34Z</time>
      </trkpt>
      <trkpt lat="44.49414" lon="2.47356">
        <ele>393.7972412</ele>
        <time>2014-01-18T12:39:39Z</time>
      </trkpt>
      <trkpt lat="44.49409" lon="2.47355">
        <ele>394.7585449</ele>
        <time>2014-01-18T12:39:46Z</time>
      </trkpt>
      <trkpt lat="44.49406" lon="2.47354">
        <ele>399.0843506</ele>
        <time>2014-01-18T12:40:00Z</time>
      </trkpt>
      <trkpt lat="44.49405" lon="2.47353">
        <ele>401.0070801</ele>
        <time>2014-01-18T12:40:12Z</time>
      </trkpt>
      <trkpt lat="44.49403" lon="2.47351">
        <ele>401.9685059</ele>
        <time>2014-01-18T12:40:28Z</time>
      </trkpt>
      <trkpt lat="44.49404" lon="2.47352">
        <ele>401.487793</ele>
        <time>2014-01-18T12:40:40Z</time>
      </trkpt>
      <trkpt lat="44.49405" lon="2.47352">
        <ele>404.8522949</ele>
        <time>2014-01-18T12:40:52Z</time>
      </trkpt>
      <trkpt lat="44.49403" lon="2.47351">
        <ele>403.8911133</ele>
        <time>2014-01-18T12:41:13Z</time>
      </trkpt>
      <trkpt lat="44.49405" lon="2.47346">
        <ele>412.0622559</ele>
        <time>2014-01-18T12:41:49Z</time>
      </trkpt>
      <trkpt lat="44.49404" lon="2.47353">
        <ele>410.1396484</ele>
        <time>2014-01-18T12:42:22Z</time>
      </trkpt>
      <trkpt lat="44.49403" lon="2.4735">
        <ele>414.946167</ele>
        <time>2014-01-18T12:42:35Z</time>
      </trkpt>
      <trkpt lat="44.49405" lon="2.47351">
        <ele>411.1009521</ele>
        <time>2014-01-18T12:42:45Z</time>
      </trkpt>
      <trkpt lat="44.49407" lon="2.47348">
        <ele>408.6976318</ele>
        <time>2014-01-18T12:42:56Z</time>
      </trkpt>
      <trkpt lat="44.49411" lon="2.47344">
        <ele>407.2556152</ele>
        <time>2014-01-18T12:43:02Z</time>
      </trkpt>
      <trkpt lat="44.49414" lon="2.47337">
        <ele>404.8522949</ele>
        <time>2014-01-18T12:43:08Z</time>
      </trkpt>
      <trkpt lat="44.49415" lon="2.47336">
        <ele>404.8522949</ele>
        <time>2014-01-18T12:43:09Z</time>
      </trkpt>
      <trkpt lat="44.49422" lon="2.47323">
        <ele>404.8522949</ele>
        <time>2014-01-18T12:43:17Z</time>
      </trkpt>
      <trkpt lat="44.49428" lon="2.47315">
        <ele>405.3330078</ele>
        <time>2014-01-18T12:43:21Z</time>
      </trkpt>
      <trkpt lat="44.49437" lon="2.47303">
        <ele>408.217041</ele>
        <time>2014-01-18T12:43:26Z</time>
      </trkpt>
      <trkpt lat="44.49448" lon="2.47292">
        <ele>410.6202393</ele>
        <time>2014-01-18T12:43:31Z</time>
      </trkpt>
      <trkpt lat="44.49449" lon="2.4729">
        <ele>410.6202393</ele>
        <time>2014-01-18T12:43:32Z</time>
      </trkpt>
      <trkpt lat="44.49458" lon="2.4728">
        <ele>415.4268799</ele>
        <time>2014-01-18T12:43:37Z</time>
      </trkpt>
      <trkpt lat="44.49465" lon="2.47269">
        <ele>422.6367188</ele>
        <time>2014-01-18T12:43:42Z</time>
      </trkpt>
      <trkpt lat="44.49472" lon="2.47261">
        <ele>420.2333984</ele>
        <time>2014-01-18T12:43:49Z</time>
      </trkpt>
      <trkpt lat="44.49476" lon="2.47256">
        <ele>417.3496094</ele>
        <time>2014-01-18T12:43:54Z</time>
      </trkpt>
      <trkpt lat="44.49479" lon="2.47258">
        <ele>416.3881836</ele>
        <time>2014-01-18T12:43:56Z</time>
      </trkpt>
      <trkpt lat="44.49482" lon="2.47265">
        <ele>413.0235596</ele>
        <time>2014-01-18T12:44:00Z</time>
      </trkpt>
      <trkpt lat="44.4948" lon="2.47276">
        <ele>411.1009521</ele>
        <time>2014-01-18T12:44:05Z</time>
      </trkpt>
      <trkpt lat="44.49476" lon="2.47287">
        <ele>410.1396484</ele>
        <time>2014-01-18T12:44:10Z</time>
      </trkpt>
      <trkpt lat="44.49475" lon="2.47293">
        <ele>408.6976318</ele>
        <time>2014-01-18T12:44:13Z</time>
      </trkpt>
      <trkpt lat="44.49476" lon="2.47301">
        <ele>407.2556152</ele>
        <time>2014-01-18T12:44:17Z</time>
      </trkpt>
      <trkpt lat="44.49475" lon="2.47308">
        <ele>406.7749023</ele>
        <time>2014-01-18T12:44:21Z</time>
      </trkpt>
      <trkpt lat="44.49474" lon="2.47321">
        <ele>408.6976318</ele>
        <time>2014-01-18T12:44:27Z</time>
      </trkpt>
      <trkpt lat="44.49474" lon="2.4733">
        <ele>409.1783447</ele>
        <time>2014-01-18T12:44:31Z</time>
      </trkpt>
      <trkpt lat="44.49474" lon="2.47332">
        <ele>409.1783447</ele>
        <time>2014-01-18T12:44:32Z</time>
      </trkpt>
      <trkpt lat="44.49479" lon="2.47346">
        <ele>411.1009521</ele>
        <time>2014-01-18T12:44:39Z</time>
      </trkpt>
      <trkpt lat="44.49485" lon="2.47363">
        <ele>412.5428467</ele>
        <time>2014-01-18T12:44:45Z</time>
      </trkpt>
      <trkpt lat="44.49493" lon="2.47377">
        <ele>412.5428467</ele>
        <time>2014-01-18T12:44:52Z</time>
      </trkpt>
      <trkpt lat="44.49494" lon="2.47379">
        <ele>412.5428467</ele>
        <time>2014-01-18T12:44:53Z</time>
      </trkpt>
      <trkpt lat="44.49503" lon="2.47395">
        <ele>411.1009521</ele>
        <time>2014-01-18T12:44:59Z</time>
      </trkpt>
      <trkpt lat="44.49509" lon="2.4741">
        <ele>411.1009521</ele>
        <time>2014-01-18T12:45:04Z</time>
      </trkpt>
      <trkpt lat="44.49511" lon="2.47416">
        <ele>412.0622559</ele>
        <time>2014-01-18T12:45:08Z</time>
      </trkpt>
      <trkpt lat="44.49515" lon="2.47421">
        <ele>413.9848633</ele>
        <time>2014-01-18T12:45:15Z</time>
      </trkpt>
      <trkpt lat="44.49518" lon="2.47422">
        <ele>416.3881836</ele>
        <time>2014-01-18T12:45:19Z</time>
      </trkpt>
      <trkpt lat="44.49519" lon="2.47428">
        <ele>419.2722168</ele>
        <time>2014-01-18T12:45:24Z</time>
      </trkpt>
      <trkpt lat="44.49529" lon="2.47434">
        <ele>422.6367188</ele>
        <time>2014-01-18T12:45:36Z</time>
      </trkpt>
      <trkpt lat="44.49533" lon="2.4744">
        <ele>426.4820557</ele>
        <time>2014-01-18T12:45:43Z</time>
      </trkpt>
      <trkpt lat="44.49539" lon="2.4744">
        <ele>428.4046631</ele>
        <time>2014-01-18T12:45:52Z</time>
      </trkpt>
      <trkpt lat="44.49547" lon="2.47437">
        <ele>430.3272705</ele>
        <time>2014-01-18T12:46:05Z</time>
      </trkpt>
      <trkpt lat="44.49552" lon="2.47434">
        <ele>433.2113037</ele>
        <time>2014-01-18T12:46:12Z</time>
      </trkpt>
      <trkpt lat="44.49556" lon="2.47434">
        <ele>434.1726074</ele>
        <time>2014-01-18T12:46:17Z</time>
      </trkpt>
      <trkpt lat="44.4956" lon="2.47436">
        <ele>436.0952148</ele>
        <time>2014-01-18T12:46:25Z</time>
      </trkpt>
      <trkpt lat="44.49564" lon="2.47438">
        <ele>437.5371094</ele>
        <time>2014-01-18T12:46:31Z</time>
      </trkpt>
      <trkpt lat="44.49567" lon="2.47443">
        <ele>438.4985352</ele>
        <time>2014-01-18T12:46:36Z</time>
      </trkpt>
      <trkpt lat="44.49571" lon="2.47447">
        <ele>440.4212646</ele>
        <time>2014-01-18T12:46:42Z</time>
      </trkpt>
      <trkpt lat="44.49574" lon="2.47449">
        <ele>442.3438721</ele>
        <time>2014-01-18T12:46:47Z</time>
      </trkpt>
      <trkpt lat="44.49576" lon="2.4745">
        <ele>442.8244629</ele>
        <time>2014-01-18T12:46:51Z</time>
      </trkpt>
      <trkpt lat="44.49582" lon="2.47451">
        <ele>444.2664795</ele>
        <time>2014-01-18T12:47:00Z</time>
      </trkpt>
      <trkpt lat="44.49586" lon="2.47453">
        <ele>444.7470703</ele>
        <time>2014-01-18T12:47:05Z</time>
      </trkpt>
      <trkpt lat="44.49588" lon="2.47454">
        <ele>449.5537109</ele>
        <time>2014-01-18T12:47:21Z</time>
      </trkpt>
      <trkpt lat="44.49589" lon="2.47455">
        <ele>457.2442627</ele>
        <time>2014-01-18T12:47:52Z</time>
      </trkpt>
      <trkpt lat="44.49588" lon="2.47453">
        <ele>458.6861572</ele>
        <time>2014-01-18T12:48:04Z</time>
      </trkpt>
      <trkpt lat="44.49588" lon="2.4745">
        <ele>457.2442627</ele>
        <time>2014-01-18T12:48:36Z</time>
      </trkpt>
      <trkpt lat="44.49593" lon="2.47453">
        <ele>455.3215332</ele>
        <time>2014-01-18T12:48:43Z</time>
      </trkpt>
      <trkpt lat="44.49596" lon="2.47456">
        <ele>453.8796387</ele>
        <time>2014-01-18T12:48:47Z</time>
      </trkpt>
      <trkpt lat="44.496" lon="2.47461">
        <ele>452.4376221</ele>
        <time>2014-01-18T12:48:52Z</time>
      </trkpt>
      <trkpt lat="44.49604" lon="2.47468">
        <ele>450.5150146</ele>
        <time>2014-01-18T12:48:58Z</time>
      </trkpt>
      <trkpt lat="44.49604" lon="2.4748">
        <ele>449.5537109</ele>
        <time>2014-01-18T12:49:03Z</time>
      </trkpt>
      <trkpt lat="44.49607" lon="2.47485">
        <ele>450.0344238</ele>
        <time>2014-01-18T12:49:07Z</time>
      </trkpt>
      <trkpt lat="44.49612" lon="2.47488">
        <ele>451.9570313</ele>
        <time>2014-01-18T12:49:14Z</time>
      </trkpt>
      <trkpt lat="44.49612" lon="2.47495">
        <ele>454.8408203</ele>
        <time>2014-01-18T12:49:21Z</time>
      </trkpt>
      <trkpt lat="44.49616" lon="2.47496">
        <ele>454.3602295</ele>
        <time>2014-01-18T12:49:27Z</time>
      </trkpt>
      <trkpt lat="44.49619" lon="2.47502">
        <ele>457.2442627</ele>
        <time>2014-01-18T12:49:35Z</time>
      </trkpt>
      <trkpt lat="44.4962" lon="2.47505">
        <ele>461.0894775</ele>
        <time>2014-01-18T12:49:40Z</time>
      </trkpt>
      <trkpt lat="44.49625" lon="2.47503">
        <ele>462.5313721</ele>
        <time>2014-01-18T12:49:46Z</time>
      </trkpt>
      <trkpt lat="44.49631" lon="2.47497">
        <ele>464.9348145</ele>
        <time>2014-01-18T12:49:54Z</time>
      </trkpt>
      <trkpt lat="44.49635" lon="2.47497">
        <ele>466.8574219</ele>
        <time>2014-01-18T12:50:00Z</time>
      </trkpt>
      <trkpt lat="44.49639" lon="2.47498">
        <ele>468.7800293</ele>
        <time>2014-01-18T12:50:07Z</time>
      </trkpt>
      <trkpt lat="44.49643" lon="2.475">
        <ele>469.2607422</ele>
        <time>2014-01-18T12:50:14Z</time>
      </trkpt>
      <trkpt lat="44.49648" lon="2.475">
        <ele>469.741333</ele>
        <time>2014-01-18T12:50:20Z</time>
      </trkpt>
      <trkpt lat="44.49652" lon="2.47501">
        <ele>471.1833496</ele>
        <time>2014-01-18T12:50:25Z</time>
      </trkpt>
      <trkpt lat="44.49658" lon="2.47501">
        <ele>472.6253662</ele>
        <time>2014-01-18T12:50:33Z</time>
      </trkpt>
      <trkpt lat="44.49661" lon="2.47503">
        <ele>474.5479736</ele>
        <time>2014-01-18T12:50:38Z</time>
      </trkpt>
      <trkpt lat="44.49666" lon="2.47502">
        <ele>475.0286865</ele>
        <time>2014-01-18T12:50:44Z</time>
      </trkpt>
      <trkpt lat="44.49671" lon="2.47501">
        <ele>476.4705811</ele>
        <time>2014-01-18T12:50:50Z</time>
      </trkpt>
      <trkpt lat="44.49674" lon="2.47496">
        <ele>478.8739014</ele>
        <time>2014-01-18T12:50:56Z</time>
      </trkpt>
      <trkpt lat="44.49677" lon="2.4749">
        <ele>480.7966309</ele>
        <time>2014-01-18T12:51:02Z</time>
      </trkpt>
      <trkpt lat="44.49681" lon="2.47485">
        <ele>482.2385254</ele>
        <time>2014-01-18T12:51:08Z</time>
      </trkpt>
      <trkpt lat="44.49685" lon="2.47481">
        <ele>484.6418457</ele>
        <time>2014-01-18T12:51:13Z</time>
      </trkpt>
      <trkpt lat="44.49687" lon="2.47478">
        <ele>486.5644531</ele>
        <time>2014-01-18T12:51:18Z</time>
      </trkpt>
      <trkpt lat="44.49691" lon="2.47473">
        <ele>488.0064697</ele>
        <time>2014-01-18T12:51:23Z</time>
      </trkpt>
      <trkpt lat="44.49694" lon="2.47468">
        <ele>488.4871826</ele>
        <time>2014-01-18T12:51:28Z</time>
      </trkpt>
      <trkpt lat="44.49699" lon="2.47463">
        <ele>491.8516846</ele>
        <time>2014-01-18T12:51:33Z</time>
      </trkpt>
      <trkpt lat="44.49706" lon="2.47458">
        <ele>494.2550049</ele>
        <time>2014-01-18T12:51:38Z</time>
      </trkpt>
      <trkpt lat="44.49713" lon="2.47454">
        <ele>496.1777344</ele>
        <time>2014-01-18T12:51:43Z</time>
      </trkpt>
      <trkpt lat="44.49721" lon="2.47447">
        <ele>498.1003418</ele>
        <time>2014-01-18T12:51:50Z</time>
      </trkpt>
      <trkpt lat="44.49728" lon="2.4744">
        <ele>500.0229492</ele>
        <time>2014-01-18T12:51:57Z</time>
      </trkpt>
      <trkpt lat="44.49729" lon="2.4744">
        <ele>500.0229492</ele>
        <time>2014-01-18T12:51:58Z</time>
      </trkpt>
      <trkpt lat="44.49731" lon="2.47437">
        <ele>500.50354</ele>
        <time>2014-01-18T12:52:01Z</time>
      </trkpt>
      <trkpt lat="44.49734" lon="2.47431">
        <ele>501.4648438</ele>
        <time>2014-01-18T12:52:08Z</time>
      </trkpt>
      <trkpt lat="44.49736" lon="2.47425">
        <ele>504.348877</ele>
        <time>2014-01-18T12:52:14Z</time>
      </trkpt>
      <trkpt lat="44.49738" lon="2.4742">
        <ele>504.8294678</ele>
        <time>2014-01-18T12:52:21Z</time>
      </trkpt>
      <trkpt lat="44.49741" lon="2.47414">
        <ele>507.713501</ele>
        <time>2014-01-18T12:52:27Z</time>
      </trkpt>
      <trkpt lat="44.4974" lon="2.47409">
        <ele>509.6361084</ele>
        <time>2014-01-18T12:52:32Z</time>
      </trkpt>
      <trkpt lat="44.49741" lon="2.474">
        <ele>510.1166992</ele>
        <time>2014-01-18T12:52:37Z</time>
      </trkpt>
      <trkpt lat="44.49748" lon="2.47395">
        <ele>510.59729</ele>
        <time>2014-01-18T12:52:42Z</time>
      </trkpt>
      <trkpt lat="44.49753" lon="2.47388">
        <ele>512.5200195</ele>
        <time>2014-01-18T12:52:49Z</time>
      </trkpt>
      <trkpt lat="44.49758" lon="2.47379">
        <ele>515.4040527</ele>
        <time>2014-01-18T12:52:56Z</time>
      </trkpt>
      <trkpt lat="44.49764" lon="2.47371">
        <ele>516.8459473</ele>
        <time>2014-01-18T12:53:02Z</time>
      </trkpt>
      <trkpt lat="44.49773" lon="2.47354">
        <ele>518.2878418</ele>
        <time>2014-01-18T12:53:08Z</time>
      </trkpt>
      <trkpt lat="44.49779" lon="2.47346">
        <ele>519.7298584</ele>
        <time>2014-01-18T12:53:12Z</time>
      </trkpt>
      <trkpt lat="44.49783" lon="2.4734">
        <ele>521.6525879</ele>
        <time>2014-01-18T12:53:16Z</time>
      </trkpt>
      <trkpt lat="44.49787" lon="2.47335">
        <ele>523.5751953</ele>
        <time>2014-01-18T12:53:22Z</time>
      </trkpt>
      <trkpt lat="44.49791" lon="2.4733">
        <ele>525.0172119</ele>
        <time>2014-01-18T12:53:28Z</time>
      </trkpt>
      <trkpt lat="44.49799" lon="2.47325">
        <ele>526.9398193</ele>
        <time>2014-01-18T12:53:35Z</time>
      </trkpt>
      <trkpt lat="44.49804" lon="2.47319">
        <ele>527.901001</ele>
        <time>2014-01-18T12:53:40Z</time>
      </trkpt>
      <trkpt lat="44.49811" lon="2.47311">
        <ele>529.3431396</ele>
        <time>2014-01-18T12:53:47Z</time>
      </trkpt>
      <trkpt lat="44.49813" lon="2.47308">
        <ele>530.7851563</ele>
        <time>2014-01-18T12:53:50Z</time>
      </trkpt>
      <trkpt lat="44.49817" lon="2.47304">
        <ele>531.2657471</ele>
        <time>2014-01-18T12:53:54Z</time>
      </trkpt>
      <trkpt lat="44.49824" lon="2.47296">
        <ele>531.2657471</ele>
        <time>2014-01-18T12:54:00Z</time>
      </trkpt>
      <trkpt lat="44.49834" lon="2.47293">
        <ele>531.7463379</ele>
        <time>2014-01-18T12:54:05Z</time>
      </trkpt>
      <trkpt lat="44.49844" lon="2.47287">
        <ele>530.3044434</ele>
        <time>2014-01-18T12:54:10Z</time>
      </trkpt>
      <trkpt lat="44.49858" lon="2.47285">
        <ele>530.7851563</ele>
        <time>2014-01-18T12:54:17Z</time>
      </trkpt>
      <trkpt lat="44.49866" lon="2.47283">
        <ele>530.7851563</ele>
        <time>2014-01-18T12:54:20Z</time>
      </trkpt>
      <trkpt lat="44.49875" lon="2.47278">
        <ele>530.3044434</ele>
        <time>2014-01-18T12:54:25Z</time>
      </trkpt>
      <trkpt lat="44.49885" lon="2.47273">
        <ele>532.7077637</ele>
        <time>2014-01-18T12:54:31Z</time>
      </trkpt>
      <trkpt lat="44.49892" lon="2.47269">
        <ele>533.6689453</ele>
        <time>2014-01-18T12:54:37Z</time>
      </trkpt>
      <trkpt lat="44.49897" lon="2.47268">
        <ele>535.1109619</ele>
        <time>2014-01-18T12:54:42Z</time>
      </trkpt>
      <trkpt lat="44.499" lon="2.47271">
        <ele>536.0723877</ele>
        <time>2014-01-18T12:54:46Z</time>
      </trkpt>
      <trkpt lat="44.49905" lon="2.47269">
        <ele>537.9949951</ele>
        <time>2014-01-18T12:54:54Z</time>
      </trkpt>
      <trkpt lat="44.49909" lon="2.47271">
        <ele>539.9176025</ele>
        <time>2014-01-18T12:54:59Z</time>
      </trkpt>
      <trkpt lat="44.49915" lon="2.47273">
        <ele>542.3209229</ele>
        <time>2014-01-18T12:55:07Z</time>
      </trkpt>
      <trkpt lat="44.4992" lon="2.47274">
        <ele>544.2436523</ele>
        <time>2014-01-18T12:55:13Z</time>
      </trkpt>
      <trkpt lat="44.49927" lon="2.47275">
        <ele>544.7242432</ele>
        <time>2014-01-18T12:55:20Z</time>
      </trkpt>
      <trkpt lat="44.49933" lon="2.47273">
        <ele>547.1274414</ele>
        <time>2014-01-18T12:55:28Z</time>
      </trkpt>
      <trkpt lat="44.49936" lon="2.47269">
        <ele>549.0500488</ele>
        <time>2014-01-18T12:55:34Z</time>
      </trkpt>
      <trkpt lat="44.49936" lon="2.47263">
        <ele>551.4533691</ele>
        <time>2014-01-18T12:55:40Z</time>
      </trkpt>
      <trkpt lat="44.4994" lon="2.47256">
        <ele>554.8178711</ele>
        <time>2014-01-18T12:55:49Z</time>
      </trkpt>
      <trkpt lat="44.49944" lon="2.47253">
        <ele>557.7021484</ele>
        <time>2014-01-18T12:55:55Z</time>
      </trkpt>
      <trkpt lat="44.49948" lon="2.47251">
        <ele>561.0666504</ele>
        <time>2014-01-18T12:56:02Z</time>
      </trkpt>
      <trkpt lat="44.49953" lon="2.47248">
        <ele>562.0280762</ele>
        <time>2014-01-18T12:56:08Z</time>
      </trkpt>
      <trkpt lat="44.49958" lon="2.47244">
        <ele>563.4699707</ele>
        <time>2014-01-18T12:56:14Z</time>
      </trkpt>
      <trkpt lat="44.49963" lon="2.47238">
        <ele>565.873291</ele>
        <time>2014-01-18T12:56:20Z</time>
      </trkpt>
      <trkpt lat="44.49969" lon="2.47234">
        <ele>567.3151855</ele>
        <time>2014-01-18T12:56:27Z</time>
      </trkpt>
      <trkpt lat="44.49974" lon="2.47228">
        <ele>570.1989746</ele>
        <time>2014-01-18T12:56:34Z</time>
      </trkpt>
      <trkpt lat="44.49979" lon="2.47227">
        <ele>571.6408691</ele>
        <time>2014-01-18T12:56:39Z</time>
      </trkpt>
      <trkpt lat="44.49981" lon="2.47222">
        <ele>572.1218262</ele>
        <time>2014-01-18T12:56:44Z</time>
      </trkpt>
      <trkpt lat="44.49982" lon="2.47216">
        <ele>571.6408691</ele>
        <time>2014-01-18T12:56:49Z</time>
      </trkpt>
      <trkpt lat="44.49982" lon="2.4721">
        <ele>571.6408691</ele>
        <time>2014-01-18T12:56:55Z</time>
      </trkpt>
      <trkpt lat="44.49983" lon="2.47209">
        <ele>572.6025391</ele>
        <time>2014-01-18T12:57:03Z</time>
      </trkpt>
      <trkpt lat="44.49984" lon="2.47207">
        <ele>573.5639648</ele>
        <time>2014-01-18T12:57:14Z</time>
      </trkpt>
      <trkpt lat="44.49984" lon="2.47207">
        <ele>572.6025391</ele>
        <time>2014-01-18T12:57:27Z</time>
      </trkpt>
      <trkpt lat="44.49982" lon="2.47208">
        <ele>571.1604004</ele>
        <time>2014-01-18T12:57:33Z</time>
      </trkpt>
      <trkpt lat="44.49983" lon="2.47208">
        <ele>571.1604004</ele>
        <time>2014-01-18T12:57:38Z</time>
      </trkpt>
      <trkpt lat="44.49983" lon="2.47208">
        <ele>571.1604004</ele>
        <time>2014-01-18T12:57:47Z</time>
      </trkpt>
      <trkpt lat="44.49982" lon="2.47207">
        <ele>571.6408691</ele>
        <time>2014-01-18T12:58:03Z</time>
      </trkpt>
      <trkpt lat="44.49981" lon="2.47208">
        <ele>571.6408691</ele>
        <time>2014-01-18T12:58:08Z</time>
      </trkpt>
      <trkpt lat="44.49981" lon="2.47208">
        <ele>571.1604004</ele>
        <time>2014-01-18T12:58:17Z</time>
      </trkpt>
      <trkpt lat="44.49982" lon="2.47209">
        <ele>572.1218262</ele>
        <time>2014-01-18T12:58:25Z</time>
      </trkpt>
      <trkpt lat="44.49984" lon="2.4721">
        <ele>572.1218262</ele>
        <time>2014-01-18T12:58:30Z</time>
      </trkpt>
      <trkpt lat="44.49984" lon="2.47209">
        <ele>572.1218262</ele>
        <time>2014-01-18T12:58:38Z</time>
      </trkpt>
      <trkpt lat="44.49984" lon="2.47209">
        <ele>572.1218262</ele>
        <time>2014-01-18T12:58:46Z</time>
      </trkpt>
      <trkpt lat="44.49983" lon="2.47209">
        <ele>571.6408691</ele>
        <time>2014-01-18T12:58:59Z</time>
      </trkpt>
      <trkpt lat="44.49983" lon="2.47209">
        <ele>571.6408691</ele>
        <time>2014-01-18T12:59:07Z</time>
      </trkpt>
      <trkpt lat="44.49984" lon="2.47209">
        <ele>572.6025391</ele>
        <time>2014-01-18T12:59:18Z</time>
      </trkpt>
      <trkpt lat="44.49984" lon="2.47208">
        <ele>573.5639648</ele>
        <time>2014-01-18T12:59:29Z</time>
      </trkpt>
      <trkpt lat="44.49983" lon="2.47208">
        <ele>573.083252</ele>
        <time>2014-01-18T12:59:52Z</time>
      </trkpt>
      <trkpt lat="44.49983" lon="2.47208">
        <ele>572.1218262</ele>
        <time>2014-01-18T13:00:16Z</time>
      </trkpt>
      <trkpt lat="44.49985" lon="2.47206">
        <ele>572.6025391</ele>
        <time>2014-01-18T13:00:25Z</time>
      </trkpt>
      <trkpt lat="44.49987" lon="2.47205">
        <ele>572.6025391</ele>
        <time>2014-01-18T13:00:32Z</time>
      </trkpt>
      <trkpt lat="44.49986" lon="2.47205">
        <ele>573.083252</ele>
        <time>2014-01-18T13:00:38Z</time>
      </trkpt>
      <trkpt lat="44.49988" lon="2.47204">
        <ele>572.6025391</ele>
        <time>2014-01-18T13:00:44Z</time>
      </trkpt>
      <trkpt lat="44.49986" lon="2.47206">
        <ele>568.7570801</ele>
        <time>2014-01-18T13:00:59Z</time>
      </trkpt>
      <trkpt lat="44.49988" lon="2.47207">
        <ele>568.2763672</ele>
        <time>2014-01-18T13:01:05Z</time>
      </trkpt>
      <trkpt lat="44.49988" lon="2.47204">
        <ele>570.1989746</ele>
        <time>2014-01-18T13:01:10Z</time>
      </trkpt>
      <trkpt lat="44.49988" lon="2.47203">
        <ele>572.1218262</ele>
        <time>2014-01-18T13:01:15Z</time>
      </trkpt>
      <trkpt lat="44.49986" lon="2.472">
        <ele>573.083252</ele>
        <time>2014-01-18T13:01:23Z</time>
      </trkpt>
      <trkpt lat="44.49989" lon="2.472">
        <ele>572.1218262</ele>
        <time>2014-01-18T13:01:35Z</time>
      </trkpt>
      <trkpt lat="44.49987" lon="2.47195">
        <ele>571.1604004</ele>
        <time>2014-01-18T13:01:41Z</time>
      </trkpt>
      <trkpt lat="44.49986" lon="2.47191">
        <ele>569.7185059</ele>
        <time>2014-01-18T13:01:44Z</time>
      </trkpt>
      <trkpt lat="44.49982" lon="2.47186">
        <ele>568.2763672</ele>
        <time>2014-01-18T13:01:47Z</time>
      </trkpt>
      <trkpt lat="44.49982" lon="2.47167">
        <ele>566.3537598</ele>
        <time>2014-01-18T13:01:52Z</time>
      </trkpt>
      <trkpt lat="44.4998" lon="2.47153">
        <ele>564.4311523</ele>
        <time>2014-01-18T13:01:56Z</time>
      </trkpt>
      <trkpt lat="44.49982" lon="2.47142">
        <ele>562.5085449</ele>
        <time>2014-01-18T13:01:59Z</time>
      </trkpt>
      <trkpt lat="44.49982" lon="2.47139">
        <ele>562.0280762</ele>
        <time>2014-01-18T13:02:00Z</time>
      </trkpt>
      <trkpt lat="44.49981" lon="2.47116">
        <ele>557.2214355</ele>
        <time>2014-01-18T13:02:05Z</time>
      </trkpt>
      <trkpt lat="44.49981" lon="2.47095">
        <ele>552.8952637</ele>
        <time>2014-01-18T13:02:10Z</time>
      </trkpt>
      <trkpt lat="44.49981" lon="2.47084">
        <ele>550.4921875</ele>
        <time>2014-01-18T13:02:13Z</time>
      </trkpt>
      <trkpt lat="44.49982" lon="2.47069">
        <ele>547.1274414</ele>
        <time>2014-01-18T13:02:18Z</time>
      </trkpt>
      <trkpt lat="44.49982" lon="2.47058">
        <ele>541.84021</ele>
        <time>2014-01-18T13:02:23Z</time>
      </trkpt>
      <trkpt lat="44.4998" lon="2.47057">
        <ele>540.8789063</ele>
        <time>2014-01-18T13:02:24Z</time>
      </trkpt>
      <trkpt lat="44.49977" lon="2.47054">
        <ele>538.475708</ele>
        <time>2014-01-18T13:02:26Z</time>
      </trkpt>
      <trkpt lat="44.49969" lon="2.47051">
        <ele>533.1883545</ele>
        <time>2014-01-18T13:02:31Z</time>
      </trkpt>
      <trkpt lat="44.49962" lon="2.47044">
        <ele>529.3431396</ele>
        <time>2014-01-18T13:02:35Z</time>
      </trkpt>
      <trkpt lat="44.4996" lon="2.47038">
        <ele>527.4204102</ele>
        <time>2014-01-18T13:02:37Z</time>
      </trkpt>
      <trkpt lat="44.49957" lon="2.47022">
        <ele>524.536499</ele>
        <time>2014-01-18T13:02:43Z</time>
      </trkpt>
      <trkpt lat="44.49958" lon="2.47019">
        <ele>523.5751953</ele>
        <time>2014-01-18T13:02:44Z</time>
      </trkpt>
      <trkpt lat="44.49961" lon="2.4701">
        <ele>521.1719971</ele>
        <time>2014-01-18T13:02:48Z</time>
      </trkpt>
      <trkpt lat="44.49969" lon="2.47">
        <ele>520.2105713</ele>
        <time>2014-01-18T13:02:52Z</time>
      </trkpt>
      <trkpt lat="44.49983" lon="2.46986">
        <ele>520.2105713</ele>
        <time>2014-01-18T13:02:58Z</time>
      </trkpt>
      <trkpt lat="44.49993" lon="2.46981">
        <ele>520.2105713</ele>
        <time>2014-01-18T13:03:02Z</time>
      </trkpt>
      <trkpt lat="44.50006" lon="2.46982">
        <ele>521.1719971</ele>
        <time>2014-01-18T13:03:07Z</time>
      </trkpt>
      <trkpt lat="44.50022" lon="2.46985">
        <ele>519.2492676</ele>
        <time>2014-01-18T13:03:12Z</time>
      </trkpt>
      <trkpt lat="44.50027" lon="2.46985">
        <ele>517.807251</ele>
        <time>2014-01-18T13:03:14Z</time>
      </trkpt>
      <trkpt lat="44.5004" lon="2.46991">
        <ele>517.807251</ele>
        <time>2014-01-18T13:03:19Z</time>
      </trkpt>
      <trkpt lat="44.50048" lon="2.46998">
        <ele>518.7685547</ele>
        <time>2014-01-18T13:03:22Z</time>
      </trkpt>
      <trkpt lat="44.50058" lon="2.47015">
        <ele>517.807251</ele>
        <time>2014-01-18T13:03:27Z</time>
      </trkpt>
      <trkpt lat="44.50063" lon="2.47026">
        <ele>515.4040527</ele>
        <time>2014-01-18T13:03:31Z</time>
      </trkpt>
      <trkpt lat="44.50064" lon="2.47042">
        <ele>512.5200195</ele>
        <time>2014-01-18T13:03:36Z</time>
      </trkpt>
      <trkpt lat="44.50067" lon="2.47062">
        <ele>509.6361084</ele>
        <time>2014-01-18T13:03:41Z</time>
      </trkpt>
      <trkpt lat="44.50068" lon="2.47076">
        <ele>507.713501</ele>
        <time>2014-01-18T13:03:44Z</time>
      </trkpt>
      <trkpt lat="44.50067" lon="2.47092">
        <ele>505.7908936</ele>
        <time>2014-01-18T13:03:48Z</time>
      </trkpt>
      <trkpt lat="44.50068" lon="2.47104">
        <ele>504.8294678</ele>
        <time>2014-01-18T13:03:51Z</time>
      </trkpt>
      <trkpt lat="44.50068" lon="2.47107">
        <ele>504.348877</ele>
        <time>2014-01-18T13:03:52Z</time>
      </trkpt>
      <trkpt lat="44.5007" lon="2.4711">
        <ele>503.3874512</ele>
        <time>2014-01-18T13:03:54Z</time>
      </trkpt>
      <trkpt lat="44.50073" lon="2.47102">
        <ele>500.50354</ele>
        <time>2014-01-18T13:03:59Z</time>
      </trkpt>
      <trkpt lat="44.50072" lon="2.47102">
        <ele>498.5809326</ele>
        <time>2014-01-18T13:04:06Z</time>
      </trkpt>
      <trkpt lat="44.50075" lon="2.471">
        <ele>502.4261475</ele>
        <time>2014-01-18T13:04:30Z</time>
      </trkpt>
      <trkpt lat="44.50078" lon="2.47101">
        <ele>504.348877</ele>
        <time>2014-01-18T13:04:51Z</time>
      </trkpt>
      <trkpt lat="44.50078" lon="2.47099">
        <ele>506.2714844</ele>
        <time>2014-01-18T13:05:10Z</time>
      </trkpt>
      <trkpt lat="44.50074" lon="2.471">
        <ele>498.5809326</ele>
        <time>2014-01-18T13:05:46Z</time>
      </trkpt>
      <trkpt lat="44.50059" lon="2.47093">
        <ele>483.1998291</ele>
        <time>2014-01-18T13:05:59Z</time>
      </trkpt>
      <trkpt lat="44.50061" lon="2.47094">
        <ele>484.6418457</ele>
        <time>2014-01-18T13:06:11Z</time>
      </trkpt>
      <trkpt lat="44.50067" lon="2.47097">
        <ele>490.40979</ele>
        <time>2014-01-18T13:06:18Z</time>
      </trkpt>
      <trkpt lat="44.50074" lon="2.471">
        <ele>497.138916</ele>
        <time>2014-01-18T13:06:32Z</time>
      </trkpt>
      <trkpt lat="44.50074" lon="2.47098">
        <ele>497.138916</ele>
        <time>2014-01-18T13:06:46Z</time>
      </trkpt>
      <trkpt lat="44.5007" lon="2.47095">
        <ele>492.8129883</ele>
        <time>2014-01-18T13:06:54Z</time>
      </trkpt>
      <trkpt lat="44.50073" lon="2.47095">
        <ele>495.2161865</ele>
        <time>2014-01-18T13:07:02Z</time>
      </trkpt>
      <trkpt lat="44.50075" lon="2.47091">
        <ele>497.138916</ele>
        <time>2014-01-18T13:07:06Z</time>
      </trkpt>
      <trkpt lat="44.50076" lon="2.47089">
        <ele>497.138916</ele>
        <time>2014-01-18T13:07:07Z</time>
      </trkpt>
      <trkpt lat="44.50078" lon="2.4707">
        <ele>497.138916</ele>
        <time>2014-01-18T13:07:12Z</time>
      </trkpt>
      <trkpt lat="44.5008" lon="2.47061">
        <ele>496.6583252</ele>
        <time>2014-01-18T13:07:14Z</time>
      </trkpt>
      <trkpt lat="44.50083" lon="2.47048">
        <ele>496.1777344</ele>
        <time>2014-01-18T13:07:17Z</time>
      </trkpt>
      <trkpt lat="44.50086" lon="2.47028">
        <ele>494.7355957</ele>
        <time>2014-01-18T13:07:21Z</time>
      </trkpt>
      <trkpt lat="44.50087" lon="2.47009">
        <ele>494.7355957</ele>
        <time>2014-01-18T13:07:26Z</time>
      </trkpt>
      <trkpt lat="44.50086" lon="2.47005">
        <ele>494.7355957</ele>
        <time>2014-01-18T13:07:27Z</time>
      </trkpt>
      <trkpt lat="44.50091" lon="2.46989">
        <ele>494.2550049</ele>
        <time>2014-01-18T13:07:31Z</time>
      </trkpt>
      <trkpt lat="44.50098" lon="2.46977">
        <ele>495.2161865</ele>
        <time>2014-01-18T13:07:34Z</time>
      </trkpt>
      <trkpt lat="44.50095" lon="2.46954">
        <ele>493.2935791</ele>
        <time>2014-01-18T13:07:40Z</time>
      </trkpt>
      <trkpt lat="44.50086" lon="2.46942">
        <ele>492.3323975</ele>
        <time>2014-01-18T13:07:44Z</time>
      </trkpt>
      <trkpt lat="44.50084" lon="2.46938">
        <ele>491.8516846</ele>
        <time>2014-01-18T13:07:45Z</time>
      </trkpt>
      <trkpt lat="44.50074" lon="2.46923">
        <ele>490.8903809</ele>
        <time>2014-01-18T13:07:50Z</time>
      </trkpt>
      <trkpt lat="44.50061" lon="2.46911">
        <ele>494.2550049</ele>
        <time>2014-01-18T13:07:55Z</time>
      </trkpt>
      <trkpt lat="44.50052" lon="2.4689">
        <ele>494.7355957</ele>
        <time>2014-01-18T13:08:00Z</time>
      </trkpt>
      <trkpt lat="44.50057" lon="2.46868">
        <ele>494.7355957</ele>
        <time>2014-01-18T13:08:05Z</time>
      </trkpt>
      <trkpt lat="44.50062" lon="2.46858">
        <ele>493.774292</ele>
        <time>2014-01-18T13:08:08Z</time>
      </trkpt>
      <trkpt lat="44.50066" lon="2.4685">
        <ele>493.774292</ele>
        <time>2014-01-18T13:08:10Z</time>
      </trkpt>
      <trkpt lat="44.5008" lon="2.46834">
        <ele>492.8129883</ele>
        <time>2014-01-18T13:08:15Z</time>
      </trkpt>
      <trkpt lat="44.50086" lon="2.46825">
        <ele>491.8516846</ele>
        <time>2014-01-18T13:08:18Z</time>
      </trkpt>
      <trkpt lat="44.50093" lon="2.46796">
        <ele>487.5256348</ele>
        <time>2014-01-18T13:08:25Z</time>
      </trkpt>
      <trkpt lat="44.50097" lon="2.4678">
        <ele>485.1224365</ele>
        <time>2014-01-18T13:08:29Z</time>
      </trkpt>
      <trkpt lat="44.50099" lon="2.46772">
        <ele>485.6030273</ele>
        <time>2014-01-18T13:08:31Z</time>
      </trkpt>
      <trkpt lat="44.50099" lon="2.46752">
        <ele>484.6418457</ele>
        <time>2014-01-18T13:08:36Z</time>
      </trkpt>
      <trkpt lat="44.50098" lon="2.46742">
        <ele>482.7192383</ele>
        <time>2014-01-18T13:08:39Z</time>
      </trkpt>
      <trkpt lat="44.50083" lon="2.46734">
        <ele>480.7966309</ele>
        <time>2014-01-18T13:08:44Z</time>
      </trkpt>
      <trkpt lat="44.50066" lon="2.4673">
        <ele>479.3544922</ele>
        <time>2014-01-18T13:08:49Z</time>
      </trkpt>
      <trkpt lat="44.50049" lon="2.4673">
        <ele>479.3544922</ele>
        <time>2014-01-18T13:08:54Z</time>
      </trkpt>
      <trkpt lat="44.50033" lon="2.46728">
        <ele>478.3931885</ele>
        <time>2014-01-18T13:08:59Z</time>
      </trkpt>
      <trkpt lat="44.50019" lon="2.46726">
        <ele>477.9124756</ele>
        <time>2014-01-18T13:09:03Z</time>
      </trkpt>
      <trkpt lat="44.50009" lon="2.46716">
        <ele>476.4705811</ele>
        <time>2014-01-18T13:09:07Z</time>
      </trkpt>
      <trkpt lat="44.50001" lon="2.467">
        <ele>475.9898682</ele>
        <time>2014-01-18T13:09:12Z</time>
      </trkpt>
      <trkpt lat="44.49996" lon="2.46694">
        <ele>476.4705811</ele>
        <time>2014-01-18T13:09:14Z</time>
      </trkpt>
      <trkpt lat="44.49983" lon="2.46695">
        <ele>476.4705811</ele>
        <time>2014-01-18T13:09:19Z</time>
      </trkpt>
      <trkpt lat="44.49972" lon="2.46702">
        <ele>478.8739014</ele>
        <time>2014-01-18T13:09:23Z</time>
      </trkpt>
      <trkpt lat="44.49958" lon="2.46709">
        <ele>477.4318848</ele>
        <time>2014-01-18T13:09:28Z</time>
      </trkpt>
      <trkpt lat="44.49942" lon="2.46713">
        <ele>477.4318848</ele>
        <time>2014-01-18T13:09:33Z</time>
      </trkpt>
      <trkpt lat="44.49924" lon="2.46714">
        <ele>476.9512939</ele>
        <time>2014-01-18T13:09:39Z</time>
      </trkpt>
      <trkpt lat="44.49913" lon="2.46713">
        <ele>479.3544922</ele>
        <time>2014-01-18T13:09:43Z</time>
      </trkpt>
      <trkpt lat="44.49908" lon="2.4671">
        <ele>478.8739014</ele>
        <time>2014-01-18T13:09:45Z</time>
      </trkpt>
      <trkpt lat="44.49888" lon="2.46693">
        <ele>476.9512939</ele>
        <time>2014-01-18T13:09:53Z</time>
      </trkpt>
      <trkpt lat="44.49882" lon="2.46688">
        <ele>476.9512939</ele>
        <time>2014-01-18T13:09:55Z</time>
      </trkpt>
      <trkpt lat="44.49862" lon="2.46689">
        <ele>475.5092773</ele>
        <time>2014-01-18T13:10:01Z</time>
      </trkpt>
      <trkpt lat="44.49859" lon="2.4669">
        <ele>475.0286865</ele>
        <time>2014-01-18T13:10:02Z</time>
      </trkpt>
      <trkpt lat="44.49843" lon="2.46707">
        <ele>473.5866699</ele>
        <time>2014-01-18T13:10:08Z</time>
      </trkpt>
      <trkpt lat="44.49839" lon="2.46725">
        <ele>472.1446533</ele>
        <time>2014-01-18T13:10:12Z</time>
      </trkpt>
      <trkpt lat="44.49844" lon="2.4674">
        <ele>470.2219238</ele>
        <time>2014-01-18T13:10:16Z</time>
      </trkpt>
      <trkpt lat="44.49853" lon="2.46753">
        <ele>469.2607422</ele>
        <time>2014-01-18T13:10:20Z</time>
      </trkpt>
      <trkpt lat="44.49862" lon="2.46764">
        <ele>468.7800293</ele>
        <time>2014-01-18T13:10:24Z</time>
      </trkpt>
      <trkpt lat="44.49872" lon="2.46773">
        <ele>467.8187256</ele>
        <time>2014-01-18T13:10:28Z</time>
      </trkpt>
      <trkpt lat="44.4987" lon="2.46782">
        <ele>465.8961182</ele>
        <time>2014-01-18T13:10:32Z</time>
      </trkpt>
      <trkpt lat="44.49857" lon="2.46776">
        <ele>464.9348145</ele>
        <time>2014-01-18T13:10:37Z</time>
      </trkpt>
      <trkpt lat="44.49851" lon="2.46773">
        <ele>464.4541016</ele>
        <time>2014-01-18T13:10:39Z</time>
      </trkpt>
      <trkpt lat="44.49839" lon="2.46766">
        <ele>463.4927979</ele>
        <time>2014-01-18T13:10:43Z</time>
      </trkpt>
      <trkpt lat="44.49818" lon="2.46764">
        <ele>463.012085</ele>
        <time>2014-01-18T13:10:49Z</time>
      </trkpt>
      <trkpt lat="44.49802" lon="2.4676">
        <ele>462.5313721</ele>
        <time>2014-01-18T13:10:54Z</time>
      </trkpt>
      <trkpt lat="44.49789" lon="2.46757">
        <ele>460.6087646</ele>
        <time>2014-01-18T13:10:58Z</time>
      </trkpt>
      <trkpt lat="44.4977" lon="2.4675">
        <ele>454.3602295</ele>
        <time>2014-01-18T13:11:04Z</time>
      </trkpt>
      <trkpt lat="44.49761" lon="2.46743">
        <ele>450.5150146</ele>
        <time>2014-01-18T13:11:07Z</time>
      </trkpt>
      <trkpt lat="44.49751" lon="2.46732">
        <ele>446.6696777</ele>
        <time>2014-01-18T13:11:11Z</time>
      </trkpt>
      <trkpt lat="44.49739" lon="2.46716">
        <ele>441.3824463</ele>
        <time>2014-01-18T13:11:16Z</time>
      </trkpt>
      <trkpt lat="44.49728" lon="2.46698">
        <ele>438.4985352</ele>
        <time>2014-01-18T13:11:21Z</time>
      </trkpt>
      <trkpt lat="44.49717" lon="2.46688">
        <ele>436.0952148</ele>
        <time>2014-01-18T13:11:25Z</time>
      </trkpt>
      <trkpt lat="44.49704" lon="2.46681">
        <ele>433.6918945</ele>
        <time>2014-01-18T13:11:29Z</time>
      </trkpt>
      <trkpt lat="44.49691" lon="2.46669">
        <ele>430.8079834</ele>
        <time>2014-01-18T13:11:34Z</time>
      </trkpt>
      <trkpt lat="44.49679" lon="2.46656">
        <ele>428.885376</ele>
        <time>2014-01-18T13:11:38Z</time>
      </trkpt>
      <trkpt lat="44.49672" lon="2.46647">
        <ele>427.9239502</ele>
        <time>2014-01-18T13:11:41Z</time>
      </trkpt>
      <trkpt lat="44.49662" lon="2.46635">
        <ele>426.4820557</ele>
        <time>2014-01-18T13:11:45Z</time>
      </trkpt>
      <trkpt lat="44.49647" lon="2.46616">
        <ele>425.0401611</ele>
        <time>2014-01-18T13:11:51Z</time>
      </trkpt>
      <trkpt lat="44.49635" lon="2.46601">
        <ele>422.6367188</ele>
        <time>2014-01-18T13:11:56Z</time>
      </trkpt>
      <trkpt lat="44.49625" lon="2.46579">
        <ele>421.675415</ele>
        <time>2014-01-18T13:12:02Z</time>
      </trkpt>
      <trkpt lat="44.49627" lon="2.46563">
        <ele>422.6367188</ele>
        <time>2014-01-18T13:12:06Z</time>
      </trkpt>
      <trkpt lat="44.49636" lon="2.46551">
        <ele>421.675415</ele>
        <time>2014-01-18T13:12:10Z</time>
      </trkpt>
      <trkpt lat="44.49645" lon="2.46544">
        <ele>420.7141113</ele>
        <time>2014-01-18T13:12:13Z</time>
      </trkpt>
      <trkpt lat="44.49641" lon="2.46531">
        <ele>418.310791</ele>
        <time>2014-01-18T13:12:17Z</time>
      </trkpt>
      <trkpt lat="44.49629" lon="2.46526">
        <ele>416.3881836</ele>
        <time>2014-01-18T13:12:21Z</time>
      </trkpt>
      <trkpt lat="44.49616" lon="2.46522">
        <ele>413.9848633</ele>
        <time>2014-01-18T13:12:25Z</time>
      </trkpt>
      <trkpt lat="44.49604" lon="2.46516">
        <ele>410.6202393</ele>
        <time>2014-01-18T13:12:29Z</time>
      </trkpt>
      <trkpt lat="44.49598" lon="2.4651">
        <ele>410.6202393</ele>
        <time>2014-01-18T13:12:31Z</time>
      </trkpt>
      <trkpt lat="44.49583" lon="2.46498">
        <ele>408.6976318</ele>
        <time>2014-01-18T13:12:36Z</time>
      </trkpt>
      <trkpt lat="44.49567" lon="2.46481">
        <ele>403.8911133</ele>
        <time>2014-01-18T13:12:42Z</time>
      </trkpt>
      <trkpt lat="44.49555" lon="2.46464">
        <ele>400.5264893</ele>
        <time>2014-01-18T13:12:47Z</time>
      </trkpt>
      <trkpt lat="44.49544" lon="2.4645">
        <ele>397.1617432</ele>
        <time>2014-01-18T13:12:52Z</time>
      </trkpt>
      <trkpt lat="44.49532" lon="2.46436">
        <ele>395.7198486</ele>
        <time>2014-01-18T13:12:57Z</time>
      </trkpt>
      <trkpt lat="44.4952" lon="2.46425">
        <ele>397.1617432</ele>
        <time>2014-01-18T13:13:01Z</time>
      </trkpt>
      <trkpt lat="44.49511" lon="2.4641">
        <ele>396.6811523</ele>
        <time>2014-01-18T13:13:05Z</time>
      </trkpt>
      <trkpt lat="44.49506" lon="2.46391">
        <ele>396.2005615</ele>
        <time>2014-01-18T13:13:09Z</time>
      </trkpt>
      <trkpt lat="44.49498" lon="2.46368">
        <ele>397.1617432</ele>
        <time>2014-01-18T13:13:14Z</time>
      </trkpt>
      <trkpt lat="44.4949" lon="2.46351">
        <ele>395.2391357</ele>
        <time>2014-01-18T13:13:18Z</time>
      </trkpt>
      <trkpt lat="44.49477" lon="2.46334">
        <ele>392.8359375</ele>
        <time>2014-01-18T13:13:23Z</time>
      </trkpt>
      <trkpt lat="44.4947" lon="2.46316">
        <ele>391.8745117</ele>
        <time>2014-01-18T13:13:28Z</time>
      </trkpt>
      <trkpt lat="44.49465" lon="2.46289">
        <ele>390.4326172</ele>
        <time>2014-01-18T13:13:34Z</time>
      </trkpt>
      <trkpt lat="44.49463" lon="2.46267">
        <ele>388.9906006</ele>
        <time>2014-01-18T13:13:39Z</time>
      </trkpt>
      <trkpt lat="44.49464" lon="2.46247">
        <ele>387.548584</ele>
        <time>2014-01-18T13:13:43Z</time>
      </trkpt>
      <trkpt lat="44.49467" lon="2.4623">
        <ele>385.6259766</ele>
        <time>2014-01-18T13:13:47Z</time>
      </trkpt>
      <trkpt lat="44.49469" lon="2.46222">
        <ele>384.6647949</ele>
        <time>2014-01-18T13:13:49Z</time>
      </trkpt>
      <trkpt lat="44.49469" lon="2.46213">
        <ele>382.7420654</ele>
        <time>2014-01-18T13:13:55Z</time>
      </trkpt>
      <trkpt lat="44.49468" lon="2.46213">
        <ele>382.7420654</ele>
        <time>2014-01-18T13:14:02Z</time>
      </trkpt>
      <trkpt lat="44.49466" lon="2.46213">
        <ele>384.184082</ele>
        <time>2014-01-18T13:14:10Z</time>
      </trkpt>
      <trkpt lat="44.49466" lon="2.46212">
        <ele>384.6647949</ele>
        <time>2014-01-18T13:14:17Z</time>
      </trkpt>
      <trkpt lat="44.49465" lon="2.46212">
        <ele>385.1453857</ele>
        <time>2014-01-18T13:14:29Z</time>
      </trkpt>
      <trkpt lat="44.49465" lon="2.46211">
        <ele>386.5874023</ele>
        <time>2014-01-18T13:14:38Z</time>
      </trkpt>
      <trkpt lat="44.49465" lon="2.46211">
        <ele>386.1066895</ele>
        <time>2014-01-18T13:14:47Z</time>
      </trkpt>
      <trkpt lat="44.49465" lon="2.46211">
        <ele>387.0679932</ele>
        <time>2014-01-18T13:14:56Z</time>
      </trkpt>
      <trkpt lat="44.49465" lon="2.46211">
        <ele>386.5874023</ele>
        <time>2014-01-18T13:15:08Z</time>
      </trkpt>
      <trkpt lat="44.49465" lon="2.46212">
        <ele>385.6259766</ele>
        <time>2014-01-18T13:15:32Z</time>
      </trkpt>
      <trkpt lat="44.49464" lon="2.46213">
        <ele>385.1453857</ele>
        <time>2014-01-18T13:15:38Z</time>
      </trkpt>
      <trkpt lat="44.49464" lon="2.46212">
        <ele>385.6259766</ele>
        <time>2014-01-18T13:15:46Z</time>
      </trkpt>
      <trkpt lat="44.49464" lon="2.46212">
        <ele>383.2226563</ele>
        <time>2014-01-18T13:16:02Z</time>
      </trkpt>
      <trkpt lat="44.49464" lon="2.46212">
        <ele>383.7032471</ele>
        <time>2014-01-18T13:16:07Z</time>
      </trkpt>
      <trkpt lat="44.49463" lon="2.46211">
        <ele>383.2226563</ele>
        <time>2014-01-18T13:16:30Z</time>
      </trkpt>
      <trkpt lat="44.49463" lon="2.46211">
        <ele>384.184082</ele>
        <time>2014-01-18T13:16:50Z</time>
      </trkpt>
      <trkpt lat="44.49462" lon="2.4621">
        <ele>383.7032471</ele>
        <time>2014-01-18T13:17:00Z</time>
      </trkpt>
      <trkpt lat="44.49463" lon="2.46211">
        <ele>384.184082</ele>
        <time>2014-01-18T13:17:06Z</time>
      </trkpt>
      <trkpt lat="44.49464" lon="2.46212">
        <ele>384.6647949</ele>
        <time>2014-01-18T13:17:16Z</time>
      </trkpt>
      <trkpt lat="44.49464" lon="2.46214">
        <ele>381.3000488</ele>
        <time>2014-01-18T13:17:32Z</time>
      </trkpt>
      <trkpt lat="44.49465" lon="2.46215">
        <ele>381.3000488</ele>
        <time>2014-01-18T13:17:43Z</time>
      </trkpt>
      <trkpt lat="44.49465" lon="2.46214">
        <ele>382.7420654</ele>
        <time>2014-01-18T13:17:54Z</time>
      </trkpt>
      <trkpt lat="44.49464" lon="2.46215">
        <ele>383.2226563</ele>
        <time>2014-01-18T13:17:57Z</time>
      </trkpt>
      <trkpt lat="44.49464" lon="2.46214">
        <ele>384.184082</ele>
        <time>2014-01-18T13:18:12Z</time>
      </trkpt>
      <trkpt lat="44.49464" lon="2.46214">
        <ele>386.5874023</ele>
        <time>2014-01-18T13:18:27Z</time>
      </trkpt>
      <trkpt lat="44.49464" lon="2.46215">
        <ele>388.0292969</ele>
        <time>2014-01-18T13:18:43Z</time>
      </trkpt>
      <trkpt lat="44.49464" lon="2.46215">
        <ele>388.9906006</ele>
        <time>2014-01-18T13:19:03Z</time>
      </trkpt>
      <trkpt lat="44.49465" lon="2.46215">
        <ele>388.9906006</ele>
        <time>2014-01-18T13:19:29Z</time>
      </trkpt>
      <trkpt lat="44.49467" lon="2.46213">
        <ele>387.0679932</ele>
        <time>2014-01-18T13:19:43Z</time>
      </trkpt>
      <trkpt lat="44.49487" lon="2.46239">
        <ele>375.0515137</ele>
        <time>2014-01-18T13:20:26Z</time>
      </trkpt>
      <trkpt lat="44.49503" lon="2.46318">
        <ele>365.9189453</ele>
        <time>2014-01-18T13:20:48Z</time>
      </trkpt>
      <trkpt lat="44.49464" lon="2.46215">
        <ele>383.2226563</ele>
        <time>2014-01-18T13:20:52Z</time>
      </trkpt>
      <trkpt lat="44.49463" lon="2.46215">
        <ele>384.184082</ele>
        <time>2014-01-18T13:21:04Z</time>
      </trkpt>
      <trkpt lat="44.49464" lon="2.46215">
        <ele>386.5874023</ele>
        <time>2014-01-18T13:21:16Z</time>
      </trkpt>
      <trkpt lat="44.49465" lon="2.46216">
        <ele>386.5874023</ele>
        <time>2014-01-18T13:21:23Z</time>
      </trkpt>
      <trkpt lat="44.49468" lon="2.46212">
        <ele>385.6259766</ele>
        <time>2014-01-18T13:21:29Z</time>
      </trkpt>
      <trkpt lat="44.4947" lon="2.46203">
        <ele>384.6647949</ele>
        <time>2014-01-18T13:21:35Z</time>
      </trkpt>
      <trkpt lat="44.49468" lon="2.46181">
        <ele>381.7806396</ele>
        <time>2014-01-18T13:21:41Z</time>
      </trkpt>
      <trkpt lat="44.49466" lon="2.46164">
        <ele>380.3387451</ele>
        <time>2014-01-18T13:21:45Z</time>
      </trkpt>
      <trkpt lat="44.49463" lon="2.46138">
        <ele>377.9354248</ele>
        <time>2014-01-18T13:21:51Z</time>
      </trkpt>
      <trkpt lat="44.49461" lon="2.46116">
        <ele>376.0128174</ele>
        <time>2014-01-18T13:21:56Z</time>
      </trkpt>
      <trkpt lat="44.4946" lon="2.46088">
        <ele>374.5708008</ele>
        <time>2014-01-18T13:22:02Z</time>
      </trkpt>
      <trkpt lat="44.49457" lon="2.46058">
        <ele>372.6481934</ele>
        <time>2014-01-18T13:22:08Z</time>
      </trkpt>
      <trkpt lat="44.49454" lon="2.46036">
        <ele>370.244873</ele>
        <time>2014-01-18T13:22:13Z</time>
      </trkpt>
      <trkpt lat="44.49451" lon="2.46015">
        <ele>367.3609619</ele>
        <time>2014-01-18T13:22:18Z</time>
      </trkpt>
      <trkpt lat="44.4945" lon="2.4601">
        <ele>367.3609619</ele>
        <time>2014-01-18T13:22:19Z</time>
      </trkpt>
      <trkpt lat="44.49444" lon="2.45998">
        <ele>365.4383545</ele>
        <time>2014-01-18T13:22:24Z</time>
      </trkpt>
      <trkpt lat="44.49442" lon="2.45993">
        <ele>365.9189453</ele>
        <time>2014-01-18T13:22:26Z</time>
      </trkpt>
      <trkpt lat="44.49435" lon="2.4598">
        <ele>364.9576416</ele>
        <time>2014-01-18T13:22:31Z</time>
      </trkpt>
      <trkpt lat="44.49425" lon="2.45956">
        <ele>362.5543213</ele>
        <time>2014-01-18T13:22:38Z</time>
      </trkpt>
      <trkpt lat="44.4942" lon="2.45953">
        <ele>360.6317139</ele>
        <time>2014-01-18T13:22:40Z</time>
      </trkpt>
      <trkpt lat="44.49406" lon="2.45958">
        <ele>358.2283936</ele>
        <time>2014-01-18T13:22:45Z</time>
      </trkpt>
      <trkpt lat="44.49402" lon="2.45962">
        <ele>357.2670898</ele>
        <time>2014-01-18T13:22:47Z</time>
      </trkpt>
      <trkpt lat="44.49389" lon="2.45977">
        <ele>355.3444824</ele>
        <time>2014-01-18T13:22:52Z</time>
      </trkpt>
      <trkpt lat="44.49378" lon="2.45987">
        <ele>353.9025879</ele>
        <time>2014-01-18T13:22:56Z</time>
      </trkpt>
      <trkpt lat="44.49364" lon="2.45999">
        <ele>351.4991455</ele>
        <time>2014-01-18T13:23:01Z</time>
      </trkpt>
      <trkpt lat="44.49355" lon="2.46012">
        <ele>349.0958252</ele>
        <time>2014-01-18T13:23:05Z</time>
      </trkpt>
      <trkpt lat="44.49346" lon="2.46027">
        <ele>347.1732178</ele>
        <time>2014-01-18T13:23:10Z</time>
      </trkpt>
      <trkpt lat="44.49344" lon="2.46029">
        <ele>346.2120361</ele>
        <time>2014-01-18T13:23:11Z</time>
      </trkpt>
      <trkpt lat="44.49342" lon="2.46033">
        <ele>344.7700195</ele>
        <time>2014-01-18T13:23:15Z</time>
      </trkpt>
      <trkpt lat="44.49338" lon="2.46045">
        <ele>342.84729</ele>
        <time>2014-01-18T13:23:20Z</time>
      </trkpt>
      <trkpt lat="44.49334" lon="2.46064">
        <ele>340.4440918</ele>
        <time>2014-01-18T13:23:25Z</time>
      </trkpt>
      <trkpt lat="44.49326" lon="2.46088">
        <ele>337.0794678</ele>
        <time>2014-01-18T13:23:31Z</time>
      </trkpt>
      <trkpt lat="44.49327" lon="2.46101">
        <ele>337.5600586</ele>
        <time>2014-01-18T13:23:35Z</time>
      </trkpt>
      <trkpt lat="44.49324" lon="2.46106">
        <ele>337.5600586</ele>
        <time>2014-01-18T13:23:38Z</time>
      </trkpt>
      <trkpt lat="44.49322" lon="2.46103">
        <ele>337.5600586</ele>
        <time>2014-01-18T13:23:39Z</time>
      </trkpt>
      <trkpt lat="44.49317" lon="2.46095">
        <ele>336.598877</ele>
        <time>2014-01-18T13:23:42Z</time>
      </trkpt>
      <trkpt lat="44.49305" lon="2.4609">
        <ele>333.7147217</ele>
        <time>2014-01-18T13:23:47Z</time>
      </trkpt>
      <trkpt lat="44.49294" lon="2.46095">
        <ele>330.8309326</ele>
        <time>2014-01-18T13:23:52Z</time>
      </trkpt>
      <trkpt lat="44.49288" lon="2.46092">
        <ele>327.9467773</ele>
        <time>2014-01-18T13:23:56Z</time>
      </trkpt>
      <trkpt lat="44.49285" lon="2.46086">
        <ele>326.9855957</ele>
        <time>2014-01-18T13:23:58Z</time>
      </trkpt>
      <trkpt lat="44.49278" lon="2.46067">
        <ele>323.1403809</ele>
        <time>2014-01-18T13:24:04Z</time>
      </trkpt>
      <trkpt lat="44.49277" lon="2.46056">
        <ele>319.7756348</ele>
        <time>2014-01-18T13:24:08Z</time>
      </trkpt>
      <trkpt lat="44.4927" lon="2.46043">
        <ele>315.4498291</ele>
        <time>2014-01-18T13:24:13Z</time>
      </trkpt>
      <trkpt lat="44.49267" lon="2.46023">
        <ele>310.6430664</ele>
        <time>2014-01-18T13:24:19Z</time>
      </trkpt>
      <trkpt lat="44.49268" lon="2.46008">
        <ele>306.3172607</ele>
        <time>2014-01-18T13:24:24Z</time>
      </trkpt>
      <trkpt lat="44.4926" lon="2.46002">
        <ele>302.9525146</ele>
        <time>2014-01-18T13:24:28Z</time>
      </trkpt>
      <trkpt lat="44.49258" lon="2.46002">
        <ele>302.4719238</ele>
        <time>2014-01-18T13:24:29Z</time>
      </trkpt>
      <trkpt lat="44.49252" lon="2.46004">
        <ele>301.991333</ele>
        <time>2014-01-18T13:24:32Z</time>
      </trkpt>
      <trkpt lat="44.49248" lon="2.46003">
        <ele>302.4719238</ele>
        <time>2014-01-18T13:24:36Z</time>
      </trkpt>
      <trkpt lat="44.49247" lon="2.45998">
        <ele>302.4719238</ele>
        <time>2014-01-18T13:24:38Z</time>
      </trkpt>
      <trkpt lat="44.49245" lon="2.45996">
        <ele>302.9525146</ele>
        <time>2014-01-18T13:24:40Z</time>
      </trkpt>
      <trkpt lat="44.49243" lon="2.45997">
        <ele>304.8752441</ele>
        <time>2014-01-18T13:24:47Z</time>
      </trkpt>
      <trkpt lat="44.49241" lon="2.45999">
        <ele>306.3172607</ele>
        <time>2014-01-18T13:24:55Z</time>
      </trkpt>
      <trkpt lat="44.4924" lon="2.46">
        <ele>306.3172607</ele>
        <time>2014-01-18T13:24:59Z</time>
      </trkpt>
      <trkpt lat="44.4924" lon="2.46">
        <ele>306.7978516</ele>
        <time>2014-01-18T13:25:04Z</time>
      </trkpt>
      <trkpt lat="44.4924" lon="2.46001">
        <ele>306.7978516</ele>
        <time>2014-01-18T13:25:11Z</time>
      </trkpt>
      <trkpt lat="44.4924" lon="2.46002">
        <ele>306.7978516</ele>
        <time>2014-01-18T13:25:20Z</time>
      </trkpt>
      <trkpt lat="44.4924" lon="2.46002">
        <ele>306.3172607</ele>
        <time>2014-01-18T13:25:26Z</time>
      </trkpt>
      <trkpt lat="44.4924" lon="2.46002">
        <ele>305.8366699</ele>
        <time>2014-01-18T13:25:37Z</time>
      </trkpt>
      <trkpt lat="44.49239" lon="2.46003">
        <ele>306.7978516</ele>
        <time>2014-01-18T13:25:45Z</time>
      </trkpt>
      <trkpt lat="44.49235" lon="2.46008">
        <ele>306.7978516</ele>
        <time>2014-01-18T13:25:49Z</time>
      </trkpt>
      <trkpt lat="44.49227" lon="2.46021">
        <ele>305.8366699</ele>
        <time>2014-01-18T13:25:53Z</time>
      </trkpt>
      <trkpt lat="44.49217" lon="2.46037">
        <ele>304.3946533</ele>
        <time>2014-01-18T13:25:57Z</time>
      </trkpt>
      <trkpt lat="44.49206" lon="2.46054">
        <ele>302.4719238</ele>
        <time>2014-01-18T13:26:02Z</time>
      </trkpt>
      <trkpt lat="44.49194" lon="2.46077">
        <ele>301.5106201</ele>
        <time>2014-01-18T13:26:08Z</time>
      </trkpt>
      <trkpt lat="44.49185" lon="2.46097">
        <ele>300.0687256</ele>
        <time>2014-01-18T13:26:13Z</time>
      </trkpt>
      <trkpt lat="44.49172" lon="2.46112">
        <ele>299.1072998</ele>
        <time>2014-01-18T13:26:18Z</time>
      </trkpt>
      <trkpt lat="44.49158" lon="2.46113">
        <ele>297.6654053</ele>
        <time>2014-01-18T13:26:22Z</time>
      </trkpt>
      <trkpt lat="44.49142" lon="2.46108">
        <ele>293.3393555</ele>
        <time>2014-01-18T13:26:27Z</time>
      </trkpt>
      <trkpt lat="44.49127" lon="2.46099">
        <ele>288.532959</ele>
        <time>2014-01-18T13:26:32Z</time>
      </trkpt>
      <trkpt lat="44.49109" lon="2.46087">
        <ele>284.6876221</ele>
        <time>2014-01-18T13:26:38Z</time>
      </trkpt>
      <trkpt lat="44.49093" lon="2.46077">
        <ele>281.8035889</ele>
        <time>2014-01-18T13:26:43Z</time>
      </trkpt>
      <trkpt lat="44.49078" lon="2.46065">
        <ele>280.3616943</ele>
        <time>2014-01-18T13:26:48Z</time>
      </trkpt>
      <trkpt lat="44.4907" lon="2.4605">
        <ele>279.8808594</ele>
        <time>2014-01-18T13:26:52Z</time>
      </trkpt>
      <trkpt lat="44.49066" lon="2.46032">
        <ele>279.8808594</ele>
        <time>2014-01-18T13:26:56Z</time>
      </trkpt>
      <trkpt lat="44.49063" lon="2.46017">
        <ele>282.7650146</ele>
        <time>2014-01-18T13:27:00Z</time>
      </trkpt>
      <trkpt lat="44.49058" lon="2.4601">
        <ele>284.6876221</ele>
        <time>2014-01-18T13:27:03Z</time>
      </trkpt>
      <trkpt lat="44.4905" lon="2.46007">
        <ele>287.0908203</ele>
        <time>2014-01-18T13:27:07Z</time>
      </trkpt>
      <trkpt lat="44.49035" lon="2.46009">
        <ele>290.4555664</ele>
        <time>2014-01-18T13:27:13Z</time>
      </trkpt>
      <trkpt lat="44.49017" lon="2.46011">
        <ele>294.3007813</ele>
        <time>2014-01-18T13:27:20Z</time>
      </trkpt>
      <trkpt lat="44.49001" lon="2.4601">
        <ele>296.7041016</ele>
        <time>2014-01-18T13:27:26Z</time>
      </trkpt>
      <trkpt lat="44.48986" lon="2.46012">
        <ele>300.5493164</ele>
        <time>2014-01-18T13:27:32Z</time>
      </trkpt>
      <trkpt lat="44.48972" lon="2.4601">
        <ele>301.5106201</ele>
        <time>2014-01-18T13:27:37Z</time>
      </trkpt>
      <trkpt lat="44.48961" lon="2.46001">
        <ele>301.0299072</ele>
        <time>2014-01-18T13:27:42Z</time>
      </trkpt>
      <trkpt lat="44.48948" lon="2.4599">
        <ele>303.4332275</ele>
        <time>2014-01-18T13:27:47Z</time>
      </trkpt>
      <trkpt lat="44.48939" lon="2.45976">
        <ele>304.8752441</ele>
        <time>2014-01-18T13:27:52Z</time>
      </trkpt>
      <trkpt lat="44.48929" lon="2.45957">
        <ele>305.355957</ele>
        <time>2014-01-18T13:27:58Z</time>
      </trkpt>
      <trkpt lat="44.4892" lon="2.45948">
        <ele>304.3946533</ele>
        <time>2014-01-18T13:28:02Z</time>
      </trkpt>
      <trkpt lat="44.48908" lon="2.4594">
        <ele>303.4332275</ele>
        <time>2014-01-18T13:28:07Z</time>
      </trkpt>
      <trkpt lat="44.48891" lon="2.45926">
        <ele>301.5106201</ele>
        <time>2014-01-18T13:28:14Z</time>
      </trkpt>
      <trkpt lat="44.48875" lon="2.45922">
        <ele>301.0299072</ele>
        <time>2014-01-18T13:28:20Z</time>
      </trkpt>
      <trkpt lat="44.48862" lon="2.45931">
        <ele>301.5106201</ele>
        <time>2014-01-18T13:28:25Z</time>
      </trkpt>
      <trkpt lat="44.48853" lon="2.45943">
        <ele>301.991333</ele>
        <time>2014-01-18T13:28:30Z</time>
      </trkpt>
      <trkpt lat="44.48843" lon="2.45961">
        <ele>303.4332275</ele>
        <time>2014-01-18T13:28:36Z</time>
      </trkpt>
      <trkpt lat="44.48831" lon="2.45986">
        <ele>305.8366699</ele>
        <time>2014-01-18T13:28:44Z</time>
      </trkpt>
      <trkpt lat="44.4882" lon="2.46007">
        <ele>307.2785645</ele>
        <time>2014-01-18T13:28:51Z</time>
      </trkpt>
      <trkpt lat="44.48818" lon="2.46014">
        <ele>307.7592773</ele>
        <time>2014-01-18T13:28:54Z</time>
      </trkpt>
      <trkpt lat="44.4882" lon="2.46019">
        <ele>309.2011719</ele>
        <time>2014-01-18T13:29:00Z</time>
      </trkpt>
      <trkpt lat="44.4882" lon="2.46021">
        <ele>309.2011719</ele>
        <time>2014-01-18T13:29:07Z</time>
      </trkpt>
      <trkpt lat="44.48823" lon="2.46023">
        <ele>309.2011719</ele>
        <time>2014-01-18T13:29:10Z</time>
      </trkpt>
      <trkpt lat="44.48833" lon="2.46037">
        <ele>308.2398682</ele>
        <time>2014-01-18T13:29:15Z</time>
      </trkpt>
      <trkpt lat="44.48839" lon="2.46053">
        <ele>306.3172607</ele>
        <time>2014-01-18T13:29:19Z</time>
      </trkpt>
      <trkpt lat="44.48842" lon="2.46061">
        <ele>305.355957</ele>
        <time>2014-01-18T13:29:21Z</time>
      </trkpt>
      <trkpt lat="44.48846" lon="2.46076">
        <ele>305.355957</ele>
        <time>2014-01-18T13:29:25Z</time>
      </trkpt>
      <trkpt lat="44.48854" lon="2.4609">
        <ele>305.8366699</ele>
        <time>2014-01-18T13:29:29Z</time>
      </trkpt>
      <trkpt lat="44.48863" lon="2.46103">
        <ele>306.3172607</ele>
        <time>2014-01-18T13:29:33Z</time>
      </trkpt>
      <trkpt lat="44.48869" lon="2.46108">
        <ele>305.8366699</ele>
        <time>2014-01-18T13:29:35Z</time>
      </trkpt>
      <trkpt lat="44.48877" lon="2.4613">
        <ele>306.7978516</ele>
        <time>2014-01-18T13:29:41Z</time>
      </trkpt>
      <trkpt lat="44.48879" lon="2.46141">
        <ele>306.7978516</ele>
        <time>2014-01-18T13:29:44Z</time>
      </trkpt>
      <trkpt lat="44.4888" lon="2.46169">
        <ele>307.7592773</ele>
        <time>2014-01-18T13:29:50Z</time>
      </trkpt>
      <trkpt lat="44.48879" lon="2.46193">
        <ele>307.7592773</ele>
        <time>2014-01-18T13:29:55Z</time>
      </trkpt>
      <trkpt lat="44.48878" lon="2.46215">
        <ele>308.720459</ele>
        <time>2014-01-18T13:30:00Z</time>
      </trkpt>
      <trkpt lat="44.48882" lon="2.46233">
        <ele>308.720459</ele>
        <time>2014-01-18T13:30:04Z</time>
      </trkpt>
      <trkpt lat="44.48892" lon="2.46253">
        <ele>307.7592773</ele>
        <time>2014-01-18T13:30:09Z</time>
      </trkpt>
      <trkpt lat="44.48899" lon="2.46261">
        <ele>306.3172607</ele>
        <time>2014-01-18T13:30:11Z</time>
      </trkpt>
      <trkpt lat="44.48905" lon="2.46277">
        <ele>305.8366699</ele>
        <time>2014-01-18T13:30:15Z</time>
      </trkpt>
      <trkpt lat="44.48906" lon="2.46282">
        <ele>305.8366699</ele>
        <time>2014-01-18T13:30:16Z</time>
      </trkpt>
      <trkpt lat="44.4891" lon="2.46304">
        <ele>305.355957</ele>
        <time>2014-01-18T13:30:21Z</time>
      </trkpt>
      <trkpt lat="44.48916" lon="2.46327">
        <ele>303.9139404</ele>
        <time>2014-01-18T13:30:26Z</time>
      </trkpt>
      <trkpt lat="44.48915" lon="2.46351">
        <ele>301.5106201</ele>
        <time>2014-01-18T13:30:31Z</time>
      </trkpt>
      <trkpt lat="44.48915" lon="2.46356">
        <ele>301.991333</ele>
        <time>2014-01-18T13:30:32Z</time>
      </trkpt>
      <trkpt lat="44.48917" lon="2.46383">
        <ele>303.4332275</ele>
        <time>2014-01-18T13:30:38Z</time>
      </trkpt>
      <trkpt lat="44.48917" lon="2.46411">
        <ele>303.4332275</ele>
        <time>2014-01-18T13:30:44Z</time>
      </trkpt>
      <trkpt lat="44.48917" lon="2.46433">
        <ele>304.3946533</ele>
        <time>2014-01-18T13:30:49Z</time>
      </trkpt>
      <trkpt lat="44.48916" lon="2.46451">
        <ele>304.8752441</ele>
        <time>2014-01-18T13:30:54Z</time>
      </trkpt>
      <trkpt lat="44.48916" lon="2.46474">
        <ele>302.9525146</ele>
        <time>2014-01-18T13:31:00Z</time>
      </trkpt>
      <trkpt lat="44.48918" lon="2.46491">
        <ele>302.4719238</ele>
        <time>2014-01-18T13:31:05Z</time>
      </trkpt>
      <trkpt lat="44.48919" lon="2.46506">
        <ele>302.4719238</ele>
        <time>2014-01-18T13:31:09Z</time>
      </trkpt>
      <trkpt lat="44.4892" lon="2.46523">
        <ele>301.0299072</ele>
        <time>2014-01-18T13:31:14Z</time>
      </trkpt>
      <trkpt lat="44.48922" lon="2.46536">
        <ele>300.5493164</ele>
        <time>2014-01-18T13:31:18Z</time>
      </trkpt>
      <trkpt lat="44.48922" lon="2.46544">
        <ele>300.5493164</ele>
        <time>2014-01-18T13:31:20Z</time>
      </trkpt>
      <trkpt lat="44.48921" lon="2.46567">
        <ele>301.0299072</ele>
        <time>2014-01-18T13:31:26Z</time>
      </trkpt>
      <trkpt lat="44.48921" lon="2.46571">
        <ele>301.0299072</ele>
        <time>2014-01-18T13:31:27Z</time>
      </trkpt>
      <trkpt lat="44.48917" lon="2.46596">
        <ele>304.3946533</ele>
        <time>2014-01-18T13:31:34Z</time>
      </trkpt>
      <trkpt lat="44.48918" lon="2.46612">
        <ele>304.8752441</ele>
        <time>2014-01-18T13:31:39Z</time>
      </trkpt>
      <trkpt lat="44.48919" lon="2.4662">
        <ele>305.8366699</ele>
        <time>2014-01-18T13:31:44Z</time>
      </trkpt>
      <trkpt lat="44.48918" lon="2.46627">
        <ele>306.7978516</ele>
        <time>2014-01-18T13:31:48Z</time>
      </trkpt>
      <trkpt lat="44.48917" lon="2.46644">
        <ele>308.720459</ele>
        <time>2014-01-18T13:31:53Z</time>
      </trkpt>
      <trkpt lat="44.48917" lon="2.46648">
        <ele>308.2398682</ele>
        <time>2014-01-18T13:31:54Z</time>
      </trkpt>
      <trkpt lat="44.48918" lon="2.46664">
        <ele>309.2011719</ele>
        <time>2014-01-18T13:31:59Z</time>
      </trkpt>
      <trkpt lat="44.4892" lon="2.46667">
        <ele>308.720459</ele>
        <time>2014-01-18T13:32:00Z</time>
      </trkpt>
      <trkpt lat="44.48927" lon="2.46682">
        <ele>309.6818848</ele>
        <time>2014-01-18T13:32:05Z</time>
      </trkpt>
      <trkpt lat="44.48934" lon="2.46695">
        <ele>308.720459</ele>
        <time>2014-01-18T13:32:09Z</time>
      </trkpt>
      <trkpt lat="44.4894" lon="2.46706">
        <ele>308.2398682</ele>
        <time>2014-01-18T13:32:13Z</time>
      </trkpt>
      <trkpt lat="44.4895" lon="2.46712">
        <ele>308.2398682</ele>
        <time>2014-01-18T13:32:18Z</time>
      </trkpt>
      <trkpt lat="44.48952" lon="2.46723">
        <ele>308.2398682</ele>
        <time>2014-01-18T13:32:22Z</time>
      </trkpt>
      <trkpt lat="44.48957" lon="2.46739">
        <ele>309.2011719</ele>
        <time>2014-01-18T13:32:27Z</time>
      </trkpt>
      <trkpt lat="44.48959" lon="2.46754">
        <ele>309.6818848</ele>
        <time>2014-01-18T13:32:31Z</time>
      </trkpt>
      <trkpt lat="44.48959" lon="2.46758">
        <ele>309.6818848</ele>
        <time>2014-01-18T13:32:32Z</time>
      </trkpt>
      <trkpt lat="44.48957" lon="2.4678">
        <ele>310.1624756</ele>
        <time>2014-01-18T13:32:38Z</time>
      </trkpt>
      <trkpt lat="44.48956" lon="2.46797">
        <ele>310.6430664</ele>
        <time>2014-01-18T13:32:43Z</time>
      </trkpt>
      <trkpt lat="44.48954" lon="2.46815">
        <ele>311.6044922</ele>
        <time>2014-01-18T13:32:48Z</time>
      </trkpt>
      <trkpt lat="44.48953" lon="2.46832">
        <ele>311.6044922</ele>
        <time>2014-01-18T13:32:53Z</time>
      </trkpt>
      <trkpt lat="44.48952" lon="2.46853">
        <ele>310.6430664</ele>
        <time>2014-01-18T13:33:00Z</time>
      </trkpt>
      <trkpt lat="44.48949" lon="2.46867">
        <ele>311.1237793</ele>
        <time>2014-01-18T13:33:04Z</time>
      </trkpt>
      <trkpt lat="44.48946" lon="2.46879">
        <ele>311.6044922</ele>
        <time>2014-01-18T13:33:08Z</time>
      </trkpt>
      <trkpt lat="44.48943" lon="2.46893">
        <ele>311.6044922</ele>
        <time>2014-01-18T13:33:12Z</time>
      </trkpt>
      <trkpt lat="44.48935" lon="2.46912">
        <ele>309.6818848</ele>
        <time>2014-01-18T13:33:18Z</time>
      </trkpt>
      <trkpt lat="44.48934" lon="2.46916">
        <ele>309.6818848</ele>
        <time>2014-01-18T13:33:19Z</time>
      </trkpt>
      <trkpt lat="44.48928" lon="2.46938">
        <ele>310.1624756</ele>
        <time>2014-01-18T13:33:24Z</time>
      </trkpt>
      <trkpt lat="44.48925" lon="2.46959">
        <ele>311.1237793</ele>
        <time>2014-01-18T13:33:29Z</time>
      </trkpt>
      <trkpt lat="44.48919" lon="2.46982">
        <ele>313.5272217</ele>
        <time>2014-01-18T13:33:35Z</time>
      </trkpt>
      <trkpt lat="44.48919" lon="2.46987">
        <ele>313.5272217</ele>
        <time>2014-01-18T13:33:37Z</time>
      </trkpt>
      <trkpt lat="44.48916" lon="2.46994">
        <ele>314.4884033</ele>
        <time>2014-01-18T13:33:43Z</time>
      </trkpt>
      <trkpt lat="44.48915" lon="2.47002">
        <ele>323.6209717</ele>
        <time>2014-01-18T13:34:03Z</time>
      </trkpt>
      <trkpt lat="44.48915" lon="2.47004">
        <ele>323.6209717</ele>
        <time>2014-01-18T13:34:18Z</time>
      </trkpt>
      <trkpt lat="44.48916" lon="2.47004">
        <ele>319.7756348</ele>
        <time>2014-01-18T13:34:24Z</time>
      </trkpt>
      <trkpt lat="44.48912" lon="2.46998">
        <ele>318.8143311</ele>
        <time>2014-01-18T13:34:31Z</time>
      </trkpt>
      <trkpt lat="44.48915" lon="2.46998">
        <ele>313.5272217</ele>
        <time>2014-01-18T13:34:43Z</time>
      </trkpt>
      <trkpt lat="44.48915" lon="2.46999">
        <ele>317.3724365</ele>
        <time>2014-01-18T13:34:51Z</time>
      </trkpt>
      <trkpt lat="44.48914" lon="2.46999">
        <ele>319.7756348</ele>
        <time>2014-01-18T13:34:56Z</time>
      </trkpt>
      <trkpt lat="44.48915" lon="2.47">
        <ele>319.7756348</ele>
        <time>2014-01-18T13:35:01Z</time>
      </trkpt>
      <trkpt lat="44.48915" lon="2.46997">
        <ele>317.8530273</ele>
        <time>2014-01-18T13:35:07Z</time>
      </trkpt>
      <trkpt lat="44.48917" lon="2.46992">
        <ele>315.4498291</ele>
        <time>2014-01-18T13:35:45Z</time>
      </trkpt>
      <trkpt lat="44.48915" lon="2.46996">
        <ele>323.6209717</ele>
        <time>2014-01-18T13:36:16Z</time>
      </trkpt>
      <trkpt lat="44.48914" lon="2.46996">
        <ele>321.6983643</ele>
        <time>2014-01-18T13:36:26Z</time>
      </trkpt>
      <trkpt lat="44.48912" lon="2.46997">
        <ele>316.8917236</ele>
        <time>2014-01-18T13:36:51Z</time>
      </trkpt>
      <trkpt lat="44.48911" lon="2.47">
        <ele>315.4498291</ele>
        <time>2014-01-18T13:37:04Z</time>
      </trkpt>
      <trkpt lat="44.48909" lon="2.47005">
        <ele>320.7370605</ele>
        <time>2014-01-18T13:37:42Z</time>
      </trkpt>
      <trkpt lat="44.48907" lon="2.47006">
        <ele>321.2177734</ele>
        <time>2014-01-18T13:37:47Z</time>
      </trkpt>
      <trkpt lat="44.48905" lon="2.47008">
        <ele>320.2563477</ele>
        <time>2014-01-18T13:37:51Z</time>
      </trkpt>
      <trkpt lat="44.48903" lon="2.4701">
        <ele>319.7756348</ele>
        <time>2014-01-18T13:37:55Z</time>
      </trkpt>
      <trkpt lat="44.489" lon="2.47012">
        <ele>323.6209717</ele>
        <time>2014-01-18T13:38:00Z</time>
      </trkpt>
      <trkpt lat="44.48898" lon="2.47016">
        <ele>321.2177734</ele>
        <time>2014-01-18T13:38:05Z</time>
      </trkpt>
      <trkpt lat="44.48898" lon="2.47024">
        <ele>323.6209717</ele>
        <time>2014-01-18T13:38:11Z</time>
      </trkpt>
      <trkpt lat="44.48897" lon="2.4703">
        <ele>326.0241699</ele>
        <time>2014-01-18T13:38:15Z</time>
      </trkpt>
      <trkpt lat="44.48895" lon="2.47041">
        <ele>332.75354</ele>
        <time>2014-01-18T13:38:21Z</time>
      </trkpt>
      <trkpt lat="44.48893" lon="2.47048">
        <ele>332.2728271</ele>
        <time>2014-01-18T13:38:26Z</time>
      </trkpt>
      <trkpt lat="44.48891" lon="2.47054">
        <ele>331.3115234</ele>
        <time>2014-01-18T13:38:30Z</time>
      </trkpt>
      <trkpt lat="44.48886" lon="2.47063">
        <ele>334.1954346</ele>
        <time>2014-01-18T13:38:39Z</time>
      </trkpt>
      <trkpt lat="44.48883" lon="2.4707">
        <ele>335.1567383</ele>
        <time>2014-01-18T13:38:44Z</time>
      </trkpt>
      <trkpt lat="44.48879" lon="2.47074">
        <ele>334.1954346</ele>
        <time>2014-01-18T13:38:50Z</time>
      </trkpt>
      <trkpt lat="44.48874" lon="2.47079">
        <ele>338.0407715</ele>
        <time>2014-01-18T13:38:55Z</time>
      </trkpt>
      <trkpt lat="44.48868" lon="2.47085">
        <ele>334.1954346</ele>
        <time>2014-01-18T13:39:01Z</time>
      </trkpt>
      <trkpt lat="44.48861" lon="2.4709">
        <ele>335.1567383</ele>
        <time>2014-01-18T13:39:09Z</time>
      </trkpt>
      <trkpt lat="44.48858" lon="2.47092">
        <ele>333.7147217</ele>
        <time>2014-01-18T13:39:14Z</time>
      </trkpt>
      <trkpt lat="44.48854" lon="2.47099">
        <ele>334.6761475</ele>
        <time>2014-01-18T13:39:22Z</time>
      </trkpt>
      <trkpt lat="44.48849" lon="2.4711">
        <ele>338.5214844</ele>
        <time>2014-01-18T13:39:29Z</time>
      </trkpt>
      <trkpt lat="44.48845" lon="2.47115">
        <ele>341.4052734</ele>
        <time>2014-01-18T13:39:34Z</time>
      </trkpt>
      <trkpt lat="44.4884" lon="2.47122">
        <ele>344.7700195</ele>
        <time>2014-01-18T13:39:41Z</time>
      </trkpt>
      <trkpt lat="44.48835" lon="2.47126">
        <ele>344.2894287</ele>
        <time>2014-01-18T13:39:48Z</time>
      </trkpt>
      <trkpt lat="44.48831" lon="2.47129">
        <ele>347.1732178</ele>
        <time>2014-01-18T13:39:52Z</time>
      </trkpt>
      <trkpt lat="44.48826" lon="2.4713">
        <ele>348.1346436</ele>
        <time>2014-01-18T13:39:59Z</time>
      </trkpt>
      <trkpt lat="44.48821" lon="2.47135">
        <ele>351.0184326</ele>
        <time>2014-01-18T13:40:05Z</time>
      </trkpt>
      <trkpt lat="44.48816" lon="2.47134">
        <ele>351.4991455</ele>
        <time>2014-01-18T13:40:10Z</time>
      </trkpt>
      <trkpt lat="44.48808" lon="2.47132">
        <ele>351.0184326</ele>
        <time>2014-01-18T13:40:20Z</time>
      </trkpt>
      <trkpt lat="44.48799" lon="2.47134">
        <ele>353.9025879</ele>
        <time>2014-01-18T13:40:27Z</time>
      </trkpt>
      <trkpt lat="44.4879" lon="2.47135">
        <ele>360.151123</ele>
        <time>2014-01-18T13:40:35Z</time>
      </trkpt>
      <trkpt lat="44.48784" lon="2.47135">
        <ele>360.6317139</ele>
        <time>2014-01-18T13:40:40Z</time>
      </trkpt>
      <trkpt lat="44.48774" lon="2.47134">
        <ele>362.0737305</ele>
        <time>2014-01-18T13:40:48Z</time>
      </trkpt>
      <trkpt lat="44.4877" lon="2.47135">
        <ele>361.1124268</ele>
        <time>2014-01-18T13:40:52Z</time>
      </trkpt>
      <trkpt lat="44.48766" lon="2.47137">
        <ele>361.1124268</ele>
        <time>2014-01-18T13:40:57Z</time>
      </trkpt>
      <trkpt lat="44.48761" lon="2.47138">
        <ele>362.5543213</ele>
        <time>2014-01-18T13:41:01Z</time>
      </trkpt>
      <trkpt lat="44.48759" lon="2.47139">
        <ele>361.5931396</ele>
        <time>2014-01-18T13:41:03Z</time>
      </trkpt>
      <trkpt lat="44.48757" lon="2.47142">
        <ele>363.0350342</ele>
        <time>2014-01-18T13:41:06Z</time>
      </trkpt>
      <trkpt lat="44.48755" lon="2.47143">
        <ele>363.9963379</ele>
        <time>2014-01-18T13:41:08Z</time>
      </trkpt>
      <trkpt lat="44.48749" lon="2.47146">
        <ele>367.8415527</ele>
        <time>2014-01-18T13:41:12Z</time>
      </trkpt>
      <trkpt lat="44.48745" lon="2.47147">
        <ele>368.3222656</ele>
        <time>2014-01-18T13:41:16Z</time>
      </trkpt>
      <trkpt lat="44.48741" lon="2.47152">
        <ele>368.8029785</ele>
        <time>2014-01-18T13:41:20Z</time>
      </trkpt>
      <trkpt lat="44.48739" lon="2.47158">
        <ele>369.7642822</ele>
        <time>2014-01-18T13:41:25Z</time>
      </trkpt>
      <trkpt lat="44.48731" lon="2.47167">
        <ele>370.244873</ele>
        <time>2014-01-18T13:41:33Z</time>
      </trkpt>
      <trkpt lat="44.48725" lon="2.47176">
        <ele>374.5708008</ele>
        <time>2014-01-18T13:41:40Z</time>
      </trkpt>
      <trkpt lat="44.4872" lon="2.47181">
        <ele>375.0515137</ele>
        <time>2014-01-18T13:41:46Z</time>
      </trkpt>
      <trkpt lat="44.48718" lon="2.47185">
        <ele>377.454834</ele>
        <time>2014-01-18T13:41:50Z</time>
      </trkpt>
      <trkpt lat="44.48711" lon="2.47194">
        <ele>378.8968506</ele>
        <time>2014-01-18T13:41:58Z</time>
      </trkpt>
      <trkpt lat="44.48711" lon="2.47196">
        <ele>378.8968506</ele>
        <time>2014-01-18T13:41:59Z</time>
      </trkpt>
      <trkpt lat="44.48707" lon="2.47203">
        <ele>380.819458</ele>
        <time>2014-01-18T13:42:03Z</time>
      </trkpt>
      <trkpt lat="44.48705" lon="2.47208">
        <ele>381.7806396</ele>
        <time>2014-01-18T13:42:05Z</time>
      </trkpt>
      <trkpt lat="44.48702" lon="2.47221">
        <ele>384.184082</ele>
        <time>2014-01-18T13:42:12Z</time>
      </trkpt>
      <trkpt lat="44.48701" lon="2.47229">
        <ele>383.7032471</ele>
        <time>2014-01-18T13:42:17Z</time>
      </trkpt>
      <trkpt lat="44.48701" lon="2.47231">
        <ele>383.7032471</ele>
        <time>2014-01-18T13:42:18Z</time>
      </trkpt>
      <trkpt lat="44.48702" lon="2.47239">
        <ele>383.7032471</ele>
        <time>2014-01-18T13:42:21Z</time>
      </trkpt>
      <trkpt lat="44.48705" lon="2.47254">
        <ele>383.2226563</ele>
        <time>2014-01-18T13:42:26Z</time>
      </trkpt>
      <trkpt lat="44.48706" lon="2.47256">
        <ele>382.7420654</ele>
        <time>2014-01-18T13:42:27Z</time>
      </trkpt>
      <trkpt lat="44.48711" lon="2.47266">
        <ele>381.7806396</ele>
        <time>2014-01-18T13:42:32Z</time>
      </trkpt>
      <trkpt lat="44.48719" lon="2.47272">
        <ele>381.7806396</ele>
        <time>2014-01-18T13:42:37Z</time>
      </trkpt>
      <trkpt lat="44.48727" lon="2.47277">
        <ele>381.3000488</ele>
        <time>2014-01-18T13:42:40Z</time>
      </trkpt>
      <trkpt lat="44.4874" lon="2.47293">
        <ele>379.3774414</ele>
        <time>2014-01-18T13:42:47Z</time>
      </trkpt>
      <trkpt lat="44.48745" lon="2.47307">
        <ele>378.4161377</ele>
        <time>2014-01-18T13:42:51Z</time>
      </trkpt>
      <trkpt lat="44.48746" lon="2.47319">
        <ele>380.819458</ele>
        <time>2014-01-18T13:42:55Z</time>
      </trkpt>
      <trkpt lat="44.48742" lon="2.47328">
        <ele>381.3000488</ele>
        <time>2014-01-18T13:42:59Z</time>
      </trkpt>
      <trkpt lat="44.4874" lon="2.47332">
        <ele>381.7806396</ele>
        <time>2014-01-18T13:43:01Z</time>
      </trkpt>
      <trkpt lat="44.48732" lon="2.47345">
        <ele>388.9906006</ele>
        <time>2014-01-18T13:43:07Z</time>
      </trkpt>
      <trkpt lat="44.4873" lon="2.47348">
        <ele>391.3937988</ele>
        <time>2014-01-18T13:43:09Z</time>
      </trkpt>
      <trkpt lat="44.4872" lon="2.47367">
        <ele>396.6811523</ele>
        <time>2014-01-18T13:43:16Z</time>
      </trkpt>
      <trkpt lat="44.48713" lon="2.47382">
        <ele>399.5650635</ele>
        <time>2014-01-18T13:43:21Z</time>
      </trkpt>
      <trkpt lat="44.48702" lon="2.47401">
        <ele>404.8522949</ele>
        <time>2014-01-18T13:43:29Z</time>
      </trkpt>
      <trkpt lat="44.48697" lon="2.47412">
        <ele>404.3717041</ele>
        <time>2014-01-18T13:43:36Z</time>
      </trkpt>
      <trkpt lat="44.48694" lon="2.47423">
        <ele>406.7749023</ele>
        <time>2014-01-18T13:43:41Z</time>
      </trkpt>
      <trkpt lat="44.48693" lon="2.47431">
        <ele>404.8522949</ele>
        <time>2014-01-18T13:43:46Z</time>
      </trkpt>
      <trkpt lat="44.48694" lon="2.47445">
        <ele>407.2556152</ele>
        <time>2014-01-18T13:43:53Z</time>
      </trkpt>
      <trkpt lat="44.48694" lon="2.47459">
        <ele>409.1783447</ele>
        <time>2014-01-18T13:43:59Z</time>
      </trkpt>
      <trkpt lat="44.48695" lon="2.47462">
        <ele>409.6590576</ele>
        <time>2014-01-18T13:44:00Z</time>
      </trkpt>
      <trkpt lat="44.48699" lon="2.47478">
        <ele>408.217041</ele>
        <time>2014-01-18T13:44:06Z</time>
      </trkpt>
      <trkpt lat="44.48704" lon="2.47488">
        <ele>409.1783447</ele>
        <time>2014-01-18T13:44:10Z</time>
      </trkpt>
      <trkpt lat="44.48709" lon="2.47502">
        <ele>409.6590576</ele>
        <time>2014-01-18T13:44:15Z</time>
      </trkpt>
      <trkpt lat="44.48706" lon="2.47518">
        <ele>409.6590576</ele>
        <time>2014-01-18T13:44:21Z</time>
      </trkpt>
      <trkpt lat="44.48704" lon="2.47524">
        <ele>409.6590576</ele>
        <time>2014-01-18T13:44:23Z</time>
      </trkpt>
      <trkpt lat="44.48697" lon="2.47541">
        <ele>410.1396484</ele>
        <time>2014-01-18T13:44:29Z</time>
      </trkpt>
      <trkpt lat="44.48693" lon="2.47559">
        <ele>410.6202393</ele>
        <time>2014-01-18T13:44:35Z</time>
      </trkpt>
      <trkpt lat="44.48693" lon="2.47575">
        <ele>413.9848633</ele>
        <time>2014-01-18T13:44:40Z</time>
      </trkpt>
      <trkpt lat="44.48695" lon="2.47591">
        <ele>415.9074707</ele>
        <time>2014-01-18T13:44:45Z</time>
      </trkpt>
      <trkpt lat="44.48699" lon="2.47602">
        <ele>416.3881836</ele>
        <time>2014-01-18T13:44:49Z</time>
      </trkpt>
      <trkpt lat="44.48706" lon="2.47617">
        <ele>416.8688965</ele>
        <time>2014-01-18T13:44:56Z</time>
      </trkpt>
      <trkpt lat="44.48711" lon="2.47631">
        <ele>418.310791</ele>
        <time>2014-01-18T13:45:02Z</time>
      </trkpt>
      <trkpt lat="44.48716" lon="2.47642">
        <ele>419.7528076</ele>
        <time>2014-01-18T13:45:06Z</time>
      </trkpt>
      <trkpt lat="44.48725" lon="2.47657">
        <ele>420.7141113</ele>
        <time>2014-01-18T13:45:12Z</time>
      </trkpt>
      <trkpt lat="44.48729" lon="2.4767">
        <ele>421.1948242</ele>
        <time>2014-01-18T13:45:17Z</time>
      </trkpt>
      <trkpt lat="44.4873" lon="2.47678">
        <ele>423.5980225</ele>
        <time>2014-01-18T13:45:21Z</time>
      </trkpt>
      <trkpt lat="44.48726" lon="2.47687">
        <ele>424.5594482</ele>
        <time>2014-01-18T13:45:27Z</time>
      </trkpt>
      <trkpt lat="44.48725" lon="2.47691">
        <ele>425.520752</ele>
        <time>2014-01-18T13:45:30Z</time>
      </trkpt>
      <trkpt lat="44.48721" lon="2.47699">
        <ele>427.9239502</ele>
        <time>2014-01-18T13:45:36Z</time>
      </trkpt>
      <trkpt lat="44.48716" lon="2.47704">
        <ele>428.4046631</ele>
        <time>2014-01-18T13:45:43Z</time>
      </trkpt>
      <trkpt lat="44.48711" lon="2.47712">
        <ele>431.769165</ele>
        <time>2014-01-18T13:45:49Z</time>
      </trkpt>
      <trkpt lat="44.4871" lon="2.47715">
        <ele>432.25</ele>
        <time>2014-01-18T13:45:51Z</time>
      </trkpt>
      <trkpt lat="44.48706" lon="2.47719">
        <ele>434.6533203</ele>
        <time>2014-01-18T13:45:56Z</time>
      </trkpt>
      <trkpt lat="44.487" lon="2.47715">
        <ele>440.4212646</ele>
        <time>2014-01-18T13:46:02Z</time>
      </trkpt>
      <trkpt lat="44.48699" lon="2.47714">
        <ele>440.9018555</ele>
        <time>2014-01-18T13:46:03Z</time>
      </trkpt>
      <trkpt lat="44.48699" lon="2.47707">
        <ele>439.4597168</ele>
        <time>2014-01-18T13:46:07Z</time>
      </trkpt>
      <trkpt lat="44.48696" lon="2.47697">
        <ele>440.4212646</ele>
        <time>2014-01-18T13:46:13Z</time>
      </trkpt>
      <trkpt lat="44.48691" lon="2.47689">
        <ele>447.1502686</ele>
        <time>2014-01-18T13:46:19Z</time>
      </trkpt>
      <trkpt lat="44.48688" lon="2.47688">
        <ele>448.5924072</ele>
        <time>2014-01-18T13:46:23Z</time>
      </trkpt>
      <trkpt lat="44.48683" lon="2.4769">
        <ele>445.2276611</ele>
        <time>2014-01-18T13:46:30Z</time>
      </trkpt>
      <trkpt lat="44.48679" lon="2.47687">
        <ele>445.708374</ele>
        <time>2014-01-18T13:46:34Z</time>
      </trkpt>
      <trkpt lat="44.48673" lon="2.47681">
        <ele>449.5537109</ele>
        <time>2014-01-18T13:46:41Z</time>
      </trkpt>
      <trkpt lat="44.4867" lon="2.47687">
        <ele>451.9570313</ele>
        <time>2014-01-18T13:46:48Z</time>
      </trkpt>
      <trkpt lat="44.48669" lon="2.47692">
        <ele>451.9570313</ele>
        <time>2014-01-18T13:46:51Z</time>
      </trkpt>
      <trkpt lat="44.48663" lon="2.47688">
        <ele>452.4376221</ele>
        <time>2014-01-18T13:46:57Z</time>
      </trkpt>
      <trkpt lat="44.48663" lon="2.47687">
        <ele>452.4376221</ele>
        <time>2014-01-18T13:46:58Z</time>
      </trkpt>
      <trkpt lat="44.48657" lon="2.4768">
        <ele>453.8796387</ele>
        <time>2014-01-18T13:47:04Z</time>
      </trkpt>
      <trkpt lat="44.48653" lon="2.47675">
        <ele>454.8408203</ele>
        <time>2014-01-18T13:47:08Z</time>
      </trkpt>
      <trkpt lat="44.48645" lon="2.47663">
        <ele>454.8408203</ele>
        <time>2014-01-18T13:47:16Z</time>
      </trkpt>
      <trkpt lat="44.48639" lon="2.47652">
        <ele>455.8022461</ele>
        <time>2014-01-18T13:47:23Z</time>
      </trkpt>
      <trkpt lat="44.48638" lon="2.4765">
        <ele>456.282959</ele>
        <time>2014-01-18T13:47:24Z</time>
      </trkpt>
      <trkpt lat="44.48635" lon="2.47645">
        <ele>459.1668701</ele>
        <time>2014-01-18T13:47:27Z</time>
      </trkpt>
      <trkpt lat="44.48631" lon="2.47637">
        <ele>462.0507813</ele>
        <time>2014-01-18T13:47:33Z</time>
      </trkpt>
      <trkpt lat="44.4863" lon="2.47636">
        <ele>461.5701904</ele>
        <time>2014-01-18T13:47:37Z</time>
      </trkpt>
      <trkpt lat="44.4863" lon="2.47633">
        <ele>460.1281738</ele>
        <time>2014-01-18T13:47:43Z</time>
      </trkpt>
      <trkpt lat="44.4863" lon="2.47633">
        <ele>457.7249756</ele>
        <time>2014-01-18T13:47:55Z</time>
      </trkpt>
      <trkpt lat="44.48629" lon="2.47634">
        <ele>456.282959</ele>
        <time>2014-01-18T13:48:04Z</time>
      </trkpt>
      <trkpt lat="44.48629" lon="2.47635">
        <ele>455.8022461</ele>
        <time>2014-01-18T13:48:12Z</time>
      </trkpt>
      <trkpt lat="44.4863" lon="2.47634">
        <ele>452.4376221</ele>
        <time>2014-01-18T13:48:21Z</time>
      </trkpt>
      <trkpt lat="44.48631" lon="2.47634">
        <ele>450.9956055</ele>
        <time>2014-01-18T13:48:35Z</time>
      </trkpt>
      <trkpt lat="44.48637" lon="2.47633">
        <ele>455.3215332</ele>
        <time>2014-01-18T13:49:06Z</time>
      </trkpt>
      <trkpt lat="44.48635" lon="2.47633">
        <ele>455.8022461</ele>
        <time>2014-01-18T13:49:19Z</time>
      </trkpt>
      <trkpt lat="44.48631" lon="2.47632">
        <ele>459.1668701</ele>
        <time>2014-01-18T13:50:09Z</time>
      </trkpt>
      <trkpt lat="44.4863" lon="2.47631">
        <ele>461.0894775</ele>
        <time>2014-01-18T13:50:20Z</time>
      </trkpt>
      <trkpt lat="44.48631" lon="2.47631">
        <ele>461.0894775</ele>
        <time>2014-01-18T13:50:31Z</time>
      </trkpt>
      <trkpt lat="44.48631" lon="2.47631">
        <ele>465.4155273</ele>
        <time>2014-01-18T13:50:48Z</time>
      </trkpt>
      <trkpt lat="44.4863" lon="2.47629">
        <ele>469.2607422</ele>
        <time>2014-01-18T13:51:10Z</time>
      </trkpt>
      <trkpt lat="44.48629" lon="2.47631">
        <ele>469.2607422</ele>
        <time>2014-01-18T13:51:22Z</time>
      </trkpt>
      <trkpt lat="44.48629" lon="2.47633">
        <ele>469.741333</ele>
        <time>2014-01-18T13:51:38Z</time>
      </trkpt>
      <trkpt lat="44.48629" lon="2.47633">
        <ele>469.2607422</ele>
        <time>2014-01-18T13:51:43Z</time>
      </trkpt>
      <trkpt lat="44.48631" lon="2.47633">
        <ele>468.2993164</ele>
        <time>2014-01-18T13:51:49Z</time>
      </trkpt>
      <trkpt lat="44.4863" lon="2.47633">
        <ele>465.4155273</ele>
        <time>2014-01-18T13:51:59Z</time>
      </trkpt>
      <trkpt lat="44.48629" lon="2.47633">
        <ele>463.012085</ele>
        <time>2014-01-18T13:52:06Z</time>
      </trkpt>
      <trkpt lat="44.48629" lon="2.47633">
        <ele>461.0894775</ele>
        <time>2014-01-18T13:52:14Z</time>
      </trkpt>
      <trkpt lat="44.48629" lon="2.47634">
        <ele>460.6087646</ele>
        <time>2014-01-18T13:52:28Z</time>
      </trkpt>
      <trkpt lat="44.48628" lon="2.47636">
        <ele>459.647583</ele>
        <time>2014-01-18T13:52:36Z</time>
      </trkpt>
      <trkpt lat="44.48629" lon="2.47639">
        <ele>459.647583</ele>
        <time>2014-01-18T13:52:38Z</time>
      </trkpt>
      <trkpt lat="44.48633" lon="2.47665">
        <ele>458.2055664</ele>
        <time>2014-01-18T13:52:45Z</time>
      </trkpt>
      <trkpt lat="44.48638" lon="2.47684">
        <ele>459.1668701</ele>
        <time>2014-01-18T13:52:50Z</time>
      </trkpt>
      <trkpt lat="44.48641" lon="2.47702">
        <ele>461.5701904</ele>
        <time>2014-01-18T13:52:55Z</time>
      </trkpt>
      <trkpt lat="44.48646" lon="2.47718">
        <ele>466.8574219</ele>
        <time>2014-01-18T13:53:00Z</time>
      </trkpt>
      <trkpt lat="44.48649" lon="2.47729">
        <ele>469.2607422</ele>
        <time>2014-01-18T13:53:04Z</time>
      </trkpt>
      <trkpt lat="44.48645" lon="2.47732">
        <ele>470.7026367</ele>
        <time>2014-01-18T13:53:08Z</time>
      </trkpt>
      <trkpt lat="44.48644" lon="2.4773">
        <ele>471.1833496</ele>
        <time>2014-01-18T13:53:09Z</time>
      </trkpt>
      <trkpt lat="44.4864" lon="2.47718">
        <ele>469.741333</ele>
        <time>2014-01-18T13:53:14Z</time>
      </trkpt>
      <trkpt lat="44.48639" lon="2.47713">
        <ele>470.2219238</ele>
        <time>2014-01-18T13:53:16Z</time>
      </trkpt>
      <trkpt lat="44.4863" lon="2.47701">
        <ele>469.2607422</ele>
        <time>2014-01-18T13:53:24Z</time>
      </trkpt>
      <trkpt lat="44.48625" lon="2.47693">
        <ele>470.2219238</ele>
        <time>2014-01-18T13:53:30Z</time>
      </trkpt>
      <trkpt lat="44.48618" lon="2.47686">
        <ele>471.6639404</ele>
        <time>2014-01-18T13:53:37Z</time>
      </trkpt>
      <trkpt lat="44.48612" lon="2.47679">
        <ele>473.1060791</ele>
        <time>2014-01-18T13:53:43Z</time>
      </trkpt>
      <trkpt lat="44.48605" lon="2.4767">
        <ele>475.9898682</ele>
        <time>2014-01-18T13:53:50Z</time>
      </trkpt>
      <trkpt lat="44.48605" lon="2.47668">
        <ele>475.9898682</ele>
        <time>2014-01-18T13:53:51Z</time>
      </trkpt>
      <trkpt lat="44.48602" lon="2.47666">
        <ele>476.4705811</ele>
        <time>2014-01-18T13:53:55Z</time>
      </trkpt>
      <trkpt lat="44.48596" lon="2.47656">
        <ele>478.8739014</ele>
        <time>2014-01-18T13:54:01Z</time>
      </trkpt>
      <trkpt lat="44.48594" lon="2.4765">
        <ele>480.315918</ele>
        <time>2014-01-18T13:54:05Z</time>
      </trkpt>
      <trkpt lat="44.4859" lon="2.47645">
        <ele>479.3544922</ele>
        <time>2014-01-18T13:54:11Z</time>
      </trkpt>
      <trkpt lat="44.48586" lon="2.4764">
        <ele>480.7966309</ele>
        <time>2014-01-18T13:54:15Z</time>
      </trkpt>
      <trkpt lat="44.48578" lon="2.47628">
        <ele>483.1998291</ele>
        <time>2014-01-18T13:54:25Z</time>
      </trkpt>
      <trkpt lat="44.48572" lon="2.47621">
        <ele>487.0450439</ele>
        <time>2014-01-18T13:54:31Z</time>
      </trkpt>
      <trkpt lat="44.48564" lon="2.47618">
        <ele>488.9677734</ele>
        <time>2014-01-18T13:54:37Z</time>
      </trkpt>
      <trkpt lat="44.48556" lon="2.47618">
        <ele>489.9290771</ele>
        <time>2014-01-18T13:54:42Z</time>
      </trkpt>
      <trkpt lat="44.48552" lon="2.47619">
        <ele>490.40979</ele>
        <time>2014-01-18T13:54:45Z</time>
      </trkpt>
      <trkpt lat="44.48543" lon="2.4762">
        <ele>491.8516846</ele>
        <time>2014-01-18T13:54:50Z</time>
      </trkpt>
      <trkpt lat="44.4854" lon="2.47619">
        <ele>491.3709717</ele>
        <time>2014-01-18T13:54:52Z</time>
      </trkpt>
      <trkpt lat="44.48537" lon="2.47618">
        <ele>491.3709717</ele>
        <time>2014-01-18T13:54:57Z</time>
      </trkpt>
      <trkpt lat="44.48536" lon="2.47618">
        <ele>491.8516846</ele>
        <time>2014-01-18T13:55:03Z</time>
      </trkpt>
      <trkpt lat="44.48536" lon="2.47618">
        <ele>492.3323975</ele>
        <time>2014-01-18T13:55:09Z</time>
      </trkpt>
      <trkpt lat="44.48535" lon="2.47619">
        <ele>492.3323975</ele>
        <time>2014-01-18T13:55:15Z</time>
      </trkpt>
      <trkpt lat="44.48535" lon="2.47618">
        <ele>491.8516846</ele>
        <time>2014-01-18T13:55:22Z</time>
      </trkpt>
      <trkpt lat="44.48533" lon="2.47617">
        <ele>492.3323975</ele>
        <time>2014-01-18T13:55:28Z</time>
      </trkpt>
      <trkpt lat="44.48533" lon="2.47618">
        <ele>492.3323975</ele>
        <time>2014-01-18T13:55:36Z</time>
      </trkpt>
      <trkpt lat="44.48532" lon="2.47617">
        <ele>492.8129883</ele>
        <time>2014-01-18T13:55:43Z</time>
      </trkpt>
      <trkpt lat="44.48532" lon="2.47618">
        <ele>493.2935791</ele>
        <time>2014-01-18T13:55:48Z</time>
      </trkpt>
      <trkpt lat="44.48531" lon="2.47617">
        <ele>492.8129883</ele>
        <time>2014-01-18T13:55:57Z</time>
      </trkpt>
      <trkpt lat="44.48531" lon="2.47616">
        <ele>493.2935791</ele>
        <time>2014-01-18T13:56:04Z</time>
      </trkpt>
      <trkpt lat="44.48531" lon="2.47616">
        <ele>492.8129883</ele>
        <time>2014-01-18T13:56:22Z</time>
      </trkpt>
      <trkpt lat="44.48531" lon="2.47616">
        <ele>492.8129883</ele>
        <time>2014-01-18T13:56:30Z</time>
      </trkpt>
      <trkpt lat="44.48531" lon="2.47617">
        <ele>492.3323975</ele>
        <time>2014-01-18T13:56:55Z</time>
      </trkpt>
      <trkpt lat="44.48531" lon="2.47617">
        <ele>492.8129883</ele>
        <time>2014-01-18T13:57:01Z</time>
      </trkpt>
      <trkpt lat="44.48528" lon="2.47618">
        <ele>492.8129883</ele>
        <time>2014-01-18T13:57:15Z</time>
      </trkpt>
      <trkpt lat="44.48523" lon="2.47617">
        <ele>492.8129883</ele>
        <time>2014-01-18T13:57:19Z</time>
      </trkpt>
      <trkpt lat="44.48515" lon="2.47617">
        <ele>491.8516846</ele>
        <time>2014-01-18T13:57:23Z</time>
      </trkpt>
      <trkpt lat="44.48493" lon="2.47617">
        <ele>488.9677734</ele>
        <time>2014-01-18T13:57:31Z</time>
      </trkpt>
      <trkpt lat="44.48479" lon="2.47615">
        <ele>488.9677734</ele>
        <time>2014-01-18T13:57:36Z</time>
      </trkpt>
      <trkpt lat="44.48463" lon="2.47606">
        <ele>487.0450439</ele>
        <time>2014-01-18T13:57:41Z</time>
      </trkpt>
      <trkpt lat="44.48448" lon="2.47606">
        <ele>483.6804199</ele>
        <time>2014-01-18T13:57:45Z</time>
      </trkpt>
      <trkpt lat="44.48427" lon="2.47606">
        <ele>480.315918</ele>
        <time>2014-01-18T13:57:51Z</time>
      </trkpt>
      <trkpt lat="44.48405" lon="2.47606">
        <ele>476.9512939</ele>
        <time>2014-01-18T13:57:57Z</time>
      </trkpt>
      <trkpt lat="44.48383" lon="2.47608">
        <ele>474.0672607</ele>
        <time>2014-01-18T13:58:03Z</time>
      </trkpt>
      <trkpt lat="44.48364" lon="2.47599">
        <ele>470.7026367</ele>
        <time>2014-01-18T13:58:08Z</time>
      </trkpt>
      <trkpt lat="44.48352" lon="2.47589">
        <ele>469.2607422</ele>
        <time>2014-01-18T13:58:12Z</time>
      </trkpt>
      <trkpt lat="44.48347" lon="2.47577">
        <ele>468.7800293</ele>
        <time>2014-01-18T13:58:16Z</time>
      </trkpt>
      <trkpt lat="44.48347" lon="2.47575">
        <ele>468.7800293</ele>
        <time>2014-01-18T13:58:17Z</time>
      </trkpt>
      <trkpt lat="44.48348" lon="2.47563">
        <ele>467.3381348</ele>
        <time>2014-01-18T13:58:22Z</time>
      </trkpt>
      <trkpt lat="44.48345" lon="2.47545">
        <ele>463.4927979</ele>
        <time>2014-01-18T13:58:27Z</time>
      </trkpt>
      <trkpt lat="44.48339" lon="2.47526">
        <ele>461.0894775</ele>
        <time>2014-01-18T13:58:32Z</time>
      </trkpt>
      <trkpt lat="44.48333" lon="2.47511">
        <ele>458.6861572</ele>
        <time>2014-01-18T13:58:36Z</time>
      </trkpt>
      <trkpt lat="44.48321" lon="2.47494">
        <ele>454.8408203</ele>
        <time>2014-01-18T13:58:41Z</time>
      </trkpt>
      <trkpt lat="44.4831" lon="2.4748">
        <ele>450.9956055</ele>
        <time>2014-01-18T13:58:46Z</time>
      </trkpt>
      <trkpt lat="44.48293" lon="2.47472">
        <ele>446.6696777</ele>
        <time>2014-01-18T13:58:51Z</time>
      </trkpt>
      <trkpt lat="44.48276" lon="2.47467">
        <ele>442.8244629</ele>
        <time>2014-01-18T13:58:56Z</time>
      </trkpt>
      <trkpt lat="44.48258" lon="2.4746">
        <ele>439.9404297</ele>
        <time>2014-01-18T13:59:01Z</time>
      </trkpt>
      <trkpt lat="44.48245" lon="2.47454">
        <ele>437.5371094</ele>
        <time>2014-01-18T13:59:05Z</time>
      </trkpt>
      <trkpt lat="44.48229" lon="2.47451">
        <ele>437.5371094</ele>
        <time>2014-01-18T13:59:09Z</time>
      </trkpt>
      <trkpt lat="44.48213" lon="2.47447">
        <ele>436.0952148</ele>
        <time>2014-01-18T13:59:14Z</time>
      </trkpt>
      <trkpt lat="44.48209" lon="2.47446">
        <ele>436.0952148</ele>
        <time>2014-01-18T13:59:15Z</time>
      </trkpt>
      <trkpt lat="44.48191" lon="2.47441">
        <ele>433.6918945</ele>
        <time>2014-01-18T13:59:20Z</time>
      </trkpt>
      <trkpt lat="44.48179" lon="2.47432">
        <ele>431.769165</ele>
        <time>2014-01-18T13:59:24Z</time>
      </trkpt>
      <trkpt lat="44.48169" lon="2.47423">
        <ele>430.3272705</ele>
        <time>2014-01-18T13:59:28Z</time>
      </trkpt>
      <trkpt lat="44.48158" lon="2.47413">
        <ele>429.3659668</ele>
        <time>2014-01-18T13:59:32Z</time>
      </trkpt>
      <trkpt lat="44.48144" lon="2.47402">
        <ele>427.9239502</ele>
        <time>2014-01-18T13:59:37Z</time>
      </trkpt>
      <trkpt lat="44.48129" lon="2.47389">
        <ele>426.0013428</ele>
        <time>2014-01-18T13:59:42Z</time>
      </trkpt>
      <trkpt lat="44.48116" lon="2.47375">
        <ele>426.0013428</ele>
        <time>2014-01-18T13:59:47Z</time>
      </trkpt>
      <trkpt lat="44.48105" lon="2.47362">
        <ele>426.9627686</ele>
        <time>2014-01-18T13:59:51Z</time>
      </trkpt>
      <trkpt lat="44.48094" lon="2.47348">
        <ele>426.0013428</ele>
        <time>2014-01-18T13:59:55Z</time>
      </trkpt>
      <trkpt lat="44.48083" lon="2.47336">
        <ele>424.5594482</ele>
        <time>2014-01-18T13:59:59Z</time>
      </trkpt>
      <trkpt lat="44.48074" lon="2.4732">
        <ele>421.1948242</ele>
        <time>2014-01-18T14:00:04Z</time>
      </trkpt>
      <trkpt lat="44.48066" lon="2.47306">
        <ele>418.310791</ele>
        <time>2014-01-18T14:00:08Z</time>
      </trkpt>
      <trkpt lat="44.48058" lon="2.47284">
        <ele>416.3881836</ele>
        <time>2014-01-18T14:00:14Z</time>
      </trkpt>
      <trkpt lat="44.48053" lon="2.47269">
        <ele>415.4268799</ele>
        <time>2014-01-18T14:00:18Z</time>
      </trkpt>
      <trkpt lat="44.48044" lon="2.47247">
        <ele>413.0235596</ele>
        <time>2014-01-18T14:00:24Z</time>
      </trkpt>
      <trkpt lat="44.48037" lon="2.47241">
        <ele>410.6202393</ele>
        <time>2014-01-18T14:00:27Z</time>
      </trkpt>
      <trkpt lat="44.48025" lon="2.47242">
        <ele>406.7749023</ele>
        <time>2014-01-18T14:00:32Z</time>
      </trkpt>
      <trkpt lat="44.48022" lon="2.47244">
        <ele>408.217041</ele>
        <time>2014-01-18T14:00:35Z</time>
      </trkpt>
      <trkpt lat="44.4802" lon="2.47246">
        <ele>410.6202393</ele>
        <time>2014-01-18T14:00:42Z</time>
      </trkpt>
      <trkpt lat="44.48021" lon="2.4725">
        <ele>415.4268799</ele>
        <time>2014-01-18T14:01:05Z</time>
      </trkpt>
      <trkpt lat="44.4802" lon="2.47253">
        <ele>415.9074707</ele>
        <time>2014-01-18T14:01:21Z</time>
      </trkpt>
      <trkpt lat="44.4802" lon="2.47253">
        <ele>415.9074707</ele>
        <time>2014-01-18T14:01:33Z</time>
      </trkpt>
      <trkpt lat="44.4802" lon="2.47254">
        <ele>416.3881836</ele>
        <time>2014-01-18T14:01:39Z</time>
      </trkpt>
      <trkpt lat="44.4802" lon="2.47253">
        <ele>417.3496094</ele>
        <time>2014-01-18T14:01:50Z</time>
      </trkpt>
      <trkpt lat="44.4802" lon="2.47253">
        <ele>416.3881836</ele>
        <time>2014-01-18T14:01:59Z</time>
      </trkpt>
      <trkpt lat="44.48019" lon="2.47253">
        <ele>416.3881836</ele>
        <time>2014-01-18T14:02:05Z</time>
      </trkpt>
      <trkpt lat="44.48019" lon="2.47253">
        <ele>414.946167</ele>
        <time>2014-01-18T14:02:16Z</time>
      </trkpt>
      <trkpt lat="44.48019" lon="2.47254">
        <ele>413.5042725</ele>
        <time>2014-01-18T14:02:25Z</time>
      </trkpt>
      <trkpt lat="44.48017" lon="2.47254">
        <ele>412.5428467</ele>
        <time>2014-01-18T14:02:31Z</time>
      </trkpt>
      <trkpt lat="44.48003" lon="2.47262">
        <ele>410.1396484</ele>
        <time>2014-01-18T14:02:36Z</time>
      </trkpt>
      <trkpt lat="44.47985" lon="2.47271">
        <ele>407.7363281</ele>
        <time>2014-01-18T14:02:40Z</time>
      </trkpt>
      <trkpt lat="44.47974" lon="2.47275">
        <ele>406.2943115</ele>
        <time>2014-01-18T14:02:43Z</time>
      </trkpt>
      <trkpt lat="44.4796" lon="2.47282">
        <ele>404.3717041</ele>
        <time>2014-01-18T14:02:47Z</time>
      </trkpt>
      <trkpt lat="44.47948" lon="2.47282">
        <ele>401.9685059</ele>
        <time>2014-01-18T14:02:51Z</time>
      </trkpt>
      <trkpt lat="44.47932" lon="2.47269">
        <ele>398.1231689</ele>
        <time>2014-01-18T14:02:58Z</time>
      </trkpt>
      <trkpt lat="44.47918" lon="2.47265">
        <ele>392.8359375</ele>
        <time>2014-01-18T14:03:04Z</time>
      </trkpt>
      <trkpt lat="44.47916" lon="2.47265">
        <ele>391.8745117</ele>
        <time>2014-01-18T14:03:05Z</time>
      </trkpt>
      <trkpt lat="44.47911" lon="2.47265">
        <ele>389.9519043</ele>
        <time>2014-01-18T14:03:09Z</time>
      </trkpt>
      <trkpt lat="44.47915" lon="2.47251">
        <ele>388.0292969</ele>
        <time>2014-01-18T14:03:13Z</time>
      </trkpt>
      <trkpt lat="44.47917" lon="2.47246">
        <ele>387.0679932</ele>
        <time>2014-01-18T14:03:15Z</time>
      </trkpt>
      <trkpt lat="44.4792" lon="2.47239">
        <ele>386.1066895</ele>
        <time>2014-01-18T14:03:18Z</time>
      </trkpt>
      <trkpt lat="44.47914" lon="2.47236">
        <ele>384.184082</ele>
        <time>2014-01-18T14:03:22Z</time>
      </trkpt>
      <trkpt lat="44.47904" lon="2.47239">
        <ele>381.7806396</ele>
        <time>2014-01-18T14:03:26Z</time>
      </trkpt>
      <trkpt lat="44.47906" lon="2.47234">
        <ele>378.8968506</ele>
        <time>2014-01-18T14:03:28Z</time>
      </trkpt>
      <trkpt lat="44.47909" lon="2.47227">
        <ele>376.9742432</ele>
        <time>2014-01-18T14:03:31Z</time>
      </trkpt>
      <trkpt lat="44.47914" lon="2.47211">
        <ele>372.6481934</ele>
        <time>2014-01-18T14:03:36Z</time>
      </trkpt>
      <trkpt lat="44.47914" lon="2.47209">
        <ele>372.1674805</ele>
        <time>2014-01-18T14:03:37Z</time>
      </trkpt>
      <trkpt lat="44.4791" lon="2.47204">
        <ele>369.7642822</ele>
        <time>2014-01-18T14:03:41Z</time>
      </trkpt>
      <trkpt lat="44.47902" lon="2.47196">
        <ele>366.880249</ele>
        <time>2014-01-18T14:03:45Z</time>
      </trkpt>
      <trkpt lat="44.47899" lon="2.47185">
        <ele>364.4769287</ele>
        <time>2014-01-18T14:03:49Z</time>
      </trkpt>
      <trkpt lat="44.47902" lon="2.47173">
        <ele>363.9963379</ele>
        <time>2014-01-18T14:03:53Z</time>
      </trkpt>
      <trkpt lat="44.47902" lon="2.47161">
        <ele>362.5543213</ele>
        <time>2014-01-18T14:03:56Z</time>
      </trkpt>
      <trkpt lat="44.47901" lon="2.47153">
        <ele>362.5543213</ele>
        <time>2014-01-18T14:03:58Z</time>
      </trkpt>
      <trkpt lat="44.479" lon="2.47138">
        <ele>363.9963379</ele>
        <time>2014-01-18T14:04:02Z</time>
      </trkpt>
      <trkpt lat="44.47893" lon="2.47122">
        <ele>362.0737305</ele>
        <time>2014-01-18T14:04:06Z</time>
      </trkpt>
      <trkpt lat="44.47881" lon="2.47115">
        <ele>357.2670898</ele>
        <time>2014-01-18T14:04:10Z</time>
      </trkpt>
      <trkpt lat="44.47865" lon="2.47114">
        <ele>350.057251</ele>
        <time>2014-01-18T14:04:15Z</time>
      </trkpt>
      <trkpt lat="44.4786" lon="2.47113">
        <ele>348.1346436</ele>
        <time>2014-01-18T14:04:16Z</time>
      </trkpt>
      <trkpt lat="44.4784" lon="2.47111">
        <ele>340.9246826</ele>
        <time>2014-01-18T14:04:20Z</time>
      </trkpt>
      <trkpt lat="44.47825" lon="2.47115">
        <ele>339.482666</ele>
        <time>2014-01-18T14:04:23Z</time>
      </trkpt>
      <trkpt lat="44.4781" lon="2.47113">
        <ele>337.0794678</ele>
        <time>2014-01-18T14:04:26Z</time>
      </trkpt>
      <trkpt lat="44.47788" lon="2.47108">
        <ele>333.2341309</ele>
        <time>2014-01-18T14:04:31Z</time>
      </trkpt>
      <trkpt lat="44.47783" lon="2.47108">
        <ele>332.2728271</ele>
        <time>2014-01-18T14:04:32Z</time>
      </trkpt>
      <trkpt lat="44.47772" lon="2.47107">
        <ele>329.388916</ele>
        <time>2014-01-18T14:04:35Z</time>
      </trkpt>
      <trkpt lat="44.47759" lon="2.47106">
        <ele>326.9855957</ele>
        <time>2014-01-18T14:04:38Z</time>
      </trkpt>
      <trkpt lat="44.47743" lon="2.4711">
        <ele>322.659668</ele>
        <time>2014-01-18T14:04:43Z</time>
      </trkpt>
      <trkpt lat="44.47734" lon="2.47115">
        <ele>322.659668</ele>
        <time>2014-01-18T14:04:46Z</time>
      </trkpt>
      <trkpt lat="44.47728" lon="2.47134">
        <ele>321.6983643</ele>
        <time>2014-01-18T14:04:51Z</time>
      </trkpt>
      <trkpt lat="44.47728" lon="2.47137">
        <ele>321.6983643</ele>
        <time>2014-01-18T14:04:56Z</time>
      </trkpt>
      <trkpt lat="44.47728" lon="2.47137">
        <ele>321.6983643</ele>
        <time>2014-01-18T14:05:02Z</time>
      </trkpt>
      <trkpt lat="44.47728" lon="2.47137">
        <ele>323.1403809</ele>
        <time>2014-01-18T14:05:09Z</time>
      </trkpt>
      <trkpt lat="44.47726" lon="2.47137">
        <ele>323.6209717</ele>
        <time>2014-01-18T14:05:27Z</time>
      </trkpt>
      <trkpt lat="44.47725" lon="2.4714">
        <ele>324.5822754</ele>
        <time>2014-01-18T14:05:41Z</time>
      </trkpt>
      <trkpt lat="44.47724" lon="2.47142">
        <ele>328.4276123</ele>
        <time>2014-01-18T14:06:09Z</time>
      </trkpt>
      <trkpt lat="44.47723" lon="2.4714">
        <ele>328.9083252</ele>
        <time>2014-01-18T14:06:18Z</time>
      </trkpt>
      <trkpt lat="44.47723" lon="2.47137">
        <ele>330.3502197</ele>
        <time>2014-01-18T14:06:37Z</time>
      </trkpt>
      <trkpt lat="44.47724" lon="2.47138">
        <ele>330.3502197</ele>
        <time>2014-01-18T14:06:43Z</time>
      </trkpt>
      <trkpt lat="44.47722" lon="2.47139">
        <ele>332.2728271</ele>
        <time>2014-01-18T14:06:53Z</time>
      </trkpt>
      <trkpt lat="44.47723" lon="2.47138">
        <ele>330.8309326</ele>
        <time>2014-01-18T14:07:01Z</time>
      </trkpt>
      <trkpt lat="44.47719" lon="2.47137">
        <ele>328.9083252</ele>
        <time>2014-01-18T14:07:07Z</time>
      </trkpt>
      <trkpt lat="44.47714" lon="2.47137">
        <ele>327.9467773</ele>
        <time>2014-01-18T14:07:12Z</time>
      </trkpt>
      <trkpt lat="44.47703" lon="2.4714">
        <ele>322.1789551</ele>
        <time>2014-01-18T14:07:19Z</time>
      </trkpt>
      <trkpt lat="44.47695" lon="2.47141">
        <ele>320.7370605</ele>
        <time>2014-01-18T14:07:23Z</time>
      </trkpt>
      <trkpt lat="44.47685" lon="2.47141">
        <ele>317.3724365</ele>
        <time>2014-01-18T14:07:27Z</time>
      </trkpt>
      <trkpt lat="44.47663" lon="2.47137">
        <ele>311.1237793</ele>
        <time>2014-01-18T14:07:35Z</time>
      </trkpt>
      <trkpt lat="44.47647" lon="2.47134">
        <ele>308.2398682</ele>
        <time>2014-01-18T14:07:41Z</time>
      </trkpt>
      <trkpt lat="44.47642" lon="2.47132">
        <ele>308.2398682</ele>
        <time>2014-01-18T14:07:43Z</time>
      </trkpt>
      <trkpt lat="44.47631" lon="2.47115">
        <ele>305.8366699</ele>
        <time>2014-01-18T14:07:49Z</time>
      </trkpt>
      <trkpt lat="44.47623" lon="2.47099">
        <ele>303.9139404</ele>
        <time>2014-01-18T14:07:54Z</time>
      </trkpt>
      <trkpt lat="44.47614" lon="2.47088">
        <ele>302.4719238</ele>
        <time>2014-01-18T14:07:59Z</time>
      </trkpt>
      <trkpt lat="44.47602" lon="2.47076">
        <ele>301.0299072</ele>
        <time>2014-01-18T14:08:05Z</time>
      </trkpt>
      <trkpt lat="44.47588" lon="2.47063">
        <ele>298.1461182</ele>
        <time>2014-01-18T14:08:11Z</time>
      </trkpt>
      <trkpt lat="44.47573" lon="2.47051">
        <ele>294.7813721</ele>
        <time>2014-01-18T14:08:17Z</time>
      </trkpt>
      <trkpt lat="44.47564" lon="2.47043">
        <ele>292.8587646</ele>
        <time>2014-01-18T14:08:21Z</time>
      </trkpt>
      <trkpt lat="44.47559" lon="2.47032">
        <ele>291.8974609</ele>
        <time>2014-01-18T14:08:25Z</time>
      </trkpt>
      <trkpt lat="44.47553" lon="2.4701">
        <ele>291.8974609</ele>
        <time>2014-01-18T14:08:31Z</time>
      </trkpt>
      <trkpt lat="44.47547" lon="2.46992">
        <ele>291.8974609</ele>
        <time>2014-01-18T14:08:36Z</time>
      </trkpt>
      <trkpt lat="44.47544" lon="2.46978">
        <ele>292.3781738</ele>
        <time>2014-01-18T14:08:40Z</time>
      </trkpt>
      <trkpt lat="44.47542" lon="2.4697">
        <ele>292.3781738</ele>
        <time>2014-01-18T14:08:42Z</time>
      </trkpt>
      <trkpt lat="44.47538" lon="2.46952">
        <ele>293.8200684</ele>
        <time>2014-01-18T14:08:47Z</time>
      </trkpt>
      <trkpt lat="44.47534" lon="2.46934">
        <ele>294.3007813</ele>
        <time>2014-01-18T14:08:52Z</time>
      </trkpt>
      <trkpt lat="44.47528" lon="2.46908">
        <ele>294.7813721</ele>
        <time>2014-01-18T14:08:59Z</time>
      </trkpt>
      <trkpt lat="44.47524" lon="2.46891">
        <ele>295.2619629</ele>
        <time>2014-01-18T14:09:04Z</time>
      </trkpt>
      <trkpt lat="44.47519" lon="2.4687">
        <ele>295.7426758</ele>
        <time>2014-01-18T14:09:10Z</time>
      </trkpt>
      <trkpt lat="44.47514" lon="2.46852">
        <ele>295.2619629</ele>
        <time>2014-01-18T14:09:15Z</time>
      </trkpt>
      <trkpt lat="44.47511" lon="2.46838">
        <ele>294.3007813</ele>
        <time>2014-01-18T14:09:19Z</time>
      </trkpt>
      <trkpt lat="44.47508" lon="2.46828">
        <ele>294.7813721</ele>
        <time>2014-01-18T14:09:22Z</time>
      </trkpt>
      <trkpt lat="44.47504" lon="2.46811">
        <ele>294.3007813</ele>
        <time>2014-01-18T14:09:27Z</time>
      </trkpt>
      <trkpt lat="44.47498" lon="2.4679">
        <ele>293.3393555</ele>
        <time>2014-01-18T14:09:33Z</time>
      </trkpt>
      <trkpt lat="44.47491" lon="2.46768">
        <ele>292.3781738</ele>
        <time>2014-01-18T14:09:39Z</time>
      </trkpt>
      <trkpt lat="44.47486" lon="2.46753">
        <ele>291.416748</ele>
        <time>2014-01-18T14:09:43Z</time>
      </trkpt>
      <trkpt lat="44.47483" lon="2.46741">
        <ele>290.4555664</ele>
        <time>2014-01-18T14:09:46Z</time>
      </trkpt>
      <trkpt lat="44.47479" lon="2.46723">
        <ele>290.4555664</ele>
        <time>2014-01-18T14:09:51Z</time>
      </trkpt>
      <trkpt lat="44.47473" lon="2.467">
        <ele>293.3393555</ele>
        <time>2014-01-18T14:09:57Z</time>
      </trkpt>
      <trkpt lat="44.47466" lon="2.46682">
        <ele>291.416748</ele>
        <time>2014-01-18T14:10:02Z</time>
      </trkpt>
      <trkpt lat="44.47461" lon="2.46667">
        <ele>290.4555664</ele>
        <time>2014-01-18T14:10:06Z</time>
      </trkpt>
      <trkpt lat="44.47457" lon="2.46648">
        <ele>288.0522461</ele>
        <time>2014-01-18T14:10:11Z</time>
      </trkpt>
      <trkpt lat="44.47451" lon="2.46627">
        <ele>289.0135498</ele>
        <time>2014-01-18T14:10:16Z</time>
      </trkpt>
      <trkpt lat="44.47446" lon="2.46612">
        <ele>288.0522461</ele>
        <time>2014-01-18T14:10:20Z</time>
      </trkpt>
      <trkpt lat="44.47439" lon="2.46594">
        <ele>286.6102295</ele>
        <time>2014-01-18T14:10:25Z</time>
      </trkpt>
      <trkpt lat="44.4743" lon="2.46579">
        <ele>288.0522461</ele>
        <time>2014-01-18T14:10:30Z</time>
      </trkpt>
      <trkpt lat="44.47422" lon="2.46563">
        <ele>286.1295166</ele>
        <time>2014-01-18T14:10:35Z</time>
      </trkpt>
      <trkpt lat="44.47413" lon="2.46552">
        <ele>287.5714111</ele>
        <time>2014-01-18T14:10:39Z</time>
      </trkpt>
      <trkpt lat="44.47408" lon="2.46542">
        <ele>286.6102295</ele>
        <time>2014-01-18T14:10:43Z</time>
      </trkpt>
      <trkpt lat="44.47408" lon="2.4654">
        <ele>286.1295166</ele>
        <time>2014-01-18T14:10:44Z</time>
      </trkpt>
    </trkseg>
  </trk>
</gpx>